<?xml version='1.0' encoding='UTF-8'?><gpx version="1.1" creator="JPX - https://github.com/jenetics/jpx" xmlns="http://www.topografix.com/GPX/1/1"><trk><trkseg><trkpt lat="46.012421575036086" lon="11.288881412674"><ele>442.99999999999994</ele><time>2026-04-26T14:48:20.998Z</time></trkpt><trkpt lat="46.01236040221014" lon="11.288923033290834"><ele>443.0</ele><time>2026-04-26T14:48:22.998Z</time></trkpt><trkpt lat="46.0122930097094" lon="11.288968921168916"><ele>443.0</ele><time>2026-04-26T14:48:24.998Z</time></trkpt><trkpt lat="46.012275527427434" lon="11.289064378421887"><ele>443.0</ele><time>2026-04-26T14:48:27.998Z</time></trkpt><trkpt lat="46.012298445583454" lon="11.289159262262478"><ele>442.99999999999994</ele><time>2026-04-26T14:48:31.998Z</time></trkpt><trkpt lat="46.01223753087934" lon="11.289216396214249"><ele>443.0</ele><time>2026-04-26T14:48:33.998Z</time></trkpt><trkpt lat="46.01213734152496" lon="11.289277656417234"><ele>443.4</ele><time>2026-04-26T14:48:35.998Z</time></trkpt><trkpt lat="46.01201943670654" lon="11.289310905252274"><ele>443.79999999999995</ele><time>2026-04-26T14:48:37.998Z</time></trkpt><trkpt lat="46.0118918670299" lon="11.28932513799977"><ele>444.2</ele><time>2026-04-26T14:48:39.998Z</time></trkpt><trkpt lat="46.0118147885933" lon="11.289342163714402"><ele>444.6</ele><time>2026-04-26T14:48:40.998Z</time></trkpt><trkpt lat="46.01174903039835" lon="11.289352853032955"><ele>445.0</ele><time>2026-04-26T14:48:41.998Z</time></trkpt><trkpt lat="46.01167730483025" lon="11.289339515090438"><ele>445.14285714285717</ele><time>2026-04-26T14:48:42.998Z</time></trkpt><trkpt lat="46.01160882789066" lon="11.289354003381316"><ele>445.2857142857143</ele><time>2026-04-26T14:48:43.998Z</time></trkpt><trkpt lat="46.01154012916746" lon="11.289369246324442"><ele>445.42857142857144</ele><time>2026-04-26T14:48:44.998Z</time></trkpt><trkpt lat="46.011468773556125" lon="11.289385114854324"><ele>445.57142857142856</ele><time>2026-04-26T14:48:45.998Z</time></trkpt><trkpt lat="46.01139229543727" lon="11.289402122564603"><ele>445.71428571428567</ele><time>2026-04-26T14:48:46.998Z</time></trkpt><trkpt lat="46.01131609129833" lon="11.289419069398365"><ele>445.85714285714283</ele><time>2026-04-26T14:48:47.998Z</time></trkpt><trkpt lat="46.01123518181697" lon="11.289437062571942"><ele>446.0</ele><time>2026-04-26T14:48:48.998Z</time></trkpt><trkpt lat="46.01114505250063" lon="11.289457106125253"><ele>446.0</ele><time>2026-04-26T14:48:49.998Z</time></trkpt><trkpt lat="46.01104962497983" lon="11.289478327953054"><ele>446.0</ele><time>2026-04-26T14:48:50.998Z</time></trkpt><trkpt lat="46.0109516443548" lon="11.289500117550409"><ele>446.0</ele><time>2026-04-26T14:48:51.998Z</time></trkpt><trkpt lat="46.01085978704888" lon="11.289519716947071"><ele>446.0</ele><time>2026-04-26T14:48:52.998Z</time></trkpt><trkpt lat="46.010766749617176" lon="11.289539312947653"><ele>446.0</ele><time>2026-04-26T14:48:53.998Z</time></trkpt><trkpt lat="46.01067767188809" lon="11.289558074939654"><ele>445.99999999999994</ele><time>2026-04-26T14:48:54.998Z</time></trkpt><trkpt lat="46.0105987933382" lon="11.289576852056998"><ele>446.0</ele><time>2026-04-26T14:48:55.998Z</time></trkpt><trkpt lat="46.010536670090886" lon="11.289592036497778"><ele>446.0</ele><time>2026-04-26T14:48:56.998Z</time></trkpt><trkpt lat="46.010456425170986" lon="11.289625398326143"><ele>446.0</ele><time>2026-04-26T14:48:58.998Z</time></trkpt><trkpt lat="46.01036706452674" lon="11.28963624465644"><ele>445.99999999999994</ele><time>2026-04-26T14:49:02.998Z</time></trkpt><trkpt lat="46.010257837775264" lon="11.28969370630806"><ele>446.0</ele><time>2026-04-26T14:49:04.997Z</time></trkpt><trkpt lat="46.01018673000153" lon="11.28973282594569"><ele>445.8333333333333</ele><time>2026-04-26T14:49:05.997Z</time></trkpt><trkpt lat="46.010105519104556" lon="11.289774264778792"><ele>445.66666666666663</ele><time>2026-04-26T14:49:06.997Z</time></trkpt><trkpt lat="46.01002649655014" lon="11.289816906443935"><ele>445.5</ele><time>2026-04-26T14:49:07.997Z</time></trkpt><trkpt lat="46.00995059113146" lon="11.289857212419957"><ele>445.33333333333337</ele><time>2026-04-26T14:49:08.997Z</time></trkpt><trkpt lat="46.00988556159968" lon="11.289892272088105"><ele>445.1666666666667</ele><time>2026-04-26T14:49:09.997Z</time></trkpt><trkpt lat="46.00981518063606" lon="11.289925895960875"><ele>445.0</ele><time>2026-04-26T14:49:10.997Z</time></trkpt><trkpt lat="46.00974420215219" lon="11.289962365432151"><ele>445.00000000000006</ele><time>2026-04-26T14:49:11.998Z</time></trkpt><trkpt lat="46.00967054446349" lon="11.290001724506007"><ele>445.0</ele><time>2026-04-26T14:49:12.998Z</time></trkpt><trkpt lat="46.00959497284204" lon="11.290038364562426"><ele>445.0</ele><time>2026-04-26T14:49:13.998Z</time></trkpt><trkpt lat="46.009514274113904" lon="11.29007562152451"><ele>445.0</ele><time>2026-04-26T14:49:14.998Z</time></trkpt><trkpt lat="46.00943400461191" lon="11.2901202428696"><ele>445.00000000000006</ele><time>2026-04-26T14:49:15.998Z</time></trkpt><trkpt lat="46.009360749360205" lon="11.290177880718542"><ele>445.0</ele><time>2026-04-26T14:49:16.998Z</time></trkpt><trkpt lat="46.00929456652" lon="11.290240320340951"><ele>445.00000000000006</ele><time>2026-04-26T14:49:17.998Z</time></trkpt><trkpt lat="46.00922822325758" lon="11.290306050676435"><ele>445.0</ele><time>2026-04-26T14:49:18.998Z</time></trkpt><trkpt lat="46.00916388921596" lon="11.290386394718457"><ele>445.0</ele><time>2026-04-26T14:49:19.998Z</time></trkpt><trkpt lat="46.00909682153737" lon="11.290469146706076"><ele>445.0</ele><time>2026-04-26T14:49:20.998Z</time></trkpt><trkpt lat="46.009034258324476" lon="11.290556841829765"><ele>445.00000000000006</ele><time>2026-04-26T14:49:21.998Z</time></trkpt><trkpt lat="46.008965018135605" lon="11.290647316067412"><ele>445.0</ele><time>2026-04-26T14:49:22.998Z</time></trkpt><trkpt lat="46.00890307955056" lon="11.29073995613253"><ele>444.83333333333337</ele><time>2026-04-26T14:49:23.998Z</time></trkpt><trkpt lat="46.00883931751011" lon="11.290832490632388"><ele>444.6666666666667</ele><time>2026-04-26T14:49:24.998Z</time></trkpt><trkpt lat="46.008768428247976" lon="11.290922296516252"><ele>444.5</ele><time>2026-04-26T14:49:25.998Z</time></trkpt><trkpt lat="46.00870576899717" lon="11.291006829240104"><ele>444.33333333333337</ele><time>2026-04-26T14:49:26.998Z</time></trkpt><trkpt lat="46.008638314258164" lon="11.291085696771283"><ele>444.1666666666667</ele><time>2026-04-26T14:49:27.998Z</time></trkpt><trkpt lat="46.00857648428463" lon="11.29116880024997"><ele>444.0</ele><time>2026-04-26T14:49:28.998Z</time></trkpt><trkpt lat="46.00851993588215" lon="11.291246192532345"><ele>444.0</ele><time>2026-04-26T14:49:29.998Z</time></trkpt><trkpt lat="46.0084642773769" lon="11.291314421188282"><ele>444.0</ele><time>2026-04-26T14:49:30.998Z</time></trkpt><trkpt lat="46.008409907628" lon="11.291388033484374"><ele>444.0</ele><time>2026-04-26T14:49:31.999Z</time></trkpt><trkpt lat="46.008351814490354" lon="11.291462586534086"><ele>444.0</ele><time>2026-04-26T14:49:32.999Z</time></trkpt><trkpt lat="46.00829477189055" lon="11.291537665008834"><ele>444.0</ele><time>2026-04-26T14:49:33.999Z</time></trkpt><trkpt lat="46.00824370656839" lon="11.29161194465861"><ele>444.0</ele><time>2026-04-26T14:49:34.999Z</time></trkpt><trkpt lat="46.00819310112282" lon="11.291690146715352"><ele>444.0</ele><time>2026-04-26T14:49:35.999Z</time></trkpt><trkpt lat="46.00814399084533" lon="11.291768858590821"><ele>444.0</ele><time>2026-04-26T14:49:36.999Z</time></trkpt><trkpt lat="46.008085639627176" lon="11.2918557137292"><ele>444.0</ele><time>2026-04-26T14:49:37.999Z</time></trkpt><trkpt lat="46.00802890231115" lon="11.291938727034164"><ele>444.0</ele><time>2026-04-26T14:49:38.999Z</time></trkpt><trkpt lat="46.00797570560745" lon="11.292019744962674"><ele>444.0</ele><time>2026-04-26T14:49:39.999Z</time></trkpt><trkpt lat="46.00791936670756" lon="11.292105966459033"><ele>444.0</ele><time>2026-04-26T14:49:40.999Z</time></trkpt><trkpt lat="46.007863494508314" lon="11.292197749683016"><ele>444.3333333333333</ele><time>2026-04-26T14:49:41.999Z</time></trkpt><trkpt lat="46.007809866100665" lon="11.292281311787027"><ele>444.66666666666663</ele><time>2026-04-26T14:49:42.999Z</time></trkpt><trkpt lat="46.00776395465745" lon="11.292360838232339"><ele>445.0</ele><time>2026-04-26T14:49:43.999Z</time></trkpt><trkpt lat="46.00771673279582" lon="11.292436535602393"><ele>445.3333333333333</ele><time>2026-04-26T14:49:44.999Z</time></trkpt><trkpt lat="46.00764642305824" lon="11.292547824385156"><ele>445.66666666666663</ele><time>2026-04-26T14:49:46.999Z</time></trkpt><trkpt lat="46.007599787158334" lon="11.292615561330079"><ele>446.0</ele><time>2026-04-26T14:49:48.999Z</time></trkpt><trkpt lat="46.00753155082642" lon="11.292691812895152"><ele>445.4</ele><time>2026-04-26T14:49:52.999Z</time></trkpt><trkpt lat="46.007441019742366" lon="11.292727374705668"><ele>444.8</ele><time>2026-04-26T14:49:54.999Z</time></trkpt><trkpt lat="46.007338643024035" lon="11.292768013551276"><ele>444.19999999999993</ele><time>2026-04-26T14:49:56.999Z</time></trkpt><trkpt lat="46.00725687114282" lon="11.292784639955528"><ele>443.59999999999997</ele><time>2026-04-26T14:49:58.999Z</time></trkpt><trkpt lat="46.007152082869794" lon="11.292738418153098"><ele>443.0</ele><time>2026-04-26T14:50:00.999Z</time></trkpt><trkpt lat="46.007096015551404" lon="11.292677811020345"><ele>443.0</ele><time>2026-04-26T14:50:01.999Z</time></trkpt><trkpt lat="46.0070392295043" lon="11.29260288863787"><ele>442.99999999999994</ele><time>2026-04-26T14:50:02.999Z</time></trkpt><trkpt lat="46.00696915650021" lon="11.292515614142017"><ele>442.99999999999994</ele><time>2026-04-26T14:50:03.999Z</time></trkpt><trkpt lat="46.006892608929036" lon="11.29242891674412"><ele>443.0</ele><time>2026-04-26T14:50:04.999Z</time></trkpt><trkpt lat="46.00681082892076" lon="11.292330653276581"><ele>443.0</ele><time>2026-04-26T14:50:05.999Z</time></trkpt><trkpt lat="46.0067261379063" lon="11.292225081930177"><ele>442.5</ele><time>2026-04-26T14:50:06.999Z</time></trkpt><trkpt lat="46.00663781394986" lon="11.292118821684864"><ele>442.0</ele><time>2026-04-26T14:50:07.999Z</time></trkpt><trkpt lat="46.00654537139585" lon="11.292005351690957"><ele>441.5</ele><time>2026-04-26T14:50:08.999Z</time></trkpt><trkpt lat="46.006455464322016" lon="11.291895771121839"><ele>441.0</ele><time>2026-04-26T14:50:09.999Z</time></trkpt><trkpt lat="46.00635901279185" lon="11.291777749963668"><ele>441.0</ele><time>2026-04-26T14:50:10.999Z</time></trkpt><trkpt lat="46.00626264158635" lon="11.29166161679658"><ele>441.0</ele><time>2026-04-26T14:50:11.999Z</time></trkpt><trkpt lat="46.00616276577903" lon="11.291544488736106"><ele>441.0</ele><time>2026-04-26T14:50:12.999Z</time></trkpt><trkpt lat="46.00606136491974" lon="11.29142796181865"><ele>441.0</ele><time>2026-04-26T14:50:13.999Z</time></trkpt><trkpt lat="46.00596163170351" lon="11.29130877522977"><ele>441.5</ele><time>2026-04-26T14:50:14.999Z</time></trkpt><trkpt lat="46.005862245623256" lon="11.291187471406644"><ele>442.0</ele><time>2026-04-26T14:50:15.999Z</time></trkpt><trkpt lat="46.00576787056932" lon="11.291070658924285"><ele>442.5</ele><time>2026-04-26T14:50:16.999Z</time></trkpt><trkpt lat="46.00566797524776" lon="11.290953719509902"><ele>443.0</ele><time>2026-04-26T14:50:17.999Z</time></trkpt><trkpt lat="46.00556942540007" lon="11.290838359174135"><ele>443.25</ele><time>2026-04-26T14:50:18.999Z</time></trkpt><trkpt lat="46.00546878959675" lon="11.29071499913833"><ele>443.5</ele><time>2026-04-26T14:50:19.999Z</time></trkpt><trkpt lat="46.005362450739696" lon="11.290584892027669"><ele>443.75</ele><time>2026-04-26T14:50:20.999Z</time></trkpt><trkpt lat="46.00525714259705" lon="11.290461106810731"><ele>444.0</ele><time>2026-04-26T14:50:21.999Z</time></trkpt><trkpt lat="46.005151816277674" lon="11.290339611405559"><ele>444.0</ele><time>2026-04-26T14:50:22.999Z</time></trkpt><trkpt lat="46.00504902270897" lon="11.290217047106948"><ele>444.0</ele><time>2026-04-26T14:50:23.999Z</time></trkpt><trkpt lat="46.00494908724416" lon="11.290094446554187"><ele>444.0</ele><time>2026-04-26T14:50:24.999Z</time></trkpt><trkpt lat="46.00484790146199" lon="11.289969615609994"><ele>444.0</ele><time>2026-04-26T14:50:25.999Z</time></trkpt><trkpt lat="46.00474140340661" lon="11.289843176488457"><ele>443.75</ele><time>2026-04-26T14:50:26.999Z</time></trkpt><trkpt lat="46.00463258845" lon="11.289710733863945"><ele>443.5</ele><time>2026-04-26T14:50:27.999Z</time></trkpt><trkpt lat="46.0045282339491" lon="11.289581320908866"><ele>443.25</ele><time>2026-04-26T14:50:28.999Z</time></trkpt><trkpt lat="46.00442228260356" lon="11.28945311515248"><ele>443.0</ele><time>2026-04-26T14:50:29.999Z</time></trkpt><trkpt lat="46.00431384704438" lon="11.289322884021333"><ele>443.0</ele><time>2026-04-26T14:50:30.999Z</time></trkpt><trkpt lat="46.00420050163259" lon="11.289186620786326"><ele>443.0</ele><time>2026-04-26T14:50:31.999Z</time></trkpt><trkpt lat="46.00408353579886" lon="11.289050858940167"><ele>443.0</ele><time>2026-04-26T14:50:32.999Z</time></trkpt><trkpt lat="46.00396109164671" lon="11.288908138141247"><ele>443.3333333333333</ele><time>2026-04-26T14:50:33.999Z</time></trkpt><trkpt lat="46.00383752560175" lon="11.288762930762926"><ele>443.66666666666663</ele><time>2026-04-26T14:50:34.999Z</time></trkpt><trkpt lat="46.003716679916074" lon="11.288618083940023"><ele>444.0</ele><time>2026-04-26T14:50:35.999Z</time></trkpt><trkpt lat="46.00360755803873" lon="11.288484689102232"><ele>444.0</ele><time>2026-04-26T14:50:36.999Z</time></trkpt><trkpt lat="46.003501590123676" lon="11.288348387927593"><ele>444.0</ele><time>2026-04-26T14:50:37.999Z</time></trkpt><trkpt lat="46.003388460521776" lon="11.28821461250684"><ele>444.0</ele><time>2026-04-26T14:50:38.999Z</time></trkpt><trkpt lat="46.00328079749687" lon="11.28808732945759"><ele>444.0</ele><time>2026-04-26T14:50:39.999Z</time></trkpt><trkpt lat="46.00317843125217" lon="11.28795928152196"><ele>444.75</ele><time>2026-04-26T14:50:40.998Z</time></trkpt><trkpt lat="46.00308698160855" lon="11.287831096495632"><ele>445.5</ele><time>2026-04-26T14:50:41.998Z</time></trkpt><trkpt lat="46.00300574284914" lon="11.287707264521075"><ele>446.25</ele><time>2026-04-26T14:50:42.998Z</time></trkpt><trkpt lat="46.00292849035748" lon="11.287574966425337"><ele>447.0</ele><time>2026-04-26T14:50:43.998Z</time></trkpt><trkpt lat="46.00283999843281" lon="11.287435465828885"><ele>447.0</ele><time>2026-04-26T14:50:44.998Z</time></trkpt><trkpt lat="46.00275064600846" lon="11.287285153717013"><ele>447.0</ele><time>2026-04-26T14:50:45.998Z</time></trkpt><trkpt lat="46.002657906656815" lon="11.287125582994431"><ele>447.0</ele><time>2026-04-26T14:50:46.998Z</time></trkpt><trkpt lat="46.00256049426464" lon="11.28695773877223"><ele>447.0</ele><time>2026-04-26T14:50:47.998Z</time></trkpt><trkpt lat="46.00246377983634" lon="11.286787165898192"><ele>447.25</ele><time>2026-04-26T14:50:48.998Z</time></trkpt><trkpt lat="46.00237380092492" lon="11.28661344531754"><ele>447.5</ele><time>2026-04-26T14:50:49.998Z</time></trkpt><trkpt lat="46.00228985548471" lon="11.286421960571767"><ele>447.75</ele><time>2026-04-26T14:50:50.998Z</time></trkpt><trkpt lat="46.002211791924516" lon="11.286288330691418"><ele>448.0</ele><time>2026-04-26T14:50:51.998Z</time></trkpt><trkpt lat="46.002150021397284" lon="11.286151626913048"><ele>448.00000000000006</ele><time>2026-04-26T14:50:52.998Z</time></trkpt><trkpt lat="46.00209789227553" lon="11.286039359283096"><ele>448.0</ele><time>2026-04-26T14:50:53.998Z</time></trkpt><trkpt lat="46.00205481082793" lon="11.28594578620267"><ele>448.0</ele><time>2026-04-26T14:50:54.998Z</time></trkpt><trkpt lat="46.00201277752785" lon="11.285862288907488"><ele>448.0</ele><time>2026-04-26T14:50:55.998Z</time></trkpt><trkpt lat="46.00197220971886" lon="11.285768828382206"><ele>448.00000000000006</ele><time>2026-04-26T14:50:56.998Z</time></trkpt><trkpt lat="46.00192994654395" lon="11.285663421881814"><ele>448.0</ele><time>2026-04-26T14:50:57.998Z</time></trkpt><trkpt lat="46.00188157015002" lon="11.285547386658672"><ele>448.2</ele><time>2026-04-26T14:50:58.998Z</time></trkpt><trkpt lat="46.001838131747" lon="11.28545225512386"><ele>448.4</ele><time>2026-04-26T14:50:59.998Z</time></trkpt><trkpt lat="46.00179640606378" lon="11.285346980689917"><ele>448.59999999999997</ele><time>2026-04-26T14:51:00.998Z</time></trkpt><trkpt lat="46.00174449180416" lon="11.285241448116942"><ele>448.79999999999995</ele><time>2026-04-26T14:51:01.998Z</time></trkpt><trkpt lat="46.001689438903696" lon="11.285126603615273"><ele>449.0</ele><time>2026-04-26T14:51:02.998Z</time></trkpt><trkpt lat="46.00163093470808" lon="11.285006576744996"><ele>449.0</ele><time>2026-04-26T14:51:03.998Z</time></trkpt><trkpt lat="46.00156771890605" lon="11.284901376516135"><ele>449.0</ele><time>2026-04-26T14:51:04.998Z</time></trkpt><trkpt lat="46.0014941602628" lon="11.284794396500276"><ele>449.0</ele><time>2026-04-26T14:51:05.998Z</time></trkpt><trkpt lat="46.0014060436074" lon="11.284697960278942"><ele>449.0</ele><time>2026-04-26T14:51:06.998Z</time></trkpt><trkpt lat="46.00133269437588" lon="11.284584388108032"><ele>449.0</ele><time>2026-04-26T14:51:07.998Z</time></trkpt><trkpt lat="46.001251268477915" lon="11.284494633577568"><ele>449.3333333333333</ele><time>2026-04-26T14:51:08.998Z</time></trkpt><trkpt lat="46.0011825441876" lon="11.284423257480453"><ele>449.66666666666663</ele><time>2026-04-26T14:51:09.998Z</time></trkpt><trkpt lat="46.001121842296946" lon="11.284360926593099"><ele>450.0</ele><time>2026-04-26T14:51:10.998Z</time></trkpt><trkpt lat="46.001059589511996" lon="11.284297426874494"><ele>450.33333333333337</ele><time>2026-04-26T14:51:11.998Z</time></trkpt><trkpt lat="46.000994880158785" lon="11.284248647193797"><ele>450.6666666666667</ele><time>2026-04-26T14:51:12.998Z</time></trkpt><trkpt lat="46.00093155402667" lon="11.284182987299577"><ele>451.0</ele><time>2026-04-26T14:51:13.998Z</time></trkpt><trkpt lat="46.000855460617665" lon="11.284105382894355"><ele>451.0</ele><time>2026-04-26T14:51:14.998Z</time></trkpt><trkpt lat="46.00077082368824" lon="11.28401460615214"><ele>451.0</ele><time>2026-04-26T14:51:15.998Z</time></trkpt><trkpt lat="46.00068488407773" lon="11.283924968108876"><ele>451.0</ele><time>2026-04-26T14:51:16.998Z</time></trkpt><trkpt lat="46.00060230819141" lon="11.28383763149903"><ele>451.0</ele><time>2026-04-26T14:51:17.998Z</time></trkpt><trkpt lat="46.00051931572108" lon="11.283753633978002"><ele>451.0</ele><time>2026-04-26T14:51:18.998Z</time></trkpt><trkpt lat="46.0004405303733" lon="11.283654619609132"><ele>451.0</ele><time>2026-04-26T14:51:19.998Z</time></trkpt><trkpt lat="46.00036448593639" lon="11.283543703791205"><ele>451.0</ele><time>2026-04-26T14:51:20.998Z</time></trkpt><trkpt lat="46.00028906574734" lon="11.2833992894915"><ele>451.0</ele><time>2026-04-26T14:51:21.998Z</time></trkpt><trkpt lat="46.00021354575224" lon="11.2832664467109"><ele>451.0</ele><time>2026-04-26T14:51:22.998Z</time></trkpt><trkpt lat="46.00014276984904" lon="11.283117807087123"><ele>451.0</ele><time>2026-04-26T14:51:23.998Z</time></trkpt><trkpt lat="46.000072318744856" lon="11.282968717626295"><ele>451.0</ele><time>2026-04-26T14:51:24.998Z</time></trkpt><trkpt lat="46.00000224853851" lon="11.282821536103338"><ele>451.0</ele><time>2026-04-26T14:51:25.998Z</time></trkpt><trkpt lat="45.999931818682555" lon="11.282671540898486"><ele>451.0</ele><time>2026-04-26T14:51:26.998Z</time></trkpt><trkpt lat="45.999868153605235" lon="11.2825411498179"><ele>451.0</ele><time>2026-04-26T14:51:27.999Z</time></trkpt><trkpt lat="45.999809532805436" lon="11.282418442386277"><ele>451.0</ele><time>2026-04-26T14:51:28.999Z</time></trkpt><trkpt lat="45.999746588644165" lon="11.282285782618311"><ele>451.0</ele><time>2026-04-26T14:51:29.999Z</time></trkpt><trkpt lat="45.99969804952738" lon="11.282142944413417"><ele>451.0</ele><time>2026-04-26T14:51:30.999Z</time></trkpt><trkpt lat="45.9996228353413" lon="11.282024752484395"><ele>451.0</ele><time>2026-04-26T14:51:31.999Z</time></trkpt><trkpt lat="45.99956267630244" lon="11.281881512773683"><ele>451.75</ele><time>2026-04-26T14:51:32.999Z</time></trkpt><trkpt lat="45.99949881742597" lon="11.281740486784463"><ele>452.5</ele><time>2026-04-26T14:51:33.999Z</time></trkpt><trkpt lat="45.99942866544166" lon="11.281589845377678"><ele>453.25</ele><time>2026-04-26T14:51:34.999Z</time></trkpt><trkpt lat="45.999358871121515" lon="11.281442866911592"><ele>454.0</ele><time>2026-04-26T14:51:35.999Z</time></trkpt><trkpt lat="45.99928927201073" lon="11.281295141005785"><ele>454.5</ele><time>2026-04-26T14:51:36.999Z</time></trkpt><trkpt lat="45.999220601136656" lon="11.281150062029289"><ele>455.0</ele><time>2026-04-26T14:51:37.999Z</time></trkpt><trkpt lat="45.99914734567034" lon="11.281007040828118"><ele>455.5</ele><time>2026-04-26T14:51:38.999Z</time></trkpt><trkpt lat="45.99906649574757" lon="11.280857754183362"><ele>456.0</ele><time>2026-04-26T14:51:39.999Z</time></trkpt><trkpt lat="45.998976751452865" lon="11.280707839102604"><ele>456.0</ele><time>2026-04-26T14:51:40.999Z</time></trkpt><trkpt lat="45.99888309947368" lon="11.280563554378972"><ele>456.0</ele><time>2026-04-26T14:51:41.999Z</time></trkpt><trkpt lat="45.998778798229566" lon="11.28041384030136"><ele>456.0</ele><time>2026-04-26T14:51:42.999Z</time></trkpt><trkpt lat="45.998666970950666" lon="11.280257365596368"><ele>456.0</ele><time>2026-04-26T14:51:43.999Z</time></trkpt><trkpt lat="45.99855391339952" lon="11.280097374093813"><ele>456.0</ele><time>2026-04-26T14:51:44.999Z</time></trkpt><trkpt lat="45.998441596383124" lon="11.27993696115359"><ele>456.0</ele><time>2026-04-26T14:51:45.999Z</time></trkpt><trkpt lat="45.99832721457737" lon="11.279781528021557"><ele>456.0</ele><time>2026-04-26T14:51:46.999Z</time></trkpt><trkpt lat="45.99821537474062" lon="11.279625804614778"><ele>456.75</ele><time>2026-04-26T14:51:47.999Z</time></trkpt><trkpt lat="45.99810733440217" lon="11.279475769421666"><ele>457.5</ele><time>2026-04-26T14:51:48.999Z</time></trkpt><trkpt lat="45.99800307078829" lon="11.279332500397924"><ele>458.25</ele><time>2026-04-26T14:51:49.999Z</time></trkpt><trkpt lat="45.99790068118568" lon="11.279184119311223"><ele>459.0</ele><time>2026-04-26T14:51:50.999Z</time></trkpt><trkpt lat="45.99780345845946" lon="11.279044344664971"><ele>459.0</ele><time>2026-04-26T14:51:51.999Z</time></trkpt><trkpt lat="45.99770793868294" lon="11.278902983604924"><ele>459.0</ele><time>2026-04-26T14:51:52.999Z</time></trkpt><trkpt lat="45.99761438027342" lon="11.278764065388462"><ele>459.0</ele><time>2026-04-26T14:51:53.999Z</time></trkpt><trkpt lat="45.99751177452372" lon="11.278626234552444"><ele>459.0</ele><time>2026-04-26T14:51:54.999Z</time></trkpt><trkpt lat="45.997403420366204" lon="11.278479536711018"><ele>460.66666666666663</ele><time>2026-04-26T14:51:55.999Z</time></trkpt><trkpt lat="45.997302985653036" lon="11.278324514639868"><ele>462.3333333333333</ele><time>2026-04-26T14:51:56.999Z</time></trkpt><trkpt lat="45.99719975275449" lon="11.278163962072007"><ele>464.0</ele><time>2026-04-26T14:51:57.999Z</time></trkpt><trkpt lat="45.99710380477984" lon="11.277983436523481"><ele>464.0</ele><time>2026-04-26T14:51:58.999Z</time></trkpt><trkpt lat="45.99700713967514" lon="11.277782932713045"><ele>464.0</ele><time>2026-04-26T14:51:59.999Z</time></trkpt><trkpt lat="45.99691809449723" lon="11.27757746547533"><ele>464.0</ele><time>2026-04-26T14:52:00.999Z</time></trkpt><trkpt lat="45.9968323092317" lon="11.277356770766405"><ele>464.0</ele><time>2026-04-26T14:52:01.999Z</time></trkpt><trkpt lat="45.99674992751129" lon="11.277144784537912"><ele>464.0</ele><time>2026-04-26T14:52:02.999Z</time></trkpt><trkpt lat="45.996674137080234" lon="11.276940489240339"><ele>464.0</ele><time>2026-04-26T14:52:03.999Z</time></trkpt><trkpt lat="45.99659436885391" lon="11.276735005853926"><ele>464.0</ele><time>2026-04-26T14:52:04.999Z</time></trkpt><trkpt lat="45.99651825748706" lon="11.2765378675776"><ele>464.0</ele><time>2026-04-26T14:52:05.999Z</time></trkpt><trkpt lat="45.99644172071521" lon="11.276343406619832"><ele>464.0</ele><time>2026-04-26T14:52:06.999Z</time></trkpt><trkpt lat="45.99636772551906" lon="11.276142836620512"><ele>464.3333333333333</ele><time>2026-04-26T14:52:07.999Z</time></trkpt><trkpt lat="45.99629097185393" lon="11.275948614080567"><ele>464.66666666666663</ele><time>2026-04-26T14:52:08.999Z</time></trkpt><trkpt lat="45.99621346970233" lon="11.275745788708164"><ele>465.0</ele><time>2026-04-26T14:52:09.999Z</time></trkpt><trkpt lat="45.99613336969598" lon="11.275537521400796"><ele>465.33333333333337</ele><time>2026-04-26T14:52:10.999Z</time></trkpt><trkpt lat="45.99605471459346" lon="11.275327411735672"><ele>465.6666666666667</ele><time>2026-04-26T14:52:11.999Z</time></trkpt><trkpt lat="45.995977447898554" lon="11.275114249206554"><ele>466.0</ele><time>2026-04-26T14:52:12.999Z</time></trkpt><trkpt lat="45.995904144325486" lon="11.274895858440212"><ele>466.33333333333337</ele><time>2026-04-26T14:52:13.999Z</time></trkpt><trkpt lat="45.99583488682866" lon="11.27468416733205"><ele>466.66666666666663</ele><time>2026-04-26T14:52:14.999Z</time></trkpt><trkpt lat="45.99577081992767" lon="11.2744796376609"><ele>467.0</ele><time>2026-04-26T14:52:15.999Z</time></trkpt><trkpt lat="45.99570728708307" lon="11.274281724686755"><ele>467.0</ele><time>2026-04-26T14:52:16.999Z</time></trkpt><trkpt lat="45.995645856882625" lon="11.274097604668677"><ele>467.0</ele><time>2026-04-26T14:52:17.999Z</time></trkpt><trkpt lat="45.99558935698858" lon="11.27391953038634"><ele>467.0</ele><time>2026-04-26T14:52:18.999Z</time></trkpt><trkpt lat="45.995536411753044" lon="11.273749408077467"><ele>467.0</ele><time>2026-04-26T14:52:19.999Z</time></trkpt><trkpt lat="45.9954835793934" lon="11.27359193360681"><ele>466.75</ele><time>2026-04-26T14:52:20.999Z</time></trkpt><trkpt lat="45.99543712413447" lon="11.273444130853424"><ele>466.5</ele><time>2026-04-26T14:52:21.999Z</time></trkpt><trkpt lat="45.99539021609452" lon="11.27329817060861"><ele>466.25</ele><time>2026-04-26T14:52:22.999Z</time></trkpt><trkpt lat="45.995343629893966" lon="11.27314847417084"><ele>466.0</ele><time>2026-04-26T14:52:23.999Z</time></trkpt><trkpt lat="45.995294706723115" lon="11.272985323250445"><ele>466.0</ele><time>2026-04-26T14:52:24.999Z</time></trkpt><trkpt lat="45.9952482369451" lon="11.272829265968534"><ele>466.0</ele><time>2026-04-26T14:52:25.999Z</time></trkpt><trkpt lat="45.995205913985316" lon="11.272685944700097"><ele>466.0</ele><time>2026-04-26T14:52:26.999Z</time></trkpt><trkpt lat="45.99516937729921" lon="11.272543199092233"><ele>466.0</ele><time>2026-04-26T14:52:27.999Z</time></trkpt><trkpt lat="45.99516174206972" lon="11.272398938486724"><ele>466.0</ele><time>2026-04-26T14:52:28.999Z</time></trkpt><trkpt lat="45.99514558911489" lon="11.272262502846964"><ele>466.20000000000005</ele><time>2026-04-26T14:52:29.999Z</time></trkpt><trkpt lat="45.995136429123555" lon="11.272142007853887"><ele>466.40000000000003</ele><time>2026-04-26T14:52:30.999Z</time></trkpt><trkpt lat="45.99513240826577" lon="11.272029651769612"><ele>466.6</ele><time>2026-04-26T14:52:31.999Z</time></trkpt><trkpt lat="45.995129528069675" lon="11.271919744745036"><ele>466.8</ele><time>2026-04-26T14:52:32.999Z</time></trkpt><trkpt lat="45.994978821755474" lon="11.271862970123145"><ele>467.0</ele><time>2026-04-26T14:52:33.999Z</time></trkpt><trkpt lat="45.99491924901123" lon="11.27174336780794"><ele>467.5</ele><time>2026-04-26T14:52:34.999Z</time></trkpt><trkpt lat="45.99483644233043" lon="11.271640807910124"><ele>468.0</ele><time>2026-04-26T14:52:35.999Z</time></trkpt><trkpt lat="45.99479202904455" lon="11.271481464073354"><ele>468.5</ele><time>2026-04-26T14:52:36.999Z</time></trkpt><trkpt lat="45.99473410324326" lon="11.271313407070137"><ele>469.0</ele><time>2026-04-26T14:52:37.999Z</time></trkpt><trkpt lat="45.99466086601045" lon="11.271144789921289"><ele>470.33333333333337</ele><time>2026-04-26T14:52:38.999Z</time></trkpt><trkpt lat="45.994598242896366" lon="11.270956495485388"><ele>471.66666666666663</ele><time>2026-04-26T14:52:39.999Z</time></trkpt><trkpt lat="45.994528186213216" lon="11.270755056244322"><ele>473.0</ele><time>2026-04-26T14:52:40.999Z</time></trkpt><trkpt lat="45.994460382761176" lon="11.270551320768647"><ele>473.0</ele><time>2026-04-26T14:52:41.999Z</time></trkpt><trkpt lat="45.99439452236327" lon="11.270358163431212"><ele>473.0</ele><time>2026-04-26T14:52:42.999Z</time></trkpt><trkpt lat="45.99432660037957" lon="11.270161966788399"><ele>473.0</ele><time>2026-04-26T14:52:43.999Z</time></trkpt><trkpt lat="45.994258464267666" lon="11.269965787741782"><ele>473.0</ele><time>2026-04-26T14:52:44.999Z</time></trkpt><trkpt lat="45.99418529245281" lon="11.269757727920481"><ele>473.0</ele><time>2026-04-26T14:52:45.999Z</time></trkpt><trkpt lat="45.99411133228404" lon="11.269549656434327"><ele>473.0</ele><time>2026-04-26T14:52:46.999Z</time></trkpt><trkpt lat="45.99404290487148" lon="11.269349342384738"><ele>473.25</ele><time>2026-04-26T14:52:47.999Z</time></trkpt><trkpt lat="45.993977583811564" lon="11.269165955867908"><ele>473.5</ele><time>2026-04-26T14:52:48.999Z</time></trkpt><trkpt lat="45.993920269082125" lon="11.26899002611927"><ele>473.75</ele><time>2026-04-26T14:52:49.999Z</time></trkpt><trkpt lat="45.9938633677322" lon="11.26882130113035"><ele>474.0</ele><time>2026-04-26T14:52:50.999Z</time></trkpt><trkpt lat="45.99380681397046" lon="11.268656083456877"><ele>474.25</ele><time>2026-04-26T14:52:51.999Z</time></trkpt><trkpt lat="45.993747383212884" lon="11.268488787783376"><ele>474.5</ele><time>2026-04-26T14:52:52.999Z</time></trkpt><trkpt lat="45.99369123914738" lon="11.268318843947933"><ele>474.75</ele><time>2026-04-26T14:52:53.999Z</time></trkpt><trkpt lat="45.993629311957825" lon="11.268139310457418"><ele>475.0</ele><time>2026-04-26T14:52:54.999Z</time></trkpt><trkpt lat="45.993565163318195" lon="11.267949677570979"><ele>475.25</ele><time>2026-04-26T14:52:55.999Z</time></trkpt><trkpt lat="45.993498982041565" lon="11.267757540422467"><ele>475.5</ele><time>2026-04-26T14:52:56.999Z</time></trkpt><trkpt lat="45.99343134014386" lon="11.267565347497843"><ele>475.75</ele><time>2026-04-26T14:52:57.999Z</time></trkpt><trkpt lat="45.99336557610565" lon="11.267378451396361"><ele>476.0</ele><time>2026-04-26T14:52:58.999Z</time></trkpt><trkpt lat="45.99330252268926" lon="11.267199273761928"><ele>476.75</ele><time>2026-04-26T14:52:59.999Z</time></trkpt><trkpt lat="45.99324348478102" lon="11.267034920164944"><ele>477.5</ele><time>2026-04-26T14:53:00.999Z</time></trkpt><trkpt lat="45.99318516311851" lon="11.26688439596828"><ele>478.25</ele><time>2026-04-26T14:53:01.999Z</time></trkpt><trkpt lat="45.99314023344284" lon="11.26673968495736"><ele>479.0</ele><time>2026-04-26T14:53:02.999Z</time></trkpt><trkpt lat="45.99309501237828" lon="11.266608191115473"><ele>478.99999999999994</ele><time>2026-04-26T14:53:03.999Z</time></trkpt><trkpt lat="45.99307031582764" lon="11.266473134510353"><ele>479.0</ele><time>2026-04-26T14:53:04.999Z</time></trkpt><trkpt lat="45.993073551817574" lon="11.266347399352854"><ele>479.0</ele><time>2026-04-26T14:53:05.999Z</time></trkpt><trkpt lat="45.99310616513463" lon="11.266238017724616"><ele>479.0</ele><time>2026-04-26T14:53:06.999Z</time></trkpt><trkpt lat="45.99313661917941" lon="11.266119077655572"><ele>478.99999999999994</ele><time>2026-04-26T14:53:07.999Z</time></trkpt><trkpt lat="45.99314822734551" lon="11.265988023487706"><ele>479.0</ele><time>2026-04-26T14:53:08.999Z</time></trkpt><trkpt lat="45.99315206438053" lon="11.265858122731418"><ele>478.6</ele><time>2026-04-26T14:53:09.999Z</time></trkpt><trkpt lat="45.99314853058552" lon="11.265742015413185"><ele>478.2</ele><time>2026-04-26T14:53:10.999Z</time></trkpt><trkpt lat="45.99313725423739" lon="11.26564035497921"><ele>477.80000000000007</ele><time>2026-04-26T14:53:11.999Z</time></trkpt><trkpt lat="45.99315116345034" lon="11.265539277513398"><ele>477.40000000000003</ele><time>2026-04-26T14:53:13.999Z</time></trkpt><trkpt lat="45.99300610112478" lon="11.265543374537186"><ele>477.0</ele><time>2026-04-26T14:53:14.999Z</time></trkpt><trkpt lat="45.99293136436729" lon="11.265657189330053"><ele>476.8333333333333</ele><time>2026-04-26T14:53:16.999Z</time></trkpt><trkpt lat="45.992885047125974" lon="11.265718643601447"><ele>476.66666666666663</ele><time>2026-04-26T14:53:18.999Z</time></trkpt><trkpt lat="45.992829081448775" lon="11.26578658819701"><ele>476.5</ele><time>2026-04-26T14:54:29Z</time></trkpt><trkpt lat="45.99276458475014" lon="11.265877787938738"><ele>476.3333333333333</ele><time>2026-04-26T14:54:31Z</time></trkpt><trkpt lat="45.992694206805744" lon="11.265919841168424"><ele>476.16666666666663</ele><time>2026-04-26T14:54:32Z</time></trkpt><trkpt lat="45.992625739938994" lon="11.265979777525825"><ele>476.0</ele><time>2026-04-26T14:54:33Z</time></trkpt><trkpt lat="45.99256392996116" lon="11.266057154726916"><ele>476.6</ele><time>2026-04-26T14:54:34Z</time></trkpt><trkpt lat="45.99250347068177" lon="11.26612033064257"><ele>477.20000000000005</ele><time>2026-04-26T14:54:35Z</time></trkpt><trkpt lat="45.992423872379945" lon="11.266232927320763"><ele>477.79999999999995</ele><time>2026-04-26T14:54:37Z</time></trkpt><trkpt lat="45.99231528007683" lon="11.266274271295618"><ele>478.4</ele><time>2026-04-26T14:54:39Z</time></trkpt><trkpt lat="45.99223922838861" lon="11.266267766815906"><ele>479.0</ele><time>2026-04-26T14:54:40Z</time></trkpt><trkpt lat="45.992152458061206" lon="11.266247439006637"><ele>478.99999999999994</ele><time>2026-04-26T14:54:41Z</time></trkpt><trkpt lat="45.9920667918489" lon="11.266221448018996"><ele>479.0</ele><time>2026-04-26T14:54:42Z</time></trkpt><trkpt lat="45.99199065597814" lon="11.266203834338937"><ele>479.0</ele><time>2026-04-26T14:54:43Z</time></trkpt><trkpt lat="45.99191358919757" lon="11.266191172851372"><ele>479.0</ele><time>2026-04-26T14:54:44Z</time></trkpt><trkpt lat="45.99183981477059" lon="11.266179141888106"><ele>478.99999999999994</ele><time>2026-04-26T14:54:45Z</time></trkpt><trkpt lat="45.99176700701681" lon="11.266162183281098"><ele>479.0</ele><time>2026-04-26T14:54:46Z</time></trkpt><trkpt lat="45.991678129008804" lon="11.266141287004046"><ele>479.4</ele><time>2026-04-26T14:54:47Z</time></trkpt><trkpt lat="45.99158227067253" lon="11.266116078032328"><ele>479.79999999999995</ele><time>2026-04-26T14:54:48Z</time></trkpt><trkpt lat="45.99148462444015" lon="11.266088260469521"><ele>480.20000000000005</ele><time>2026-04-26T14:54:49Z</time></trkpt><trkpt lat="45.99138866977056" lon="11.266059021942066"><ele>480.6</ele><time>2026-04-26T14:54:50Z</time></trkpt><trkpt lat="45.99128954417174" lon="11.266028912232995"><ele>481.0</ele><time>2026-04-26T14:54:51Z</time></trkpt><trkpt lat="45.99119369589957" lon="11.265980208549703"><ele>481.0</ele><time>2026-04-26T14:54:52Z</time></trkpt><trkpt lat="45.99109315184078" lon="11.265921385095858"><ele>481.0</ele><time>2026-04-26T14:54:53Z</time></trkpt><trkpt lat="45.99099657561528" lon="11.265874875318083"><ele>481.0</ele><time>2026-04-26T14:54:54Z</time></trkpt><trkpt lat="45.990898799940595" lon="11.265823519537548"><ele>481.0</ele><time>2026-04-26T14:54:55Z</time></trkpt><trkpt lat="45.990813914343924" lon="11.26576931291152"><ele>481.0</ele><time>2026-04-26T14:54:56Z</time></trkpt><trkpt lat="45.99073624790019" lon="11.26572559251136"><ele>481.6</ele><time>2026-04-26T14:54:57Z</time></trkpt><trkpt lat="45.99061592604082" lon="11.265652867751507"><ele>482.20000000000005</ele><time>2026-04-26T14:54:59Z</time></trkpt><trkpt lat="45.990553601838485" lon="11.26562444297763"><ele>482.79999999999995</ele><time>2026-04-26T14:55:00Z</time></trkpt><trkpt lat="45.99043376447269" lon="11.265551111023333"><ele>483.4</ele><time>2026-04-26T14:55:02Z</time></trkpt><trkpt lat="45.99036523161192" lon="11.265529918363736"><ele>484.0</ele><time>2026-04-26T14:55:03Z</time></trkpt><trkpt lat="45.990284777229796" lon="11.265480017237655"><ele>484.00000000000006</ele><time>2026-04-26T14:55:04Z</time></trkpt><trkpt lat="45.99020516027207" lon="11.265432204249258"><ele>484.0</ele><time>2026-04-26T14:55:05Z</time></trkpt><trkpt lat="45.99011699797458" lon="11.26539076246524"><ele>484.0</ele><time>2026-04-26T14:55:06Z</time></trkpt><trkpt lat="45.99003485798047" lon="11.26535255364427"><ele>484.0</ele><time>2026-04-26T14:55:07Z</time></trkpt><trkpt lat="45.989959983133055" lon="11.265313887782803"><ele>484.00000000000006</ele><time>2026-04-26T14:55:08Z</time></trkpt><trkpt lat="45.989889911842376" lon="11.265277000169128"><ele>484.0</ele><time>2026-04-26T14:55:09Z</time></trkpt><trkpt lat="45.98979339872911" lon="11.265225068395639"><ele>484.33333333333337</ele><time>2026-04-26T14:55:11Z</time></trkpt><trkpt lat="45.989724567567755" lon="11.26524304527697"><ele>484.6666666666667</ele><time>2026-04-26T14:55:13Z</time></trkpt><trkpt lat="45.98968373310118" lon="11.265074918434001"><ele>485.0</ele><time>2026-04-26T14:55:15Z</time></trkpt><trkpt lat="45.98965328290921" lon="11.264955323554492"><ele>485.33333333333337</ele><time>2026-04-26T14:55:17Z</time></trkpt><trkpt lat="45.989630336140245" lon="11.264865205361751"><ele>485.6666666666667</ele><time>2026-04-26T14:55:19Z</time></trkpt><trkpt lat="45.98960013825767" lon="11.264746607105817"><ele>486.0</ele><time>2026-04-26T14:55:23Z</time></trkpt><trkpt lat="45.9894213764952" lon="11.264864730713393"><ele>486.0</ele><time>2026-04-26T14:55:25Z</time></trkpt><trkpt lat="45.989352663569754" lon="11.26493914775479"><ele>486.0</ele><time>2026-04-26T14:55:26Z</time></trkpt><trkpt lat="45.98928050699326" lon="11.265012006102811"><ele>486.0</ele><time>2026-04-26T14:55:27Z</time></trkpt><trkpt lat="45.98920246806017" lon="11.265090766977018"><ele>486.0</ele><time>2026-04-26T14:55:28Z</time></trkpt><trkpt lat="45.989120155777265" lon="11.265176966382002"><ele>486.0</ele><time>2026-04-26T14:55:29Z</time></trkpt><trkpt lat="45.989027118351174" lon="11.265273582698653"><ele>486.5</ele><time>2026-04-26T14:55:30.001Z</time></trkpt><trkpt lat="45.98892250775359" lon="11.265376332962148"><ele>487.0</ele><time>2026-04-26T14:55:31.001Z</time></trkpt><trkpt lat="45.988812234893736" lon="11.265483268696075"><ele>487.5</ele><time>2026-04-26T14:55:32.001Z</time></trkpt><trkpt lat="45.98870045540669" lon="11.265593066680951"><ele>488.0</ele><time>2026-04-26T14:55:33.001Z</time></trkpt><trkpt lat="45.98858397535883" lon="11.265696607480256"><ele>488.25</ele><time>2026-04-26T14:55:34.001Z</time></trkpt><trkpt lat="45.98846669145522" lon="11.265796665503748"><ele>488.5</ele><time>2026-04-26T14:55:35.001Z</time></trkpt><trkpt lat="45.98835504067857" lon="11.265904091679342"><ele>488.75</ele><time>2026-04-26T14:55:36.001Z</time></trkpt><trkpt lat="45.98824302317161" lon="11.266003857170283"><ele>489.0</ele><time>2026-04-26T14:55:37.001Z</time></trkpt><trkpt lat="45.98814040897203" lon="11.266081981160399"><ele>489.2</ele><time>2026-04-26T14:55:38.001Z</time></trkpt><trkpt lat="45.98803913238069" lon="11.266149088667605"><ele>489.4</ele><time>2026-04-26T14:55:39.001Z</time></trkpt><trkpt lat="45.98794341448806" lon="11.266186664330279"><ele>489.6</ele><time>2026-04-26T14:55:40.001Z</time></trkpt><trkpt lat="45.987855063444655" lon="11.266213806140378"><ele>489.8</ele><time>2026-04-26T14:55:41.001Z</time></trkpt><trkpt lat="45.987774056959786" lon="11.266227961004576"><ele>490.0</ele><time>2026-04-26T14:55:42.001Z</time></trkpt><trkpt lat="45.98770566933093" lon="11.266213189371694"><ele>490.0</ele><time>2026-04-26T14:55:43.001Z</time></trkpt><trkpt lat="45.987645519247785" lon="11.266175463476221"><ele>490.0</ele><time>2026-04-26T14:55:44.001Z</time></trkpt><trkpt lat="45.98757431481293" lon="11.265986872193736"><ele>490.0</ele><time>2026-04-26T14:55:46.001Z</time></trkpt><trkpt lat="45.987517724956945" lon="11.265879267516496"><ele>490.0</ele><time>2026-04-26T14:55:47.001Z</time></trkpt><trkpt lat="45.987469644647945" lon="11.265747186251795"><ele>490.0</ele><time>2026-04-26T14:55:48.001Z</time></trkpt><trkpt lat="45.98742185145643" lon="11.265594337356257"><ele>490.25</ele><time>2026-04-26T14:55:49.001Z</time></trkpt><trkpt lat="45.98736470543675" lon="11.265426746090638"><ele>490.5</ele><time>2026-04-26T14:55:50.001Z</time></trkpt><trkpt lat="45.98730038279693" lon="11.265242075376202"><ele>490.75</ele><time>2026-04-26T14:55:51.001Z</time></trkpt><trkpt lat="45.98723029140826" lon="11.265050835448507"><ele>491.0</ele><time>2026-04-26T14:55:52.001Z</time></trkpt><trkpt lat="45.98716110170273" lon="11.264850808996595"><ele>492.0</ele><time>2026-04-26T14:55:53.001Z</time></trkpt><trkpt lat="45.98708810613229" lon="11.264643991574365"><ele>493.0</ele><time>2026-04-26T14:55:54.001Z</time></trkpt><trkpt lat="45.98702253804299" lon="11.264411059911797"><ele>494.0</ele><time>2026-04-26T14:55:55.001Z</time></trkpt><trkpt lat="45.986942427758684" lon="11.264170303582763"><ele>495.0</ele><time>2026-04-26T14:55:56.001Z</time></trkpt><trkpt lat="45.98685969313178" lon="11.263921204139695"><ele>496.0</ele><time>2026-04-26T14:55:57Z</time></trkpt><trkpt lat="45.98677355987404" lon="11.26366076360272"><ele>497.0</ele><time>2026-04-26T14:55:58Z</time></trkpt><trkpt lat="45.98668658775002" lon="11.263396042306352"><ele>497.0</ele><time>2026-04-26T14:55:59Z</time></trkpt><trkpt lat="45.986595439438226" lon="11.263123909841603"><ele>497.0</ele><time>2026-04-26T14:56:00Z</time></trkpt><trkpt lat="45.98665969828866" lon="11.263314289505265"><ele>497.0</ele><time>2026-04-26T14:56:01Z</time></trkpt><trkpt lat="45.98658325849356" lon="11.263131198546107"><ele>497.75</ele><time>2026-04-26T14:56:02Z</time></trkpt><trkpt lat="45.98652194784504" lon="11.262963578678573"><ele>498.5</ele><time>2026-04-26T14:56:03Z</time></trkpt><trkpt lat="45.986468134723225" lon="11.262802405702049"><ele>499.25</ele><time>2026-04-26T14:56:04Z</time></trkpt><trkpt lat="45.9864040138444" lon="11.262645261156969"><ele>500.0</ele><time>2026-04-26T14:56:05Z</time></trkpt><trkpt lat="45.98633244239799" lon="11.262489904816603"><ele>500.0</ele><time>2026-04-26T14:56:06Z</time></trkpt><trkpt lat="45.986255165252786" lon="11.262329498047794"><ele>500.0</ele><time>2026-04-26T14:56:07Z</time></trkpt><trkpt lat="45.98617314869486" lon="11.26215056109668"><ele>500.0</ele><time>2026-04-26T14:56:08Z</time></trkpt><trkpt lat="45.98608737685" lon="11.261969655911049"><ele>500.0</ele><time>2026-04-26T14:56:09Z</time></trkpt><trkpt lat="45.98599823164199" lon="11.26177694441837"><ele>501.66666666666663</ele><time>2026-04-26T14:56:10Z</time></trkpt><trkpt lat="45.98590236265736" lon="11.261575879359935"><ele>503.33333333333337</ele><time>2026-04-26T14:56:11Z</time></trkpt><trkpt lat="45.98580194450969" lon="11.261375330933484"><ele>505.0</ele><time>2026-04-26T14:56:12Z</time></trkpt><trkpt lat="45.985709165309125" lon="11.261168021699852"><ele>505.0</ele><time>2026-04-26T14:56:13Z</time></trkpt><trkpt lat="45.98561461859853" lon="11.260960900125996"><ele>505.0</ele><time>2026-04-26T14:56:14Z</time></trkpt><trkpt lat="45.98551720711871" lon="11.260759123649335"><ele>505.0</ele><time>2026-04-26T14:56:15Z</time></trkpt><trkpt lat="45.98543530963259" lon="11.260537406040598"><ele>508.6666666666667</ele><time>2026-04-26T14:56:16Z</time></trkpt><trkpt lat="45.985327617514784" lon="11.26034628038093"><ele>512.3333333333334</ele><time>2026-04-26T14:56:17Z</time></trkpt><trkpt lat="45.985229322563455" lon="11.260133106090672"><ele>516.0</ele><time>2026-04-26T14:56:18Z</time></trkpt><trkpt lat="45.98514331057094" lon="11.259908332939464"><ele>513.0</ele><time>2026-04-26T14:56:19Z</time></trkpt><trkpt lat="45.985033623634536" lon="11.259711214558243"><ele>510.0</ele><time>2026-04-26T14:56:20Z</time></trkpt><trkpt lat="45.98494938239403" lon="11.259486591733593"><ele>507.0</ele><time>2026-04-26T14:56:21Z</time></trkpt><trkpt lat="45.98485172899112" lon="11.259273651719667"><ele>507.0</ele><time>2026-04-26T14:56:22Z</time></trkpt><trkpt lat="45.98474109978352" lon="11.259072520140695"><ele>507.0</ele><time>2026-04-26T14:56:23Z</time></trkpt><trkpt lat="45.98464029163221" lon="11.258866599768176"><ele>507.0</ele><time>2026-04-26T14:56:24Z</time></trkpt><trkpt lat="45.98455256248311" lon="11.258645558151995"><ele>511.33333333333337</ele><time>2026-04-26T14:56:25Z</time></trkpt><trkpt lat="45.98445222175909" lon="11.258438677663301"><ele>515.6666666666667</ele><time>2026-04-26T14:56:26Z</time></trkpt><trkpt lat="45.98433224504553" lon="11.258240931461584"><ele>520.0</ele><time>2026-04-26T14:56:27Z</time></trkpt><trkpt lat="45.98422497011806" lon="11.25803342799858"><ele>516.6666666666667</ele><time>2026-04-26T14:56:28Z</time></trkpt><trkpt lat="45.98410453949167" lon="11.257847759373226"><ele>513.3333333333334</ele><time>2026-04-26T14:56:29Z</time></trkpt><trkpt lat="45.984012882200496" lon="11.25767012933763"><ele>510.0</ele><time>2026-04-26T14:56:30Z</time></trkpt><trkpt lat="45.98388739851499" lon="11.25746785429479"><ele>513.0</ele><time>2026-04-26T14:56:31Z</time></trkpt><trkpt lat="45.98374428124925" lon="11.2572389096383"><ele>516.0</ele><time>2026-04-26T14:56:32Z</time></trkpt><trkpt lat="45.98361594791963" lon="11.257057564406235"><ele>519.0</ele><time>2026-04-26T14:56:33Z</time></trkpt><trkpt lat="45.98350007314412" lon="11.256886649547976"><ele>519.0</ele><time>2026-04-26T14:56:34Z</time></trkpt><trkpt lat="45.98339037898746" lon="11.256713905943064"><ele>519.0</ele><time>2026-04-26T14:56:35Z</time></trkpt><trkpt lat="45.983291195583796" lon="11.25652573980754"><ele>519.0</ele><time>2026-04-26T14:56:36Z</time></trkpt><trkpt lat="45.98319002215802" lon="11.256345564522913"><ele>518.25</ele><time>2026-04-26T14:56:37Z</time></trkpt><trkpt lat="45.983136363601204" lon="11.25615151247601"><ele>517.5</ele><time>2026-04-26T14:56:38Z</time></trkpt><trkpt lat="45.98309263606674" lon="11.25594923585795"><ele>516.75</ele><time>2026-04-26T14:56:39Z</time></trkpt><trkpt lat="45.98303354690902" lon="11.255750479468258"><ele>516.0</ele><time>2026-04-26T14:56:40Z</time></trkpt><trkpt lat="45.982984854859986" lon="11.255522108229897"><ele>520.3333333333334</ele><time>2026-04-26T14:56:41Z</time></trkpt><trkpt lat="45.98291878757083" lon="11.255318523598824"><ele>524.6666666666667</ele><time>2026-04-26T14:56:42Z</time></trkpt><trkpt lat="45.9828362051081" lon="11.255133905287405"><ele>529.0</ele><time>2026-04-26T14:56:43Z</time></trkpt><trkpt lat="45.98274452477518" lon="11.254961206377788"><ele>527.6666666666667</ele><time>2026-04-26T14:56:44Z</time></trkpt><trkpt lat="45.9826490089535" lon="11.254778342794223"><ele>526.3333333333334</ele><time>2026-04-26T14:56:45Z</time></trkpt><trkpt lat="45.98254764722196" lon="11.254571295976843"><ele>525.0</ele><time>2026-04-26T14:56:46Z</time></trkpt><trkpt lat="45.98244392630021" lon="11.254366657868443"><ele>525.0</ele><time>2026-04-26T14:56:47Z</time></trkpt><trkpt lat="45.98234265685893" lon="11.254153141341734"><ele>525.0</ele><time>2026-04-26T14:56:48Z</time></trkpt><trkpt lat="45.98223732573829" lon="11.25395379973723"><ele>525.0</ele><time>2026-04-26T14:56:49Z</time></trkpt><trkpt lat="45.98216452545967" lon="11.25373794544516"><ele>527.0</ele><time>2026-04-26T14:56:50Z</time></trkpt><trkpt lat="45.9820918154541" lon="11.253517683811515"><ele>529.0</ele><time>2026-04-26T14:56:51Z</time></trkpt><trkpt lat="45.98201650600788" lon="11.253283892722619"><ele>531.0</ele><time>2026-04-26T14:56:52Z</time></trkpt><trkpt lat="45.981991764144205" lon="11.253027001565847"><ele>535.6666666666666</ele><time>2026-04-26T14:56:53Z</time></trkpt><trkpt lat="45.981971774580664" lon="11.252760666194856"><ele>540.3333333333333</ele><time>2026-04-26T14:56:54Z</time></trkpt><trkpt lat="45.981976367233216" lon="11.252483804521646"><ele>545.0</ele><time>2026-04-26T14:56:55Z</time></trkpt><trkpt lat="45.98199292023567" lon="11.252206331167018"><ele>547.6666666666666</ele><time>2026-04-26T14:56:56Z</time></trkpt><trkpt lat="45.981996040893485" lon="11.25192078093764"><ele>550.3333333333334</ele><time>2026-04-26T14:56:57Z</time></trkpt><trkpt lat="45.982016933479244" lon="11.251644291092775"><ele>553.0</ele><time>2026-04-26T14:56:58Z</time></trkpt><trkpt lat="45.98203535284961" lon="11.251378217597548"><ele>555.0</ele><time>2026-04-26T14:56:59Z</time></trkpt><trkpt lat="45.98205219283315" lon="11.251143126742202"><ele>557.0</ele><time>2026-04-26T14:57:00Z</time></trkpt><trkpt lat="45.98206346705391" lon="11.250911077408178"><ele>559.0</ele><time>2026-04-26T14:57:01Z</time></trkpt><trkpt lat="45.98205677079344" lon="11.250694346547355"><ele>562.0</ele><time>2026-04-26T14:57:02Z</time></trkpt><trkpt lat="45.982021224144546" lon="11.25049564381323"><ele>565.0</ele><time>2026-04-26T14:57:03Z</time></trkpt><trkpt lat="45.981954367402075" lon="11.250315785603222"><ele>568.0</ele><time>2026-04-26T14:57:04Z</time></trkpt><trkpt lat="45.98186094139672" lon="11.25013819906646"><ele>571.0</ele><time>2026-04-26T14:57:05Z</time></trkpt><trkpt lat="45.98174267657101" lon="11.249977631817469"><ele>565.0</ele><time>2026-04-26T14:57:06Z</time></trkpt><trkpt lat="45.98162380383147" lon="11.249806032552563"><ele>559.0</ele><time>2026-04-26T14:57:07Z</time></trkpt><trkpt lat="45.98149869679323" lon="11.24964369736074"><ele>553.0</ele><time>2026-04-26T14:57:08Z</time></trkpt><trkpt lat="45.981378739056595" lon="11.249515175651894"><ele>553.0</ele><time>2026-04-26T14:57:09Z</time></trkpt><trkpt lat="45.981266207486726" lon="11.249370065120184"><ele>553.0</ele><time>2026-04-26T14:57:10Z</time></trkpt><trkpt lat="45.98114965355078" lon="11.249233946173868"><ele>553.0</ele><time>2026-04-26T14:57:11Z</time></trkpt><trkpt lat="45.98101030737404" lon="11.249141810680062"><ele>548.0</ele><time>2026-04-26T14:57:12Z</time></trkpt><trkpt lat="45.98084912813048" lon="11.249089194843375"><ele>543.0</ele><time>2026-04-26T14:57:13Z</time></trkpt><trkpt lat="45.980685815266845" lon="11.249059710994622"><ele>538.0</ele><time>2026-04-26T14:57:14Z</time></trkpt><trkpt lat="45.98052271325123" lon="11.249026880007634"><ele>538.0</ele><time>2026-04-26T14:57:15Z</time></trkpt><trkpt lat="45.9803642228042" lon="11.248998962952747"><ele>538.0</ele><time>2026-04-26T14:57:16Z</time></trkpt><trkpt lat="45.98021127974829" lon="11.249002958543684"><ele>538.0</ele><time>2026-04-26T14:57:17Z</time></trkpt><trkpt lat="45.98004762608389" lon="11.249050160967457"><ele>541.0</ele><time>2026-04-26T14:57:18Z</time></trkpt><trkpt lat="45.97988598329715" lon="11.249083892134855"><ele>544.0</ele><time>2026-04-26T14:57:19Z</time></trkpt><trkpt lat="45.97971898873657" lon="11.249102374108025"><ele>547.0</ele><time>2026-04-26T14:57:20Z</time></trkpt><trkpt lat="45.97954613639408" lon="11.249127581144084"><ele>547.0</ele><time>2026-04-26T14:57:21Z</time></trkpt><trkpt lat="45.979381650303026" lon="11.249154928709572"><ele>547.0</ele><time>2026-04-26T14:57:22Z</time></trkpt><trkpt lat="45.979222439496304" lon="11.249178234128681"><ele>547.0</ele><time>2026-04-26T14:57:23Z</time></trkpt><trkpt lat="45.9790585651964" lon="11.24920733843085"><ele>548.0</ele><time>2026-04-26T14:57:24Z</time></trkpt><trkpt lat="45.9788999768376" lon="11.249212588530101"><ele>549.0</ele><time>2026-04-26T14:57:25Z</time></trkpt><trkpt lat="45.97876440660197" lon="11.249122203099027"><ele>550.0</ele><time>2026-04-26T14:57:26Z</time></trkpt><trkpt lat="45.978644461105965" lon="11.249013845775998"><ele>561.3333333333334</ele><time>2026-04-26T14:57:27Z</time></trkpt><trkpt lat="45.97854611557341" lon="11.248861322650837"><ele>572.6666666666666</ele><time>2026-04-26T14:57:28Z</time></trkpt><trkpt lat="45.97845679097341" lon="11.24868698333283"><ele>584.0</ele><time>2026-04-26T14:57:29Z</time></trkpt><trkpt lat="45.97835337778951" lon="11.248489065413754"><ele>582.3333333333333</ele><time>2026-04-26T14:57:30Z</time></trkpt><trkpt lat="45.978270517683825" lon="11.248279673607332"><ele>580.6666666666666</ele><time>2026-04-26T14:57:31Z</time></trkpt><trkpt lat="45.97817385877153" lon="11.248069788454902"><ele>579.0</ele><time>2026-04-26T14:57:32Z</time></trkpt><trkpt lat="45.97807549624424" lon="11.247852456436716"><ele>579.0</ele><time>2026-04-26T14:57:33Z</time></trkpt><trkpt lat="45.977972299132325" lon="11.247627000322815"><ele>579.0</ele><time>2026-04-26T14:57:34Z</time></trkpt><trkpt lat="45.97786648181378" lon="11.247399112777027"><ele>579.0</ele><time>2026-04-26T14:57:35Z</time></trkpt><trkpt lat="45.97775977493594" lon="11.247173956816614"><ele>575.6666666666666</ele><time>2026-04-26T14:57:36.001Z</time></trkpt><trkpt lat="45.97765345133891" lon="11.246944876953554"><ele>572.3333333333333</ele><time>2026-04-26T14:57:37.001Z</time></trkpt><trkpt lat="45.977532831288855" lon="11.246739457424617"><ele>569.0</ele><time>2026-04-26T14:57:38.001Z</time></trkpt><trkpt lat="45.97739062689006" lon="11.246560734888833"><ele>580.0</ele><time>2026-04-26T14:57:39.001Z</time></trkpt><trkpt lat="45.97723162568597" lon="11.24640918725041"><ele>591.0</ele><time>2026-04-26T14:57:40.001Z</time></trkpt><trkpt lat="45.977071571043936" lon="11.246256229716012"><ele>602.0</ele><time>2026-04-26T14:57:41.001Z</time></trkpt><trkpt lat="45.97691453202557" lon="11.24609303358921"><ele>602.0</ele><time>2026-04-26T14:57:42.001Z</time></trkpt><trkpt lat="45.976747348306525" lon="11.24594266605303"><ele>602.0</ele><time>2026-04-26T14:57:43.001Z</time></trkpt><trkpt lat="45.97657573443153" lon="11.245825843307475"><ele>602.0</ele><time>2026-04-26T14:57:44.001Z</time></trkpt><trkpt lat="45.976404131283054" lon="11.245730368882988"><ele>599.6666666666666</ele><time>2026-04-26T14:57:45.001Z</time></trkpt><trkpt lat="45.976263655851376" lon="11.245589013053076"><ele>597.3333333333334</ele><time>2026-04-26T14:57:46.001Z</time></trkpt><trkpt lat="45.976141425095896" lon="11.245424853741953"><ele>595.0</ele><time>2026-04-26T14:57:47.001Z</time></trkpt><trkpt lat="45.97600508019802" lon="11.245277357872418"><ele>595.0</ele><time>2026-04-26T14:57:48.001Z</time></trkpt><trkpt lat="45.975882729115924" lon="11.245123163296332"><ele>595.0</ele><time>2026-04-26T14:57:49.001Z</time></trkpt><trkpt lat="45.97573139407654" lon="11.245004395931664"><ele>595.0</ele><time>2026-04-26T14:57:50.001Z</time></trkpt><trkpt lat="45.97555703638515" lon="11.244914297746114"><ele>594.6666666666667</ele><time>2026-04-26T14:57:51.001Z</time></trkpt><trkpt lat="45.975380534736864" lon="11.24484150372568"><ele>594.3333333333334</ele><time>2026-04-26T14:57:52.001Z</time></trkpt><trkpt lat="45.97522002422475" lon="11.24474834075716"><ele>594.0</ele><time>2026-04-26T14:57:53.001Z</time></trkpt><trkpt lat="45.97505573288891" lon="11.244664243541639"><ele>590.0</ele><time>2026-04-26T14:57:54.001Z</time></trkpt><trkpt lat="45.97490113729149" lon="11.244597171584799"><ele>586.0</ele><time>2026-04-26T14:57:55.001Z</time></trkpt><trkpt lat="45.9747637590653" lon="11.244557894870693"><ele>582.0</ele><time>2026-04-26T14:57:56.001Z</time></trkpt><trkpt lat="45.974645061836426" lon="11.244532002307066"><ele>578.0</ele><time>2026-04-26T14:57:57.001Z</time></trkpt><trkpt lat="45.974529736111904" lon="11.244476273092207"><ele>578.0</ele><time>2026-04-26T14:57:58.001Z</time></trkpt><trkpt lat="45.97441942555537" lon="11.244434788055774"><ele>578.0</ele><time>2026-04-26T14:57:59.001Z</time></trkpt><trkpt lat="45.97431486448724" lon="11.24437956977831"><ele>578.0</ele><time>2026-04-26T14:58:00.001Z</time></trkpt><trkpt lat="45.97423672359642" lon="11.244227342408687"><ele>578.0</ele><time>2026-04-26T14:58:01.001Z</time></trkpt><trkpt lat="45.97413066886998" lon="11.244087830770775"><ele>576.6666666666666</ele><time>2026-04-26T14:58:02Z</time></trkpt><trkpt lat="45.97403678155616" lon="11.243912762491586"><ele>575.3333333333334</ele><time>2026-04-26T14:58:03Z</time></trkpt><trkpt lat="45.973937883856195" lon="11.243724699196846"><ele>574.0</ele><time>2026-04-26T14:58:04Z</time></trkpt><trkpt lat="45.9738354443183" lon="11.243545337809755"><ele>574.0</ele><time>2026-04-26T14:58:05Z</time></trkpt><trkpt lat="45.97372600437477" lon="11.243384210393332"><ele>574.0</ele><time>2026-04-26T14:58:06Z</time></trkpt><trkpt lat="45.97359525501346" lon="11.243248110934958"><ele>574.0</ele><time>2026-04-26T14:58:07Z</time></trkpt><trkpt lat="45.973447770584094" lon="11.243135893728555"><ele>576.3333333333334</ele><time>2026-04-26T14:58:08Z</time></trkpt><trkpt lat="45.97329286492395" lon="11.243022211440817"><ele>578.6666666666666</ele><time>2026-04-26T14:58:09Z</time></trkpt><trkpt lat="45.973144918115274" lon="11.242908035765783"><ele>581.0</ele><time>2026-04-26T14:58:10Z</time></trkpt><trkpt lat="45.97299815372915" lon="11.242792509439301"><ele>581.0</ele><time>2026-04-26T14:58:11Z</time></trkpt><trkpt lat="45.97284610777541" lon="11.242686991450244"><ele>581.0</ele><time>2026-04-26T14:58:12Z</time></trkpt><trkpt lat="45.972671276614435" lon="11.242621007795751"><ele>581.0</ele><time>2026-04-26T14:58:13Z</time></trkpt><trkpt lat="45.972498475255435" lon="11.24256381538757"><ele>579.6666666666666</ele><time>2026-04-26T14:58:14Z</time></trkpt><trkpt lat="45.972317602852435" lon="11.242534154022763"><ele>578.3333333333334</ele><time>2026-04-26T14:58:15Z</time></trkpt><trkpt lat="45.97213934772681" lon="11.242508732399429"><ele>577.0</ele><time>2026-04-26T14:58:16Z</time></trkpt><trkpt lat="45.97196796949981" lon="11.242475074350546"><ele>577.0</ele><time>2026-04-26T14:58:17Z</time></trkpt><trkpt lat="45.971789992753074" lon="11.242427380145433"><ele>577.0</ele><time>2026-04-26T14:58:18Z</time></trkpt><trkpt lat="45.97162019732765" lon="11.242383958555425"><ele>577.0</ele><time>2026-04-26T14:58:19Z</time></trkpt><trkpt lat="45.971478924408075" lon="11.242304409079921"><ele>584.0</ele><time>2026-04-26T14:58:20Z</time></trkpt><trkpt lat="45.97135161368381" lon="11.242216701600595"><ele>591.0</ele><time>2026-04-26T14:58:21Z</time></trkpt><trkpt lat="45.97120752778558" lon="11.242114975313436"><ele>598.0</ele><time>2026-04-26T14:58:22Z</time></trkpt><trkpt lat="45.9710626908009" lon="11.241989569098914"><ele>598.0</ele><time>2026-04-26T14:58:23Z</time></trkpt><trkpt lat="45.97090201517731" lon="11.241872072216477"><ele>598.0</ele><time>2026-04-26T14:58:24Z</time></trkpt><trkpt lat="45.97073634412646" lon="11.241755551731144"><ele>598.0</ele><time>2026-04-26T14:58:25Z</time></trkpt><trkpt lat="45.97056964323357" lon="11.241629240095412"><ele>595.0</ele><time>2026-04-26T14:58:26Z</time></trkpt><trkpt lat="45.97041196189745" lon="11.241502188333499"><ele>592.0</ele><time>2026-04-26T14:58:27Z</time></trkpt><trkpt lat="45.97026343683446" lon="11.241407363868472"><ele>589.0</ele><time>2026-04-26T14:58:28Z</time></trkpt><trkpt lat="45.970115186839344" lon="11.24129533261097"><ele>591.3333333333334</ele><time>2026-04-26T14:58:29Z</time></trkpt><trkpt lat="45.969964360706534" lon="11.241201600595023"><ele>593.6666666666666</ele><time>2026-04-26T14:58:30Z</time></trkpt><trkpt lat="45.9698045631153" lon="11.241146152144657"><ele>596.0</ele><time>2026-04-26T14:58:31Z</time></trkpt><trkpt lat="45.96965054920382" lon="11.241112151552509"><ele>596.0</ele><time>2026-04-26T14:58:32Z</time></trkpt><trkpt lat="45.96950742491157" lon="11.241014220562606"><ele>596.0</ele><time>2026-04-26T14:58:33Z</time></trkpt><trkpt lat="45.969378772420484" lon="11.240891457557561"><ele>596.0</ele><time>2026-04-26T14:58:34Z</time></trkpt><trkpt lat="45.9692533958039" lon="11.240782577453231"><ele>594.75</ele><time>2026-04-26T14:58:35Z</time></trkpt><trkpt lat="45.96914990604166" lon="11.240677473513925"><ele>593.5</ele><time>2026-04-26T14:58:36Z</time></trkpt><trkpt lat="45.969085684980165" lon="11.240567702485082"><ele>592.25</ele><time>2026-04-26T14:58:37Z</time></trkpt><trkpt lat="45.969034126073474" lon="11.240430263784372"><ele>591.0</ele><time>2026-04-26T14:58:38Z</time></trkpt><trkpt lat="45.96896466888248" lon="11.240267922213613"><ele>596.25</ele><time>2026-04-26T14:58:39Z</time></trkpt><trkpt lat="45.96888311241934" lon="11.240121155670478"><ele>601.5</ele><time>2026-04-26T14:58:40Z</time></trkpt><trkpt lat="45.96877164758175" lon="11.240004381121718"><ele>606.75</ele><time>2026-04-26T14:58:41Z</time></trkpt><trkpt lat="45.96865933613996" lon="11.239897033793683"><ele>612.0</ele><time>2026-04-26T14:58:42Z</time></trkpt><trkpt lat="45.968538955190894" lon="11.239801488037802"><ele>615.75</ele><time>2026-04-26T14:58:43Z</time></trkpt><trkpt lat="45.9684154349173" lon="11.239721676846841"><ele>619.5</ele><time>2026-04-26T14:58:44Z</time></trkpt><trkpt lat="45.9682699722128" lon="11.239671090744194"><ele>623.25</ele><time>2026-04-26T14:58:45Z</time></trkpt><trkpt lat="45.96810864166901" lon="11.239664008507733"><ele>627.0</ele><time>2026-04-26T14:58:46Z</time></trkpt><trkpt lat="45.96794164925879" lon="11.239683673904908"><ele>627.0</ele><time>2026-04-26T14:58:47Z</time></trkpt><trkpt lat="45.967770851258216" lon="11.23969689930247"><ele>627.0</ele><time>2026-04-26T14:58:48Z</time></trkpt><trkpt lat="45.96760250620957" lon="11.239703216753622"><ele>627.0</ele><time>2026-04-26T14:58:49Z</time></trkpt><trkpt lat="45.96743969775281" lon="11.239700185436865"><ele>627.0</ele><time>2026-04-26T14:58:50Z</time></trkpt><trkpt lat="45.96730829029777" lon="11.239654394159396"><ele>627.0</ele><time>2026-04-26T14:58:51Z</time></trkpt><trkpt lat="45.967217464385875" lon="11.239592166602412"><ele>627.0</ele><time>2026-04-26T14:58:52Z</time></trkpt><trkpt lat="45.96715008048094" lon="11.239512956768111"><ele>627.0</ele><time>2026-04-26T14:58:53Z</time></trkpt><trkpt lat="45.96716130204034" lon="11.239360825274508"><ele>627.0</ele><time>2026-04-26T14:58:54Z</time></trkpt><trkpt lat="45.96716873090266" lon="11.23921469999397"><ele>627.0</ele><time>2026-04-26T14:58:55Z</time></trkpt><trkpt lat="45.96713909404539" lon="11.239072226813033"><ele>627.0</ele><time>2026-04-26T14:58:56Z</time></trkpt><trkpt lat="45.967086783500356" lon="11.238937171408686"><ele>627.0</ele><time>2026-04-26T14:58:57Z</time></trkpt><trkpt lat="45.9670025127885" lon="11.238808198018752"><ele>627.0</ele><time>2026-04-26T14:58:58Z</time></trkpt><trkpt lat="45.966912642681336" lon="11.238672571800546"><ele>626.5</ele><time>2026-04-26T14:58:59Z</time></trkpt><trkpt lat="45.96682273599187" lon="11.238522508763525"><ele>626.0</ele><time>2026-04-26T14:59:00Z</time></trkpt><trkpt lat="45.96673710421048" lon="11.238364973454383"><ele>625.5</ele><time>2026-04-26T14:59:01Z</time></trkpt><trkpt lat="45.96664240052075" lon="11.238213226514604"><ele>625.0</ele><time>2026-04-26T14:59:02Z</time></trkpt><trkpt lat="45.966543711068965" lon="11.238072843013127"><ele>631.0</ele><time>2026-04-26T14:59:03Z</time></trkpt><trkpt lat="45.96642678468174" lon="11.23796963831594"><ele>637.0</ele><time>2026-04-26T14:59:04Z</time></trkpt><trkpt lat="45.96629275121788" lon="11.237910766230954"><ele>643.0</ele><time>2026-04-26T14:59:05Z</time></trkpt><trkpt lat="45.96614914727654" lon="11.237859597347617"><ele>649.0</ele><time>2026-04-26T14:59:06Z</time></trkpt><trkpt lat="45.96601394821332" lon="11.237773065255475"><ele>649.0</ele><time>2026-04-26T14:59:07Z</time></trkpt><trkpt lat="45.96587276013896" lon="11.237685640531838"><ele>649.0</ele><time>2026-04-26T14:59:08Z</time></trkpt><trkpt lat="45.96574358160902" lon="11.237591637538333"><ele>649.0</ele><time>2026-04-26T14:59:09Z</time></trkpt><trkpt lat="45.96566089771554" lon="11.237517001520702"><ele>649.0</ele><time>2026-04-26T14:59:10Z</time></trkpt><trkpt lat="45.96558138797055" lon="11.23743742343349"><ele>654.0</ele><time>2026-04-26T14:59:11Z</time></trkpt><trkpt lat="45.96540309554304" lon="11.237277629656894"><ele>659.0</ele><time>2026-04-26T14:59:12Z</time></trkpt><trkpt lat="45.96528594372154" lon="11.237243815439344"><ele>664.0</ele><time>2026-04-26T14:59:13Z</time></trkpt><trkpt lat="45.96517450624792" lon="11.237255827457563"><ele>669.0</ele><time>2026-04-26T14:59:14Z</time></trkpt><trkpt lat="45.96506724956482" lon="11.237254583923468"><ele>666.6</ele><time>2026-04-26T14:59:15Z</time></trkpt><trkpt lat="45.96496018132404" lon="11.237257773618198"><ele>664.2</ele><time>2026-04-26T14:59:16Z</time></trkpt><trkpt lat="45.96486585087888" lon="11.23725626151304"><ele>661.8000000000001</ele><time>2026-04-26T14:59:17Z</time></trkpt><trkpt lat="45.964767099997715" lon="11.237152540183974"><ele>659.4000000000001</ele><time>2026-04-26T14:59:19Z</time></trkpt><trkpt lat="45.96475595917464" lon="11.237043522919759"><ele>657.0</ele><time>2026-04-26T14:59:20Z</time></trkpt><trkpt lat="45.964799728977184" lon="11.2369462896363"><ele>657.0</ele><time>2026-04-26T14:59:21Z</time></trkpt><trkpt lat="45.964811052166425" lon="11.236835707996661"><ele>657.0</ele><time>2026-04-26T14:59:22Z</time></trkpt><trkpt lat="45.96482262184102" lon="11.236719068493771"><ele>657.0</ele><time>2026-04-26T14:59:23Z</time></trkpt><trkpt lat="45.9648272999293" lon="11.236582576050347"><ele>657.0</ele><time>2026-04-26T14:59:24Z</time></trkpt><trkpt lat="45.96480933979935" lon="11.236434721205484"><ele>657.0</ele><time>2026-04-26T14:59:25Z</time></trkpt><trkpt lat="45.96478276937365" lon="11.236277754746698"><ele>661.75</ele><time>2026-04-26T14:59:26Z</time></trkpt><trkpt lat="45.96474410768069" lon="11.236117801288678"><ele>666.5</ele><time>2026-04-26T14:59:27Z</time></trkpt><trkpt lat="45.964692560306204" lon="11.235944898846963"><ele>671.25</ele><time>2026-04-26T14:59:28Z</time></trkpt><trkpt lat="45.964636112987414" lon="11.235762514673677"><ele>676.0</ele><time>2026-04-26T14:59:29Z</time></trkpt><trkpt lat="45.96457073326954" lon="11.235590678946568"><ele>679.0</ele><time>2026-04-26T14:59:30Z</time></trkpt><trkpt lat="45.96454323526919" lon="11.23539946541331"><ele>682.0</ele><time>2026-04-26T14:59:31Z</time></trkpt><trkpt lat="45.96452431554521" lon="11.235206369798243"><ele>685.0</ele><time>2026-04-26T14:59:32Z</time></trkpt><trkpt lat="45.964493410333624" lon="11.235015143899789"><ele>688.0</ele><time>2026-04-26T14:59:33Z</time></trkpt><trkpt lat="45.96447610012838" lon="11.234841186387483"><ele>689.8</ele><time>2026-04-26T14:59:34Z</time></trkpt><trkpt lat="45.96443587184386" lon="11.234678613276413"><ele>691.5999999999999</ele><time>2026-04-26T14:59:35Z</time></trkpt><trkpt lat="45.964392171725784" lon="11.2345313724547"><ele>693.4000000000001</ele><time>2026-04-26T14:59:36Z</time></trkpt><trkpt lat="45.964357803891744" lon="11.234404583446574"><ele>695.2</ele><time>2026-04-26T14:59:37Z</time></trkpt><trkpt lat="45.964350311755275" lon="11.23426668989313"><ele>697.0</ele><time>2026-04-26T14:59:38Z</time></trkpt><trkpt lat="45.964396578428605" lon="11.234124267219688"><ele>697.0</ele><time>2026-04-26T14:59:39Z</time></trkpt><trkpt lat="45.96443432753174" lon="11.23396587213992"><ele>697.0</ele><time>2026-04-26T14:59:40Z</time></trkpt><trkpt lat="45.96448115816309" lon="11.23381720936984"><ele>697.0</ele><time>2026-04-26T14:59:41Z</time></trkpt><trkpt lat="45.964518654572615" lon="11.233675325918881"><ele>697.0</ele><time>2026-04-26T14:59:42.001Z</time></trkpt><trkpt lat="45.964569125708664" lon="11.233543549390816"><ele>697.0</ele><time>2026-04-26T14:59:43.001Z</time></trkpt><trkpt lat="45.964645486864946" lon="11.23342877791006"><ele>697.0</ele><time>2026-04-26T14:59:44.001Z</time></trkpt><trkpt lat="45.964732600438616" lon="11.233324535836607"><ele>697.0</ele><time>2026-04-26T14:59:45.001Z</time></trkpt><trkpt lat="45.964823174531766" lon="11.233223950926735"><ele>697.0</ele><time>2026-04-26T14:59:46.001Z</time></trkpt><trkpt lat="45.96489161528084" lon="11.233116305757148"><ele>697.0</ele><time>2026-04-26T14:59:47.001Z</time></trkpt><trkpt lat="45.96490974286471" lon="11.232985999002612"><ele>697.0</ele><time>2026-04-26T14:59:48.001Z</time></trkpt><trkpt lat="45.964882129391704" lon="11.232847503960787"><ele>698.0</ele><time>2026-04-26T14:59:49.001Z</time></trkpt><trkpt lat="45.96484833506642" lon="11.232700689573468"><ele>699.0</ele><time>2026-04-26T14:59:50.001Z</time></trkpt><trkpt lat="45.964812147312244" lon="11.232547817432714"><ele>700.0</ele><time>2026-04-26T14:59:51.001Z</time></trkpt><trkpt lat="45.96474930251349" lon="11.23242139798443"><ele>701.0</ele><time>2026-04-26T14:59:52.001Z</time></trkpt><trkpt lat="45.96466448678479" lon="11.23234178360018"><ele>702.0</ele><time>2026-04-26T14:59:53.001Z</time></trkpt><trkpt lat="45.96457652528033" lon="11.232321927000616"><ele>702.0</ele><time>2026-04-26T14:59:54.001Z</time></trkpt><trkpt lat="45.96450213173934" lon="11.232329000441482"><ele>702.0</ele><time>2026-04-26T14:59:55.001Z</time></trkpt><trkpt lat="45.96444807947766" lon="11.23219193298502"><ele>702.0</ele><time>2026-04-26T14:59:57.001Z</time></trkpt><trkpt lat="45.96449504623623" lon="11.232104765633418"><ele>702.0</ele><time>2026-04-26T14:59:58.001Z</time></trkpt><trkpt lat="45.964571942997985" lon="11.232088527989843"><ele>702.0</ele><time>2026-04-26T14:59:59.001Z</time></trkpt><trkpt lat="45.964661757464505" lon="11.232126076151907"><ele>702.0</ele><time>2026-04-26T15:00:00.001Z</time></trkpt><trkpt lat="45.964745367857134" lon="11.232134587970979"><ele>707.4000000000001</ele><time>2026-04-26T15:00:01.001Z</time></trkpt><trkpt lat="45.96485041799806" lon="11.232135545503116"><ele>712.8000000000001</ele><time>2026-04-26T15:00:02.001Z</time></trkpt><trkpt lat="45.96496482803296" lon="11.232142234007082"><ele>718.2</ele><time>2026-04-26T15:00:03.001Z</time></trkpt><trkpt lat="45.96508403385793" lon="11.232159407899404"><ele>723.6</ele><time>2026-04-26T15:00:04.001Z</time></trkpt><trkpt lat="45.96518472625462" lon="11.232175040396896"><ele>729.0</ele><time>2026-04-26T15:00:05.001Z</time></trkpt><trkpt lat="45.96526382282891" lon="11.2321541169561"><ele>729.0</ele><time>2026-04-26T15:00:06.001Z</time></trkpt><trkpt lat="45.96531112301177" lon="11.232083874712439"><ele>729.0</ele><time>2026-04-26T15:00:07.001Z</time></trkpt><trkpt lat="45.96530871107676" lon="11.23197433709696"><ele>729.0</ele><time>2026-04-26T15:00:08.001Z</time></trkpt><trkpt lat="45.96525667652044" lon="11.231888927225107"><ele>729.0</ele><time>2026-04-26T15:00:09.001Z</time></trkpt><trkpt lat="45.965165379836726" lon="11.23185167877436"><ele>729.0</ele><time>2026-04-26T15:00:10Z</time></trkpt><trkpt lat="45.96506872543602" lon="11.231822593701082"><ele>729.0</ele><time>2026-04-26T15:00:11Z</time></trkpt><trkpt lat="45.96496972174717" lon="11.231762169134184"><ele>729.0</ele><time>2026-04-26T15:00:12Z</time></trkpt><trkpt lat="45.96485548698363" lon="11.231713191469904"><ele>729.0</ele><time>2026-04-26T15:00:13Z</time></trkpt><trkpt lat="45.96473231034983" lon="11.231646435549731"><ele>729.0</ele><time>2026-04-26T15:00:14Z</time></trkpt><trkpt lat="45.964608467900575" lon="11.231542547710204"><ele>729.0</ele><time>2026-04-26T15:00:15Z</time></trkpt><trkpt lat="45.96450193883971" lon="11.231425647672198"><ele>732.3333333333334</ele><time>2026-04-26T15:00:16Z</time></trkpt><trkpt lat="45.964379669975465" lon="11.231282545931904"><ele>735.6666666666667</ele><time>2026-04-26T15:00:17Z</time></trkpt><trkpt lat="45.96426430353804" lon="11.231116362060929"><ele>739.0</ele><time>2026-04-26T15:00:18Z</time></trkpt><trkpt lat="45.96415785328345" lon="11.230947469826383"><ele>739.0</ele><time>2026-04-26T15:00:19Z</time></trkpt><trkpt lat="45.96404143275119" lon="11.230799118858972"><ele>739.0</ele><time>2026-04-26T15:00:20Z</time></trkpt><trkpt lat="45.96393111810032" lon="11.230641221711625"><ele>739.0</ele><time>2026-04-26T15:00:21Z</time></trkpt><trkpt lat="45.9638113220552" lon="11.230527368546584"><ele>747.0</ele><time>2026-04-26T15:00:22Z</time></trkpt><trkpt lat="45.96367199934196" lon="11.230479088053395"><ele>755.0</ele><time>2026-04-26T15:00:23Z</time></trkpt><trkpt lat="45.9635526132057" lon="11.230470124201261"><ele>763.0</ele><time>2026-04-26T15:00:24Z</time></trkpt><trkpt lat="45.96343570249165" lon="11.230528590562558"><ele>771.0</ele><time>2026-04-26T15:00:25Z</time></trkpt><trkpt lat="45.96333290807487" lon="11.230634882313433"><ele>764.0</ele><time>2026-04-26T15:00:26Z</time></trkpt><trkpt lat="45.963242073830095" lon="11.23076162625747"><ele>757.0</ele><time>2026-04-26T15:00:27Z</time></trkpt><trkpt lat="45.96313168666111" lon="11.230881925022304"><ele>750.0</ele><time>2026-04-26T15:00:28Z</time></trkpt><trkpt lat="45.96300789388509" lon="11.230963773248622"><ele>743.0</ele><time>2026-04-26T15:00:29Z</time></trkpt><trkpt lat="45.96289403083222" lon="11.231032285954136"><ele>743.0</ele><time>2026-04-26T15:00:30Z</time></trkpt><trkpt lat="45.96281425043414" lon="11.231131474364798"><ele>743.0</ele><time>2026-04-26T15:00:31Z</time></trkpt><trkpt lat="45.96277988743188" lon="11.231256581583448"><ele>743.0</ele><time>2026-04-26T15:00:32Z</time></trkpt><trkpt lat="45.96279041226215" lon="11.231378843327654"><ele>743.0</ele><time>2026-04-26T15:00:33Z</time></trkpt><trkpt lat="45.962793271254924" lon="11.231474051729958"><ele>743.0</ele><time>2026-04-26T15:00:34Z</time></trkpt><trkpt lat="45.962753752339545" lon="11.231551369281048"><ele>743.0</ele><time>2026-04-26T15:00:35Z</time></trkpt><trkpt lat="45.96267310632059" lon="11.231555707215044"><ele>743.0</ele><time>2026-04-26T15:00:36Z</time></trkpt><trkpt lat="45.96259320655348" lon="11.23150399903379"><ele>743.0</ele><time>2026-04-26T15:00:37Z</time></trkpt><trkpt lat="45.9625662949178" lon="11.231381353037696"><ele>743.0</ele><time>2026-04-26T15:00:38Z</time></trkpt><trkpt lat="45.962589356541464" lon="11.231263933475603"><ele>743.0</ele><time>2026-04-26T15:00:39Z</time></trkpt><trkpt lat="45.96267755916185" lon="11.231198247644162"><ele>743.0</ele><time>2026-04-26T15:00:40Z</time></trkpt><trkpt lat="45.96271782025453" lon="11.231083129114772"><ele>743.0</ele><time>2026-04-26T15:00:41Z</time></trkpt><trkpt lat="45.96275306010602" lon="11.23095681326101"><ele>743.0</ele><time>2026-04-26T15:00:42Z</time></trkpt><trkpt lat="45.96279177196598" lon="11.23082300514665"><ele>743.0</ele><time>2026-04-26T15:00:43Z</time></trkpt><trkpt lat="45.96288184840379" lon="11.230765342814658"><ele>743.0</ele><time>2026-04-26T15:00:44Z</time></trkpt><trkpt lat="45.96295911426475" lon="11.230699684356074"><ele>743.0</ele><time>2026-04-26T15:00:45Z</time></trkpt><trkpt lat="45.96301702421656" lon="11.230637044674474"><ele>748.5999999999999</ele><time>2026-04-26T15:00:46Z</time></trkpt><trkpt lat="45.963064751927085" lon="11.230561408726329"><ele>754.1999999999999</ele><time>2026-04-26T15:00:47Z</time></trkpt><trkpt lat="45.96309848176962" lon="11.230461660470153"><ele>759.8</ele><time>2026-04-26T15:00:48Z</time></trkpt><trkpt lat="45.96309437279984" lon="11.230308965442088"><ele>765.4</ele><time>2026-04-26T15:00:49Z</time></trkpt><trkpt lat="45.963074767065635" lon="11.23017024786245"><ele>771.0</ele><time>2026-04-26T15:00:50Z</time></trkpt><trkpt lat="45.96311275635875" lon="11.230036038752067"><ele>771.0</ele><time>2026-04-26T15:00:51Z</time></trkpt><trkpt lat="45.963164940768735" lon="11.229912792184589"><ele>771.0</ele><time>2026-04-26T15:00:52Z</time></trkpt><trkpt lat="45.96324284475061" lon="11.229837957864088"><ele>771.0</ele><time>2026-04-26T15:00:53Z</time></trkpt><trkpt lat="45.96333607179085" lon="11.229789968058824"><ele>771.0</ele><time>2026-04-26T15:00:54Z</time></trkpt><trkpt lat="45.96344350321918" lon="11.229738217243048"><ele>771.0</ele><time>2026-04-26T15:00:55Z</time></trkpt><trkpt lat="45.963546979292396" lon="11.229698856634124"><ele>779.75</ele><time>2026-04-26T15:00:56Z</time></trkpt><trkpt lat="45.963657298216596" lon="11.229690985476049"><ele>788.5</ele><time>2026-04-26T15:00:57Z</time></trkpt><trkpt lat="45.96377123186757" lon="11.229745156259662"><ele>797.25</ele><time>2026-04-26T15:00:58Z</time></trkpt><trkpt lat="45.9638976023531" lon="11.229746140054083"><ele>806.0</ele><time>2026-04-26T15:00:59Z</time></trkpt><trkpt lat="45.96403554240337" lon="11.229738094039089"><ele>806.0</ele><time>2026-04-26T15:01:00Z</time></trkpt><trkpt lat="45.96417514859294" lon="11.229699951596057"><ele>806.0</ele><time>2026-04-26T15:01:01Z</time></trkpt><trkpt lat="45.96433057907879" lon="11.229676476232816"><ele>806.0</ele><time>2026-04-26T15:01:02Z</time></trkpt><trkpt lat="45.964490467249725" lon="11.2296642482881"><ele>808.3333333333334</ele><time>2026-04-26T15:01:03Z</time></trkpt><trkpt lat="45.964660816445814" lon="11.229653827188816"><ele>810.6666666666667</ele><time>2026-04-26T15:01:04Z</time></trkpt><trkpt lat="45.96483004050654" lon="11.229651247626444"><ele>813.0</ele><time>2026-04-26T15:01:05Z</time></trkpt><trkpt lat="45.965003905769116" lon="11.229653153428082"><ele>816.6666666666667</ele><time>2026-04-26T15:01:06Z</time></trkpt><trkpt lat="45.96517767976481" lon="11.229653461892987"><ele>820.3333333333334</ele><time>2026-04-26T15:01:07Z</time></trkpt><trkpt lat="45.96534417449457" lon="11.229640479496734"><ele>824.0</ele><time>2026-04-26T15:01:08Z</time></trkpt><trkpt lat="45.96550641466049" lon="11.229601043502344"><ele>824.0</ele><time>2026-04-26T15:01:09Z</time></trkpt><trkpt lat="45.96565394202615" lon="11.229543588868701"><ele>824.0</ele><time>2026-04-26T15:01:10Z</time></trkpt><trkpt lat="45.96580540322028" lon="11.229501319627765"><ele>824.0</ele><time>2026-04-26T15:01:11Z</time></trkpt><trkpt lat="45.96593034673222" lon="11.229512759277528"><ele>824.0</ele><time>2026-04-26T15:01:12Z</time></trkpt><trkpt lat="45.966037533549255" lon="11.229530384909111"><ele>826.5</ele><time>2026-04-26T15:01:13Z</time></trkpt><trkpt lat="45.966145136275806" lon="11.229588688711136"><ele>829.0</ele><time>2026-04-26T15:01:14Z</time></trkpt><trkpt lat="45.966266369572956" lon="11.229650239107913"><ele>831.5</ele><time>2026-04-26T15:01:15Z</time></trkpt><trkpt lat="45.96638173430398" lon="11.229725005423306"><ele>834.0</ele><time>2026-04-26T15:01:16Z</time></trkpt><trkpt lat="45.96650192205269" lon="11.229760606691395"><ele>834.0</ele><time>2026-04-26T15:01:17Z</time></trkpt><trkpt lat="45.96663000487701" lon="11.22973540515613"><ele>834.0</ele><time>2026-04-26T15:01:18Z</time></trkpt><trkpt lat="45.966744744715115" lon="11.229667096813353"><ele>834.0</ele><time>2026-04-26T15:01:19Z</time></trkpt><trkpt lat="45.966839952640825" lon="11.229596492142427"><ele>834.0</ele><time>2026-04-26T15:01:20Z</time></trkpt><trkpt lat="45.966931350647734" lon="11.229593200212726"><ele>832.4000000000001</ele><time>2026-04-26T15:01:21Z</time></trkpt><trkpt lat="45.96702090221093" lon="11.229637746337296"><ele>830.8</ele><time>2026-04-26T15:01:22Z</time></trkpt><trkpt lat="45.96709770742112" lon="11.229677637536083"><ele>829.2</ele><time>2026-04-26T15:01:23Z</time></trkpt><trkpt lat="45.96716361127754" lon="11.22978577828743"><ele>827.5999999999999</ele><time>2026-04-26T15:01:23.999Z</time></trkpt><trkpt lat="45.96719670955559" lon="11.22993481094503"><ele>826.0</ele><time>2026-04-26T15:01:24.999Z</time></trkpt><trkpt lat="45.96720515946173" lon="11.230084232526877"><ele>826.0</ele><time>2026-04-26T15:01:25.999Z</time></trkpt><trkpt lat="45.967219106169125" lon="11.230245453970834"><ele>826.0</ele><time>2026-04-26T15:01:26.999Z</time></trkpt><trkpt lat="45.967246884155266" lon="11.230406781474727"><ele>826.0</ele><time>2026-04-26T15:01:27.999Z</time></trkpt><trkpt lat="45.96726001066831" lon="11.230582775590937"><ele>826.0</ele><time>2026-04-26T15:01:28.999Z</time></trkpt><trkpt lat="45.967308766378025" lon="11.230741916032102"><ele>824.4</ele><time>2026-04-26T15:01:29.999Z</time></trkpt><trkpt lat="45.96739783284522" lon="11.23085644781815"><ele>822.8</ele><time>2026-04-26T15:01:30.999Z</time></trkpt><trkpt lat="45.96748788284686" lon="11.230902507317161"><ele>821.1999999999999</ele><time>2026-04-26T15:01:31.999Z</time></trkpt><trkpt lat="45.96759402318772" lon="11.231001909429033"><ele>819.5999999999999</ele><time>2026-04-26T15:01:32.999Z</time></trkpt><trkpt lat="45.96765437113744" lon="11.231113881035354"><ele>818.0</ele><time>2026-04-26T15:01:33.999Z</time></trkpt><trkpt lat="45.96767328832403" lon="11.231246033986851"><ele>822.0</ele><time>2026-04-26T15:01:34.999Z</time></trkpt><trkpt lat="45.9676832523774" lon="11.23139883528452"><ele>826.0</ele><time>2026-04-26T15:01:35.999Z</time></trkpt><trkpt lat="45.96768785795805" lon="11.231548930166662"><ele>830.0</ele><time>2026-04-26T15:01:36.999Z</time></trkpt><trkpt lat="45.96767896437298" lon="11.231687565993687"><ele>834.0</ele><time>2026-04-26T15:01:37.999Z</time></trkpt><trkpt lat="45.967680863845565" lon="11.23181590789181"><ele>838.0</ele><time>2026-04-26T15:01:38.999Z</time></trkpt><trkpt lat="45.967672729582006" lon="11.231917604341554"><ele>838.0</ele><time>2026-04-26T15:01:39.999Z</time></trkpt><trkpt lat="45.96770242411144" lon="11.232033024664235"><ele>838.0</ele><time>2026-04-26T15:01:41.999Z</time></trkpt><trkpt lat="45.96782832860533" lon="11.23188714460353"><ele>838.0</ele><time>2026-04-26T15:01:45.999Z</time></trkpt><trkpt lat="45.96787179443282" lon="11.231715905287727"><ele>838.0</ele><time>2026-04-26T15:01:48.001Z</time></trkpt><trkpt lat="45.967890392293675" lon="11.231623923315889"><ele>838.0</ele><time>2026-04-26T15:01:49.001Z</time></trkpt><trkpt lat="45.96792300097629" lon="11.231525628038932"><ele>840.5999999999999</ele><time>2026-04-26T15:01:50.001Z</time></trkpt><trkpt lat="45.967941092073495" lon="11.231401506090418"><ele>843.1999999999999</ele><time>2026-04-26T15:01:51.001Z</time></trkpt><trkpt lat="45.96794604042539" lon="11.23126640337013"><ele>845.8</ele><time>2026-04-26T15:01:52.001Z</time></trkpt><trkpt lat="45.967956634139505" lon="11.231124161475863"><ele>848.4</ele><time>2026-04-26T15:01:53.001Z</time></trkpt><trkpt lat="45.967970353108726" lon="11.230991234993825"><ele>851.0</ele><time>2026-04-26T15:01:54.001Z</time></trkpt><trkpt lat="45.96799455415319" lon="11.230837944078042"><ele>851.0</ele><time>2026-04-26T15:01:55.001Z</time></trkpt><trkpt lat="45.96801274939749" lon="11.230708565664331"><ele>851.0</ele><time>2026-04-26T15:01:56.001Z</time></trkpt><trkpt lat="45.96801327277855" lon="11.230588826469289"><ele>851.0</ele><time>2026-04-26T15:01:57.001Z</time></trkpt><trkpt lat="45.96798691889809" lon="11.230461951013483"><ele>851.0</ele><time>2026-04-26T15:01:58.001Z</time></trkpt><trkpt lat="45.96793303042427" lon="11.230342480579587"><ele>851.0</ele><time>2026-04-26T15:01:59.001Z</time></trkpt><trkpt lat="45.96786414384171" lon="11.230229870212675"><ele>855.25</ele><time>2026-04-26T15:02:00.001Z</time></trkpt><trkpt lat="45.96779845447724" lon="11.23011205375107"><ele>859.5</ele><time>2026-04-26T15:02:01.001Z</time></trkpt><trkpt lat="45.96774776429067" lon="11.229978385238226"><ele>863.75</ele><time>2026-04-26T15:02:02.001Z</time></trkpt><trkpt lat="45.96770864064072" lon="11.229818384795292"><ele>868.0</ele><time>2026-04-26T15:02:03.001Z</time></trkpt><trkpt lat="45.96768947920284" lon="11.229642420780019"><ele>870.25</ele><time>2026-04-26T15:02:04.001Z</time></trkpt><trkpt lat="45.96766737564914" lon="11.229469155937338"><ele>872.5</ele><time>2026-04-26T15:02:05.001Z</time></trkpt><trkpt lat="45.96764334260339" lon="11.229306712098863"><ele>874.75</ele><time>2026-04-26T15:02:06.001Z</time></trkpt><trkpt lat="45.96764977066353" lon="11.229147517049139"><ele>877.0</ele><time>2026-04-26T15:02:07.001Z</time></trkpt><trkpt lat="45.967639756351325" lon="11.228999235370852"><ele>876.6666666666666</ele><time>2026-04-26T15:02:08.001Z</time></trkpt><trkpt lat="45.96764590488047" lon="11.228867529963809"><ele>876.3333333333333</ele><time>2026-04-26T15:02:09.001Z</time></trkpt><trkpt lat="45.96763306961104" lon="11.228759265649758"><ele>876.0</ele><time>2026-04-26T15:02:10.001Z</time></trkpt><trkpt lat="45.96758168296098" lon="11.228666501702008"><ele>875.6666666666667</ele><time>2026-04-26T15:02:11.001Z</time></trkpt><trkpt lat="45.96749851952847" lon="11.228607716235935"><ele>875.3333333333334</ele><time>2026-04-26T15:02:12.001Z</time></trkpt><trkpt lat="45.96742553007508" lon="11.228566539097796"><ele>875.0</ele><time>2026-04-26T15:02:13.001Z</time></trkpt><trkpt lat="45.9673608328683" lon="11.228507458911231"><ele>875.0</ele><time>2026-04-26T15:02:15.001Z</time></trkpt><trkpt lat="45.96748333132653" lon="11.228456697711422"><ele>875.0</ele><time>2026-04-26T15:02:17.001Z</time></trkpt><trkpt lat="45.96754010698459" lon="11.22853804119197"><ele>875.0</ele><time>2026-04-26T15:02:18Z</time></trkpt><trkpt lat="45.9676091711702" lon="11.228602443803204"><ele>875.0</ele><time>2026-04-26T15:02:19Z</time></trkpt><trkpt lat="45.9676873877486" lon="11.228681269480086"><ele>875.0</ele><time>2026-04-26T15:02:20Z</time></trkpt><trkpt lat="45.9677671018243" lon="11.228774279794266"><ele>875.4</ele><time>2026-04-26T15:02:21Z</time></trkpt><trkpt lat="45.96784646088199" lon="11.228865610856882"><ele>875.8</ele><time>2026-04-26T15:02:22Z</time></trkpt><trkpt lat="45.96791974384641" lon="11.228959873095771"><ele>876.2</ele><time>2026-04-26T15:02:23Z</time></trkpt><trkpt lat="45.967940653338864" lon="11.229107946600912"><ele>876.6</ele><time>2026-04-26T15:02:24Z</time></trkpt><trkpt lat="45.96799051318774" lon="11.229231550938263"><ele>877.0</ele><time>2026-04-26T15:02:25Z</time></trkpt><trkpt lat="45.96803982499241" lon="11.229349630281092"><ele>877.0</ele><time>2026-04-26T15:02:26Z</time></trkpt><trkpt lat="45.968110452238975" lon="11.229464798802047"><ele>877.0</ele><time>2026-04-26T15:02:27Z</time></trkpt><trkpt lat="45.96818756200967" lon="11.229585846894654"><ele>877.0</ele><time>2026-04-26T15:02:28Z</time></trkpt><trkpt lat="45.968274922918596" lon="11.229710377012564"><ele>877.0</ele><time>2026-04-26T15:02:29Z</time></trkpt><trkpt lat="45.96837125285499" lon="11.229846120312267"><ele>884.5</ele><time>2026-04-26T15:02:30Z</time></trkpt><trkpt lat="45.968461156262514" lon="11.229977380599177"><ele>892.0</ele><time>2026-04-26T15:02:31Z</time></trkpt><trkpt lat="45.968549644162074" lon="11.230095620562196"><ele>899.5</ele><time>2026-04-26T15:02:32Z</time></trkpt><trkpt lat="45.968609941628785" lon="11.230223285816953"><ele>907.0</ele><time>2026-04-26T15:02:33Z</time></trkpt><trkpt lat="45.96865574593591" lon="11.23035988260084"><ele>907.0</ele><time>2026-04-26T15:02:34Z</time></trkpt><trkpt lat="45.96870891286077" lon="11.230481824886823"><ele>907.0</ele><time>2026-04-26T15:02:35Z</time></trkpt><trkpt lat="45.96875146125438" lon="11.23060522341734"><ele>907.0</ele><time>2026-04-26T15:02:36Z</time></trkpt><trkpt lat="45.968792443237575" lon="11.23070025968552"><ele>907.0</ele><time>2026-04-26T15:02:37Z</time></trkpt><trkpt lat="45.968883094163" lon="11.23078203325011"><ele>907.0</ele><time>2026-04-26T15:02:39Z</time></trkpt><trkpt lat="45.968982333001094" lon="11.230695699365452"><ele>906.9999999999999</ele><time>2026-04-26T15:02:41Z</time></trkpt><trkpt lat="45.96895941661778" lon="11.230566979464419"><ele>907.0</ele><time>2026-04-26T15:02:42Z</time></trkpt><trkpt lat="45.96892266501514" lon="11.230466197356677"><ele>907.0</ele><time>2026-04-26T15:02:43Z</time></trkpt><trkpt lat="45.96888630387655" lon="11.230357230587728"><ele>907.0</ele><time>2026-04-26T15:02:44Z</time></trkpt><trkpt lat="45.968855887939505" lon="11.230250664803771"><ele>906.9999999999999</ele><time>2026-04-26T15:02:45Z</time></trkpt><trkpt lat="45.968828993177894" lon="11.2301676189688"><ele>907.0</ele><time>2026-04-26T15:02:46Z</time></trkpt><trkpt lat="45.968799755537255" lon="11.229987369311647"><ele>907.0</ele><time>2026-04-26T15:02:48Z</time></trkpt><trkpt lat="45.96878743897845" lon="11.229865222668563"><ele>907.0</ele><time>2026-04-26T15:02:49Z</time></trkpt><trkpt lat="45.9687827807717" lon="11.22972404483121"><ele>907.0</ele><time>2026-04-26T15:02:50Z</time></trkpt><trkpt lat="45.96880256653954" lon="11.229569746538825"><ele>907.0</ele><time>2026-04-26T15:02:51Z</time></trkpt><trkpt lat="45.968796510856016" lon="11.229399898412225"><ele>907.0</ele><time>2026-04-26T15:02:52Z</time></trkpt><trkpt lat="45.968798915933114" lon="11.229221868736152"><ele>911.5</ele><time>2026-04-26T15:02:53Z</time></trkpt><trkpt lat="45.96877883260472" lon="11.229034266242282"><ele>916.0</ele><time>2026-04-26T15:02:54Z</time></trkpt><trkpt lat="45.96874486120611" lon="11.228850597737598"><ele>920.5</ele><time>2026-04-26T15:02:55Z</time></trkpt><trkpt lat="45.9687091437285" lon="11.228651745039834"><ele>925.0</ele><time>2026-04-26T15:02:56Z</time></trkpt><trkpt lat="45.96867321462858" lon="11.228457031233166"><ele>926.0</ele><time>2026-04-26T15:02:57Z</time></trkpt><trkpt lat="45.96862118049147" lon="11.228267589304897"><ele>927.0</ele><time>2026-04-26T15:02:58Z</time></trkpt><trkpt lat="45.96854998542017" lon="11.22811144795563"><ele>928.0</ele><time>2026-04-26T15:02:59Z</time></trkpt><trkpt lat="45.96845983755735" lon="11.227972695977186"><ele>929.0</ele><time>2026-04-26T15:03:00Z</time></trkpt><trkpt lat="45.968357658121" lon="11.227852317500403"><ele>929.0</ele><time>2026-04-26T15:03:01Z</time></trkpt><trkpt lat="45.96825974475903" lon="11.227735974775422"><ele>929.0</ele><time>2026-04-26T15:03:02Z</time></trkpt><trkpt lat="45.96816888070206" lon="11.227609070998529"><ele>929.0</ele><time>2026-04-26T15:03:03Z</time></trkpt><trkpt lat="45.968068266834266" lon="11.227495577083014"><ele>929.0</ele><time>2026-04-26T15:03:04Z</time></trkpt><trkpt lat="45.96797810613431" lon="11.227393936219949"><ele>929.0000000000001</ele><time>2026-04-26T15:03:05Z</time></trkpt><trkpt lat="45.96789581652323" lon="11.227311494618059"><ele>929.0</ele><time>2026-04-26T15:03:06Z</time></trkpt><trkpt lat="45.96782600649675" lon="11.227266406728416"><ele>929.0</ele><time>2026-04-26T15:03:07Z</time></trkpt><trkpt lat="45.96776293271966" lon="11.22724542379197"><ele>929.0</ele><time>2026-04-26T15:03:08Z</time></trkpt><trkpt lat="45.96770459460086" lon="11.227182494968481"><ele>929.0000000000001</ele><time>2026-04-26T15:03:10Z</time></trkpt><trkpt lat="45.96764259468941" lon="11.227094149041"><ele>929.0</ele><time>2026-04-26T15:03:20.999Z</time></trkpt><trkpt lat="45.96758792180929" lon="11.227028250340556"><ele>932.0</ele><time>2026-04-26T15:03:21.999Z</time></trkpt><trkpt lat="45.96752410409154" lon="11.226940821802469"><ele>935.0000000000001</ele><time>2026-04-26T15:03:22.999Z</time></trkpt><trkpt lat="45.96741094587727" lon="11.22690016179221"><ele>938.0000000000001</ele><time>2026-04-26T15:03:23.999Z</time></trkpt><trkpt lat="45.967301906739145" lon="11.22683112362832"><ele>941.0</ele><time>2026-04-26T15:03:24.999Z</time></trkpt><trkpt lat="45.967192030169876" lon="11.226770457114304"><ele>944.0</ele><time>2026-04-26T15:03:25.999Z</time></trkpt><trkpt lat="45.967073131626165" lon="11.22678048719656"><ele>944.0</ele><time>2026-04-26T15:03:26.999Z</time></trkpt><trkpt lat="45.966961958528984" lon="11.226874060147816"><ele>944.0</ele><time>2026-04-26T15:03:27.999Z</time></trkpt><trkpt lat="45.966857009479384" lon="11.226993152152557"><ele>944.0</ele><time>2026-04-26T15:03:28.999Z</time></trkpt><trkpt lat="45.96674193620117" lon="11.227111003853109"><ele>944.0</ele><time>2026-04-26T15:03:29.999Z</time></trkpt><trkpt lat="45.966642708353696" lon="11.227196094995705"><ele>947.5</ele><time>2026-04-26T15:03:30.999Z</time></trkpt><trkpt lat="45.96652984677774" lon="11.227235279976806"><ele>951.0</ele><time>2026-04-26T15:03:31.999Z</time></trkpt><trkpt lat="45.966408163909136" lon="11.227224234946839"><ele>954.5</ele><time>2026-04-26T15:03:32.999Z</time></trkpt><trkpt lat="45.966284712398426" lon="11.227199379801812"><ele>958.0</ele><time>2026-04-26T15:03:33.999Z</time></trkpt><trkpt lat="45.96617423019503" lon="11.22709038673508"><ele>958.0</ele><time>2026-04-26T15:03:34.999Z</time></trkpt><trkpt lat="45.966058147677764" lon="11.22699233739985"><ele>958.0</ele><time>2026-04-26T15:03:35.999Z</time></trkpt><trkpt lat="45.965955844066016" lon="11.226865990257037"><ele>958.0</ele><time>2026-04-26T15:03:36.999Z</time></trkpt><trkpt lat="45.965827763334765" lon="11.226808220578235"><ele>958.0</ele><time>2026-04-26T15:03:37.999Z</time></trkpt><trkpt lat="45.965700437707525" lon="11.226838785061295"><ele>956.0</ele><time>2026-04-26T15:03:38.999Z</time></trkpt><trkpt lat="45.96558487828126" lon="11.226842482029676"><ele>954.0</ele><time>2026-04-26T15:03:39.999Z</time></trkpt><trkpt lat="45.965494075558155" lon="11.226732646373355"><ele>952.0</ele><time>2026-04-26T15:03:40.999Z</time></trkpt><trkpt lat="45.965396702231" lon="11.226631593787456"><ele>950.0</ele><time>2026-04-26T15:03:41.999Z</time></trkpt><trkpt lat="45.96531207987975" lon="11.22654309650479"><ele>951.8</ele><time>2026-04-26T15:03:42.999Z</time></trkpt><trkpt lat="45.96528006948193" lon="11.226433116719145"><ele>953.6</ele><time>2026-04-26T15:03:43.999Z</time></trkpt><trkpt lat="45.9652892883351" lon="11.226292866269917"><ele>955.4000000000001</ele><time>2026-04-26T15:03:44.999Z</time></trkpt><trkpt lat="45.96530934701704" lon="11.226144140625376"><ele>957.2</ele><time>2026-04-26T15:03:45.999Z</time></trkpt><trkpt lat="45.96531625349202" lon="11.2259735146815"><ele>959.0</ele><time>2026-04-26T15:03:46.999Z</time></trkpt><trkpt lat="45.96533621687534" lon="11.225787249022947"><ele>962.5</ele><time>2026-04-26T15:03:47.999Z</time></trkpt><trkpt lat="45.96534926638963" lon="11.225580544085327"><ele>966.0</ele><time>2026-04-26T15:03:48.999Z</time></trkpt><trkpt lat="45.96536684688752" lon="11.22536887083338"><ele>969.5</ele><time>2026-04-26T15:03:49.999Z</time></trkpt><trkpt lat="45.96537055729567" lon="11.225146814178736"><ele>973.0</ele><time>2026-04-26T15:03:50.999Z</time></trkpt><trkpt lat="45.965369713221655" lon="11.224910275260841"><ele>978.3333333333333</ele><time>2026-04-26T15:03:51.999Z</time></trkpt><trkpt lat="45.965373908026116" lon="11.224680161832588"><ele>983.6666666666667</ele><time>2026-04-26T15:03:52.999Z</time></trkpt><trkpt lat="45.96537380703724" lon="11.224466445845707"><ele>989.0</ele><time>2026-04-26T15:03:54.001Z</time></trkpt><trkpt lat="45.96533976325292" lon="11.2242594364461"><ele>989.0</ele><time>2026-04-26T15:03:55.001Z</time></trkpt><trkpt lat="45.96526629222719" lon="11.224073142786812"><ele>989.0</ele><time>2026-04-26T15:03:56.001Z</time></trkpt><trkpt lat="45.96516314122179" lon="11.223906888176273"><ele>989.0</ele><time>2026-04-26T15:03:57.001Z</time></trkpt><trkpt lat="45.96509710721222" lon="11.223702540736566"><ele>986.5</ele><time>2026-04-26T15:03:58.001Z</time></trkpt><trkpt lat="45.965051642000766" lon="11.223509370381061"><ele>984.0</ele><time>2026-04-26T15:03:59.001Z</time></trkpt><trkpt lat="45.965037549874374" lon="11.22332092531042"><ele>981.5</ele><time>2026-04-26T15:04:00.001Z</time></trkpt><trkpt lat="45.96503419694227" lon="11.223139990938915"><ele>979.0</ele><time>2026-04-26T15:04:01.001Z</time></trkpt><trkpt lat="45.965020185939544" lon="11.222966231721289"><ele>979.0</ele><time>2026-04-26T15:04:02.001Z</time></trkpt><trkpt lat="45.965008374907164" lon="11.22282314481194"><ele>979.0000000000001</ele><time>2026-04-26T15:04:03.001Z</time></trkpt><trkpt lat="45.96495910542787" lon="11.222706782948833"><ele>979.0000000000001</ele><time>2026-04-26T15:04:04.001Z</time></trkpt><trkpt lat="45.9648530028523" lon="11.22263822648969"><ele>979.0</ele><time>2026-04-26T15:04:05.001Z</time></trkpt><trkpt lat="45.964743307777326" lon="11.222602629309954"><ele>979.0</ele><time>2026-04-26T15:04:06.001Z</time></trkpt><trkpt lat="45.964630355024504" lon="11.222585055516252"><ele>979.0</ele><time>2026-04-26T15:04:07.001Z</time></trkpt><trkpt lat="45.964523767311306" lon="11.222490609314079"><ele>979.0</ele><time>2026-04-26T15:04:08.001Z</time></trkpt><trkpt lat="45.964419688469846" lon="11.222369240834718"><ele>979.0</ele><time>2026-04-26T15:04:09.001Z</time></trkpt><trkpt lat="45.96435341656296" lon="11.222219409733082"><ele>979.0</ele><time>2026-04-26T15:04:10.001Z</time></trkpt><trkpt lat="45.96429725080521" lon="11.222056588152437"><ele>976.75</ele><time>2026-04-26T15:04:11.001Z</time></trkpt><trkpt lat="45.96427816383111" lon="11.221886114836096"><ele>974.5</ele><time>2026-04-26T15:04:12.001Z</time></trkpt><trkpt lat="45.964246014219775" lon="11.221710857172093"><ele>972.25</ele><time>2026-04-26T15:04:13.001Z</time></trkpt><trkpt lat="45.96417100554006" lon="11.221541863763985"><ele>970.0</ele><time>2026-04-26T15:04:14.001Z</time></trkpt><trkpt lat="45.96406236096038" lon="11.221409658266083"><ele>983.0</ele><time>2026-04-26T15:04:15.001Z</time></trkpt><trkpt lat="45.96392573279828" lon="11.221308727807223"><ele>996.0</ele><time>2026-04-26T15:04:16.001Z</time></trkpt><trkpt lat="45.96379987521389" lon="11.221184957769193"><ele>1009.0</ele><time>2026-04-26T15:04:17.001Z</time></trkpt><trkpt lat="45.963629562440424" lon="11.221123538585953"><ele>1009.0</ele><time>2026-04-26T15:04:18.001Z</time></trkpt><trkpt lat="45.96345574388231" lon="11.221060380117594"><ele>1009.0</ele><time>2026-04-26T15:04:19Z</time></trkpt><trkpt lat="45.9632831112432" lon="11.221010934326932"><ele>1009.0</ele><time>2026-04-26T15:04:20Z</time></trkpt><trkpt lat="45.9631147469012" lon="11.220981110922498"><ele>998.3333333333333</ele><time>2026-04-26T15:04:21Z</time></trkpt><trkpt lat="45.9629577918123" lon="11.22091658142312"><ele>987.6666666666667</ele><time>2026-04-26T15:04:22Z</time></trkpt><trkpt lat="45.9628224806209" lon="11.22081499764297"><ele>977.0</ele><time>2026-04-26T15:04:23Z</time></trkpt><trkpt lat="45.96269771464656" lon="11.22068894484237"><ele>981.75</ele><time>2026-04-26T15:04:24Z</time></trkpt><trkpt lat="45.962559254768095" lon="11.22058441986222"><ele>986.5</ele><time>2026-04-26T15:04:25Z</time></trkpt><trkpt lat="45.96243257062902" lon="11.220473311813825"><ele>991.25</ele><time>2026-04-26T15:04:26Z</time></trkpt><trkpt lat="45.96232104900296" lon="11.220385861060267"><ele>996.0</ele><time>2026-04-26T15:04:27Z</time></trkpt><trkpt lat="45.962239542871494" lon="11.220309735968176"><ele>996.0</ele><time>2026-04-26T15:04:28Z</time></trkpt><trkpt lat="45.96221060531279" lon="11.220177739701418"><ele>995.9999999999999</ele><time>2026-04-26T15:04:29Z</time></trkpt><trkpt lat="45.96219803799101" lon="11.220059638644042"><ele>995.9999999999999</ele><time>2026-04-26T15:04:30Z</time></trkpt><trkpt lat="45.96221430691681" lon="11.219928735999735"><ele>996.0</ele><time>2026-04-26T15:04:31Z</time></trkpt><trkpt lat="45.96222009841778" lon="11.219766688555934"><ele>996.0</ele><time>2026-04-26T15:04:32Z</time></trkpt><trkpt lat="45.96218534739716" lon="11.219597749293152"><ele>1000.25</ele><time>2026-04-26T15:04:33Z</time></trkpt><trkpt lat="45.96214402003641" lon="11.219437925459845"><ele>1004.5</ele><time>2026-04-26T15:04:34Z</time></trkpt><trkpt lat="45.9620553776659" lon="11.219311134301243"><ele>1008.75</ele><time>2026-04-26T15:04:35Z</time></trkpt><trkpt lat="45.96193522991557" lon="11.219215177598002"><ele>1013.0</ele><time>2026-04-26T15:04:36Z</time></trkpt><trkpt lat="45.961799874670426" lon="11.21914219543553"><ele>1013.3333333333334</ele><time>2026-04-26T15:04:37Z</time></trkpt><trkpt lat="45.96165500689509" lon="11.219058342418796"><ele>1013.6666666666667</ele><time>2026-04-26T15:04:38Z</time></trkpt><trkpt lat="45.961507891314646" lon="11.21896981729585"><ele>1014.0</ele><time>2026-04-26T15:04:39Z</time></trkpt><trkpt lat="45.961369404141365" lon="11.218877062211646"><ele>1014.0</ele><time>2026-04-26T15:04:40Z</time></trkpt><trkpt lat="45.961254762155576" lon="11.218817416467907"><ele>1014.0</ele><time>2026-04-26T15:04:41Z</time></trkpt><trkpt lat="45.96115045081651" lon="11.218838620902018"><ele>1014.0</ele><time>2026-04-26T15:04:42Z</time></trkpt><trkpt lat="45.961069218588214" lon="11.218947205715835"><ele>1014.0</ele><time>2026-04-26T15:04:43Z</time></trkpt><trkpt lat="45.96102109120011" lon="11.219101790671091"><ele>1010.75</ele><time>2026-04-26T15:04:44Z</time></trkpt><trkpt lat="45.960990097097216" lon="11.219273423537544"><ele>1007.5</ele><time>2026-04-26T15:04:45Z</time></trkpt><trkpt lat="45.96093494969487" lon="11.219422267327243"><ele>1004.25</ele><time>2026-04-26T15:04:46Z</time></trkpt><trkpt lat="45.96083005495834" lon="11.219470897902902"><ele>1001.0</ele><time>2026-04-26T15:04:47Z</time></trkpt><trkpt lat="45.96071475101141" lon="11.219471787289116"><ele>1001.0</ele><time>2026-04-26T15:04:48Z</time></trkpt><trkpt lat="45.960583040065146" lon="11.219494147925332"><ele>1001.0</ele><time>2026-04-26T15:04:49Z</time></trkpt><trkpt lat="45.960451862162415" lon="11.219515997016794"><ele>1001.0</ele><time>2026-04-26T15:04:50Z</time></trkpt><trkpt lat="45.96033811699053" lon="11.219516720776632"><ele>1001.0</ele><time>2026-04-26T15:04:51Z</time></trkpt><trkpt lat="45.9602478298628" lon="11.219456157126334"><ele>1001.0</ele><time>2026-04-26T15:04:52Z</time></trkpt><trkpt lat="45.96020033294601" lon="11.219325120460386"><ele>1000.9999999999999</ele><time>2026-04-26T15:04:53Z</time></trkpt><trkpt lat="45.96015268657284" lon="11.21917118717663"><ele>1000.9999999999999</ele><time>2026-04-26T15:04:54Z</time></trkpt><trkpt lat="45.96008685892466" lon="11.219035155052397"><ele>1001.0</ele><time>2026-04-26T15:04:55Z</time></trkpt><trkpt lat="45.9599922239731" lon="11.218971131142712"><ele>1001.0</ele><time>2026-04-26T15:04:56Z</time></trkpt><trkpt lat="45.95989670130397" lon="11.218970775306648"><ele>1003.75</ele><time>2026-04-26T15:04:57Z</time></trkpt><trkpt lat="45.959798241225144" lon="11.219047044914461"><ele>1006.5</ele><time>2026-04-26T15:04:58Z</time></trkpt><trkpt lat="45.95971822520471" lon="11.219180933064026"><ele>1009.25</ele><time>2026-04-26T15:04:59Z</time></trkpt><trkpt lat="45.95964292610198" lon="11.21933587033208"><ele>1012.0</ele><time>2026-04-26T15:05:00Z</time></trkpt><trkpt lat="45.95956077409586" lon="11.219500117793146"><ele>1012.0</ele><time>2026-04-26T15:05:01Z</time></trkpt><trkpt lat="45.95947660145246" lon="11.219646333749202"><ele>1012.0</ele><time>2026-04-26T15:05:02Z</time></trkpt><trkpt lat="45.95939738178536" lon="11.21976328524159"><ele>1012.0</ele><time>2026-04-26T15:05:02.999Z</time></trkpt><trkpt lat="45.95930443859989" lon="11.219807006077573"><ele>1012.0</ele><time>2026-04-26T15:05:03.999Z</time></trkpt><trkpt lat="45.95921785512263" lon="11.219735651363514"><ele>1012.0</ele><time>2026-04-26T15:05:04.999Z</time></trkpt><trkpt lat="45.95917935053113" lon="11.219618020210826"><ele>1016.75</ele><time>2026-04-26T15:05:05.999Z</time></trkpt><trkpt lat="45.95908616282041" lon="11.21950890705927"><ele>1021.5</ele><time>2026-04-26T15:05:06.999Z</time></trkpt><trkpt lat="45.95898308389395" lon="11.219437557093759"><ele>1026.25</ele><time>2026-04-26T15:05:07.999Z</time></trkpt><trkpt lat="45.95886637265019" lon="11.21943919073247"><ele>1031.0</ele><time>2026-04-26T15:05:08.999Z</time></trkpt><trkpt lat="45.95875969231828" lon="11.219540477877684"><ele>1031.0</ele><time>2026-04-26T15:05:09.999Z</time></trkpt><trkpt lat="45.95865349476922" lon="11.219634576417679"><ele>1031.0</ele><time>2026-04-26T15:05:10.999Z</time></trkpt><trkpt lat="45.95854978200638" lon="11.219711058884785"><ele>1031.0</ele><time>2026-04-26T15:05:11.999Z</time></trkpt><trkpt lat="45.95846277613935" lon="11.219784892818955"><ele>1031.0</ele><time>2026-04-26T15:05:12.999Z</time></trkpt><trkpt lat="45.95840576840455" lon="11.219890491820541"><ele>1031.0</ele><time>2026-04-26T15:05:13.999Z</time></trkpt><trkpt lat="45.95839677251657" lon="11.220034963886393"><ele>1023.75</ele><time>2026-04-26T15:05:14.999Z</time></trkpt><trkpt lat="45.95843098188251" lon="11.220169618183633"><ele>1016.5</ele><time>2026-04-26T15:05:15.999Z</time></trkpt><trkpt lat="45.958491723121085" lon="11.220309954911517"><ele>1009.25</ele><time>2026-04-26T15:05:16.999Z</time></trkpt><trkpt lat="45.958548505985235" lon="11.220464562787308"><ele>1002.0</ele><time>2026-04-26T15:05:17.999Z</time></trkpt><trkpt lat="45.95860112504542" lon="11.220621395687372"><ele>1001.0</ele><time>2026-04-26T15:05:18.999Z</time></trkpt><trkpt lat="45.95863835194309" lon="11.220762742092958"><ele>1000.0</ele><time>2026-04-26T15:05:19.999Z</time></trkpt><trkpt lat="45.95863434579733" lon="11.22090466259886"><ele>999.0</ele><time>2026-04-26T15:05:20.999Z</time></trkpt><trkpt lat="45.9585899661222" lon="11.221015717128154"><ele>998.0</ele><time>2026-04-26T15:05:21.999Z</time></trkpt><trkpt lat="45.958490316482724" lon="11.22104453961998"><ele>997.0</ele><time>2026-04-26T15:05:22.999Z</time></trkpt><trkpt lat="45.95839464739044" lon="11.221010000070635"><ele>1003.5</ele><time>2026-04-26T15:05:23.999Z</time></trkpt><trkpt lat="45.95828400427047" lon="11.221011439406334"><ele>1010.0</ele><time>2026-04-26T15:05:24.999Z</time></trkpt><trkpt lat="45.95815499107558" lon="11.221011439408949"><ele>1016.5</ele><time>2026-04-26T15:05:25.999Z</time></trkpt><trkpt lat="45.95801768155469" lon="11.221011856443123"><ele>1023.0</ele><time>2026-04-26T15:05:26.999Z</time></trkpt><trkpt lat="45.95786887045054" lon="11.221013413454374"><ele>1023.0</ele><time>2026-04-26T15:05:27.999Z</time></trkpt><trkpt lat="45.95773126710541" lon="11.221014853197618"><ele>1023.0</ele><time>2026-04-26T15:05:28.999Z</time></trkpt><trkpt lat="45.957603369514196" lon="11.221012566240079"><ele>1023.0</ele><time>2026-04-26T15:05:29.999Z</time></trkpt><trkpt lat="45.95750029453005" lon="11.220988447322007"><ele>1023.0</ele><time>2026-04-26T15:05:30.999Z</time></trkpt><trkpt lat="45.957407797608006" lon="11.220934011793737"><ele>1023.0</ele><time>2026-04-26T15:05:31.999Z</time></trkpt><trkpt lat="45.95735726183272" lon="11.22082593443938"><ele>1023.0</ele><time>2026-04-26T15:05:32.999Z</time></trkpt><trkpt lat="45.957326238956924" lon="11.220694210411798"><ele>1023.0</ele><time>2026-04-26T15:05:33.999Z</time></trkpt><trkpt lat="45.95726938953383" lon="11.220536516370439"><ele>1023.0</ele><time>2026-04-26T15:05:34.999Z</time></trkpt><trkpt lat="45.95720888336398" lon="11.220369205787708"><ele>1023.0</ele><time>2026-04-26T15:05:35.999Z</time></trkpt><trkpt lat="45.95716055799016" lon="11.220192413807565"><ele>1026.75</ele><time>2026-04-26T15:05:36.999Z</time></trkpt><trkpt lat="45.95712474767588" lon="11.219995850309425"><ele>1030.5</ele><time>2026-04-26T15:05:37.999Z</time></trkpt><trkpt lat="45.95711376308958" lon="11.219802667376513"><ele>1034.25</ele><time>2026-04-26T15:05:38.999Z</time></trkpt><trkpt lat="45.95711146170478" lon="11.219592289827759"><ele>1038.0</ele><time>2026-04-26T15:05:39.999Z</time></trkpt><trkpt lat="45.957111122876356" lon="11.219387089018568"><ele>1041.25</ele><time>2026-04-26T15:05:40.999Z</time></trkpt><trkpt lat="45.957097602849615" lon="11.219207421188878"><ele>1044.5</ele><time>2026-04-26T15:05:41.999Z</time></trkpt><trkpt lat="45.9570458893213" lon="11.219075699269611"><ele>1047.75</ele><time>2026-04-26T15:05:42.999Z</time></trkpt><trkpt lat="45.95696464248964" lon="11.218972862702891"><ele>1051.0</ele><time>2026-04-26T15:05:43.999Z</time></trkpt><trkpt lat="45.95685483843441" lon="11.218921673844191"><ele>1051.0</ele><time>2026-04-26T15:05:44.999Z</time></trkpt><trkpt lat="45.95673373857147" lon="11.218927364130275"><ele>1051.0</ele><time>2026-04-26T15:05:45.999Z</time></trkpt><trkpt lat="45.95662196885563" lon="11.218943410912836"><ele>1051.0</ele><time>2026-04-26T15:05:46.999Z</time></trkpt><trkpt lat="45.95653971967238" lon="11.218894903044992"><ele>1051.0</ele><time>2026-04-26T15:05:47.999Z</time></trkpt><trkpt lat="45.956501032346296" lon="11.218764977478966"><ele>1051.0</ele><time>2026-04-26T15:05:48.999Z</time></trkpt><trkpt lat="45.95646883519811" lon="11.218618028557625"><ele>1051.0</ele><time>2026-04-26T15:05:49.999Z</time></trkpt><trkpt lat="45.956413034546365" lon="11.218473187318386"><ele>1051.0</ele><time>2026-04-26T15:05:50.999Z</time></trkpt><trkpt lat="45.95633838559495" lon="11.218329988551892"><ele>1051.0</ele><time>2026-04-26T15:05:51.999Z</time></trkpt><trkpt lat="45.95621060883242" lon="11.218227810436332"><ele>1051.0</ele><time>2026-04-26T15:05:52.999Z</time></trkpt><trkpt lat="45.95610399379295" lon="11.218128280176094"><ele>1050.75</ele><time>2026-04-26T15:05:53.999Z</time></trkpt><trkpt lat="45.95601510862492" lon="11.217951906628963"><ele>1050.5</ele><time>2026-04-26T15:05:54.999Z</time></trkpt><trkpt lat="45.95592270586061" lon="11.217806896228028"><ele>1050.25</ele><time>2026-04-26T15:05:55.999Z</time></trkpt><trkpt lat="45.955844257372895" lon="11.217679608574569"><ele>1050.0</ele><time>2026-04-26T15:05:56.999Z</time></trkpt><trkpt lat="45.955760136471" lon="11.217593377539115"><ele>1050.0</ele><time>2026-04-26T15:05:57.999Z</time></trkpt><trkpt lat="45.955698605542864" lon="11.217517647162328"><ele>1050.0</ele><time>2026-04-26T15:05:58.999Z</time></trkpt><trkpt lat="45.95567842074984" lon="11.21739240844959"><ele>1050.0</ele><time>2026-04-26T15:06:00.001Z</time></trkpt><trkpt lat="45.955719282768946" lon="11.217249074790955"><ele>1050.0</ele><time>2026-04-26T15:06:01.001Z</time></trkpt><trkpt lat="45.95574256716589" lon="11.217089411419686"><ele>1050.0</ele><time>2026-04-26T15:06:02.001Z</time></trkpt><trkpt lat="45.955775482466315" lon="11.216934620207532"><ele>1052.25</ele><time>2026-04-26T15:06:03.001Z</time></trkpt><trkpt lat="45.955770159194394" lon="11.216767217727027"><ele>1054.5</ele><time>2026-04-26T15:06:04.001Z</time></trkpt><trkpt lat="45.95569146267431" lon="11.21660877616646"><ele>1056.75</ele><time>2026-04-26T15:06:05.001Z</time></trkpt><trkpt lat="45.955581373481024" lon="11.216475291295787"><ele>1059.0</ele><time>2026-04-26T15:06:06.001Z</time></trkpt><trkpt lat="45.955512503636484" lon="11.216318372819527"><ele>1064.0</ele><time>2026-04-26T15:06:07.001Z</time></trkpt><trkpt lat="45.95546935501226" lon="11.21613841096857"><ele>1069.0</ele><time>2026-04-26T15:06:08.001Z</time></trkpt><trkpt lat="45.95540649944577" lon="11.215993557981097"><ele>1074.0</ele><time>2026-04-26T15:06:09.001Z</time></trkpt><trkpt lat="45.955338094666196" lon="11.215875036158382"><ele>1079.0</ele><time>2026-04-26T15:06:10.001Z</time></trkpt><trkpt lat="45.95522172524957" lon="11.215833259214197"><ele>1079.0</ele><time>2026-04-26T15:06:11.001Z</time></trkpt><trkpt lat="45.95509556294569" lon="11.2158393624228"><ele>1079.0</ele><time>2026-04-26T15:06:12.001Z</time></trkpt><trkpt lat="45.954951185800645" lon="11.215836912058796"><ele>1079.0</ele><time>2026-04-26T15:06:13.001Z</time></trkpt><trkpt lat="45.95480782816452" lon="11.215821593140866"><ele>1079.0</ele><time>2026-04-26T15:06:14.001Z</time></trkpt><trkpt lat="45.95467280223648" lon="11.215843881902643"><ele>1075.75</ele><time>2026-04-26T15:06:15.001Z</time></trkpt><trkpt lat="45.95455696932857" lon="11.215926504191323"><ele>1072.5</ele><time>2026-04-26T15:06:16.001Z</time></trkpt><trkpt lat="45.95443314918683" lon="11.215926739562915"><ele>1069.25</ele><time>2026-04-26T15:06:17.001Z</time></trkpt><trkpt lat="45.954305793524036" lon="11.2158894951949"><ele>1066.0</ele><time>2026-04-26T15:06:18.001Z</time></trkpt><trkpt lat="45.95417069151071" lon="11.215853489642296"><ele>1064.75</ele><time>2026-04-26T15:06:19.001Z</time></trkpt><trkpt lat="45.95405322195446" lon="11.215799205079216"><ele>1063.5</ele><time>2026-04-26T15:06:20Z</time></trkpt><trkpt lat="45.953969267745215" lon="11.215697646766808"><ele>1062.25</ele><time>2026-04-26T15:06:21Z</time></trkpt><trkpt lat="45.95390886117243" lon="11.215564279690886"><ele>1061.0</ele><time>2026-04-26T15:06:22Z</time></trkpt><trkpt lat="45.95386014008489" lon="11.215413385134406"><ele>1065.5</ele><time>2026-04-26T15:06:23Z</time></trkpt><trkpt lat="45.95378265502706" lon="11.215252232041877"><ele>1070.0</ele><time>2026-04-26T15:06:24Z</time></trkpt><trkpt lat="45.95369435701834" lon="11.215100860641021"><ele>1074.5</ele><time>2026-04-26T15:06:25Z</time></trkpt><trkpt lat="45.95356777014818" lon="11.214978456244884"><ele>1079.0</ele><time>2026-04-26T15:06:26Z</time></trkpt><trkpt lat="45.95341375722305" lon="11.214872207800248"><ele>1081.3333333333335</ele><time>2026-04-26T15:06:27Z</time></trkpt><trkpt lat="45.95326386309193" lon="11.214754324252436"><ele>1083.6666666666667</ele><time>2026-04-26T15:06:28Z</time></trkpt><trkpt lat="45.95314203695353" lon="11.214572620578098"><ele>1086.0</ele><time>2026-04-26T15:06:29Z</time></trkpt><trkpt lat="45.953012617172654" lon="11.214419261515896"><ele>1086.0</ele><time>2026-04-26T15:06:30Z</time></trkpt><trkpt lat="45.95288696393686" lon="11.214317307657526"><ele>1086.0</ele><time>2026-04-26T15:06:31Z</time></trkpt><trkpt lat="45.95276486874969" lon="11.214260919436484"><ele>1086.0</ele><time>2026-04-26T15:06:32Z</time></trkpt><trkpt lat="45.952651689626585" lon="11.214201462782082"><ele>1086.0</ele><time>2026-04-26T15:06:33Z</time></trkpt><trkpt lat="45.95256640879753" lon="11.214134287678956"><ele>1082.8</ele><time>2026-04-26T15:06:34Z</time></trkpt><trkpt lat="45.952522210231336" lon="11.21403747462638"><ele>1079.6</ele><time>2026-04-26T15:06:35Z</time></trkpt><trkpt lat="45.95251666644169" lon="11.21391173594807"><ele>1076.4</ele><time>2026-04-26T15:06:36Z</time></trkpt><trkpt lat="45.95252117357454" lon="11.213763372849682"><ele>1073.2</ele><time>2026-04-26T15:06:37Z</time></trkpt><trkpt lat="45.95252559081761" lon="11.213583898116637"><ele>1070.0</ele><time>2026-04-26T15:06:38Z</time></trkpt><trkpt lat="45.95253751094866" lon="11.213387793235528"><ele>1070.0</ele><time>2026-04-26T15:06:39Z</time></trkpt><trkpt lat="45.95252840588418" lon="11.213187066409663"><ele>1070.0</ele><time>2026-04-26T15:06:40Z</time></trkpt><trkpt lat="45.95251291592564" lon="11.212961954947831"><ele>1070.0</ele><time>2026-04-26T15:06:41Z</time></trkpt><trkpt lat="45.95247657020433" lon="11.212737392058742"><ele>1073.0</ele><time>2026-04-26T15:06:42Z</time></trkpt><trkpt lat="45.95242976995659" lon="11.212479469905382"><ele>1076.0</ele><time>2026-04-26T15:06:43Z</time></trkpt><trkpt lat="45.95238830199934" lon="11.212232712118684"><ele>1079.0</ele><time>2026-04-26T15:06:44Z</time></trkpt><trkpt lat="45.95235408630305" lon="11.2119868742196"><ele>1083.3333333333335</ele><time>2026-04-26T15:06:45Z</time></trkpt><trkpt lat="45.95231298289215" lon="11.211767859065034"><ele>1087.6666666666667</ele><time>2026-04-26T15:06:46Z</time></trkpt><trkpt lat="45.95225799690144" lon="11.21156366735934"><ele>1092.0</ele><time>2026-04-26T15:06:47Z</time></trkpt><trkpt lat="45.952170150006346" lon="11.211378308395444"><ele>1097.0</ele><time>2026-04-26T15:06:48Z</time></trkpt><trkpt lat="45.95203022665134" lon="11.211218377917103"><ele>1102.0</ele><time>2026-04-26T15:06:49Z</time></trkpt><trkpt lat="45.95187928760138" lon="11.211068087367233"><ele>1107.0</ele><time>2026-04-26T15:06:50Z</time></trkpt><trkpt lat="45.9517251953239" lon="11.21091587505856"><ele>1107.3333333333333</ele><time>2026-04-26T15:06:51Z</time></trkpt><trkpt lat="45.95157804832149" lon="11.210761568173156"><ele>1107.6666666666665</ele><time>2026-04-26T15:06:52Z</time></trkpt><trkpt lat="45.951438567270564" lon="11.210609718158125"><ele>1108.0</ele><time>2026-04-26T15:06:53Z</time></trkpt><trkpt lat="45.95131888995068" lon="11.21047426975927"><ele>1108.0</ele><time>2026-04-26T15:06:54Z</time></trkpt><trkpt lat="45.951201152541834" lon="11.210353807794649"><ele>1108.0</ele><time>2026-04-26T15:06:55Z</time></trkpt><trkpt lat="45.951093492768635" lon="11.21025651443313"><ele>1108.0</ele><time>2026-04-26T15:06:56Z</time></trkpt><trkpt lat="45.95098946454658" lon="11.210212628616624"><ele>1108.0</ele><time>2026-04-26T15:06:57Z</time></trkpt><trkpt lat="45.950868741216276" lon="11.210243228697951"><ele>1109.5</ele><time>2026-04-26T15:06:57.999Z</time></trkpt><trkpt lat="45.95076443464387" lon="11.210352511174083"><ele>1111.0</ele><time>2026-04-26T15:06:58.999Z</time></trkpt><trkpt lat="45.950670344136434" lon="11.21051308523729"><ele>1112.5</ele><time>2026-04-26T15:06:59.999Z</time></trkpt><trkpt lat="45.9506140744383" lon="11.210694661305725"><ele>1114.0</ele><time>2026-04-26T15:07:00.999Z</time></trkpt><trkpt lat="45.95057203124965" lon="11.210874145704341"><ele>1109.6666666666665</ele><time>2026-04-26T15:07:01.999Z</time></trkpt><trkpt lat="45.95043517925514" lon="11.211011707282767"><ele>1105.3333333333333</ele><time>2026-04-26T15:07:02.999Z</time></trkpt><trkpt lat="45.9502962267417" lon="11.211068134088455"><ele>1101.0</ele><time>2026-04-26T15:07:03.999Z</time></trkpt><trkpt lat="45.95014647254583" lon="11.211008837992724"><ele>1101.0</ele><time>2026-04-26T15:07:05.999Z</time></trkpt><trkpt lat="45.95004452949701" lon="11.210890138650248"><ele>1101.0</ele><time>2026-04-26T15:07:06.999Z</time></trkpt><trkpt lat="45.94998628052223" lon="11.210761623760053"><ele>1101.0</ele><time>2026-04-26T15:07:07.999Z</time></trkpt><trkpt lat="45.94994474067526" lon="11.210579657781542"><ele>1101.0</ele><time>2026-04-26T15:07:08.999Z</time></trkpt><trkpt lat="45.94992164379015" lon="11.210389187889069"><ele>1103.75</ele><time>2026-04-26T15:07:09.999Z</time></trkpt><trkpt lat="45.949884120225185" lon="11.210201483415336"><ele>1106.5</ele><time>2026-04-26T15:07:10.999Z</time></trkpt><trkpt lat="45.949851216334395" lon="11.21000102336113"><ele>1109.25</ele><time>2026-04-26T15:07:11.999Z</time></trkpt><trkpt lat="45.94980508135292" lon="11.20980189316342"><ele>1112.0</ele><time>2026-04-26T15:07:12.999Z</time></trkpt><trkpt lat="45.9497430117572" lon="11.20961530090263"><ele>1113.75</ele><time>2026-04-26T15:07:13.999Z</time></trkpt><trkpt lat="45.9496501765018" lon="11.209457829176792"><ele>1115.5</ele><time>2026-04-26T15:07:14.999Z</time></trkpt><trkpt lat="45.949543099955314" lon="11.209334919667217"><ele>1117.25</ele><time>2026-04-26T15:07:15.999Z</time></trkpt><trkpt lat="45.94942885116356" lon="11.209236573736522"><ele>1119.0</ele><time>2026-04-26T15:07:16.999Z</time></trkpt><trkpt lat="45.949321086275674" lon="11.209132019573438"><ele>1122.5</ele><time>2026-04-26T15:07:17.999Z</time></trkpt><trkpt lat="45.94924574617726" lon="11.208970039906374"><ele>1126.0</ele><time>2026-04-26T15:07:18.999Z</time></trkpt><trkpt lat="45.94918853971831" lon="11.208801838413791"><ele>1129.5</ele><time>2026-04-26T15:07:19.999Z</time></trkpt><trkpt lat="45.94915543867656" lon="11.208635336863715"><ele>1133.0</ele><time>2026-04-26T15:07:20.999Z</time></trkpt><trkpt lat="45.94913860177265" lon="11.208476519005698"><ele>1132.75</ele><time>2026-04-26T15:07:21.999Z</time></trkpt><trkpt lat="45.94915507296849" lon="11.208290544390673"><ele>1132.5</ele><time>2026-04-26T15:07:22.999Z</time></trkpt><trkpt lat="45.9491958238964" lon="11.208125304544218"><ele>1132.25</ele><time>2026-04-26T15:07:23.999Z</time></trkpt><trkpt lat="45.94926451580868" lon="11.207966491375837"><ele>1132.0</ele><time>2026-04-26T15:07:24.999Z</time></trkpt><trkpt lat="45.94936650210379" lon="11.20783488086188"><ele>1132.0</ele><time>2026-04-26T15:07:25.999Z</time></trkpt><trkpt lat="45.94946662437881" lon="11.207701576561382"><ele>1132.0</ele><time>2026-04-26T15:07:26.999Z</time></trkpt><trkpt lat="45.94955582552375" lon="11.207551995732983"><ele>1132.0</ele><time>2026-04-26T15:07:27.999Z</time></trkpt><trkpt lat="45.94965180802808" lon="11.207407514072456"><ele>1132.0</ele><time>2026-04-26T15:07:28.999Z</time></trkpt><trkpt lat="45.94974173515354" lon="11.207267815597712"><ele>1131.2</ele><time>2026-04-26T15:07:29.999Z</time></trkpt><trkpt lat="45.949831111461094" lon="11.207159827632871"><ele>1130.4</ele><time>2026-04-26T15:07:30.999Z</time></trkpt><trkpt lat="45.94991963920812" lon="11.207065377158962"><ele>1129.6</ele><time>2026-04-26T15:07:31.999Z</time></trkpt><trkpt lat="45.950001529455236" lon="11.206986021547339"><ele>1128.8</ele><time>2026-04-26T15:07:32.999Z</time></trkpt><trkpt lat="45.95004988570538" lon="11.206883438776195"><ele>1128.0</ele><time>2026-04-26T15:07:33.999Z</time></trkpt><trkpt lat="45.9500548250806" lon="11.206749723049779"><ele>1128.0</ele><time>2026-04-26T15:07:34.999Z</time></trkpt><trkpt lat="45.95003399678975" lon="11.206611010299955"><ele>1128.0</ele><time>2026-04-26T15:07:35.999Z</time></trkpt><trkpt lat="45.94996720798895" lon="11.206492816191739"><ele>1128.0</ele><time>2026-04-26T15:07:36.999Z</time></trkpt><trkpt lat="45.94987479731542" lon="11.20641835526871"><ele>1128.0</ele><time>2026-04-26T15:07:37.999Z</time></trkpt><trkpt lat="45.949769936379674" lon="11.206412320105729"><ele>1128.0</ele><time>2026-04-26T15:07:38.999Z</time></trkpt><trkpt lat="45.94966551617251" lon="11.206425164969293"><ele>1130.0</ele><time>2026-04-26T15:07:39.999Z</time></trkpt><trkpt lat="45.94958381441804" lon="11.206426263387032"><ele>1132.0</ele><time>2026-04-26T15:07:40.999Z</time></trkpt><trkpt lat="45.94951153697063" lon="11.206392189403529"><ele>1134.0</ele><time>2026-04-26T15:07:41.999Z</time></trkpt><trkpt lat="45.94945767575182" lon="11.206323041115981"><ele>1136.0</ele><time>2026-04-26T15:07:42.999Z</time></trkpt><trkpt lat="45.94945079636645" lon="11.206211841050546"><ele>1138.0</ele><time>2026-04-26T15:07:43.999Z</time></trkpt><trkpt lat="45.94949176446954" lon="11.206084047907257"><ele>1140.0</ele><time>2026-04-26T15:07:44.999Z</time></trkpt><trkpt lat="45.949509563369155" lon="11.205953004752244"><ele>1140.0</ele><time>2026-04-26T15:07:45.999Z</time></trkpt><trkpt lat="45.94951274464696" lon="11.205836085439215"><ele>1140.0</ele><time>2026-04-26T15:07:46.999Z</time></trkpt><trkpt lat="45.949516283521724" lon="11.205648578448818"><ele>1140.0</ele><time>2026-04-26T15:07:47.998Z</time></trkpt><trkpt lat="45.94951035907716" lon="11.20549806111549"><ele>1140.0</ele><time>2026-04-26T15:07:48.998Z</time></trkpt><trkpt lat="45.94952671534144" lon="11.205349344273538"><ele>1140.0</ele><time>2026-04-26T15:07:49.998Z</time></trkpt><trkpt lat="45.94952379088702" lon="11.205192218317032"><ele>1140.4</ele><time>2026-04-26T15:07:50.998Z</time></trkpt><trkpt lat="45.9495465296427" lon="11.205034910287875"><ele>1140.8</ele><time>2026-04-26T15:07:51.998Z</time></trkpt><trkpt lat="45.94959268518015" lon="11.204889625439307"><ele>1141.2</ele><time>2026-04-26T15:07:52.998Z</time></trkpt><trkpt lat="45.94963864759972" lon="11.204749153582897"><ele>1141.6</ele><time>2026-04-26T15:07:53.998Z</time></trkpt><trkpt lat="45.94967996526869" lon="11.204608419598841"><ele>1142.0</ele><time>2026-04-26T15:07:54.998Z</time></trkpt><trkpt lat="45.94970905389243" lon="11.20446490882109"><ele>1142.0</ele><time>2026-04-26T15:07:55.998Z</time></trkpt><trkpt lat="45.94970722012651" lon="11.204314677748075"><ele>1142.0</ele><time>2026-04-26T15:07:56.998Z</time></trkpt><trkpt lat="45.94966202671252" lon="11.204174393869847"><ele>1142.0</ele><time>2026-04-26T15:07:57.998Z</time></trkpt><trkpt lat="45.9495919858087" lon="11.204074644035867"><ele>1142.0</ele><time>2026-04-26T15:07:58.998Z</time></trkpt><trkpt lat="45.94950273634933" lon="11.204029997462452"><ele>1142.0</ele><time>2026-04-26T15:07:59.998Z</time></trkpt><trkpt lat="45.94940497996787" lon="11.204024554197764"><ele>1142.0</ele><time>2026-04-26T15:08:00.998Z</time></trkpt><trkpt lat="45.94930055149486" lon="11.20404792295567"><ele>1142.0</ele><time>2026-04-26T15:08:01.998Z</time></trkpt><trkpt lat="45.94920097280515" lon="11.204079796862239"><ele>1142.0</ele><time>2026-04-26T15:08:02.998Z</time></trkpt><trkpt lat="45.94909898331306" lon="11.204113105191517"><ele>1142.0</ele><time>2026-04-26T15:08:03.998Z</time></trkpt><trkpt lat="45.948988589677555" lon="11.204163648490955"><ele>1142.0</ele><time>2026-04-26T15:08:04.998Z</time></trkpt><trkpt lat="45.94887845323291" lon="11.204274907748342"><ele>1134.75</ele><time>2026-04-26T15:08:06.001Z</time></trkpt><trkpt lat="45.94877060919008" lon="11.204403896815727"><ele>1127.5</ele><time>2026-04-26T15:08:07.001Z</time></trkpt><trkpt lat="45.94865841915209" lon="11.20453686678272"><ele>1120.25</ele><time>2026-04-26T15:08:08.001Z</time></trkpt><trkpt lat="45.94854677205838" lon="11.204657856615361"><ele>1113.0</ele><time>2026-04-26T15:08:09.001Z</time></trkpt><trkpt lat="45.94844743576454" lon="11.20478462639799"><ele>1114.75</ele><time>2026-04-26T15:08:10.001Z</time></trkpt><trkpt lat="45.94834755467816" lon="11.204899723365152"><ele>1116.5</ele><time>2026-04-26T15:08:11.001Z</time></trkpt><trkpt lat="45.94824611392706" lon="11.205021258965898"><ele>1118.25</ele><time>2026-04-26T15:08:12.001Z</time></trkpt><trkpt lat="45.94815647123313" lon="11.205158040788318"><ele>1120.0</ele><time>2026-04-26T15:08:13.001Z</time></trkpt><trkpt lat="45.94808150604732" lon="11.205315114769043"><ele>1120.0</ele><time>2026-04-26T15:08:14.001Z</time></trkpt><trkpt lat="45.94802369319417" lon="11.205481981667"><ele>1120.0</ele><time>2026-04-26T15:08:15.001Z</time></trkpt><trkpt lat="45.94798593349771" lon="11.20566580520927"><ele>1120.0</ele><time>2026-04-26T15:08:16.001Z</time></trkpt><trkpt lat="45.94794805048072" lon="11.205849535167184"><ele>1120.0</ele><time>2026-04-26T15:08:17.001Z</time></trkpt><trkpt lat="45.94790948349788" lon="11.20602186927637"><ele>1121.0</ele><time>2026-04-26T15:08:18.001Z</time></trkpt><trkpt lat="45.947871285669656" lon="11.20616686483428"><ele>1122.0</ele><time>2026-04-26T15:08:19.001Z</time></trkpt><trkpt lat="45.94782303648444" lon="11.206278049157005"><ele>1123.0</ele><time>2026-04-26T15:08:20.001Z</time></trkpt><trkpt lat="45.94778699583348" lon="11.206381811915136"><ele>1124.0</ele><time>2026-04-26T15:08:21.001Z</time></trkpt><trkpt lat="45.94775636297527" lon="11.206468404480201"><ele>1125.0</ele><time>2026-04-26T15:08:22Z</time></trkpt><trkpt lat="45.94772538729549" lon="11.206552387119485"><ele>1126.0</ele><time>2026-04-26T15:08:23Z</time></trkpt><trkpt lat="45.9474670943789" lon="11.207080295260269"><ele>1126.0</ele><time>2026-04-26T15:08:24Z</time></trkpt><trkpt lat="45.947358186250675" lon="11.207207023306125"><ele>1126.0</ele><time>2026-04-26T15:08:25Z</time></trkpt><trkpt lat="45.947254146539194" lon="11.207285660884098"><ele>1126.0</ele><time>2026-04-26T15:08:26Z</time></trkpt><trkpt lat="45.94714184392492" lon="11.207366513408235"><ele>1126.0</ele><time>2026-04-26T15:08:27.022Z</time></trkpt><trkpt lat="45.94703729560921" lon="11.207422263723686"><ele>1120.0</ele><time>2026-04-26T15:08:28.02Z</time></trkpt><trkpt lat="45.946924910314806" lon="11.207490702048496"><ele>1114.0</ele><time>2026-04-26T15:08:29.021Z</time></trkpt><trkpt lat="45.946813201536116" lon="11.207558727341226"><ele>1108.0</ele><time>2026-04-26T15:08:30.02Z</time></trkpt><trkpt lat="45.94578029665841" lon="11.20823870391114"><ele>1128.0</ele><time>2026-04-26T15:08:33.144Z</time></trkpt><trkpt lat="45.94546540859753" lon="11.208488055902322"><ele>1148.0</ele><time>2026-04-26T15:08:34.144Z</time></trkpt><trkpt lat="45.94516167371357" lon="11.208764751708351"><ele>1181.5</ele><time>2026-04-26T15:08:35.144Z</time></trkpt><trkpt lat="45.9448593836216" lon="11.209043268625699"><ele>1215.0</ele><time>2026-04-26T15:08:36.143Z</time></trkpt><trkpt lat="45.944555805765894" lon="11.209322187779442"><ele>1215.0</ele><time>2026-04-26T15:08:37.145Z</time></trkpt><trkpt lat="45.944253258537486" lon="11.209598896047613"><ele>1215.0</ele><time>2026-04-26T15:08:38.142Z</time></trkpt><trkpt lat="45.9439486660747" lon="11.209875504893828"><ele>1229.5</ele><time>2026-04-26T15:08:39.144Z</time></trkpt><trkpt lat="45.94364974960233" lon="11.21016244319744"><ele>1244.0</ele><time>2026-04-26T15:08:40.144Z</time></trkpt><trkpt lat="45.9435107" lon="11.2103199"><ele>1083.0</ele><time>2026-04-26T15:08:41.144Z</time></trkpt><trkpt lat="45.9421597375031" lon="11.215110579516008"><ele>1083.0</ele><time>2026-04-26T15:09:03.999Z</time></trkpt><trkpt lat="45.94209756073538" lon="11.21539801610777"><ele>1083.0</ele><time>2026-04-26T15:09:04.999Z</time></trkpt><trkpt lat="45.94191508926647" lon="11.215597324156683"><ele>1083.0</ele><time>2026-04-26T15:09:05.999Z</time></trkpt><trkpt lat="45.941832322334236" lon="11.215858839682939"><ele>1087.0</ele><time>2026-04-26T15:09:06.999Z</time></trkpt><trkpt lat="45.94178094298366" lon="11.21611308032211"><ele>1091.0</ele><time>2026-04-26T15:09:07.999Z</time></trkpt><trkpt lat="45.941718041666064" lon="11.216371041535279"><ele>1095.0</ele><time>2026-04-26T15:09:08.999Z</time></trkpt><trkpt lat="45.94163002124965" lon="11.216605066891594"><ele>1095.0</ele><time>2026-04-26T15:09:09.999Z</time></trkpt><trkpt lat="45.94156985691113" lon="11.216824247250297"><ele>1095.0</ele><time>2026-04-26T15:09:10.999Z</time></trkpt><trkpt lat="45.94150817786666" lon="11.217030851968458"><ele>1095.0</ele><time>2026-04-26T15:09:11.999Z</time></trkpt><trkpt lat="45.94143307118566" lon="11.217186921389091"><ele>1095.0</ele><time>2026-04-26T15:09:12.999Z</time></trkpt><trkpt lat="45.941379923571006" lon="11.217286037163285"><ele>1095.0</ele><time>2026-04-26T15:09:13.999Z</time></trkpt><trkpt lat="45.94130961530151" lon="11.21738773213581"><ele>1095.0</ele><time>2026-04-26T15:09:14.999Z</time></trkpt><trkpt lat="45.94112605181947" lon="11.217562947823678"><ele>1095.0</ele><time>2026-04-26T15:09:15.999Z</time></trkpt><trkpt lat="45.940976310889894" lon="11.217663875243991"><ele>1100.0</ele><time>2026-04-26T15:09:16.999Z</time></trkpt><trkpt lat="45.94080867975169" lon="11.217745952178278"><ele>1105.0</ele><time>2026-04-26T15:09:17.999Z</time></trkpt><trkpt lat="45.94065698566132" lon="11.217866378108114"><ele>1110.0</ele><time>2026-04-26T15:09:18.999Z</time></trkpt><trkpt lat="45.94062785764663" lon="11.21801206442531"><ele>1110.0</ele><time>2026-04-26T15:09:19.999Z</time></trkpt><trkpt lat="45.9405161613346" lon="11.2181244240151"><ele>1110.0</ele><time>2026-04-26T15:09:20.999Z</time></trkpt><trkpt lat="45.940405637804275" lon="11.2181874264188"><ele>1110.0</ele><time>2026-04-26T15:09:21.999Z</time></trkpt><trkpt lat="45.94028055062646" lon="11.218222032028216"><ele>1110.0</ele><time>2026-04-26T15:09:22.999Z</time></trkpt><trkpt lat="45.94013744790981" lon="11.218245019975685"><ele>1108.5</ele><time>2026-04-26T15:09:23.999Z</time></trkpt><trkpt lat="45.939995690389054" lon="11.218309024767626"><ele>1107.0</ele><time>2026-04-26T15:09:24.999Z</time></trkpt><trkpt lat="45.93987152779233" lon="11.2184067398392"><ele>1105.5</ele><time>2026-04-26T15:09:25.999Z</time></trkpt><trkpt lat="45.93975360598318" lon="11.218501812273365"><ele>1104.0</ele><time>2026-04-26T15:09:26.999Z</time></trkpt><trkpt lat="45.93963060965" lon="11.218574277958357"><ele>1104.0</ele><time>2026-04-26T15:09:27.999Z</time></trkpt><trkpt lat="45.939518170975255" lon="11.218660445918278"><ele>1104.0</ele><time>2026-04-26T15:09:28.999Z</time></trkpt><trkpt lat="45.939401793408614" lon="11.218739436114403"><ele>1104.0</ele><time>2026-04-26T15:09:29.999Z</time></trkpt><trkpt lat="45.93928418173876" lon="11.218796195705096"><ele>1104.0</ele><time>2026-04-26T15:09:30.999Z</time></trkpt><trkpt lat="45.93916264864811" lon="11.21881665520769"><ele>1108.0</ele><time>2026-04-26T15:09:31.999Z</time></trkpt><trkpt lat="45.93903221276214" lon="11.21882108048422"><ele>1112.0</ele><time>2026-04-26T15:09:32.999Z</time></trkpt><trkpt lat="45.93889124418317" lon="11.21882769387635"><ele>1116.0</ele><time>2026-04-26T15:09:33.999Z</time></trkpt><trkpt lat="45.93874661043155" lon="11.218853636297752"><ele>1120.0</ele><time>2026-04-26T15:09:34.999Z</time></trkpt><trkpt lat="45.93859850922606" lon="11.218922322311032"><ele>1120.0</ele><time>2026-04-26T15:09:35.999Z</time></trkpt><trkpt lat="45.93843692008926" lon="11.218932374035266"><ele>1120.0</ele><time>2026-04-26T15:09:36.999Z</time></trkpt><trkpt lat="45.93827267162154" lon="11.21893301428195"><ele>1120.0</ele><time>2026-04-26T15:09:37.999Z</time></trkpt><trkpt lat="45.93811467349543" lon="11.218933482932773"><ele>1120.25</ele><time>2026-04-26T15:09:38.999Z</time></trkpt><trkpt lat="45.937964797428144" lon="11.218935853552527"><ele>1120.5</ele><time>2026-04-26T15:09:39.999Z</time></trkpt><trkpt lat="45.93782616435595" lon="11.218938046351811"><ele>1120.75</ele><time>2026-04-26T15:09:40.999Z</time></trkpt><trkpt lat="45.93769585507221" lon="11.218974087209302"><ele>1121.0</ele><time>2026-04-26T15:09:41.998Z</time></trkpt><trkpt lat="45.93756952473283" lon="11.219015567366037"><ele>1115.0</ele><time>2026-04-26T15:09:42.998Z</time></trkpt><trkpt lat="45.93745417280039" lon="11.219141740450413"><ele>1109.0</ele><time>2026-04-26T15:09:43.998Z</time></trkpt><trkpt lat="45.93734872498478" lon="11.2192877501078"><ele>1103.0</ele><time>2026-04-26T15:09:44.998Z</time></trkpt><trkpt lat="45.93723969645741" lon="11.219468525692808"><ele>1103.0</ele><time>2026-04-26T15:09:45.998Z</time></trkpt><trkpt lat="45.93712871587309" lon="11.219642784457177"><ele>1103.0</ele><time>2026-04-26T15:09:46.998Z</time></trkpt><trkpt lat="45.93701830670735" lon="11.21980405584949"><ele>1103.0</ele><time>2026-04-26T15:09:47.998Z</time></trkpt><trkpt lat="45.936899428206715" lon="11.21993935766087"><ele>1104.25</ele><time>2026-04-26T15:09:48.998Z</time></trkpt><trkpt lat="45.93679147359182" lon="11.220089167623792"><ele>1105.5</ele><time>2026-04-26T15:09:49.998Z</time></trkpt><trkpt lat="45.93669550756529" lon="11.220255149074172"><ele>1106.75</ele><time>2026-04-26T15:09:50.998Z</time></trkpt><trkpt lat="45.936581409537546" lon="11.220381455981999"><ele>1108.0</ele><time>2026-04-26T15:09:51.998Z</time></trkpt><trkpt lat="45.93648476874917" lon="11.220521924473232"><ele>1108.0</ele><time>2026-04-26T15:09:52.998Z</time></trkpt><trkpt lat="45.936387610598366" lon="11.220648756859395"><ele>1108.0</ele><time>2026-04-26T15:09:53.998Z</time></trkpt><trkpt lat="45.936288832393316" lon="11.220757678289445"><ele>1108.0</ele><time>2026-04-26T15:09:54.998Z</time></trkpt><trkpt lat="45.9361844242794" lon="11.220840894598336"><ele>1108.0</ele><time>2026-04-26T15:09:55.998Z</time></trkpt><trkpt lat="45.93606023692072" lon="11.220900858481059"><ele>1108.5</ele><time>2026-04-26T15:09:56.998Z</time></trkpt><trkpt lat="45.93592658278022" lon="11.220921830652788"><ele>1109.0</ele><time>2026-04-26T15:09:57.998Z</time></trkpt><trkpt lat="45.935778633962194" lon="11.220951933956552"><ele>1109.5</ele><time>2026-04-26T15:09:58.998Z</time></trkpt><trkpt lat="45.93564160944322" lon="11.221049338463553"><ele>1110.0</ele><time>2026-04-26T15:09:59.998Z</time></trkpt><trkpt lat="45.935519075928134" lon="11.22115275953839"><ele>1110.0</ele><time>2026-04-26T15:10:00.998Z</time></trkpt><trkpt lat="45.93538687024212" lon="11.221210269471852"><ele>1110.0</ele><time>2026-04-26T15:10:01.998Z</time></trkpt><trkpt lat="45.93526247307201" lon="11.221277976462837"><ele>1110.0</ele><time>2026-04-26T15:10:02.998Z</time></trkpt><trkpt lat="45.93513894886969" lon="11.221362229028644"><ele>1110.0</ele><time>2026-04-26T15:10:03.998Z</time></trkpt><trkpt lat="45.93502028291835" lon="11.221460462076484"><ele>1105.5</ele><time>2026-04-26T15:10:04.998Z</time></trkpt><trkpt lat="45.9349067818182" lon="11.221564552898295"><ele>1101.0</ele><time>2026-04-26T15:10:05.998Z</time></trkpt><trkpt lat="45.93476384060782" lon="11.221571519050089"><ele>1096.5</ele><time>2026-04-26T15:10:06.998Z</time></trkpt><trkpt lat="45.93463077098807" lon="11.221584110129493"><ele>1092.0</ele><time>2026-04-26T15:10:07.998Z</time></trkpt><trkpt lat="45.93451458287715" lon="11.221622437397441"><ele>1092.0</ele><time>2026-04-26T15:10:08.998Z</time></trkpt><trkpt lat="45.934413998613714" lon="11.221708099085209"><ele>1092.0</ele><time>2026-04-26T15:10:09.998Z</time></trkpt><trkpt lat="45.934324328219674" lon="11.221815347922599"><ele>1092.0</ele><time>2026-04-26T15:10:10.998Z</time></trkpt><trkpt lat="45.934264841254375" lon="11.221968690319219"><ele>1092.0</ele><time>2026-04-26T15:10:12.001Z</time></trkpt><trkpt lat="45.934237064543005" lon="11.22213541208712"><ele>1092.0</ele><time>2026-04-26T15:10:13.001Z</time></trkpt><trkpt lat="45.93422762723643" lon="11.222298546230222"><ele>1092.0</ele><time>2026-04-26T15:10:14.001Z</time></trkpt><trkpt lat="45.934197313997764" lon="11.222453317238104"><ele>1092.0</ele><time>2026-04-26T15:10:15.001Z</time></trkpt><trkpt lat="45.9341147719757" lon="11.222572943896985"><ele>1092.0</ele><time>2026-04-26T15:10:16.001Z</time></trkpt><trkpt lat="45.93402989740481" lon="11.22271234177972"><ele>1091.25</ele><time>2026-04-26T15:10:17.001Z</time></trkpt><trkpt lat="45.933946744093674" lon="11.222866149128931"><ele>1090.5</ele><time>2026-04-26T15:10:18.001Z</time></trkpt><trkpt lat="45.9338527705594" lon="11.223015370363365"><ele>1089.75</ele><time>2026-04-26T15:10:19.001Z</time></trkpt><trkpt lat="45.93375857078749" lon="11.223172133755133"><ele>1089.0</ele><time>2026-04-26T15:10:20Z</time></trkpt><trkpt lat="45.933668537753405" lon="11.223326646323372"><ele>1086.25</ele><time>2026-04-26T15:10:21Z</time></trkpt><trkpt lat="45.93358472110486" lon="11.223478397456471"><ele>1083.5</ele><time>2026-04-26T15:10:22Z</time></trkpt><trkpt lat="45.93351663203935" lon="11.223646384862445"><ele>1080.75</ele><time>2026-04-26T15:10:23Z</time></trkpt><trkpt lat="45.933471503445176" lon="11.223821747421649"><ele>1078.0</ele><time>2026-04-26T15:10:24Z</time></trkpt><trkpt lat="45.93344811139153" lon="11.224010487422216"><ele>1076.25</ele><time>2026-04-26T15:10:25Z</time></trkpt><trkpt lat="45.933440595442654" lon="11.224198556688068"><ele>1074.5</ele><time>2026-04-26T15:10:26Z</time></trkpt><trkpt lat="45.9334530750316" lon="11.224389280040022"><ele>1072.75</ele><time>2026-04-26T15:10:27Z</time></trkpt><trkpt lat="45.933484458314574" lon="11.224579010269887"><ele>1071.0</ele><time>2026-04-26T15:10:28Z</time></trkpt><trkpt lat="45.9335283171245" lon="11.224759400611463"><ele>1071.75</ele><time>2026-04-26T15:10:29Z</time></trkpt><trkpt lat="45.9335813740417" lon="11.224938637776246"><ele>1072.5</ele><time>2026-04-26T15:10:30Z</time></trkpt><trkpt lat="45.933631967090086" lon="11.225125459071768"><ele>1073.25</ele><time>2026-04-26T15:10:31Z</time></trkpt><trkpt lat="45.93367153193177" lon="11.225309839134274"><ele>1074.0</ele><time>2026-04-26T15:10:32Z</time></trkpt><trkpt lat="45.93371472342108" lon="11.22548371253588"><ele>1074.6000000000001</ele><time>2026-04-26T15:10:33Z</time></trkpt><trkpt lat="45.933756121085736" lon="11.225646962419098"><ele>1075.2</ele><time>2026-04-26T15:10:34Z</time></trkpt><trkpt lat="45.933800896203756" lon="11.225798702475343"><ele>1075.8000000000002</ele><time>2026-04-26T15:10:35Z</time></trkpt><trkpt lat="45.93385361313609" lon="11.225938272255249"><ele>1076.4</ele><time>2026-04-26T15:10:36Z</time></trkpt><trkpt lat="45.93390862068386" lon="11.22604536334286"><ele>1077.0</ele><time>2026-04-26T15:10:37Z</time></trkpt><trkpt lat="45.93395618493612" lon="11.226117188957438"><ele>1077.0</ele><time>2026-04-26T15:10:38Z</time></trkpt><trkpt lat="45.934023687978545" lon="11.226228152014912"><ele>1077.0</ele><time>2026-04-26T15:10:40Z</time></trkpt><trkpt lat="45.93405645343665" lon="11.226308085362374"><ele>1077.0</ele><time>2026-04-26T15:10:42Z</time></trkpt><trkpt lat="45.93412371119047" lon="11.226444436105323"><ele>1077.0</ele><time>2026-04-26T15:10:45Z</time></trkpt><trkpt lat="45.93418128041813" lon="11.226506134537217"><ele>1077.0</ele><time>2026-04-26T15:10:46Z</time></trkpt><trkpt lat="45.93425807623716" lon="11.22655564866049"><ele>1077.0</ele><time>2026-04-26T15:10:47Z</time></trkpt><trkpt lat="45.93434252348098" lon="11.226587719256871"><ele>1076.3333333333333</ele><time>2026-04-26T15:10:48Z</time></trkpt><trkpt lat="45.93442068089658" lon="11.226615045863975"><ele>1075.6666666666667</ele><time>2026-04-26T15:10:49Z</time></trkpt><trkpt lat="45.93450971953005" lon="11.226636262439598"><ele>1075.0</ele><time>2026-04-26T15:10:50Z</time></trkpt><trkpt lat="45.93460516141815" lon="11.226655232054464"><ele>1074.3333333333335</ele><time>2026-04-26T15:10:51Z</time></trkpt><trkpt lat="45.93470088377247" lon="11.226666779575853"><ele>1073.6666666666667</ele><time>2026-04-26T15:10:52Z</time></trkpt><trkpt lat="45.93478502976152" lon="11.226689240566849"><ele>1073.0</ele><time>2026-04-26T15:10:53Z</time></trkpt><trkpt lat="45.93485848595951" lon="11.226706772229662"><ele>1073.0</ele><time>2026-04-26T15:10:54Z</time></trkpt><trkpt lat="45.93492569508669" lon="11.226733887051758"><ele>1073.0</ele><time>2026-04-26T15:10:55Z</time></trkpt><trkpt lat="45.93497726564376" lon="11.226799549209224"><ele>1073.0</ele><time>2026-04-26T15:10:56Z</time></trkpt><trkpt lat="45.93500780075503" lon="11.226894711461851"><ele>1073.0</ele><time>2026-04-26T15:10:57Z</time></trkpt><trkpt lat="45.934979229349956" lon="11.227012514253808"><ele>1073.0</ele><time>2026-04-26T15:10:58Z</time></trkpt><trkpt lat="45.934967998582316" lon="11.227139680174423"><ele>1073.0</ele><time>2026-04-26T15:10:58.999Z</time></trkpt><trkpt lat="45.934939427808345" lon="11.2272678714443"><ele>1072.8</ele><time>2026-04-26T15:10:59.999Z</time></trkpt><trkpt lat="45.93492296800815" lon="11.227401689717915"><ele>1072.6</ele><time>2026-04-26T15:11:00.999Z</time></trkpt><trkpt lat="45.93489179770109" lon="11.227529999371232"><ele>1072.4</ele><time>2026-04-26T15:11:01.999Z</time></trkpt><trkpt lat="45.934843161864514" lon="11.227642662452528"><ele>1072.2</ele><time>2026-04-26T15:11:02.999Z</time></trkpt><trkpt lat="45.9347613052611" lon="11.22773862850646"><ele>1072.0</ele><time>2026-04-26T15:11:03.999Z</time></trkpt><trkpt lat="45.93466754276423" lon="11.227824967412376"><ele>1072.0</ele><time>2026-04-26T15:11:04.999Z</time></trkpt><trkpt lat="45.93456998193753" lon="11.227904287823709"><ele>1072.0</ele><time>2026-04-26T15:11:05.999Z</time></trkpt><trkpt lat="45.93448025994013" lon="11.227979595901793"><ele>1072.0</ele><time>2026-04-26T15:11:06.999Z</time></trkpt><trkpt lat="45.934393701995056" lon="11.22804925739449"><ele>1072.0</ele><time>2026-04-26T15:11:07.999Z</time></trkpt><trkpt lat="45.9343013286842" lon="11.228135640210883"><ele>1072.0</ele><time>2026-04-26T15:11:08.999Z</time></trkpt><trkpt lat="45.934234669844166" lon="11.228266412199867"><ele>1071.0</ele><time>2026-04-26T15:11:09.999Z</time></trkpt><trkpt lat="45.93418601044992" lon="11.228441871976235"><ele>1070.0</ele><time>2026-04-26T15:11:10.999Z</time></trkpt><trkpt lat="45.93416137182521" lon="11.228633456121951"><ele>1069.0</ele><time>2026-04-26T15:11:11.999Z</time></trkpt><trkpt lat="45.93412982213465" lon="11.228831541476826"><ele>1068.0</ele><time>2026-04-26T15:11:12.999Z</time></trkpt><trkpt lat="45.93408654085118" lon="11.229033010674183"><ele>1067.75</ele><time>2026-04-26T15:11:13.999Z</time></trkpt><trkpt lat="45.934040917031766" lon="11.229227406161762"><ele>1067.5</ele><time>2026-04-26T15:11:14.999Z</time></trkpt><trkpt lat="45.93400075515809" lon="11.229413116516872"><ele>1067.25</ele><time>2026-04-26T15:11:15.999Z</time></trkpt><trkpt lat="45.93396038036121" lon="11.229596687273562"><ele>1067.0</ele><time>2026-04-26T15:11:16.999Z</time></trkpt><trkpt lat="45.93391940922213" lon="11.229776940938564"><ele>1067.0</ele><time>2026-04-26T15:11:17.999Z</time></trkpt><trkpt lat="45.93388135679759" lon="11.229952115759053"><ele>1067.0</ele><time>2026-04-26T15:11:18.999Z</time></trkpt><trkpt lat="45.933847016458984" lon="11.230124868879088"><ele>1067.0</ele><time>2026-04-26T15:11:19.999Z</time></trkpt><trkpt lat="45.93384331410842" lon="11.230298927582913"><ele>1067.0</ele><time>2026-04-26T15:11:20.999Z</time></trkpt><trkpt lat="45.93388271045469" lon="11.230462528034906"><ele>1067.0</ele><time>2026-04-26T15:11:21.999Z</time></trkpt><trkpt lat="45.9339508868827" lon="11.230603336490145"><ele>1067.0</ele><time>2026-04-26T15:11:22.999Z</time></trkpt><trkpt lat="45.93402662844105" lon="11.230717771373333"><ele>1067.0</ele><time>2026-04-26T15:11:23.999Z</time></trkpt><trkpt lat="45.93411936962089" lon="11.230799158426402"><ele>1067.0</ele><time>2026-04-26T15:11:24.999Z</time></trkpt><trkpt lat="45.93422414728901" lon="11.23084910574153"><ele>1067.0</ele><time>2026-04-26T15:11:25.999Z</time></trkpt><trkpt lat="45.93434007712135" lon="11.230865269504239"><ele>1070.25</ele><time>2026-04-26T15:11:26.999Z</time></trkpt><trkpt lat="45.934446874344864" lon="11.230868393181295"><ele>1073.5</ele><time>2026-04-26T15:11:27.999Z</time></trkpt><trkpt lat="45.934555652138286" lon="11.230912834046284"><ele>1076.75</ele><time>2026-04-26T15:11:28.999Z</time></trkpt><trkpt lat="45.934662531678406" lon="11.230963062844967"><ele>1080.0</ele><time>2026-04-26T15:11:29.999Z</time></trkpt><trkpt lat="45.934773115722166" lon="11.231035841557345"><ele>1080.0</ele><time>2026-04-26T15:11:30.999Z</time></trkpt><trkpt lat="45.93485154273854" lon="11.231162623918728"><ele>1080.0</ele><time>2026-04-26T15:11:31.999Z</time></trkpt><trkpt lat="45.93495108453745" lon="11.231260487252484"><ele>1080.0</ele><time>2026-04-26T15:11:32.999Z</time></trkpt><trkpt lat="45.93504352171519" lon="11.231408738461477"><ele>1080.0</ele><time>2026-04-26T15:11:33.999Z</time></trkpt><trkpt lat="45.9351558655448" lon="11.231553808466543"><ele>1085.6666666666667</ele><time>2026-04-26T15:11:34.999Z</time></trkpt><trkpt lat="45.93527443380708" lon="11.231705010809156"><ele>1091.3333333333335</ele><time>2026-04-26T15:11:35.999Z</time></trkpt><trkpt lat="45.93540102144201" lon="11.231866439735178"><ele>1097.0</ele><time>2026-04-26T15:11:36.999Z</time></trkpt><trkpt lat="45.93553112243979" lon="11.232006809629345"><ele>1097.0</ele><time>2026-04-26T15:11:37.999Z</time></trkpt><trkpt lat="45.93564712565867" lon="11.232176935323329"><ele>1097.0</ele><time>2026-04-26T15:11:38.999Z</time></trkpt><trkpt lat="45.935766182018334" lon="11.232325277927716"><ele>1097.0</ele><time>2026-04-26T15:11:39.999Z</time></trkpt><trkpt lat="45.9358830512691" lon="11.232480651060552"><ele>1100.3333333333335</ele><time>2026-04-26T15:11:40.998Z</time></trkpt><trkpt lat="45.93599700226984" lon="11.23264103411876"><ele>1103.6666666666667</ele><time>2026-04-26T15:11:41.998Z</time></trkpt><trkpt lat="45.93609065912861" lon="11.232833749540749"><ele>1107.0</ele><time>2026-04-26T15:11:42.998Z</time></trkpt><trkpt lat="45.93616324271186" lon="11.23302689129496"><ele>1099.25</ele><time>2026-04-26T15:11:43.998Z</time></trkpt><trkpt lat="45.93622593886302" lon="11.23321912809447"><ele>1091.5</ele><time>2026-04-26T15:11:44.998Z</time></trkpt><trkpt lat="45.93629194949949" lon="11.233403606475685"><ele>1083.75</ele><time>2026-04-26T15:11:45.998Z</time></trkpt><trkpt lat="45.936357762208345" lon="11.233574288971338"><ele>1076.0</ele><time>2026-04-26T15:11:46.998Z</time></trkpt><trkpt lat="45.93642092267653" lon="11.233738007184732"><ele>1076.0</ele><time>2026-04-26T15:11:47.998Z</time></trkpt><trkpt lat="45.9364803481058" lon="11.233904124357055"><ele>1076.0</ele><time>2026-04-26T15:11:48.998Z</time></trkpt><trkpt lat="45.93652078914742" lon="11.23408101298257"><ele>1076.0</ele><time>2026-04-26T15:11:49.998Z</time></trkpt><trkpt lat="45.9365258227738" lon="11.234276806057824"><ele>1076.0</ele><time>2026-04-26T15:11:50.998Z</time></trkpt><trkpt lat="45.93653080949547" lon="11.23448128169596"><ele>1071.5</ele><time>2026-04-26T15:11:51.998Z</time></trkpt><trkpt lat="45.936540709017684" lon="11.234684908334472"><ele>1067.0</ele><time>2026-04-26T15:11:52.998Z</time></trkpt><trkpt lat="45.936539172871136" lon="11.234873897801384"><ele>1062.5</ele><time>2026-04-26T15:11:53.998Z</time></trkpt><trkpt lat="45.93654281336851" lon="11.235049351054846"><ele>1058.0</ele><time>2026-04-26T15:11:54.998Z</time></trkpt><trkpt lat="45.9365440158308" lon="11.235226274632009"><ele>1056.75</ele><time>2026-04-26T15:11:55.998Z</time></trkpt><trkpt lat="45.93655050380367" lon="11.235409392048197"><ele>1055.5</ele><time>2026-04-26T15:11:56.998Z</time></trkpt><trkpt lat="45.93655170287177" lon="11.235585775388255"><ele>1054.25</ele><time>2026-04-26T15:11:57.998Z</time></trkpt><trkpt lat="45.936549456557536" lon="11.235764005930486"><ele>1053.0</ele><time>2026-04-26T15:11:58.998Z</time></trkpt><trkpt lat="45.93655962044654" lon="11.235948640140206"><ele>1051.25</ele><time>2026-04-26T15:11:59.998Z</time></trkpt><trkpt lat="45.93659260030019" lon="11.236132429233901"><ele>1049.5</ele><time>2026-04-26T15:12:00.998Z</time></trkpt><trkpt lat="45.936611980953515" lon="11.23630141975746"><ele>1047.75</ele><time>2026-04-26T15:12:01.998Z</time></trkpt><trkpt lat="45.93663218694075" lon="11.236467930016524"><ele>1046.0</ele><time>2026-04-26T15:12:02.998Z</time></trkpt><trkpt lat="45.936645830765194" lon="11.236619587352873"><ele>1045.25</ele><time>2026-04-26T15:12:03.998Z</time></trkpt><trkpt lat="45.93665345132986" lon="11.236775776870843"><ele>1044.5</ele><time>2026-04-26T15:12:04.998Z</time></trkpt><trkpt lat="45.93664585574024" lon="11.236941164739678"><ele>1043.75</ele><time>2026-04-26T15:12:05.998Z</time></trkpt><trkpt lat="45.93660590036412" lon="11.237113720532777"><ele>1043.0</ele><time>2026-04-26T15:12:06.998Z</time></trkpt><trkpt lat="45.93654480086747" lon="11.237287474669001"><ele>1044.25</ele><time>2026-04-26T15:12:07.998Z</time></trkpt><trkpt lat="45.93648393973933" lon="11.23746517114857"><ele>1045.5</ele><time>2026-04-26T15:12:08.998Z</time></trkpt><trkpt lat="45.93642205976206" lon="11.23764451578645"><ele>1046.75</ele><time>2026-04-26T15:12:09.998Z</time></trkpt><trkpt lat="45.936360230215065" lon="11.237820598526655"><ele>1048.0</ele><time>2026-04-26T15:12:10.998Z</time></trkpt><trkpt lat="45.93627868244246" lon="11.238001092589382"><ele>1055.6666666666665</ele><time>2026-04-26T15:12:11.998Z</time></trkpt><trkpt lat="45.936181102661706" lon="11.238174395041119"><ele>1063.3333333333333</ele><time>2026-04-26T15:12:12.998Z</time></trkpt><trkpt lat="45.93605729316673" lon="11.23832582974537"><ele>1071.0</ele><time>2026-04-26T15:12:13.998Z</time></trkpt><trkpt lat="45.93592649257069" lon="11.238504634690631"><ele>1063.0</ele><time>2026-04-26T15:12:14.998Z</time></trkpt><trkpt lat="45.93579487661012" lon="11.238685172504104"><ele>1055.0</ele><time>2026-04-26T15:12:15.998Z</time></trkpt><trkpt lat="45.93566904013448" lon="11.238857986902758"><ele>1047.0</ele><time>2026-04-26T15:12:16.998Z</time></trkpt><trkpt lat="45.9354993601858" lon="11.239087372314499"><ele>1047.0</ele><time>2026-04-26T15:12:18Z</time></trkpt><trkpt lat="45.935361305471346" lon="11.239304834079563"><ele>1047.0</ele><time>2026-04-26T15:12:19Z</time></trkpt><trkpt lat="45.93521987992688" lon="11.239503646825897"><ele>1047.0</ele><time>2026-04-26T15:12:20Z</time></trkpt><trkpt lat="45.93507207616762" lon="11.239696755109028"><ele>1043.0</ele><time>2026-04-26T15:12:21Z</time></trkpt><trkpt lat="45.93493527994196" lon="11.239885589844182"><ele>1039.0</ele><time>2026-04-26T15:12:22Z</time></trkpt><trkpt lat="45.93481009007939" lon="11.240075268697021"><ele>1035.0</ele><time>2026-04-26T15:12:23Z</time></trkpt><trkpt lat="45.93470348744017" lon="11.240275500399918"><ele>1035.0</ele><time>2026-04-26T15:12:24Z</time></trkpt><trkpt lat="45.93459971547419" lon="11.24046155998403"><ele>1035.0</ele><time>2026-04-26T15:12:25Z</time></trkpt><trkpt lat="45.93450524692375" lon="11.240638513600329"><ele>1035.0</ele><time>2026-04-26T15:12:26Z</time></trkpt><trkpt lat="45.9344325815055" lon="11.240826833371992"><ele>1033.75</ele><time>2026-04-26T15:12:27Z</time></trkpt><trkpt lat="45.93438821523601" lon="11.241029839743268"><ele>1032.5</ele><time>2026-04-26T15:12:28Z</time></trkpt><trkpt lat="45.934352954878605" lon="11.24122421125929"><ele>1031.25</ele><time>2026-04-26T15:12:29Z</time></trkpt><trkpt lat="45.93426702323512" lon="11.241367803614747"><ele>1030.0</ele><time>2026-04-26T15:12:30Z</time></trkpt><trkpt lat="45.93416226181355" lon="11.241495601025624"><ele>1030.0</ele><time>2026-04-26T15:12:31Z</time></trkpt><trkpt lat="45.93403104549494" lon="11.241577413737055"><ele>1030.0</ele><time>2026-04-26T15:12:32Z</time></trkpt><trkpt lat="45.933898174665906" lon="11.241679081400683"><ele>1030.0</ele><time>2026-04-26T15:12:33Z</time></trkpt><trkpt lat="45.933760824398945" lon="11.241789323541548"><ele>1030.0</ele><time>2026-04-26T15:12:34Z</time></trkpt><trkpt lat="45.93364161143042" lon="11.241929351060202"><ele>1030.0</ele><time>2026-04-26T15:12:35Z</time></trkpt><trkpt lat="45.93352682493556" lon="11.242072614427807"><ele>1030.0</ele><time>2026-04-26T15:12:36Z</time></trkpt><trkpt lat="45.93342409130325" lon="11.242251740166799"><ele>1029.3333333333333</ele><time>2026-04-26T15:12:37Z</time></trkpt><trkpt lat="45.93332213752136" lon="11.242434678604035"><ele>1028.6666666666667</ele><time>2026-04-26T15:12:38Z</time></trkpt><trkpt lat="45.933214945056655" lon="11.242600901657168"><ele>1028.0</ele><time>2026-04-26T15:12:39Z</time></trkpt><trkpt lat="45.93310450125433" lon="11.242766616160898"><ele>1028.0</ele><time>2026-04-26T15:12:40Z</time></trkpt><trkpt lat="45.93296424400402" lon="11.242896246602744"><ele>1028.0</ele><time>2026-04-26T15:12:41Z</time></trkpt><trkpt lat="45.93282383158647" lon="11.243030876543349"><ele>1028.0</ele><time>2026-04-26T15:12:42Z</time></trkpt><trkpt lat="45.932679021518034" lon="11.243164400544018"><ele>1023.6666666666667</ele><time>2026-04-26T15:12:43Z</time></trkpt><trkpt lat="45.93254184163739" lon="11.243315711364518"><ele>1019.3333333333333</ele><time>2026-04-26T15:12:44Z</time></trkpt><trkpt lat="45.932406855238646" lon="11.243448695253756"><ele>1015.0</ele><time>2026-04-26T15:12:45Z</time></trkpt><trkpt lat="45.93228711090234" lon="11.24359454516922"><ele>1015.0</ele><time>2026-04-26T15:12:46Z</time></trkpt><trkpt lat="45.932169067048" lon="11.243751303624817"><ele>1015.0</ele><time>2026-04-26T15:12:47Z</time></trkpt><trkpt lat="45.932040706776604" lon="11.243898149698612"><ele>1015.0</ele><time>2026-04-26T15:12:48Z</time></trkpt><trkpt lat="45.93192187194064" lon="11.244045770685945"><ele>1010.25</ele><time>2026-04-26T15:12:49Z</time></trkpt><trkpt lat="45.93181003849497" lon="11.244182202187858"><ele>1005.5</ele><time>2026-04-26T15:12:50Z</time></trkpt><trkpt lat="45.93170401198937" lon="11.244305408941774"><ele>1000.75</ele><time>2026-04-26T15:12:51Z</time></trkpt><trkpt lat="45.93161129662774" lon="11.244426036959373"><ele>996.0</ele><time>2026-04-26T15:12:52Z</time></trkpt><trkpt lat="45.93154182923406" lon="11.244549953528537"><ele>996.0</ele><time>2026-04-26T15:12:53Z</time></trkpt><trkpt lat="45.93148462423208" lon="11.244679856565497"><ele>996.0</ele><time>2026-04-26T15:12:54Z</time></trkpt><trkpt lat="45.931446116767205" lon="11.244802831271063"><ele>996.0</ele><time>2026-04-26T15:12:55Z</time></trkpt><trkpt lat="45.93142780411441" lon="11.244894811253554"><ele>996.0</ele><time>2026-04-26T15:12:56Z</time></trkpt><trkpt lat="45.93138891543222" lon="11.244968909021427"><ele>996.0</ele><time>2026-04-26T15:12:57Z</time></trkpt><trkpt lat="45.9313315460131" lon="11.245006490670193"><ele>996.0</ele><time>2026-04-26T15:12:58Z</time></trkpt><trkpt lat="45.93127208565389" lon="11.244971934264255"><ele>996.0</ele><time>2026-04-26T15:12:59Z</time></trkpt><trkpt lat="45.931239668730875" lon="11.244873358958225"><ele>995.9999999999999</ele><time>2026-04-26T15:12:59.999Z</time></trkpt><trkpt lat="45.93124759710507" lon="11.244762801137115"><ele>995.9999999999999</ele><time>2026-04-26T15:13:00.999Z</time></trkpt><trkpt lat="45.93130508366076" lon="11.244649877907264"><ele>996.0</ele><time>2026-04-26T15:13:01.999Z</time></trkpt><trkpt lat="45.93139355118363" lon="11.244555159245357"><ele>996.0</ele><time>2026-04-26T15:13:02.999Z</time></trkpt><trkpt lat="45.9314921878189" lon="11.244442654975545"><ele>996.0</ele><time>2026-04-26T15:13:03.999Z</time></trkpt><trkpt lat="45.93158724850165" lon="11.244305989120381"><ele>996.0</ele><time>2026-04-26T15:13:04.999Z</time></trkpt><trkpt lat="45.93167985947415" lon="11.244174161490745"><ele>996.0</ele><time>2026-04-26T15:13:05.999Z</time></trkpt><trkpt lat="45.93176467328485" lon="11.244035511400813"><ele>996.0</ele><time>2026-04-26T15:13:06.999Z</time></trkpt><trkpt lat="45.93181202349705" lon="11.243857998092421"><ele>998.25</ele><time>2026-04-26T15:13:07.999Z</time></trkpt><trkpt lat="45.93182682565402" lon="11.243653137697573"><ele>1000.5</ele><time>2026-04-26T15:13:08.999Z</time></trkpt><trkpt lat="45.93180567691836" lon="11.243449503163388"><ele>1002.75</ele><time>2026-04-26T15:13:09.999Z</time></trkpt><trkpt lat="45.93176104774067" lon="11.243248168032851"><ele>1005.0</ele><time>2026-04-26T15:13:10.999Z</time></trkpt><trkpt lat="45.93174416498499" lon="11.243046969375571"><ele>1005.0</ele><time>2026-04-26T15:13:11.999Z</time></trkpt><trkpt lat="45.93177501626209" lon="11.242830837412717"><ele>1005.0</ele><time>2026-04-26T15:13:12.999Z</time></trkpt><trkpt lat="45.93182050798155" lon="11.242629279040244"><ele>1005.0</ele><time>2026-04-26T15:13:13.999Z</time></trkpt><trkpt lat="45.93188092727605" lon="11.242448265346619"><ele>1005.0</ele><time>2026-04-26T15:13:14.999Z</time></trkpt><trkpt lat="45.93196215674773" lon="11.24229493415092"><ele>999.75</ele><time>2026-04-26T15:13:15.999Z</time></trkpt><trkpt lat="45.9320620715484" lon="11.242147881450649"><ele>994.5</ele><time>2026-04-26T15:13:16.999Z</time></trkpt><trkpt lat="45.93217631269812" lon="11.242028969254717"><ele>989.25</ele><time>2026-04-26T15:13:17.999Z</time></trkpt><trkpt lat="45.93230013697699" lon="11.241933228738654"><ele>984.0</ele><time>2026-04-26T15:13:18.999Z</time></trkpt><trkpt lat="45.93243893350612" lon="11.24187283160459"><ele>990.0</ele><time>2026-04-26T15:13:19.999Z</time></trkpt><trkpt lat="45.93258071903109" lon="11.241819004746718"><ele>996.0</ele><time>2026-04-26T15:13:20.999Z</time></trkpt><trkpt lat="45.93272486243624" lon="11.241737646753638"><ele>1002.0</ele><time>2026-04-26T15:13:21.999Z</time></trkpt><trkpt lat="45.93286638995368" lon="11.241638163101829"><ele>1002.0</ele><time>2026-04-26T15:13:22.999Z</time></trkpt><trkpt lat="45.93299579753173" lon="11.24149473709608"><ele>1002.0</ele><time>2026-04-26T15:13:23.999Z</time></trkpt><trkpt lat="45.933104537899744" lon="11.241303729120434"><ele>1002.0</ele><time>2026-04-26T15:13:24.999Z</time></trkpt><trkpt lat="45.93319993352106" lon="11.241095773744458"><ele>998.3333333333333</ele><time>2026-04-26T15:13:25.999Z</time></trkpt><trkpt lat="45.93328596262236" lon="11.240851126157642"><ele>994.6666666666666</ele><time>2026-04-26T15:13:26.999Z</time></trkpt><trkpt lat="45.933366421929016" lon="11.240596445330373"><ele>991.0</ele><time>2026-04-26T15:13:27.999Z</time></trkpt><trkpt lat="45.93347093016403" lon="11.240362233030023"><ele>991.0</ele><time>2026-04-26T15:13:28.999Z</time></trkpt><trkpt lat="45.933545207060675" lon="11.240103031065315"><ele>991.0</ele><time>2026-04-26T15:13:29.999Z</time></trkpt><trkpt lat="45.933632698390376" lon="11.239866703178013"><ele>991.0</ele><time>2026-04-26T15:13:30.999Z</time></trkpt><trkpt lat="45.933717556309425" lon="11.239638892977123"><ele>984.0</ele><time>2026-04-26T15:13:31.999Z</time></trkpt><trkpt lat="45.933800515074104" lon="11.239415186797165"><ele>977.0</ele><time>2026-04-26T15:13:32.999Z</time></trkpt><trkpt lat="45.933879964585735" lon="11.239205993708499"><ele>970.0</ele><time>2026-04-26T15:13:33.999Z</time></trkpt><trkpt lat="45.933957411573644" lon="11.239000903128636"><ele>966.5</ele><time>2026-04-26T15:13:34.999Z</time></trkpt><trkpt lat="45.93402757406215" lon="11.238808893938991"><ele>963.0</ele><time>2026-04-26T15:13:35.999Z</time></trkpt><trkpt lat="45.93412559255605" lon="11.238652780184445"><ele>959.5</ele><time>2026-04-26T15:13:36.999Z</time></trkpt><trkpt lat="45.93422569206137" lon="11.238516453814245"><ele>956.0</ele><time>2026-04-26T15:13:37.999Z</time></trkpt><trkpt lat="45.934343879195325" lon="11.238381793087168"><ele>960.0</ele><time>2026-04-26T15:13:38.999Z</time></trkpt><trkpt lat="45.934455615683675" lon="11.238221824722359"><ele>964.0</ele><time>2026-04-26T15:13:39.998Z</time></trkpt><trkpt lat="45.934571793018065" lon="11.238074239965428"><ele>968.0</ele><time>2026-04-26T15:13:40.998Z</time></trkpt><trkpt lat="45.934667215270686" lon="11.237891541432527"><ele>968.0</ele><time>2026-04-26T15:13:41.998Z</time></trkpt><trkpt lat="45.93473261699215" lon="11.237687208854847"><ele>968.0</ele><time>2026-04-26T15:13:42.998Z</time></trkpt><trkpt lat="45.93479328834607" lon="11.237491412205143"><ele>968.0</ele><time>2026-04-26T15:13:43.998Z</time></trkpt><trkpt lat="45.93485720153002" lon="11.237291079057409"><ele>963.6666666666667</ele><time>2026-04-26T15:13:44.998Z</time></trkpt><trkpt lat="45.93492437819658" lon="11.237091989475301"><ele>959.3333333333333</ele><time>2026-04-26T15:13:45.998Z</time></trkpt><trkpt lat="45.93497581173458" lon="11.236874712810904"><ele>955.0</ele><time>2026-04-26T15:13:46.998Z</time></trkpt><trkpt lat="45.93499890165819" lon="11.236646900092426"><ele>954.0</ele><time>2026-04-26T15:13:47.998Z</time></trkpt><trkpt lat="45.93499567860351" lon="11.236412073292298"><ele>953.0</ele><time>2026-04-26T15:13:48.998Z</time></trkpt><trkpt lat="45.934981032169965" lon="11.236182823041924"><ele>952.0</ele><time>2026-04-26T15:13:49.998Z</time></trkpt><trkpt lat="45.93495932988816" lon="11.235956497629337"><ele>952.0</ele><time>2026-04-26T15:13:50.998Z</time></trkpt><trkpt lat="45.9349325877339" lon="11.235733200917865"><ele>952.0</ele><time>2026-04-26T15:13:51.998Z</time></trkpt><trkpt lat="45.9349158758164" lon="11.235529082379571"><ele>952.0</ele><time>2026-04-26T15:13:52.998Z</time></trkpt><trkpt lat="45.93489894113336" lon="11.235322100534958"><ele>952.0</ele><time>2026-04-26T15:13:53.998Z</time></trkpt><trkpt lat="45.934882868492096" lon="11.235120311117223"><ele>952.25</ele><time>2026-04-26T15:13:54.998Z</time></trkpt><trkpt lat="45.934862370439745" lon="11.234921967849939"><ele>952.5</ele><time>2026-04-26T15:13:55.998Z</time></trkpt><trkpt lat="45.93482217012835" lon="11.234729667208752"><ele>952.75</ele><time>2026-04-26T15:13:56.998Z</time></trkpt><trkpt lat="45.93477175222187" lon="11.234547289284498"><ele>953.0</ele><time>2026-04-26T15:13:57.998Z</time></trkpt><trkpt lat="45.934702888700436" lon="11.234379285800427"><ele>955.5</ele><time>2026-04-26T15:13:58.998Z</time></trkpt><trkpt lat="45.934623198717965" lon="11.234214694194497"><ele>958.0</ele><time>2026-04-26T15:13:59.998Z</time></trkpt><trkpt lat="45.93453242925915" lon="11.234056957559124"><ele>960.5</ele><time>2026-04-26T15:14:00.998Z</time></trkpt><trkpt lat="45.93442286968454" lon="11.233917173917414"><ele>963.0</ele><time>2026-04-26T15:14:01.998Z</time></trkpt><trkpt lat="45.93429886786678" lon="11.233787545014533"><ele>960.75</ele><time>2026-04-26T15:14:02.998Z</time></trkpt><trkpt lat="45.934171487344" lon="11.233675670800165"><ele>958.5</ele><time>2026-04-26T15:14:03.998Z</time></trkpt><trkpt lat="45.934036746889824" lon="11.233580584809935"><ele>956.25</ele><time>2026-04-26T15:14:04.998Z</time></trkpt><trkpt lat="45.93390922512933" lon="11.233509333875723"><ele>954.0</ele><time>2026-04-26T15:14:05.998Z</time></trkpt><trkpt lat="45.93380012148343" lon="11.23344476458145"><ele>954.0</ele><time>2026-04-26T15:14:06.998Z</time></trkpt><trkpt lat="45.93370825054333" lon="11.233391874081322"><ele>954.0</ele><time>2026-04-26T15:14:07.998Z</time></trkpt><trkpt lat="45.93363195316206" lon="11.233343164019976"><ele>954.0</ele><time>2026-04-26T15:14:08.998Z</time></trkpt><trkpt lat="45.93356780915966" lon="11.233304148470559"><ele>954.0</ele><time>2026-04-26T15:14:09.998Z</time></trkpt><trkpt lat="45.93350560785928" lon="11.233269793107524"><ele>954.0</ele><time>2026-04-26T15:14:10.998Z</time></trkpt><trkpt lat="45.9334451776678" lon="11.233241091466809"><ele>954.0</ele><time>2026-04-26T15:14:11.998Z</time></trkpt><trkpt lat="45.933342317984724" lon="11.233224994126166"><ele>954.0</ele><time>2026-04-26T15:14:13.998Z</time></trkpt><trkpt lat="45.93328454707878" lon="11.233318294827846"><ele>954.0</ele><time>2026-04-26T15:14:15.998Z</time></trkpt><trkpt lat="45.93328894074447" lon="11.233476936623397"><ele>954.0</ele><time>2026-04-26T15:14:17.998Z</time></trkpt><trkpt lat="45.93333920822773" lon="11.233549091518222"><ele>954.0</ele><time>2026-04-26T15:14:18.998Z</time></trkpt><trkpt lat="45.93341592398083" lon="11.233573648346512"><ele>954.0</ele><time>2026-04-26T15:14:19.998Z</time></trkpt><trkpt lat="45.93349340845253" lon="11.233557734961853"><ele>954.0</ele><time>2026-04-26T15:14:20.997Z</time></trkpt><trkpt lat="45.93357556330822" lon="11.23353057199653"><ele>954.0</ele><time>2026-04-26T15:14:21.997Z</time></trkpt><trkpt lat="45.93367512122186" lon="11.233534106755439"><ele>954.0000000000001</ele><time>2026-04-26T15:14:22.997Z</time></trkpt><trkpt lat="45.9337716478793" lon="11.233576712273653"><ele>954.0000000000001</ele><time>2026-04-26T15:14:24Z</time></trkpt><trkpt lat="45.93386868112961" lon="11.233650810163722"><ele>954.0</ele><time>2026-04-26T15:14:25Z</time></trkpt><trkpt lat="45.93394043850484" lon="11.23371852763303"><ele>954.0</ele><time>2026-04-26T15:14:26Z</time></trkpt><trkpt lat="45.93401342272112" lon="11.233778554858464"><ele>954.0</ele><time>2026-04-26T15:14:27Z</time></trkpt><trkpt lat="45.93408065157231" lon="11.233846501908479"><ele>954.0</ele><time>2026-04-26T15:14:28Z</time></trkpt><trkpt lat="45.93413870234799" lon="11.233928374974921"><ele>954.0</ele><time>2026-04-26T15:14:29Z</time></trkpt><trkpt lat="45.93418711456717" lon="11.234018799446833"><ele>954.0</ele><time>2026-04-26T15:14:30Z</time></trkpt><trkpt lat="45.93421773626611" lon="11.234132442798886"><ele>954.0</ele><time>2026-04-26T15:14:31Z</time></trkpt><trkpt lat="45.93424026965391" lon="11.234254316676271"><ele>954.0</ele><time>2026-04-26T15:14:32Z</time></trkpt><trkpt lat="45.93426379954862" lon="11.234390624375365"><ele>953.8000000000001</ele><time>2026-04-26T15:14:33Z</time></trkpt><trkpt lat="45.93429794350062" lon="11.234538038979938"><ele>953.6000000000001</ele><time>2026-04-26T15:14:34Z</time></trkpt><trkpt lat="45.934329810630594" lon="11.23468675011113"><ele>953.4</ele><time>2026-04-26T15:14:35Z</time></trkpt><trkpt lat="45.93436339060717" lon="11.234823950479466"><ele>953.2</ele><time>2026-04-26T15:14:36Z</time></trkpt><trkpt lat="45.93439108441208" lon="11.234953459468256"><ele>953.0</ele><time>2026-04-26T15:14:37Z</time></trkpt><trkpt lat="45.93441108771407" lon="11.235079684864909"><ele>953.0</ele><time>2026-04-26T15:14:38Z</time></trkpt><trkpt lat="45.9344219741457" lon="11.235210744139879"><ele>953.0</ele><time>2026-04-26T15:14:39Z</time></trkpt><trkpt lat="45.934383047163195" lon="11.235331121659456"><ele>953.0</ele><time>2026-04-26T15:14:40Z</time></trkpt><trkpt lat="45.93434645766811" lon="11.235454393014864"><ele>953.0</ele><time>2026-04-26T15:14:41Z</time></trkpt><trkpt lat="45.934321193154396" lon="11.23560144179467"><ele>953.0</ele><time>2026-04-26T15:14:42Z</time></trkpt><trkpt lat="45.934282698757386" lon="11.235743354686152"><ele>952.8</ele><time>2026-04-26T15:14:43Z</time></trkpt><trkpt lat="45.93423862243894" lon="11.235892700978985"><ele>952.5999999999999</ele><time>2026-04-26T15:14:44Z</time></trkpt><trkpt lat="45.934180753917424" lon="11.236011671048644"><ele>952.4000000000001</ele><time>2026-04-26T15:14:45Z</time></trkpt><trkpt lat="45.93413346809387" lon="11.2361427971401"><ele>952.2</ele><time>2026-04-26T15:14:46Z</time></trkpt><trkpt lat="45.934049048745116" lon="11.236230471293457"><ele>952.0</ele><time>2026-04-26T15:14:47Z</time></trkpt><trkpt lat="45.93397300034054" lon="11.236312271700902"><ele>944.4000000000001</ele><time>2026-04-26T15:14:48Z</time></trkpt><trkpt lat="45.93390029424984" lon="11.236419198960935"><ele>936.8000000000001</ele><time>2026-04-26T15:14:49Z</time></trkpt><trkpt lat="45.933823936047155" lon="11.236506752291996"><ele>929.2</ele><time>2026-04-26T15:14:50Z</time></trkpt><trkpt lat="45.93375282882486" lon="11.236617524691315"><ele>921.6</ele><time>2026-04-26T15:14:51Z</time></trkpt><trkpt lat="45.933686695575396" lon="11.236742731718984"><ele>914.0</ele><time>2026-04-26T15:14:52Z</time></trkpt><trkpt lat="45.93362930137664" lon="11.23687902195743"><ele>914.0000000000001</ele><time>2026-04-26T15:14:53Z</time></trkpt><trkpt lat="45.93358787243255" lon="11.23702231577553"><ele>914.0</ele><time>2026-04-26T15:14:54Z</time></trkpt><trkpt lat="45.9335592447505" lon="11.23716660524752"><ele>914.0</ele><time>2026-04-26T15:14:55Z</time></trkpt><trkpt lat="45.93354208285806" lon="11.237288014214062"><ele>914.0</ele><time>2026-04-26T15:14:56Z</time></trkpt><trkpt lat="45.933511753556054" lon="11.23739102010588"><ele>914.0000000000001</ele><time>2026-04-26T15:14:57Z</time></trkpt><trkpt lat="45.93349581509447" lon="11.237489497106875"><ele>914.0</ele><time>2026-04-26T15:14:58Z</time></trkpt><trkpt lat="45.9334794148685" lon="11.237577440584634"><ele>914.0000000000001</ele><time>2026-04-26T15:14:58.999Z</time></trkpt><trkpt lat="45.93344030419167" lon="11.237689345534406"><ele>914.0</ele><time>2026-04-26T15:15:00.999Z</time></trkpt><trkpt lat="45.93334484915799" lon="11.237690897900405"><ele>914.0</ele><time>2026-04-26T15:15:02.999Z</time></trkpt><trkpt lat="45.93330992621783" lon="11.237611322460296"><ele>914.0</ele><time>2026-04-26T15:15:03.999Z</time></trkpt><trkpt lat="45.93331542405456" lon="11.237507671826174"><ele>914.0000000000001</ele><time>2026-04-26T15:15:04.999Z</time></trkpt><trkpt lat="45.93336508491041" lon="11.237386050006542"><ele>914.0</ele><time>2026-04-26T15:15:05.999Z</time></trkpt><trkpt lat="45.93341458743144" lon="11.237235721191043"><ele>914.0</ele><time>2026-04-26T15:15:06.999Z</time></trkpt><trkpt lat="45.93347769739179" lon="11.237078314853754"><ele>914.0</ele><time>2026-04-26T15:15:07.999Z</time></trkpt><trkpt lat="45.933529516415526" lon="11.236842978200018"><ele>914.0</ele><time>2026-04-26T15:15:08.999Z</time></trkpt><trkpt lat="45.9335753774376" lon="11.236592638780577"><ele>910.3333333333334</ele><time>2026-04-26T15:15:09.999Z</time></trkpt><trkpt lat="45.93362452364875" lon="11.236322113129008"><ele>906.6666666666667</ele><time>2026-04-26T15:15:10.999Z</time></trkpt><trkpt lat="45.933660312382834" lon="11.23607822045996"><ele>903.0</ele><time>2026-04-26T15:15:11.999Z</time></trkpt><trkpt lat="45.93371157080287" lon="11.235864788115197"><ele>903.0</ele><time>2026-04-26T15:15:12.999Z</time></trkpt><trkpt lat="45.93374978930232" lon="11.235671415119349"><ele>903.0</ele><time>2026-04-26T15:15:13.999Z</time></trkpt><trkpt lat="45.933761049771526" lon="11.235480940441787"><ele>903.0</ele><time>2026-04-26T15:15:14.999Z</time></trkpt><trkpt lat="45.93374084426917" lon="11.235285908774944"><ele>903.0</ele><time>2026-04-26T15:15:15.999Z</time></trkpt><trkpt lat="45.93369719590181" lon="11.235108198968774"><ele>903.25</ele><time>2026-04-26T15:15:16.999Z</time></trkpt><trkpt lat="45.93364872629305" lon="11.23494245711454"><ele>903.5</ele><time>2026-04-26T15:15:17.999Z</time></trkpt><trkpt lat="45.93360490993562" lon="11.234790067789252"><ele>903.75</ele><time>2026-04-26T15:15:18.999Z</time></trkpt><trkpt lat="45.93357855022514" lon="11.234613212900827"><ele>904.0</ele><time>2026-04-26T15:15:19.999Z</time></trkpt><trkpt lat="45.93352789694635" lon="11.23448693408097"><ele>902.8000000000001</ele><time>2026-04-26T15:15:20.999Z</time></trkpt><trkpt lat="45.93345043670578" lon="11.234416625537747"><ele>901.6000000000001</ele><time>2026-04-26T15:15:21.999Z</time></trkpt><trkpt lat="45.933363616325074" lon="11.234434643276131"><ele>900.4</ele><time>2026-04-26T15:15:22.999Z</time></trkpt><trkpt lat="45.93329452863567" lon="11.234517364242139"><ele>899.2</ele><time>2026-04-26T15:15:23.999Z</time></trkpt><trkpt lat="45.93325848498195" lon="11.234640084630623"><ele>898.0</ele><time>2026-04-26T15:15:24.999Z</time></trkpt><trkpt lat="45.93325344553883" lon="11.234777037247818"><ele>892.4</ele><time>2026-04-26T15:15:25.999Z</time></trkpt><trkpt lat="45.93327926365925" lon="11.234918953740333"><ele>886.8</ele><time>2026-04-26T15:15:26.999Z</time></trkpt><trkpt lat="45.93330333690401" lon="11.235056714117299"><ele>881.2</ele><time>2026-04-26T15:15:27.999Z</time></trkpt><trkpt lat="45.93331564773656" lon="11.235191127423981"><ele>875.6</ele><time>2026-04-26T15:15:28.999Z</time></trkpt><trkpt lat="45.93329472594752" lon="11.235317808363426"><ele>870.0</ele><time>2026-04-26T15:15:29.999Z</time></trkpt><trkpt lat="45.933264313059794" lon="11.235429615076075"><ele>870.0</ele><time>2026-04-26T15:15:30.999Z</time></trkpt><trkpt lat="45.93322045934735" lon="11.235529782049158"><ele>870.0</ele><time>2026-04-26T15:15:31.999Z</time></trkpt><trkpt lat="45.93315921658252" lon="11.235625644657942"><ele>870.0</ele><time>2026-04-26T15:15:32.999Z</time></trkpt><trkpt lat="45.93309809562891" lon="11.235735886790248"><ele>870.0</ele><time>2026-04-26T15:15:33.999Z</time></trkpt><trkpt lat="45.9330556836855" lon="11.235832029105696"><ele>870.0</ele><time>2026-04-26T15:15:34.999Z</time></trkpt><trkpt lat="45.933035188945844" lon="11.235948510342016"><ele>870.0</ele><time>2026-04-26T15:15:35.999Z</time></trkpt><trkpt lat="45.933009005479775" lon="11.236065990258547"><ele>870.0</ele><time>2026-04-26T15:15:36.999Z</time></trkpt><trkpt lat="45.932986209004916" lon="11.236197251533918"><ele>870.0</ele><time>2026-04-26T15:15:37.999Z</time></trkpt><trkpt lat="45.93297503238562" lon="11.236342282958777"><ele>870.0</ele><time>2026-04-26T15:15:38.998Z</time></trkpt><trkpt lat="45.93294286772193" lon="11.236483394119137"><ele>870.0</ele><time>2026-04-26T15:15:39.998Z</time></trkpt><trkpt lat="45.93292795290385" lon="11.236604266202349"><ele>870.0</ele><time>2026-04-26T15:15:40.998Z</time></trkpt><trkpt lat="45.93291364299052" lon="11.236720236099758"><ele>871.8333333333334</ele><time>2026-04-26T15:15:41.998Z</time></trkpt><trkpt lat="45.932907566141154" lon="11.236840030640604"><ele>873.6666666666667</ele><time>2026-04-26T15:15:42.998Z</time></trkpt><trkpt lat="45.93286967379395" lon="11.236957013816644"><ele>875.5</ele><time>2026-04-26T15:15:43.998Z</time></trkpt><trkpt lat="45.932837246396204" lon="11.237070674342625"><ele>877.3333333333334</ele><time>2026-04-26T15:15:44.998Z</time></trkpt><trkpt lat="45.932797300800495" lon="11.237183268281548"><ele>879.1666666666667</ele><time>2026-04-26T15:15:45.998Z</time></trkpt><trkpt lat="45.932758083448405" lon="11.23730143406933"><ele>881.0</ele><time>2026-04-26T15:15:46.998Z</time></trkpt><trkpt lat="45.93268951057023" lon="11.237391447985948"><ele>884.0000000000001</ele><time>2026-04-26T15:15:47.998Z</time></trkpt><trkpt lat="45.93263095015394" lon="11.237488304445575"><ele>887.0</ele><time>2026-04-26T15:15:48.998Z</time></trkpt><trkpt lat="45.93257917227224" lon="11.23759291707408"><ele>890.0</ele><time>2026-04-26T15:15:49.998Z</time></trkpt><trkpt lat="45.93253031269949" lon="11.237671333027855"><ele>893.0</ele><time>2026-04-26T15:15:50.998Z</time></trkpt><trkpt lat="45.93248016391515" lon="11.237749759765313"><ele>896.0000000000001</ele><time>2026-04-26T15:15:51.998Z</time></trkpt><trkpt lat="45.93239051241938" lon="11.237865736935996"><ele>899.0</ele><time>2026-04-26T15:15:53.998Z</time></trkpt><trkpt lat="45.932327621048124" lon="11.23785166967485"><ele>892.0000000000001</ele><time>2026-04-26T15:15:54.998Z</time></trkpt><trkpt lat="45.93227884652158" lon="11.237792000514771"><ele>885.0</ele><time>2026-04-26T15:15:55.998Z</time></trkpt><trkpt lat="45.93227308515485" lon="11.237694468513418"><ele>878.0</ele><time>2026-04-26T15:15:56.998Z</time></trkpt><trkpt lat="45.9323062113485" lon="11.237574834685372"><ele>871.0</ele><time>2026-04-26T15:15:57.998Z</time></trkpt><trkpt lat="45.93235165071727" lon="11.237467407451083"><ele>864.0000000000001</ele><time>2026-04-26T15:15:58.998Z</time></trkpt><trkpt lat="45.932397118107964" lon="11.237367318118826"><ele>857.0</ele><time>2026-04-26T15:15:59.998Z</time></trkpt><trkpt lat="45.93243798298741" lon="11.237263542020221"><ele>856.0000000000001</ele><time>2026-04-26T15:16:00.998Z</time></trkpt><trkpt lat="45.93246832314048" lon="11.237158299830158"><ele>855.0</ele><time>2026-04-26T15:16:01.998Z</time></trkpt><trkpt lat="45.932494804262966" lon="11.237043908084587"><ele>854.0</ele><time>2026-04-26T15:16:02.998Z</time></trkpt><trkpt lat="45.932520668867895" lon="11.236929397513382"><ele>853.0</ele><time>2026-04-26T15:16:03.998Z</time></trkpt><trkpt lat="45.93255078919586" lon="11.236805009516244"><ele>852.0000000000001</ele><time>2026-04-26T15:16:04.998Z</time></trkpt><trkpt lat="45.932569527461695" lon="11.236688460344881"><ele>851.0</ele><time>2026-04-26T15:16:05.998Z</time></trkpt><trkpt lat="45.93258216694506" lon="11.236577247536667"><ele>851.4285714285714</ele><time>2026-04-26T15:16:06.998Z</time></trkpt><trkpt lat="45.93260132895722" lon="11.236469251159349"><ele>851.8571428571429</ele><time>2026-04-26T15:16:07.998Z</time></trkpt><trkpt lat="45.932618881285464" lon="11.236368261062811"><ele>852.2857142857142</ele><time>2026-04-26T15:16:08.998Z</time></trkpt><trkpt lat="45.93262230412244" lon="11.236270662538507"><ele>852.7142857142858</ele><time>2026-04-26T15:16:09.998Z</time></trkpt><trkpt lat="45.9325945322786" lon="11.23617790420669"><ele>853.1428571428571</ele><time>2026-04-26T15:16:10.998Z</time></trkpt><trkpt lat="45.9325403136487" lon="11.236103602570099"><ele>853.5714285714286</ele><time>2026-04-26T15:16:11.998Z</time></trkpt><trkpt lat="45.93247060679758" lon="11.236079202831606"><ele>854.0</ele><time>2026-04-26T15:16:12.998Z</time></trkpt><trkpt lat="45.93240145330976" lon="11.236101483400262"><ele>854.0</ele><time>2026-04-26T15:16:13.998Z</time></trkpt><trkpt lat="45.93232609000045" lon="11.236153876633553"><ele>854.0</ele><time>2026-04-26T15:16:14.998Z</time></trkpt><trkpt lat="45.93229953661814" lon="11.236299036467956"><ele>854.0</ele><time>2026-04-26T15:16:15.998Z</time></trkpt><trkpt lat="45.93225330572967" lon="11.23646072873036"><ele>854.0</ele><time>2026-04-26T15:16:16.998Z</time></trkpt><trkpt lat="45.932210725527455" lon="11.236666930088054"><ele>853.0</ele><time>2026-04-26T15:16:17.998Z</time></trkpt><trkpt lat="45.932163768697215" lon="11.236896543425845"><ele>852.0</ele><time>2026-04-26T15:16:18.998Z</time></trkpt><trkpt lat="45.932113542982634" lon="11.237128723496085"><ele>851.0</ele><time>2026-04-26T15:16:19.997Z</time></trkpt><trkpt lat="45.93206596275954" lon="11.237348400058194"><ele>852.5</ele><time>2026-04-26T15:16:20.997Z</time></trkpt><trkpt lat="45.9320108085097" lon="11.237532404074237"><ele>854.0</ele><time>2026-04-26T15:16:21.997Z</time></trkpt><trkpt lat="45.93193551970061" lon="11.237671927203422"><ele>855.5</ele><time>2026-04-26T15:16:22.997Z</time></trkpt><trkpt lat="45.931829100516325" lon="11.237789065859232"><ele>857.0</ele><time>2026-04-26T15:16:23.997Z</time></trkpt><trkpt lat="45.93169625945472" lon="11.237920160338431"><ele>854.3333333333334</ele><time>2026-04-26T15:16:24.997Z</time></trkpt><trkpt lat="45.93155429356545" lon="11.238050859683488"><ele>851.6666666666667</ele><time>2026-04-26T15:16:25.997Z</time></trkpt><trkpt lat="45.93140283952832" lon="11.238187936102717"><ele>849.0</ele><time>2026-04-26T15:16:26.997Z</time></trkpt><trkpt lat="45.931256986717365" lon="11.238319914831775"><ele>849.0</ele><time>2026-04-26T15:16:27.997Z</time></trkpt><trkpt lat="45.931113904453" lon="11.238448945947024"><ele>849.0</ele><time>2026-04-26T15:16:28.997Z</time></trkpt><trkpt lat="45.930967582335875" lon="11.23858089893317"><ele>849.0</ele><time>2026-04-26T15:16:30Z</time></trkpt><trkpt lat="45.930833763657425" lon="11.238702966822975"><ele>850.5</ele><time>2026-04-26T15:16:31Z</time></trkpt><trkpt lat="45.930705257657465" lon="11.238825473585365"><ele>852.0</ele><time>2026-04-26T15:16:32Z</time></trkpt><trkpt lat="45.93058756773218" lon="11.238938461474643"><ele>853.5</ele><time>2026-04-26T15:16:33Z</time></trkpt><trkpt lat="45.93048011829277" lon="11.239058155486346"><ele>855.0</ele><time>2026-04-26T15:16:34Z</time></trkpt><trkpt lat="45.930350973696136" lon="11.239130027254207"><ele>855.0</ele><time>2026-04-26T15:16:35Z</time></trkpt><trkpt lat="45.93022049100144" lon="11.239130039607605"><ele>855.0</ele><time>2026-04-26T15:16:36Z</time></trkpt><trkpt lat="45.930074266201814" lon="11.23914079672303"><ele>855.0</ele><time>2026-04-26T15:16:37Z</time></trkpt><trkpt lat="45.92993007115209" lon="11.239157044524733"><ele>855.0</ele><time>2026-04-26T15:16:38Z</time></trkpt><trkpt lat="45.929789763968834" lon="11.239163379702191"><ele>848.0</ele><time>2026-04-26T15:16:39Z</time></trkpt><trkpt lat="45.9296403752119" lon="11.239166755902245"><ele>841.0</ele><time>2026-04-26T15:16:40Z</time></trkpt><trkpt lat="45.92950338080911" lon="11.239177402779557"><ele>834.0</ele><time>2026-04-26T15:16:41Z</time></trkpt><trkpt lat="45.92937617185499" lon="11.239214540552684"><ele>827.0</ele><time>2026-04-26T15:16:42Z</time></trkpt><trkpt lat="45.9292540883752" lon="11.239284880858062"><ele>824.3333333333334</ele><time>2026-04-26T15:16:43Z</time></trkpt><trkpt lat="45.9291412504584" lon="11.239399776231382"><ele>821.6666666666667</ele><time>2026-04-26T15:16:44Z</time></trkpt><trkpt lat="45.92904593600753" lon="11.239578439124212"><ele>819.0</ele><time>2026-04-26T15:16:45Z</time></trkpt><trkpt lat="45.92896670469963" lon="11.239785279667434"><ele>819.6666666666667</ele><time>2026-04-26T15:16:46Z</time></trkpt><trkpt lat="45.92886482235119" lon="11.239991389023105"><ele>820.3333333333334</ele><time>2026-04-26T15:16:47Z</time></trkpt><trkpt lat="45.928765165080435" lon="11.240200934854027"><ele>821.0</ele><time>2026-04-26T15:16:48Z</time></trkpt><trkpt lat="45.928651415493775" lon="11.2403623815024"><ele>821.0</ele><time>2026-04-26T15:16:49Z</time></trkpt><trkpt lat="45.92851565701981" lon="11.240506927712701"><ele>821.0</ele><time>2026-04-26T15:16:50Z</time></trkpt><trkpt lat="45.928367757282224" lon="11.240652545172136"><ele>821.0</ele><time>2026-04-26T15:16:51Z</time></trkpt><trkpt lat="45.92823437446671" lon="11.240813297783715"><ele>820.0</ele><time>2026-04-26T15:16:52Z</time></trkpt><trkpt lat="45.92810020638826" lon="11.240942848710215"><ele>819.0</ele><time>2026-04-26T15:16:53Z</time></trkpt><trkpt lat="45.92797623150461" lon="11.24105992259555"><ele>818.0</ele><time>2026-04-26T15:16:54Z</time></trkpt><trkpt lat="45.92786705072919" lon="11.241170238343642"><ele>817.0</ele><time>2026-04-26T15:16:55Z</time></trkpt><trkpt lat="45.92777491955559" lon="11.241290869996341"><ele>817.0</ele><time>2026-04-26T15:16:56Z</time></trkpt><trkpt lat="45.92769199774453" lon="11.241406647566617"><ele>817.0</ele><time>2026-04-26T15:16:57Z</time></trkpt><trkpt lat="45.92763110576474" lon="11.241527299272487"><ele>817.0</ele><time>2026-04-26T15:16:58Z</time></trkpt><trkpt lat="45.92757798062561" lon="11.241619920902846"><ele>817.0</ele><time>2026-04-26T15:16:59Z</time></trkpt><trkpt lat="45.92752103421362" lon="11.241669857744164"><ele>817.0</ele><time>2026-04-26T15:17:00Z</time></trkpt><trkpt lat="45.92741448543558" lon="11.24159347702371"><ele>817.0</ele><time>2026-04-26T15:17:01.999Z</time></trkpt><trkpt lat="45.927423357796044" lon="11.2414677715503"><ele>817.0</ele><time>2026-04-26T15:17:02.999Z</time></trkpt><trkpt lat="45.927482021547846" lon="11.24135362831086"><ele>817.0</ele><time>2026-04-26T15:17:03.999Z</time></trkpt><trkpt lat="45.92756592473798" lon="11.241244305157396"><ele>817.0</ele><time>2026-04-26T15:17:04.999Z</time></trkpt><trkpt lat="45.92765352063109" lon="11.241110990670665"><ele>817.0</ele><time>2026-04-26T15:17:05.999Z</time></trkpt><trkpt lat="45.92773747423893" lon="11.240955278059792"><ele>817.0</ele><time>2026-04-26T15:17:06.999Z</time></trkpt><trkpt lat="45.92782087288457" lon="11.24077705856328"><ele>817.0</ele><time>2026-04-26T15:17:07.999Z</time></trkpt><trkpt lat="45.92787786070109" lon="11.240583485837476"><ele>817.0</ele><time>2026-04-26T15:17:08.999Z</time></trkpt><trkpt lat="45.92791385121159" lon="11.24040204602754"><ele>817.0</ele><time>2026-04-26T15:17:09.999Z</time></trkpt><trkpt lat="45.927932410028816" lon="11.240237747584143"><ele>812.25</ele><time>2026-04-26T15:17:10.999Z</time></trkpt><trkpt lat="45.92791145660552" lon="11.240081244582734"><ele>807.5</ele><time>2026-04-26T15:17:11.999Z</time></trkpt><trkpt lat="45.92784944486461" lon="11.239948819647369"><ele>802.75</ele><time>2026-04-26T15:17:12.999Z</time></trkpt><trkpt lat="45.92775145641154" lon="11.239862338738615"><ele>798.0</ele><time>2026-04-26T15:17:13.999Z</time></trkpt><trkpt lat="45.92762743621705" lon="11.239863502128804"><ele>795.6666666666667</ele><time>2026-04-26T15:17:14.999Z</time></trkpt><trkpt lat="45.927488364770426" lon="11.239913046505258"><ele>793.3333333333334</ele><time>2026-04-26T15:17:15.999Z</time></trkpt><trkpt lat="45.92733994727713" lon="11.239965552025394"><ele>791.0</ele><time>2026-04-26T15:17:16.999Z</time></trkpt><trkpt lat="45.92717553488743" lon="11.240013379531316"><ele>791.0</ele><time>2026-04-26T15:17:17.999Z</time></trkpt><trkpt lat="45.92700924904805" lon="11.240011969563081"><ele>791.0</ele><time>2026-04-26T15:17:18.999Z</time></trkpt><trkpt lat="45.92683497961908" lon="11.240011726095682"><ele>791.0</ele><time>2026-04-26T15:17:19.999Z</time></trkpt><trkpt lat="45.92666493395263" lon="11.239984189657209"><ele>790.3333333333334</ele><time>2026-04-26T15:17:20.999Z</time></trkpt><trkpt lat="45.9265014609029" lon="11.239975389790624"><ele>789.6666666666667</ele><time>2026-04-26T15:17:21.999Z</time></trkpt><trkpt lat="45.92634535354005" lon="11.240020150618"><ele>789.0</ele><time>2026-04-26T15:17:22.999Z</time></trkpt><trkpt lat="45.926202825851156" lon="11.240127753161959"><ele>789.0</ele><time>2026-04-26T15:17:23.999Z</time></trkpt><trkpt lat="45.92607326650749" lon="11.240282206815646"><ele>789.0</ele><time>2026-04-26T15:17:24.999Z</time></trkpt><trkpt lat="45.925941749544634" lon="11.240474205920636"><ele>789.0</ele><time>2026-04-26T15:17:25.999Z</time></trkpt><trkpt lat="45.925818359704685" lon="11.240680448611373"><ele>786.0</ele><time>2026-04-26T15:17:26.999Z</time></trkpt><trkpt lat="45.92567838984048" lon="11.24091945628123"><ele>783.0</ele><time>2026-04-26T15:17:27.999Z</time></trkpt><trkpt lat="45.92553423140796" lon="11.241150381631234"><ele>780.0</ele><time>2026-04-26T15:17:28.999Z</time></trkpt><trkpt lat="45.92538745631651" lon="11.241368975243734"><ele>776.6666666666667</ele><time>2026-04-26T15:17:29.999Z</time></trkpt><trkpt lat="45.92524908224673" lon="11.241566095595145"><ele>773.3333333333334</ele><time>2026-04-26T15:17:30.999Z</time></trkpt><trkpt lat="45.92514288535203" lon="11.241760793167598"><ele>770.0</ele><time>2026-04-26T15:17:31.999Z</time></trkpt><trkpt lat="45.92506916554315" lon="11.241969589157032"><ele>768.75</ele><time>2026-04-26T15:17:32.999Z</time></trkpt><trkpt lat="45.92501667821163" lon="11.242187282168098"><ele>767.5</ele><time>2026-04-26T15:17:33.999Z</time></trkpt><trkpt lat="45.92492514737876" lon="11.242356448733329"><ele>766.25</ele><time>2026-04-26T15:17:34.999Z</time></trkpt><trkpt lat="45.92481389392296" lon="11.242477876415617"><ele>765.0</ele><time>2026-04-26T15:17:35.999Z</time></trkpt><trkpt lat="45.92468491547563" lon="11.242571697335231"><ele>765.0</ele><time>2026-04-26T15:17:36.999Z</time></trkpt><trkpt lat="45.92454728272228" lon="11.242682699469595"><ele>765.0</ele><time>2026-04-26T15:17:37.999Z</time></trkpt><trkpt lat="45.92439518537877" lon="11.242784473401969"><ele>765.0</ele><time>2026-04-26T15:17:38.999Z</time></trkpt><trkpt lat="45.92424936898531" lon="11.242911189890158"><ele>767.3333333333333</ele><time>2026-04-26T15:17:39.999Z</time></trkpt><trkpt lat="45.92411960687161" lon="11.243067062013724"><ele>769.6666666666666</ele><time>2026-04-26T15:17:40.999Z</time></trkpt><trkpt lat="45.924005995955" lon="11.243240352258617"><ele>772.0</ele><time>2026-04-26T15:17:41.999Z</time></trkpt><trkpt lat="45.923902341475355" lon="11.243437306413345"><ele>772.0</ele><time>2026-04-26T15:17:42.998Z</time></trkpt><trkpt lat="45.92382923618789" lon="11.24365900658196"><ele>772.0</ele><time>2026-04-26T15:17:43.998Z</time></trkpt><trkpt lat="45.92378233051568" lon="11.243903811103712"><ele>772.0</ele><time>2026-04-26T15:17:44.998Z</time></trkpt><trkpt lat="45.92372343781289" lon="11.244137749115751"><ele>771.3333333333333</ele><time>2026-04-26T15:17:45.998Z</time></trkpt><trkpt lat="45.923634859183295" lon="11.244385592432048"><ele>770.6666666666667</ele><time>2026-04-26T15:17:46.998Z</time></trkpt><trkpt lat="45.92354148742131" lon="11.24462739873504"><ele>770.0</ele><time>2026-04-26T15:17:47.998Z</time></trkpt><trkpt lat="45.92343853372153" lon="11.244871210041884"><ele>772.0</ele><time>2026-04-26T15:17:48.998Z</time></trkpt><trkpt lat="45.92333959619812" lon="11.245117563091693"><ele>774.0</ele><time>2026-04-26T15:17:49.998Z</time></trkpt><trkpt lat="45.92326053241866" lon="11.245355502190938"><ele>776.0</ele><time>2026-04-26T15:17:50.998Z</time></trkpt><trkpt lat="45.92323040493086" lon="11.245613025120065"><ele>772.3333333333334</ele><time>2026-04-26T15:17:51.998Z</time></trkpt><trkpt lat="45.92323175798525" lon="11.245872624981299"><ele>768.6666666666667</ele><time>2026-04-26T15:17:52.998Z</time></trkpt><trkpt lat="45.92318386635145" lon="11.246121412748746"><ele>765.0</ele><time>2026-04-26T15:17:53.998Z</time></trkpt><trkpt lat="45.92307230410303" lon="11.246355220703483"><ele>762.3333333333334</ele><time>2026-04-26T15:17:54.998Z</time></trkpt><trkpt lat="45.922990276757645" lon="11.246569503494467"><ele>759.6666666666667</ele><time>2026-04-26T15:17:55.998Z</time></trkpt><trkpt lat="45.922922679649865" lon="11.246832537254312"><ele>757.0</ele><time>2026-04-26T15:17:56.998Z</time></trkpt><trkpt lat="45.92287293898997" lon="11.247116131441683"><ele>756.6666666666667</ele><time>2026-04-26T15:17:57.998Z</time></trkpt><trkpt lat="45.922821628103534" lon="11.24741410380347"><ele>756.3333333333334</ele><time>2026-04-26T15:17:58.998Z</time></trkpt><trkpt lat="45.92276168772992" lon="11.24771753587289"><ele>756.0</ele><time>2026-04-26T15:17:59.998Z</time></trkpt><trkpt lat="45.92270539084375" lon="11.248025818605306"><ele>758.3333333333334</ele><time>2026-04-26T15:18:00.998Z</time></trkpt><trkpt lat="45.92261593484521" lon="11.248307514056993"><ele>760.6666666666667</ele><time>2026-04-26T15:18:01.998Z</time></trkpt><trkpt lat="45.92253154074571" lon="11.248591245582197"><ele>763.0</ele><time>2026-04-26T15:18:02.998Z</time></trkpt><trkpt lat="45.922448638846106" lon="11.248872449185088"><ele>759.0</ele><time>2026-04-26T15:18:03.998Z</time></trkpt><trkpt lat="45.92237057875669" lon="11.249151012532653"><ele>755.0</ele><time>2026-04-26T15:18:04.998Z</time></trkpt><trkpt lat="45.922295489546066" lon="11.249429266057879"><ele>751.0</ele><time>2026-04-26T15:18:05.998Z</time></trkpt><trkpt lat="45.92223744156575" lon="11.24972089910459"><ele>744.0</ele><time>2026-04-26T15:18:06.998Z</time></trkpt><trkpt lat="45.922187363168035" lon="11.250013804750349"><ele>737.0</ele><time>2026-04-26T15:18:07.998Z</time></trkpt><trkpt lat="45.9221642114831" lon="11.250314930102686"><ele>730.0</ele><time>2026-04-26T15:18:08.998Z</time></trkpt><trkpt lat="45.922146302686706" lon="11.250621134899067"><ele>726.0</ele><time>2026-04-26T15:18:09.998Z</time></trkpt><trkpt lat="45.922140013505064" lon="11.250933672745179"><ele>722.0</ele><time>2026-04-26T15:18:10.998Z</time></trkpt><trkpt lat="45.92213007048322" lon="11.251230269886339"><ele>718.0</ele><time>2026-04-26T15:18:11.998Z</time></trkpt><trkpt lat="45.92212645201893" lon="11.251516161814367"><ele>715.6666666666667</ele><time>2026-04-26T15:18:12.998Z</time></trkpt><trkpt lat="45.92211764251596" lon="11.251781354415026"><ele>713.3333333333334</ele><time>2026-04-26T15:18:13.998Z</time></trkpt><trkpt lat="45.922117470969816" lon="11.252034831720776"><ele>711.0</ele><time>2026-04-26T15:18:14.998Z</time></trkpt><trkpt lat="45.922104954847946" lon="11.252272059975068"><ele>708.3333333333334</ele><time>2026-04-26T15:18:15.998Z</time></trkpt><trkpt lat="45.92203777183086" lon="11.252483658462076"><ele>705.6666666666667</ele><time>2026-04-26T15:18:16.998Z</time></trkpt><trkpt lat="45.921965971931684" lon="11.25267427322732"><ele>703.0</ele><time>2026-04-26T15:18:17.998Z</time></trkpt><trkpt lat="45.92188255571808" lon="11.252831302880013"><ele>703.0</ele><time>2026-04-26T15:18:18.998Z</time></trkpt><trkpt lat="45.92177030693218" lon="11.253004953635278"><ele>703.0</ele><time>2026-04-26T15:18:19.998Z</time></trkpt><trkpt lat="45.92165756957158" lon="11.253192689093257"><ele>703.0</ele><time>2026-04-26T15:18:20.998Z</time></trkpt><trkpt lat="45.92153496145669" lon="11.253376234252563"><ele>706.0</ele><time>2026-04-26T15:18:21.998Z</time></trkpt><trkpt lat="45.92140986227146" lon="11.253567143882698"><ele>709.0</ele><time>2026-04-26T15:18:22.998Z</time></trkpt><trkpt lat="45.92129885432721" lon="11.25375312903572"><ele>712.0</ele><time>2026-04-26T15:18:23.997Z</time></trkpt><trkpt lat="45.92120385756513" lon="11.253951091057306"><ele>702.3333333333334</ele><time>2026-04-26T15:18:24.997Z</time></trkpt><trkpt lat="45.92113266009389" lon="11.254160175416933"><ele>692.6666666666666</ele><time>2026-04-26T15:18:25.997Z</time></trkpt><trkpt lat="45.92106285651129" lon="11.254354808326944"><ele>683.0</ele><time>2026-04-26T15:18:26.997Z</time></trkpt><trkpt lat="45.920965199983975" lon="11.25450197652624"><ele>685.5999999999999</ele><time>2026-04-26T15:18:27.997Z</time></trkpt><trkpt lat="45.92086219521061" lon="11.254615449266838"><ele>688.1999999999999</ele><time>2026-04-26T15:18:28.997Z</time></trkpt><trkpt lat="45.92075874276348" lon="11.254702534788883"><ele>690.8</ele><time>2026-04-26T15:18:29.997Z</time></trkpt><trkpt lat="45.92067921512147" lon="11.254788869381331"><ele>693.4</ele><time>2026-04-26T15:18:30.997Z</time></trkpt><trkpt lat="45.92062990853476" lon="11.254859758337322"><ele>696.0</ele><time>2026-04-26T15:18:31.997Z</time></trkpt><trkpt lat="45.92062314139416" lon="11.254964913059048"><ele>696.0</ele><time>2026-04-26T15:18:32.997Z</time></trkpt><trkpt lat="45.9206664968795" lon="11.25506207573604"><ele>696.0</ele><time>2026-04-26T15:18:33.997Z</time></trkpt><trkpt lat="45.920748869158004" lon="11.255104068474205"><ele>696.0</ele><time>2026-04-26T15:18:34.997Z</time></trkpt><trkpt lat="45.92085529286928" lon="11.255053742263398"><ele>696.0</ele><time>2026-04-26T15:18:36Z</time></trkpt><trkpt lat="45.92093459662418" lon="11.254926527601555"><ele>696.0</ele><time>2026-04-26T15:18:37Z</time></trkpt><trkpt lat="45.92101034134093" lon="11.254763466984476"><ele>691.6666666666666</ele><time>2026-04-26T15:18:38Z</time></trkpt><trkpt lat="45.921101145137115" lon="11.254596515148386"><ele>687.3333333333333</ele><time>2026-04-26T15:18:39Z</time></trkpt><trkpt lat="45.92120445434118" lon="11.25440908641313"><ele>683.0</ele><time>2026-04-26T15:18:40Z</time></trkpt><trkpt lat="45.9213071535689" lon="11.254215245253755"><ele>683.0</ele><time>2026-04-26T15:18:41Z</time></trkpt><trkpt lat="45.921425908117726" lon="11.254064772736843"><ele>683.0</ele><time>2026-04-26T15:18:42Z</time></trkpt><trkpt lat="45.921542704217615" lon="11.25392521777741"><ele>683.0</ele><time>2026-04-26T15:18:43Z</time></trkpt><trkpt lat="45.921672748460566" lon="11.253800455077727"><ele>684.25</ele><time>2026-04-26T15:18:44Z</time></trkpt><trkpt lat="45.92179446247842" lon="11.253652232517364"><ele>685.5</ele><time>2026-04-26T15:18:45Z</time></trkpt><trkpt lat="45.92191862485676" lon="11.253533888150317"><ele>686.75</ele><time>2026-04-26T15:18:46Z</time></trkpt><trkpt lat="45.922024386871115" lon="11.25342481687749"><ele>688.0</ele><time>2026-04-26T15:18:47Z</time></trkpt><trkpt lat="45.92211895060596" lon="11.253352411326418"><ele>688.0</ele><time>2026-04-26T15:18:48Z</time></trkpt><trkpt lat="45.922193921127906" lon="11.253283414022313"><ele>688.0</ele><time>2026-04-26T15:18:49Z</time></trkpt><trkpt lat="45.92230797114569" lon="11.253230906187762"><ele>688.0</ele><time>2026-04-26T15:18:51Z</time></trkpt><trkpt lat="45.922346339066046" lon="11.253338313680965"><ele>688.0</ele><time>2026-04-26T15:18:52Z</time></trkpt><trkpt lat="45.92233587349828" lon="11.253457461341148"><ele>688.0</ele><time>2026-04-26T15:18:53Z</time></trkpt><trkpt lat="45.92226516864771" lon="11.253557056118256"><ele>688.0</ele><time>2026-04-26T15:18:54Z</time></trkpt><trkpt lat="45.92216034717109" lon="11.253630304294118"><ele>688.0</ele><time>2026-04-26T15:18:55Z</time></trkpt><trkpt lat="45.92204059708061" lon="11.253724672823957"><ele>688.0</ele><time>2026-04-26T15:18:56Z</time></trkpt><trkpt lat="45.921913974542484" lon="11.25385086170005"><ele>688.0</ele><time>2026-04-26T15:18:57Z</time></trkpt><trkpt lat="45.92178824053255" lon="11.254010140742844"><ele>686.3333333333334</ele><time>2026-04-26T15:18:58Z</time></trkpt><trkpt lat="45.92166637799749" lon="11.254205872488912"><ele>684.6666666666666</ele><time>2026-04-26T15:18:59Z</time></trkpt><trkpt lat="45.92154064882076" lon="11.254433635084302"><ele>683.0</ele><time>2026-04-26T15:19:00Z</time></trkpt><trkpt lat="45.92141539657122" lon="11.25464802743094"><ele>676.6666666666666</ele><time>2026-04-26T15:19:01Z</time></trkpt><trkpt lat="45.92128149675155" lon="11.254862356770744"><ele>670.3333333333334</ele><time>2026-04-26T15:19:02Z</time></trkpt><trkpt lat="45.9211520221728" lon="11.255069114344625"><ele>664.0</ele><time>2026-04-26T15:19:03Z</time></trkpt><trkpt lat="45.921030747596355" lon="11.255282385375946"><ele>664.0</ele><time>2026-04-26T15:19:04Z</time></trkpt><trkpt lat="45.92093025261766" lon="11.255503762823194"><ele>664.0</ele><time>2026-04-26T15:19:05Z</time></trkpt><trkpt lat="45.920851452323156" lon="11.255738718915747"><ele>664.0</ele><time>2026-04-26T15:19:06Z</time></trkpt><trkpt lat="45.920761648389224" lon="11.25596178337568"><ele>666.6666666666667</ele><time>2026-04-26T15:19:06.999Z</time></trkpt><trkpt lat="45.92065353299578" lon="11.256161561624655"><ele>669.3333333333334</ele><time>2026-04-26T15:19:07.999Z</time></trkpt><trkpt lat="45.92053784695667" lon="11.256346266007911"><ele>672.0</ele><time>2026-04-26T15:19:08.999Z</time></trkpt><trkpt lat="45.92044369822254" lon="11.256541252941217"><ele>665.0</ele><time>2026-04-26T15:19:09.999Z</time></trkpt><trkpt lat="45.920388477876806" lon="11.256751785383909"><ele>658.0</ele><time>2026-04-26T15:19:10.999Z</time></trkpt><trkpt lat="45.92034993687447" lon="11.256956194956208"><ele>651.0</ele><time>2026-04-26T15:19:11.999Z</time></trkpt><trkpt lat="45.920301473179904" lon="11.257126031554238"><ele>644.0</ele><time>2026-04-26T15:19:12.999Z</time></trkpt><trkpt lat="45.920240339911835" lon="11.257272831133008"><ele>641.8000000000001</ele><time>2026-04-26T15:19:13.999Z</time></trkpt><trkpt lat="45.92014955447066" lon="11.257366466617553"><ele>639.6</ele><time>2026-04-26T15:19:14.999Z</time></trkpt><trkpt lat="45.920080500437024" lon="11.257469347675778"><ele>637.4</ele><time>2026-04-26T15:19:15.999Z</time></trkpt><trkpt lat="45.92000990263287" lon="11.257541753566404"><ele>635.2</ele><time>2026-04-26T15:19:16.999Z</time></trkpt><trkpt lat="45.91997071453565" lon="11.257633419155946"><ele>633.0</ele><time>2026-04-26T15:19:17.999Z</time></trkpt><trkpt lat="45.91998783477467" lon="11.25774390278439"><ele>633.0</ele><time>2026-04-26T15:19:18.999Z</time></trkpt><trkpt lat="45.920052686161334" lon="11.257814595340946"><ele>633.0</ele><time>2026-04-26T15:19:19.999Z</time></trkpt><trkpt lat="45.92014161737719" lon="11.257818570794472"><ele>633.0</ele><time>2026-04-26T15:19:20.999Z</time></trkpt><trkpt lat="45.92023285748719" lon="11.257765407094627"><ele>633.0</ele><time>2026-04-26T15:19:21.999Z</time></trkpt><trkpt lat="45.9202805441676" lon="11.257604930330665"><ele>633.0</ele><time>2026-04-26T15:19:22.999Z</time></trkpt><trkpt lat="45.920319864451926" lon="11.257442998774646"><ele>635.75</ele><time>2026-04-26T15:19:23.999Z</time></trkpt><trkpt lat="45.920373855838086" lon="11.257265348944285"><ele>638.5</ele><time>2026-04-26T15:19:24.999Z</time></trkpt><trkpt lat="45.92045530700181" lon="11.25710593357399"><ele>641.25</ele><time>2026-04-26T15:19:25.999Z</time></trkpt><trkpt lat="45.92053188312618" lon="11.256925729360095"><ele>644.0</ele><time>2026-04-26T15:19:26.999Z</time></trkpt><trkpt lat="45.920626927694606" lon="11.256756283847439"><ele>644.0</ele><time>2026-04-26T15:19:27.999Z</time></trkpt><trkpt lat="45.9207235661415" lon="11.256606061017811"><ele>644.0</ele><time>2026-04-26T15:19:28.999Z</time></trkpt><trkpt lat="45.92082200889404" lon="11.25646832948023"><ele>644.0</ele><time>2026-04-26T15:19:29.999Z</time></trkpt><trkpt lat="45.9209118223997" lon="11.256331310639377"><ele>644.0</ele><time>2026-04-26T15:19:30.999Z</time></trkpt><trkpt lat="45.92098686622345" lon="11.256213947026028"><ele>644.5</ele><time>2026-04-26T15:19:31.999Z</time></trkpt><trkpt lat="45.92105492835197" lon="11.256108044513212"><ele>645.0</ele><time>2026-04-26T15:19:32.999Z</time></trkpt><trkpt lat="45.9211043908296" lon="11.256019315983021"><ele>645.5</ele><time>2026-04-26T15:19:33.999Z</time></trkpt><trkpt lat="45.92117200865742" lon="11.255975738865912"><ele>646.0</ele><time>2026-04-26T15:19:34.999Z</time></trkpt><trkpt lat="45.92128538475051" lon="11.25601611876553"><ele>646.5</ele><time>2026-04-26T15:19:36.999Z</time></trkpt><trkpt lat="45.92129868288935" lon="11.25612441761387"><ele>647.0</ele><time>2026-04-26T15:19:37.999Z</time></trkpt><trkpt lat="45.921258555643675" lon="11.256245245810922"><ele>647.0</ele><time>2026-04-26T15:19:38.999Z</time></trkpt><trkpt lat="45.92117010463994" lon="11.256326891111447"><ele>647.0</ele><time>2026-04-26T15:19:39.999Z</time></trkpt><trkpt lat="45.92109175255624" lon="11.256440586272891"><ele>647.0</ele><time>2026-04-26T15:19:40.999Z</time></trkpt><trkpt lat="45.920985795590035" lon="11.256548483220687"><ele>647.0</ele><time>2026-04-26T15:19:41.999Z</time></trkpt><trkpt lat="45.920883753946875" lon="11.256649947724858"><ele>646.25</ele><time>2026-04-26T15:19:42.999Z</time></trkpt><trkpt lat="45.92078858658898" lon="11.256759814056865"><ele>645.5</ele><time>2026-04-26T15:19:43.999Z</time></trkpt><trkpt lat="45.92071156837543" lon="11.256870887338971"><ele>644.75</ele><time>2026-04-26T15:19:44.999Z</time></trkpt><trkpt lat="45.92065193058613" lon="11.257010475139333"><ele>644.0</ele><time>2026-04-26T15:19:45.999Z</time></trkpt><trkpt lat="45.92062325173493" lon="11.257171520085977"><ele>641.25</ele><time>2026-04-26T15:19:46.999Z</time></trkpt><trkpt lat="45.920607719896026" lon="11.257347921990029"><ele>638.5</ele><time>2026-04-26T15:19:47.999Z</time></trkpt><trkpt lat="45.92059157454657" lon="11.257526301512609"><ele>635.75</ele><time>2026-04-26T15:19:48.998Z</time></trkpt><trkpt lat="45.92057233464919" lon="11.257710648966649"><ele>633.0</ele><time>2026-04-26T15:19:49.998Z</time></trkpt><trkpt lat="45.92054514452228" lon="11.257874991809425"><ele>633.0</ele><time>2026-04-26T15:19:50.998Z</time></trkpt><trkpt lat="45.92052739266195" lon="11.258045216512969"><ele>633.0</ele><time>2026-04-26T15:19:51.998Z</time></trkpt><trkpt lat="45.9205087293136" lon="11.258204836270604"><ele>633.0</ele><time>2026-04-26T15:19:52.998Z</time></trkpt><trkpt lat="45.920491050653105" lon="11.258345667720093"><ele>633.0</ele><time>2026-04-26T15:19:53.998Z</time></trkpt><trkpt lat="45.920436446953616" lon="11.25845605224085"><ele>633.0</ele><time>2026-04-26T15:19:54.998Z</time></trkpt><trkpt lat="45.920384653594084" lon="11.25856858729829"><ele>631.5</ele><time>2026-04-26T15:19:55.998Z</time></trkpt><trkpt lat="45.92031174370818" lon="11.258668489006983"><ele>630.0</ele><time>2026-04-26T15:19:56.998Z</time></trkpt><trkpt lat="45.920231325389885" lon="11.258803897883771"><ele>628.5</ele><time>2026-04-26T15:19:57.998Z</time></trkpt><trkpt lat="45.92012741397638" lon="11.258929394722843"><ele>627.0</ele><time>2026-04-26T15:19:58.998Z</time></trkpt><trkpt lat="45.92002593078411" lon="11.259066510165392"><ele>624.5</ele><time>2026-04-26T15:19:59.998Z</time></trkpt><trkpt lat="45.91992104863554" lon="11.259193889252451"><ele>622.0</ele><time>2026-04-26T15:20:00.998Z</time></trkpt><trkpt lat="45.91981237063769" lon="11.259321390215504"><ele>619.5</ele><time>2026-04-26T15:20:01.998Z</time></trkpt><trkpt lat="45.91970016576982" lon="11.259455399979098"><ele>617.0</ele><time>2026-04-26T15:20:02.998Z</time></trkpt><trkpt lat="45.919578749202266" lon="11.25959336965995"><ele>617.0</ele><time>2026-04-26T15:20:03.998Z</time></trkpt><trkpt lat="45.91946076548672" lon="11.259753811162824"><ele>617.0</ele><time>2026-04-26T15:20:04.998Z</time></trkpt><trkpt lat="45.919342868679394" lon="11.25992437886182"><ele>617.0</ele><time>2026-04-26T15:20:05.998Z</time></trkpt><trkpt lat="45.919227920868735" lon="11.260073800851625"><ele>617.5</ele><time>2026-04-26T15:20:06.998Z</time></trkpt><trkpt lat="45.91912544251743" lon="11.26022543953029"><ele>618.0</ele><time>2026-04-26T15:20:07.998Z</time></trkpt><trkpt lat="45.91902325555801" lon="11.260364922007403"><ele>618.5</ele><time>2026-04-26T15:20:08.998Z</time></trkpt><trkpt lat="45.91892833226826" lon="11.260499584205476"><ele>619.0</ele><time>2026-04-26T15:20:09.998Z</time></trkpt><trkpt lat="45.918827936078664" lon="11.260642705067632"><ele>615.25</ele><time>2026-04-26T15:20:10.998Z</time></trkpt><trkpt lat="45.9187514392882" lon="11.260804932273688"><ele>611.5</ele><time>2026-04-26T15:20:11.998Z</time></trkpt><trkpt lat="45.91868831213129" lon="11.260990531187948"><ele>607.75</ele><time>2026-04-26T15:20:12.998Z</time></trkpt><trkpt lat="45.91863188467116" lon="11.26118977864832"><ele>604.0</ele><time>2026-04-26T15:20:13.998Z</time></trkpt><trkpt lat="45.91857186970228" lon="11.261389311532456"><ele>604.25</ele><time>2026-04-26T15:20:14.998Z</time></trkpt><trkpt lat="45.9185134132739" lon="11.261583014652036"><ele>604.5</ele><time>2026-04-26T15:20:15.998Z</time></trkpt><trkpt lat="45.918466590634594" lon="11.261769649452836"><ele>604.75</ele><time>2026-04-26T15:20:16.998Z</time></trkpt><trkpt lat="45.918404665046204" lon="11.261930076224749"><ele>605.0</ele><time>2026-04-26T15:20:17.998Z</time></trkpt><trkpt lat="45.91834494670279" lon="11.262072560835653"><ele>604.5</ele><time>2026-04-26T15:20:18.998Z</time></trkpt><trkpt lat="45.918275455212104" lon="11.262200730675357"><ele>604.0</ele><time>2026-04-26T15:20:19.998Z</time></trkpt><trkpt lat="45.918189806587726" lon="11.262316020708951"><ele>603.5</ele><time>2026-04-26T15:20:20.998Z</time></trkpt><trkpt lat="45.91808854007089" lon="11.262416142693466"><ele>603.0</ele><time>2026-04-26T15:20:21.998Z</time></trkpt><trkpt lat="45.9179806016077" lon="11.262510706432938"><ele>603.0</ele><time>2026-04-26T15:20:22.998Z</time></trkpt><trkpt lat="45.91788902448036" lon="11.26262484991794"><ele>603.0</ele><time>2026-04-26T15:20:23.998Z</time></trkpt><trkpt lat="45.917805869147855" lon="11.262771895189934"><ele>603.0</ele><time>2026-04-26T15:20:24.998Z</time></trkpt><trkpt lat="45.91773634355919" lon="11.262938165154456"><ele>603.0</ele><time>2026-04-26T15:20:25.998Z</time></trkpt><trkpt lat="45.91770955410431" lon="11.263153260744053"><ele>600.75</ele><time>2026-04-26T15:20:26.998Z</time></trkpt><trkpt lat="45.917652860588845" lon="11.26335271836881"><ele>598.5</ele><time>2026-04-26T15:20:27.998Z</time></trkpt><trkpt lat="45.91759709000031" lon="11.263542451408034"><ele>596.25</ele><time>2026-04-26T15:20:28.998Z</time></trkpt><trkpt lat="45.91752364519933" lon="11.26371626159643"><ele>594.0</ele><time>2026-04-26T15:20:29.998Z</time></trkpt><trkpt lat="45.917443277184525" lon="11.263884864995324"><ele>596.6666666666666</ele><time>2026-04-26T15:20:30.997Z</time></trkpt><trkpt lat="45.91735515437374" lon="11.264067405166072"><ele>599.3333333333333</ele><time>2026-04-26T15:20:31.997Z</time></trkpt><trkpt lat="45.91725947385705" lon="11.26426575357118"><ele>602.0</ele><time>2026-04-26T15:20:32.997Z</time></trkpt><trkpt lat="45.91717420987655" lon="11.264442840215416"><ele>602.0</ele><time>2026-04-26T15:20:33.997Z</time></trkpt><trkpt lat="45.91708326896566" lon="11.26463153970867"><ele>602.0</ele><time>2026-04-26T15:20:34.997Z</time></trkpt><trkpt lat="45.916994436575486" lon="11.264814280504192"><ele>602.0</ele><time>2026-04-26T15:20:35.997Z</time></trkpt><trkpt lat="45.916903819797135" lon="11.265000692140637"><ele>603.0</ele><time>2026-04-26T15:20:36.997Z</time></trkpt><trkpt lat="45.91682232624346" lon="11.265192799651077"><ele>604.0</ele><time>2026-04-26T15:20:37.997Z</time></trkpt><trkpt lat="45.91670810808036" lon="11.265372369608707"><ele>605.0</ele><time>2026-04-26T15:20:38.997Z</time></trkpt><trkpt lat="45.91666118038078" lon="11.265517620522855"><ele>606.0</ele><time>2026-04-26T15:20:39.997Z</time></trkpt><trkpt lat="45.91658882898031" lon="11.265695724623011"><ele>606.0</ele><time>2026-04-26T15:20:40.997Z</time></trkpt><trkpt lat="45.916523364304574" lon="11.265867201715576"><ele>606.0</ele><time>2026-04-26T15:20:42Z</time></trkpt><trkpt lat="45.91647658644648" lon="11.26605723710084"><ele>606.0</ele><time>2026-04-26T15:20:43Z</time></trkpt><trkpt lat="45.916464247983754" lon="11.26625872214871"><ele>606.0</ele><time>2026-04-26T15:20:44Z</time></trkpt><trkpt lat="45.91645107733362" lon="11.266476570870891"><ele>601.6666666666666</ele><time>2026-04-26T15:20:45Z</time></trkpt><trkpt lat="45.91643199504553" lon="11.266707200089613"><ele>597.3333333333333</ele><time>2026-04-26T15:20:46Z</time></trkpt><trkpt lat="45.916402491592564" lon="11.266931575413784"><ele>593.0</ele><time>2026-04-26T15:20:47Z</time></trkpt><trkpt lat="45.916396569555914" lon="11.267162235898931"><ele>590.6666666666666</ele><time>2026-04-26T15:20:48Z</time></trkpt><trkpt lat="45.91637406420624" lon="11.26738566470874"><ele>588.3333333333334</ele><time>2026-04-26T15:20:49Z</time></trkpt><trkpt lat="45.91636616537608" lon="11.267598803191154"><ele>586.0</ele><time>2026-04-26T15:20:50Z</time></trkpt><trkpt lat="45.91637598144724" lon="11.267806812912239"><ele>586.0</ele><time>2026-04-26T15:20:51Z</time></trkpt><trkpt lat="45.91639054263551" lon="11.2679930519579"><ele>586.0</ele><time>2026-04-26T15:20:52Z</time></trkpt><trkpt lat="45.916358396811155" lon="11.268154374755843"><ele>586.0</ele><time>2026-04-26T15:20:53Z</time></trkpt><trkpt lat="45.91631648203702" lon="11.268301377719803"><ele>586.0</ele><time>2026-04-26T15:20:54Z</time></trkpt><trkpt lat="45.9162569998654" lon="11.268447916211164"><ele>585.25</ele><time>2026-04-26T15:20:55Z</time></trkpt><trkpt lat="45.916194307904135" lon="11.26859536562188"><ele>584.5</ele><time>2026-04-26T15:20:56Z</time></trkpt><trkpt lat="45.91614110255458" lon="11.268744529131864"><ele>583.75</ele><time>2026-04-26T15:20:57Z</time></trkpt><trkpt lat="45.91611711795917" lon="11.268913895233988"><ele>583.0</ele><time>2026-04-26T15:20:58Z</time></trkpt><trkpt lat="45.91610245589692" lon="11.26909529264136"><ele>581.6666666666667</ele><time>2026-04-26T15:20:59Z</time></trkpt><trkpt lat="45.91611146024315" lon="11.269298574376847"><ele>580.3333333333334</ele><time>2026-04-26T15:21:00Z</time></trkpt><trkpt lat="45.91612548290922" lon="11.269501385918415"><ele>579.0</ele><time>2026-04-26T15:21:01Z</time></trkpt><trkpt lat="45.916139798132015" lon="11.26974175825517"><ele>580.0</ele><time>2026-04-26T15:21:02Z</time></trkpt><trkpt lat="45.91615118661669" lon="11.269950970846013"><ele>581.0</ele><time>2026-04-26T15:21:03Z</time></trkpt><trkpt lat="45.916151150848435" lon="11.270142458366001"><ele>582.0</ele><time>2026-04-26T15:21:04Z</time></trkpt><trkpt lat="45.91615176412815" lon="11.270320471014447"><ele>583.0</ele><time>2026-04-26T15:21:05Z</time></trkpt><trkpt lat="45.916143030564236" lon="11.270485159509004"><ele>581.6666666666667</ele><time>2026-04-26T15:21:06Z</time></trkpt><trkpt lat="45.91611480935103" lon="11.270635317284963"><ele>580.3333333333334</ele><time>2026-04-26T15:21:07Z</time></trkpt><trkpt lat="45.916067926508646" lon="11.270746201579243"><ele>579.0</ele><time>2026-04-26T15:21:08Z</time></trkpt><trkpt lat="45.91601533599566" lon="11.270848901595881"><ele>577.6666666666666</ele><time>2026-04-26T15:21:09Z</time></trkpt><trkpt lat="45.91596403731844" lon="11.270944951818175"><ele>576.3333333333333</ele><time>2026-04-26T15:21:10Z</time></trkpt><trkpt lat="45.91592710343976" lon="11.271039235914598"><ele>575.0</ele><time>2026-04-26T15:21:11Z</time></trkpt><trkpt lat="45.91591443122326" lon="11.271130553974666"><ele>575.0</ele><time>2026-04-26T15:21:12Z</time></trkpt><trkpt lat="45.915925030095615" lon="11.271233609392318"><ele>575.0</ele><time>2026-04-26T15:21:13Z</time></trkpt><trkpt lat="45.91594304687502" lon="11.271348306292259"><ele>575.0</ele><time>2026-04-26T15:21:14Z</time></trkpt><trkpt lat="45.91593228486751" lon="11.27145568497361"><ele>575.0</ele><time>2026-04-26T15:21:15Z</time></trkpt><trkpt lat="45.915918062031984" lon="11.27155390220394"><ele>575.0</ele><time>2026-04-26T15:21:15.999Z</time></trkpt><trkpt lat="45.91588709097787" lon="11.271650410822856"><ele>575.0</ele><time>2026-04-26T15:21:16.999Z</time></trkpt><trkpt lat="45.91584624834777" lon="11.271748317993337"><ele>576.8333333333333</ele><time>2026-04-26T15:21:17.999Z</time></trkpt><trkpt lat="45.91579140596481" lon="11.271843160899168"><ele>578.6666666666666</ele><time>2026-04-26T15:21:18.999Z</time></trkpt><trkpt lat="45.915717275479" lon="11.27192529056763"><ele>580.5</ele><time>2026-04-26T15:21:19.999Z</time></trkpt><trkpt lat="45.915633326391216" lon="11.271984354946227"><ele>582.3333333333334</ele><time>2026-04-26T15:21:20.999Z</time></trkpt><trkpt lat="45.915556324400185" lon="11.272021658033022"><ele>584.1666666666667</ele><time>2026-04-26T15:21:21.999Z</time></trkpt><trkpt lat="45.915478860266205" lon="11.27203105387888"><ele>586.0</ele><time>2026-04-26T15:21:22.999Z</time></trkpt><trkpt lat="45.915403735609694" lon="11.272049998272081"><ele>586.0</ele><time>2026-04-26T15:21:23.999Z</time></trkpt><trkpt lat="45.91533322084894" lon="11.272067779945765"><ele>586.0</ele><time>2026-04-26T15:21:24.999Z</time></trkpt><trkpt lat="45.91526150114698" lon="11.272152145284936"><ele>586.0</ele><time>2026-04-26T15:21:25.999Z</time></trkpt><trkpt lat="45.91519269451037" lon="11.272212818719016"><ele>586.0</ele><time>2026-04-26T15:21:26.999Z</time></trkpt><trkpt lat="45.915138089612526" lon="11.272303748154863"><ele>586.0</ele><time>2026-04-26T15:21:27.999Z</time></trkpt><trkpt lat="45.91512859418737" lon="11.272440185955725"><ele>586.0</ele><time>2026-04-26T15:21:28.999Z</time></trkpt><trkpt lat="45.91513795957492" lon="11.272589756295137"><ele>584.4</ele><time>2026-04-26T15:21:29.999Z</time></trkpt><trkpt lat="45.91515889597217" lon="11.272745641762016"><ele>582.8</ele><time>2026-04-26T15:21:30.999Z</time></trkpt><trkpt lat="45.915196500200956" lon="11.272884514640667"><ele>581.1999999999999</ele><time>2026-04-26T15:21:31.999Z</time></trkpt><trkpt lat="45.91523681557271" lon="11.273026522050472"><ele>579.6</ele><time>2026-04-26T15:21:32.999Z</time></trkpt><trkpt lat="45.91525380963214" lon="11.273161397034764"><ele>578.0</ele><time>2026-04-26T15:21:33.999Z</time></trkpt><trkpt lat="45.915247427850105" lon="11.273302072818174"><ele>578.6</ele><time>2026-04-26T15:21:34.999Z</time></trkpt><trkpt lat="45.915188490940466" lon="11.273419972120017"><ele>579.1999999999999</ele><time>2026-04-26T15:21:35.999Z</time></trkpt><trkpt lat="45.91514408987869" lon="11.273546130115289"><ele>579.8</ele><time>2026-04-26T15:21:36.999Z</time></trkpt><trkpt lat="45.915066599768004" lon="11.273635231211617"><ele>580.4</ele><time>2026-04-26T15:21:37.999Z</time></trkpt><trkpt lat="45.91498850652966" lon="11.273731677178139"><ele>581.0</ele><time>2026-04-26T15:21:38.999Z</time></trkpt><trkpt lat="45.91492136223453" lon="11.273830776319429"><ele>581.0</ele><time>2026-04-26T15:21:39.999Z</time></trkpt><trkpt lat="45.91484425233324" lon="11.273891960303157"><ele>581.0</ele><time>2026-04-26T15:21:40.999Z</time></trkpt><trkpt lat="45.91478208767901" lon="11.273967266992047"><ele>581.0</ele><time>2026-04-26T15:21:41.999Z</time></trkpt><trkpt lat="45.91475023291959" lon="11.274066986525431"><ele>581.0</ele><time>2026-04-26T15:21:42.999Z</time></trkpt><trkpt lat="45.91475420760387" lon="11.274175922017696"><ele>581.0</ele><time>2026-04-26T15:21:43.999Z</time></trkpt><trkpt lat="45.914791508618116" lon="11.274271881984669"><ele>581.0</ele><time>2026-04-26T15:21:44.999Z</time></trkpt><trkpt lat="45.9148505656929" lon="11.274346336553974"><ele>578.4</ele><time>2026-04-26T15:21:45.999Z</time></trkpt><trkpt lat="45.91492683500762" lon="11.274387263736806"><ele>575.8</ele><time>2026-04-26T15:21:46.999Z</time></trkpt><trkpt lat="45.91501922376312" lon="11.274375989195198"><ele>573.1999999999999</ele><time>2026-04-26T15:21:47.999Z</time></trkpt><trkpt lat="45.91510997887756" lon="11.274311391512484"><ele>570.6</ele><time>2026-04-26T15:21:48.999Z</time></trkpt><trkpt lat="45.915191235171655" lon="11.274244107022836"><ele>568.0</ele><time>2026-04-26T15:21:49.999Z</time></trkpt><trkpt lat="45.91527740601085" lon="11.27419980000275"><ele>567.8333333333334</ele><time>2026-04-26T15:21:50.999Z</time></trkpt><trkpt lat="45.91536738981864" lon="11.27415823163476"><ele>567.6666666666667</ele><time>2026-04-26T15:21:51.999Z</time></trkpt><trkpt lat="45.91544001155882" lon="11.274106852569764"><ele>567.5</ele><time>2026-04-26T15:21:52.999Z</time></trkpt><trkpt lat="45.91551215287476" lon="11.274024551088074"><ele>567.3333333333334</ele><time>2026-04-26T15:21:53.999Z</time></trkpt><trkpt lat="45.91556086636444" lon="11.273910397001268"><ele>567.1666666666666</ele><time>2026-04-26T15:21:54.999Z</time></trkpt><trkpt lat="45.91560080647917" lon="11.273805852112684"><ele>567.0</ele><time>2026-04-26T15:21:55.999Z</time></trkpt><trkpt lat="45.91563047504175" lon="11.273708955807102"><ele>567.0</ele><time>2026-04-26T15:21:56.999Z</time></trkpt><trkpt lat="45.91570848078762" lon="11.273581545199823"><ele>567.0</ele><time>2026-04-26T15:21:58.998Z</time></trkpt><trkpt lat="45.91577666962574" lon="11.2735574383147"><ele>567.0</ele><time>2026-04-26T15:21:59.998Z</time></trkpt><trkpt lat="45.915843442094825" lon="11.273572753715449"><ele>567.0</ele><time>2026-04-26T15:22:00.998Z</time></trkpt><trkpt lat="45.91590493202935" lon="11.27363645997789"><ele>567.0</ele><time>2026-04-26T15:22:01.998Z</time></trkpt><trkpt lat="45.91594844428042" lon="11.273731631777668"><ele>567.0</ele><time>2026-04-26T15:22:02.998Z</time></trkpt><trkpt lat="45.91594755772821" lon="11.273851064455588"><ele>563.6</ele><time>2026-04-26T15:22:03.998Z</time></trkpt><trkpt lat="45.91591308876796" lon="11.273977963798593"><ele>560.2</ele><time>2026-04-26T15:22:04.998Z</time></trkpt><trkpt lat="45.915833558765364" lon="11.274077641376532"><ele>556.8</ele><time>2026-04-26T15:22:05.998Z</time></trkpt><trkpt lat="45.91575535425643" lon="11.27419126995142"><ele>553.4</ele><time>2026-04-26T15:22:06.998Z</time></trkpt><trkpt lat="45.91565537207977" lon="11.274295659264105"><ele>550.0</ele><time>2026-04-26T15:22:07.998Z</time></trkpt><trkpt lat="45.91555674383983" lon="11.27441973928582"><ele>550.0</ele><time>2026-04-26T15:22:08.998Z</time></trkpt><trkpt lat="45.91544213387836" lon="11.274522089989317"><ele>550.0</ele><time>2026-04-26T15:22:09.998Z</time></trkpt><trkpt lat="45.915341569452266" lon="11.274611652468504"><ele>550.0</ele><time>2026-04-26T15:22:10.998Z</time></trkpt><trkpt lat="45.91524945323991" lon="11.274706706568534"><ele>550.0</ele><time>2026-04-26T15:22:11.998Z</time></trkpt><trkpt lat="45.915153134663704" lon="11.274805329105964"><ele>549.6</ele><time>2026-04-26T15:22:12.998Z</time></trkpt><trkpt lat="45.91505452922237" lon="11.274910207533122"><ele>549.2</ele><time>2026-04-26T15:22:13.998Z</time></trkpt><trkpt lat="45.91496762155243" lon="11.275020171598058"><ele>548.8</ele><time>2026-04-26T15:22:14.998Z</time></trkpt><trkpt lat="45.91489639072251" lon="11.275122608413604"><ele>548.4</ele><time>2026-04-26T15:22:15.998Z</time></trkpt><trkpt lat="45.91484167246927" lon="11.275213975488883"><ele>548.0</ele><time>2026-04-26T15:22:16.998Z</time></trkpt><trkpt lat="45.91480374790485" lon="11.275309654454004"><ele>548.0</ele><time>2026-04-26T15:22:17.998Z</time></trkpt><trkpt lat="45.91479376582195" lon="11.275423765698568"><ele>548.0</ele><time>2026-04-26T15:22:18.998Z</time></trkpt><trkpt lat="45.9148145890911" lon="11.275542729199104"><ele>548.0</ele><time>2026-04-26T15:22:19.998Z</time></trkpt><trkpt lat="45.914869128052025" lon="11.275664610928017"><ele>548.0</ele><time>2026-04-26T15:22:20.998Z</time></trkpt><trkpt lat="45.91493734269855" lon="11.275786827920447"><ele>548.0</ele><time>2026-04-26T15:22:21.998Z</time></trkpt><trkpt lat="45.91499737365651" lon="11.27591779474691"><ele>545.8</ele><time>2026-04-26T15:22:22.998Z</time></trkpt><trkpt lat="45.91501659407073" lon="11.276087629323849"><ele>543.5999999999999</ele><time>2026-04-26T15:22:23.998Z</time></trkpt><trkpt lat="45.915031623548515" lon="11.276255761451369"><ele>541.4000000000001</ele><time>2026-04-26T15:22:24.998Z</time></trkpt><trkpt lat="45.91504251701395" lon="11.276412571172589"><ele>539.2</ele><time>2026-04-26T15:22:25.998Z</time></trkpt><trkpt lat="45.915067837788314" lon="11.276550024812815"><ele>537.0</ele><time>2026-04-26T15:22:26.998Z</time></trkpt><trkpt lat="45.91505569374307" lon="11.276682859594505"><ele>535.8000000000001</ele><time>2026-04-26T15:22:27.998Z</time></trkpt><trkpt lat="45.91502031362416" lon="11.276807616466856"><ele>534.6</ele><time>2026-04-26T15:22:28.998Z</time></trkpt><trkpt lat="45.914954448675566" lon="11.276921466865497"><ele>533.4000000000001</ele><time>2026-04-26T15:22:29.998Z</time></trkpt><trkpt lat="45.91487109863005" lon="11.277024155362207"><ele>532.2</ele><time>2026-04-26T15:22:30.998Z</time></trkpt><trkpt lat="45.91475953315186" lon="11.277080265958945"><ele>531.0</ele><time>2026-04-26T15:22:31.998Z</time></trkpt><trkpt lat="45.91465353110399" lon="11.277190196859326"><ele>528.75</ele><time>2026-04-26T15:22:32.998Z</time></trkpt><trkpt lat="45.91452696374349" lon="11.277272126217847"><ele>526.5</ele><time>2026-04-26T15:22:33.998Z</time></trkpt><trkpt lat="45.914419564274404" lon="11.27735737389495"><ele>524.25</ele><time>2026-04-26T15:22:34.998Z</time></trkpt><trkpt lat="45.9143119564581" lon="11.277442867383625"><ele>522.0</ele><time>2026-04-26T15:22:35.998Z</time></trkpt><trkpt lat="45.91420907695" lon="11.277536169703328"><ele>521.4</ele><time>2026-04-26T15:22:36.998Z</time></trkpt><trkpt lat="45.914113472446616" lon="11.277634185492548"><ele>520.8000000000001</ele><time>2026-04-26T15:22:37.998Z</time></trkpt><trkpt lat="45.91402201486955" lon="11.277740806463836"><ele>520.2</ele><time>2026-04-26T15:22:38.998Z</time></trkpt><trkpt lat="45.91394450081828" lon="11.277834701425007"><ele>519.6</ele><time>2026-04-26T15:22:39.997Z</time></trkpt><trkpt lat="45.91388157668391" lon="11.277940734508583"><ele>519.0</ele><time>2026-04-26T15:22:40.997Z</time></trkpt><trkpt lat="45.913835829407034" lon="11.278071820541644"><ele>517.25</ele><time>2026-04-26T15:22:41.997Z</time></trkpt><trkpt lat="45.913827359701784" lon="11.278233313083598"><ele>515.5</ele><time>2026-04-26T15:22:42.997Z</time></trkpt><trkpt lat="45.9138409457466" lon="11.278402688480922"><ele>513.75</ele><time>2026-04-26T15:22:43.997Z</time></trkpt><trkpt lat="45.9138537854858" lon="11.278584145628122"><ele>512.0</ele><time>2026-04-26T15:22:44.997Z</time></trkpt><trkpt lat="45.91385658642627" lon="11.278770821253417"><ele>511.75</ele><time>2026-04-26T15:22:45.997Z</time></trkpt><trkpt lat="45.91386047058844" lon="11.278959750108408"><ele>511.5</ele><time>2026-04-26T15:22:46.997Z</time></trkpt><trkpt lat="45.91388133303791" lon="11.27916625841266"><ele>511.25</ele><time>2026-04-26T15:22:48Z</time></trkpt><trkpt lat="45.91391953429971" lon="11.279359598842499"><ele>511.0</ele><time>2026-04-26T15:22:49Z</time></trkpt><trkpt lat="45.91398065708063" lon="11.279548926052422"><ele>511.0</ele><time>2026-04-26T15:22:50Z</time></trkpt><trkpt lat="45.91404134353678" lon="11.279737951061053"><ele>511.0</ele><time>2026-04-26T15:22:51Z</time></trkpt><trkpt lat="45.914102017782355" lon="11.279912896425529"><ele>511.0</ele><time>2026-04-26T15:22:52Z</time></trkpt><trkpt lat="45.91414343406858" lon="11.28010109372462"><ele>511.0</ele><time>2026-04-26T15:22:53Z</time></trkpt><trkpt lat="45.91418386652195" lon="11.280268183526019"><ele>511.20000000000005</ele><time>2026-04-26T15:22:54Z</time></trkpt><trkpt lat="45.91422227752154" lon="11.280424430351049"><ele>511.40000000000003</ele><time>2026-04-26T15:22:55Z</time></trkpt><trkpt lat="45.91425562109256" lon="11.280557558280506"><ele>511.6</ele><time>2026-04-26T15:22:56Z</time></trkpt><trkpt lat="45.91428129894244" lon="11.280679019104637"><ele>511.8</ele><time>2026-04-26T15:22:57Z</time></trkpt><trkpt lat="45.91429462363021" lon="11.280792237672074"><ele>512.0</ele><time>2026-04-26T15:22:58Z</time></trkpt><trkpt lat="45.91428802380055" lon="11.280903628086717"><ele>512.2</ele><time>2026-04-26T15:22:59Z</time></trkpt><trkpt lat="45.91428570357441" lon="11.281034926555183"><ele>512.4000000000001</ele><time>2026-04-26T15:23:00Z</time></trkpt><trkpt lat="45.91423030108768" lon="11.281163138337956"><ele>512.5999999999999</ele><time>2026-04-26T15:23:01Z</time></trkpt><trkpt lat="45.91415128735958" lon="11.2812898251905"><ele>512.8</ele><time>2026-04-26T15:23:02Z</time></trkpt><trkpt lat="45.91406271460408" lon="11.28142516150759"><ele>513.0</ele><time>2026-04-26T15:23:03Z</time></trkpt><trkpt lat="45.913977494618315" lon="11.281567667923092"><ele>512.25</ele><time>2026-04-26T15:23:04Z</time></trkpt><trkpt lat="45.91389852139221" lon="11.281703262753059"><ele>511.5</ele><time>2026-04-26T15:23:05Z</time></trkpt><trkpt lat="45.91381408661509" lon="11.28184603704595"><ele>510.75</ele><time>2026-04-26T15:23:06Z</time></trkpt><trkpt lat="45.913728816738235" lon="11.282002195785278"><ele>510.0</ele><time>2026-04-26T15:23:07Z</time></trkpt><trkpt lat="45.91365131036034" lon="11.282181760128601"><ele>509.5</ele><time>2026-04-26T15:23:08Z</time></trkpt><trkpt lat="45.91359487872388" lon="11.282383779132974"><ele>509.0</ele><time>2026-04-26T15:23:09Z</time></trkpt><trkpt lat="45.91356318473824" lon="11.282596119259905"><ele>508.5</ele><time>2026-04-26T15:23:10Z</time></trkpt><trkpt lat="45.91355428042102" lon="11.282803079415604"><ele>508.0</ele><time>2026-04-26T15:23:11Z</time></trkpt><trkpt lat="45.913546723957595" lon="11.282990652894203"><ele>507.5</ele><time>2026-04-26T15:23:12Z</time></trkpt><trkpt lat="45.9135268244457" lon="11.283188447964562"><ele>507.0</ele><time>2026-04-26T15:23:13Z</time></trkpt><trkpt lat="45.913491588885364" lon="11.283383284093505"><ele>506.5</ele><time>2026-04-26T15:23:14Z</time></trkpt><trkpt lat="45.9134458172499" lon="11.283586329423073"><ele>506.0</ele><time>2026-04-26T15:23:15Z</time></trkpt><trkpt lat="45.91339330975416" lon="11.283788556688807"><ele>507.25</ele><time>2026-04-26T15:23:16Z</time></trkpt><trkpt lat="45.91334191109015" lon="11.28397445689663"><ele>508.5</ele><time>2026-04-26T15:23:17Z</time></trkpt><trkpt lat="45.913294986800494" lon="11.284161055018343"><ele>509.75</ele><time>2026-04-26T15:23:18Z</time></trkpt><trkpt lat="45.913265863230706" lon="11.284377377540208"><ele>511.0</ele><time>2026-04-26T15:23:19Z</time></trkpt><trkpt lat="45.91326798221607" lon="11.284598120163274"><ele>508.6666666666667</ele><time>2026-04-26T15:23:20Z</time></trkpt><trkpt lat="45.913290196721015" lon="11.28481351245267"><ele>506.33333333333337</ele><time>2026-04-26T15:23:21Z</time></trkpt><trkpt lat="45.913313846750334" lon="11.285027581305712"><ele>504.0</ele><time>2026-04-26T15:23:22Z</time></trkpt><trkpt lat="45.91333597737396" lon="11.285245859739746"><ele>504.0</ele><time>2026-04-26T15:23:22.999Z</time></trkpt><trkpt lat="45.91335189533894" lon="11.285445697151118"><ele>504.0</ele><time>2026-04-26T15:23:23.999Z</time></trkpt><trkpt lat="45.913361687921814" lon="11.28559481374676"><ele>504.0</ele><time>2026-04-26T15:23:24.999Z</time></trkpt><trkpt lat="45.91336298360088" lon="11.285754198666336"><ele>504.0</ele><time>2026-04-26T15:23:26.999Z</time></trkpt><trkpt lat="45.91331290840784" lon="11.28581004409266"><ele>504.0</ele><time>2026-04-26T15:23:27.999Z</time></trkpt><trkpt lat="45.91332954988781" lon="11.286399758052447"><ele>501.75</ele><time>2026-04-26T15:23:28.999Z</time></trkpt><trkpt lat="45.91328073411869" lon="11.286572594237178"><ele>499.5</ele><time>2026-04-26T15:23:29.999Z</time></trkpt><trkpt lat="45.91322306057579" lon="11.286768774214124"><ele>497.25</ele><time>2026-04-26T15:23:30.999Z</time></trkpt><trkpt lat="45.91316573208934" lon="11.286964852947886"><ele>495.0</ele><time>2026-04-26T15:23:31.999Z</time></trkpt><trkpt lat="45.91310612606889" lon="11.287166256109638"><ele>493.33333333333337</ele><time>2026-04-26T15:23:32.999Z</time></trkpt><trkpt lat="45.91304596726486" lon="11.287368137324817"><ele>491.6666666666667</ele><time>2026-04-26T15:23:33.999Z</time></trkpt><trkpt lat="45.912986601047834" lon="11.287569930303286"><ele>490.0</ele><time>2026-04-26T15:23:34.999Z</time></trkpt><trkpt lat="45.912930849590246" lon="11.28776916432972"><ele>490.0</ele><time>2026-04-26T15:23:35.999Z</time></trkpt><trkpt lat="45.912892927966325" lon="11.28797833322579"><ele>490.0</ele><time>2026-04-26T15:23:36.999Z</time></trkpt><trkpt lat="45.91286490380224" lon="11.288194220977388"><ele>490.0</ele><time>2026-04-26T15:23:37.999Z</time></trkpt><trkpt lat="45.912859229309774" lon="11.288420998019895"><ele>489.0</ele><time>2026-04-26T15:23:38.999Z</time></trkpt><trkpt lat="45.9128725532606" lon="11.288658195391879"><ele>488.0</ele><time>2026-04-26T15:23:39.999Z</time></trkpt><trkpt lat="45.91289196927491" lon="11.288897456063413"><ele>487.0</ele><time>2026-04-26T15:23:40.999Z</time></trkpt><trkpt lat="45.91290906539491" lon="11.289148812598919"><ele>485.33333333333337</ele><time>2026-04-26T15:23:41.999Z</time></trkpt><trkpt lat="45.91292430930378" lon="11.289397364531617"><ele>483.66666666666663</ele><time>2026-04-26T15:23:42.999Z</time></trkpt><trkpt lat="45.91294908232046" lon="11.2896439989397"><ele>482.0</ele><time>2026-04-26T15:23:43.999Z</time></trkpt><trkpt lat="45.91298636823426" lon="11.289895523437194"><ele>482.0</ele><time>2026-04-26T15:23:44.999Z</time></trkpt><trkpt lat="45.91304115736552" lon="11.290140477693209"><ele>482.0</ele><time>2026-04-26T15:23:45.999Z</time></trkpt><trkpt lat="45.913104708349806" lon="11.290374995714053"><ele>482.0</ele><time>2026-04-26T15:23:46.999Z</time></trkpt><trkpt lat="45.913169609680075" lon="11.290613975538498"><ele>481.0</ele><time>2026-04-26T15:23:47.999Z</time></trkpt><trkpt lat="45.913229156512394" lon="11.290851052370124"><ele>480.0</ele><time>2026-04-26T15:23:48.999Z</time></trkpt><trkpt lat="45.913275767097446" lon="11.291097300751762"><ele>479.0</ele><time>2026-04-26T15:23:49.999Z</time></trkpt><trkpt lat="45.9132952202251" lon="11.291345652926065"><ele>480.3333333333333</ele><time>2026-04-26T15:23:50.999Z</time></trkpt><trkpt lat="45.91332621978878" lon="11.291578381090998"><ele>481.66666666666663</ele><time>2026-04-26T15:23:51.999Z</time></trkpt><trkpt lat="45.913351789258265" lon="11.291799231772234"><ele>483.0</ele><time>2026-04-26T15:23:52.999Z</time></trkpt><trkpt lat="45.913365095988766" lon="11.292001774994121"><ele>483.0</ele><time>2026-04-26T15:23:53.999Z</time></trkpt><trkpt lat="45.9133618334552" lon="11.292209326528432"><ele>483.0</ele><time>2026-04-26T15:23:54.999Z</time></trkpt><trkpt lat="45.9133405728405" lon="11.292467057449384"><ele>483.0</ele><time>2026-04-26T15:23:55.999Z</time></trkpt><trkpt lat="45.91330212156978" lon="11.292695670902168"><ele>482.33333333333337</ele><time>2026-04-26T15:23:56.999Z</time></trkpt><trkpt lat="45.91326801339962" lon="11.292927472739258"><ele>481.6666666666667</ele><time>2026-04-26T15:23:57.999Z</time></trkpt><trkpt lat="45.9132343968092" lon="11.293149358382353"><ele>481.0</ele><time>2026-04-26T15:23:58.999Z</time></trkpt><trkpt lat="45.913190277810415" lon="11.293371782882238"><ele>479.33333333333337</ele><time>2026-04-26T15:23:59.999Z</time></trkpt><trkpt lat="45.913127860155114" lon="11.29358091391228"><ele>477.66666666666663</ele><time>2026-04-26T15:24:00.999Z</time></trkpt><trkpt lat="45.913049523536145" lon="11.293783707512896"><ele>476.0</ele><time>2026-04-26T15:24:01.999Z</time></trkpt><trkpt lat="45.91295995401414" lon="11.29399753129988"><ele>476.0</ele><time>2026-04-26T15:24:02.999Z</time></trkpt><trkpt lat="45.91286956762773" lon="11.294210070243295"><ele>476.0</ele><time>2026-04-26T15:24:03.999Z</time></trkpt><trkpt lat="45.91277933745614" lon="11.294405340315265"><ele>476.0</ele><time>2026-04-26T15:24:04.998Z</time></trkpt><trkpt lat="45.91267473179801" lon="11.294592349583981"><ele>476.3333333333333</ele><time>2026-04-26T15:24:05.998Z</time></trkpt><trkpt lat="45.91255565919798" lon="11.294771201892065"><ele>476.66666666666663</ele><time>2026-04-26T15:24:06.998Z</time></trkpt><trkpt lat="45.912429554379706" lon="11.294960483494862"><ele>477.0</ele><time>2026-04-26T15:24:07.998Z</time></trkpt><trkpt lat="45.91230728055395" lon="11.295148288872246"><ele>477.0</ele><time>2026-04-26T15:24:08.998Z</time></trkpt><trkpt lat="45.912183975099715" lon="11.295339568825566"><ele>477.0</ele><time>2026-04-26T15:24:09.998Z</time></trkpt><trkpt lat="45.912069551936" lon="11.295517068580297"><ele>477.0</ele><time>2026-04-26T15:24:10.998Z</time></trkpt><trkpt lat="45.911943762742716" lon="11.295740612650983"><ele>477.33333333333337</ele><time>2026-04-26T15:24:11.998Z</time></trkpt><trkpt lat="45.911832823838594" lon="11.295971765340397"><ele>477.6666666666667</ele><time>2026-04-26T15:24:12.998Z</time></trkpt><trkpt lat="45.91173374638118" lon="11.296220084684022"><ele>478.0</ele><time>2026-04-26T15:24:13.998Z</time></trkpt><trkpt lat="45.91164008496821" lon="11.29648922620786"><ele>478.0</ele><time>2026-04-26T15:24:14.998Z</time></trkpt><trkpt lat="45.9115430636964" lon="11.296787280334376"><ele>478.0</ele><time>2026-04-26T15:24:15.998Z</time></trkpt><trkpt lat="45.91144335855799" lon="11.297085975054612"><ele>472.0</ele><time>2026-04-26T15:24:16.998Z</time></trkpt><trkpt lat="45.911342184633476" lon="11.297396771624483"><ele>466.0</ele><time>2026-04-26T15:24:17.998Z</time></trkpt><trkpt lat="45.91123741408729" lon="11.297712105332208"><ele>466.0</ele><time>2026-04-26T15:24:18.998Z</time></trkpt><trkpt lat="45.91112663072626" lon="11.298046066475298"><ele>466.0</ele><time>2026-04-26T15:24:19.998Z</time></trkpt><trkpt lat="45.91101650903179" lon="11.298382490883853"><ele>466.5</ele><time>2026-04-26T15:24:20.998Z</time></trkpt><trkpt lat="45.91090962151714" lon="11.298704361433968"><ele>467.0</ele><time>2026-04-26T15:24:21.998Z</time></trkpt><trkpt lat="45.91080581193258" lon="11.299012391715628"><ele>467.0</ele><time>2026-04-26T15:24:22.998Z</time></trkpt><trkpt lat="45.91070426657729" lon="11.29931157398773"><ele>467.0</ele><time>2026-04-26T15:24:23.998Z</time></trkpt><trkpt lat="45.91059803078965" lon="11.299608474977184"><ele>463.3333333333333</ele><time>2026-04-26T15:24:24.998Z</time></trkpt><trkpt lat="45.910487997552295" lon="11.299888330769056"><ele>459.66666666666663</ele><time>2026-04-26T15:24:25.998Z</time></trkpt><trkpt lat="45.910366030141155" lon="11.300160179353934"><ele>456.0</ele><time>2026-04-26T15:24:26.998Z</time></trkpt><trkpt lat="45.9102630118588" lon="11.300421078905227"><ele>456.0</ele><time>2026-04-26T15:24:27.998Z</time></trkpt><trkpt lat="45.91013367347116" lon="11.300650411195132"><ele>456.0</ele><time>2026-04-26T15:24:28.998Z</time></trkpt><trkpt lat="45.910017062694514" lon="11.300876299948808"><ele>456.0</ele><time>2026-04-26T15:24:29.998Z</time></trkpt><trkpt lat="45.90987256499272" lon="11.30110376343543"><ele>455.66666666666663</ele><time>2026-04-26T15:24:30.998Z</time></trkpt><trkpt lat="45.90972513402227" lon="11.301333800255911"><ele>455.3333333333333</ele><time>2026-04-26T15:24:31.998Z</time></trkpt><trkpt lat="45.909608127902494" lon="11.301573302876331"><ele>455.0</ele><time>2026-04-26T15:24:32.998Z</time></trkpt><trkpt lat="45.90948386504987" lon="11.301823912429189"><ele>455.0</ele><time>2026-04-26T15:24:33.998Z</time></trkpt><trkpt lat="45.90934600779126" lon="11.302070577976517"><ele>455.0</ele><time>2026-04-26T15:24:34.998Z</time></trkpt><trkpt lat="45.909242179045386" lon="11.302326164608498"><ele>455.0</ele><time>2026-04-26T15:24:35.998Z</time></trkpt><trkpt lat="45.90911565306932" lon="11.302548132325775"><ele>454.3333333333333</ele><time>2026-04-26T15:24:36.998Z</time></trkpt><trkpt lat="45.90900849468673" lon="11.302771420117928"><ele>453.66666666666663</ele><time>2026-04-26T15:24:37.998Z</time></trkpt><trkpt lat="45.90890317628999" lon="11.302992770473905"><ele>453.0</ele><time>2026-04-26T15:24:38.998Z</time></trkpt><trkpt lat="45.908816340736514" lon="11.30321607902642"><ele>453.0</ele><time>2026-04-26T15:24:39.998Z</time></trkpt><trkpt lat="45.9087045241923" lon="11.303405565088493"><ele>453.0</ele><time>2026-04-26T15:24:40.998Z</time></trkpt><trkpt lat="45.908608182786345" lon="11.30360480785678"><ele>453.0</ele><time>2026-04-26T15:24:41.998Z</time></trkpt><trkpt lat="45.908517285765" lon="11.303824264024119"><ele>453.66666666666663</ele><time>2026-04-26T15:24:42.998Z</time></trkpt><trkpt lat="45.90840750344712" lon="11.30402679268394"><ele>454.3333333333333</ele><time>2026-04-26T15:24:43.998Z</time></trkpt><trkpt lat="45.90826446312202" lon="11.304224457983697"><ele>455.0</ele><time>2026-04-26T15:24:44.998Z</time></trkpt><trkpt lat="45.90812284235189" lon="11.304450612101379"><ele>455.0</ele><time>2026-04-26T15:24:45.997Z</time></trkpt><trkpt lat="45.90797728195507" lon="11.304683057374435"><ele>455.0</ele><time>2026-04-26T15:24:46.997Z</time></trkpt><trkpt lat="45.90783707917603" lon="11.304906947085469"><ele>455.0</ele><time>2026-04-26T15:24:47.997Z</time></trkpt><trkpt lat="45.90771513725894" lon="11.305132627301191"><ele>454.3333333333333</ele><time>2026-04-26T15:24:48.997Z</time></trkpt><trkpt lat="45.90759329611808" lon="11.30534083624829"><ele>453.66666666666663</ele><time>2026-04-26T15:24:49.997Z</time></trkpt><trkpt lat="45.90748181545952" lon="11.305562807930874"><ele>453.0</ele><time>2026-04-26T15:24:50.997Z</time></trkpt><trkpt lat="45.90737818847453" lon="11.305810858051611"><ele>452.66666666666663</ele><time>2026-04-26T15:24:51.997Z</time></trkpt><trkpt lat="45.90729315315479" lon="11.306067859228563"><ele>452.3333333333333</ele><time>2026-04-26T15:24:52.997Z</time></trkpt><trkpt lat="45.90721915091356" lon="11.306326410971652"><ele>452.0</ele><time>2026-04-26T15:24:54Z</time></trkpt><trkpt lat="45.907161785595804" lon="11.306590368724024"><ele>450.3333333333333</ele><time>2026-04-26T15:24:55Z</time></trkpt><trkpt lat="45.90712181013484" lon="11.306843963819707"><ele>448.66666666666663</ele><time>2026-04-26T15:24:56Z</time></trkpt><trkpt lat="45.90709148665436" lon="11.307103351512424"><ele>447.0</ele><time>2026-04-26T15:24:57Z</time></trkpt><trkpt lat="45.90708739332612" lon="11.307383937882866"><ele>446.66666666666663</ele><time>2026-04-26T15:24:58Z</time></trkpt><trkpt lat="45.907091153035935" lon="11.307642592382894"><ele>446.3333333333333</ele><time>2026-04-26T15:24:59Z</time></trkpt><trkpt lat="45.907082946185874" lon="11.307953572795729"><ele>446.0</ele><time>2026-04-26T15:25:00Z</time></trkpt><trkpt lat="45.90709166895097" lon="11.308271752547586"><ele>445.0</ele><time>2026-04-26T15:25:01Z</time></trkpt><trkpt lat="45.907101825281714" lon="11.308597014633184"><ele>444.0</ele><time>2026-04-26T15:25:02Z</time></trkpt><trkpt lat="45.90711191236159" lon="11.308942289784962"><ele>443.0</ele><time>2026-04-26T15:25:03Z</time></trkpt><trkpt lat="45.90712134036165" lon="11.309279509444961"><ele>442.0</ele><time>2026-04-26T15:25:04Z</time></trkpt><trkpt lat="45.9071300906605" lon="11.309615956416746"><ele>443.0</ele><time>2026-04-26T15:25:05Z</time></trkpt><trkpt lat="45.907138807002404" lon="11.309948936721854"><ele>444.0</ele><time>2026-04-26T15:25:06Z</time></trkpt><trkpt lat="45.90714891170389" lon="11.310269047773337"><ele>444.0</ele><time>2026-04-26T15:25:07Z</time></trkpt><trkpt lat="45.907159646357336" lon="11.310571157266804"><ele>444.0</ele><time>2026-04-26T15:25:08Z</time></trkpt><trkpt lat="45.90716980688356" lon="11.310857127494787"><ele>444.0</ele><time>2026-04-26T15:25:09Z</time></trkpt><trkpt lat="45.9071787575846" lon="11.31110904694276"><ele>443.33333333333337</ele><time>2026-04-26T15:25:10Z</time></trkpt><trkpt lat="45.90718728723077" lon="11.31134911574781"><ele>442.6666666666667</ele><time>2026-04-26T15:25:11Z</time></trkpt><trkpt lat="45.907228127622325" lon="11.311569522434915"><ele>442.0</ele><time>2026-04-26T15:25:12Z</time></trkpt><trkpt lat="45.90724153061863" lon="11.311772238155534"><ele>442.0</ele><time>2026-04-26T15:25:13Z</time></trkpt><trkpt lat="45.90726349012722" lon="11.311967610475394"><ele>442.0</ele><time>2026-04-26T15:25:14Z</time></trkpt><trkpt lat="45.90727685632638" lon="11.31215730582799"><ele>442.0</ele><time>2026-04-26T15:25:15Z</time></trkpt><trkpt lat="45.907287715037" lon="11.312337088457285"><ele>442.0</ele><time>2026-04-26T15:25:16Z</time></trkpt><trkpt lat="45.9073068261511" lon="11.312501396980599"><ele>442.5</ele><time>2026-04-26T15:25:17Z</time></trkpt><trkpt lat="45.90732369995512" lon="11.312658463107004"><ele>443.0</ele><time>2026-04-26T15:25:18Z</time></trkpt><trkpt lat="45.907340026072895" lon="11.312824954785347"><ele>443.5</ele><time>2026-04-26T15:25:19Z</time></trkpt><trkpt lat="45.907353471057206" lon="11.312992259183785"><ele>444.0</ele><time>2026-04-26T15:25:20Z</time></trkpt><trkpt lat="45.907367830796154" lon="11.313149553671735"><ele>444.0</ele><time>2026-04-26T15:25:21Z</time></trkpt><trkpt lat="45.9073860435282" lon="11.313295268126026"><ele>444.0</ele><time>2026-04-26T15:25:22Z</time></trkpt><trkpt lat="45.90740565144102" lon="11.31343891492344"><ele>444.0</ele><time>2026-04-26T15:25:23Z</time></trkpt><trkpt lat="45.907416423401656" lon="11.313572077649665"><ele>444.0</ele><time>2026-04-26T15:25:24Z</time></trkpt><trkpt lat="45.90740259151181" lon="11.31368873585745"><ele>444.0</ele><time>2026-04-26T15:25:24.999Z</time></trkpt><trkpt lat="45.90734918489955" lon="11.313779789317786"><ele>444.0</ele><time>2026-04-26T15:25:25.999Z</time></trkpt><trkpt lat="45.907269892237" lon="11.313826687714371"><ele>444.0</ele><time>2026-04-26T15:25:26.999Z</time></trkpt><trkpt lat="45.90717592441588" lon="11.313812193860196"><ele>444.0</ele><time>2026-04-26T15:25:27.999Z</time></trkpt><trkpt lat="45.907077688635425" lon="11.31374864003599"><ele>444.0</ele><time>2026-04-26T15:25:28.999Z</time></trkpt><trkpt lat="45.906974202377384" lon="11.313664780567835"><ele>444.0</ele><time>2026-04-26T15:25:29.999Z</time></trkpt><trkpt lat="45.9068609360389" lon="11.313590688634655"><ele>445.25</ele><time>2026-04-26T15:25:30.999Z</time></trkpt><trkpt lat="45.906726254785774" lon="11.313526686811052"><ele>446.5</ele><time>2026-04-26T15:25:31.999Z</time></trkpt><trkpt lat="45.90659233991796" lon="11.313463029010709"><ele>447.75</ele><time>2026-04-26T15:25:32.999Z</time></trkpt><trkpt lat="45.90645851236693" lon="11.31339746229032"><ele>449.0</ele><time>2026-04-26T15:25:33.999Z</time></trkpt><trkpt lat="45.90632296229852" lon="11.313334549265681"><ele>449.0</ele><time>2026-04-26T15:25:34.999Z</time></trkpt><trkpt lat="45.90619082964313" lon="11.313277812144687"><ele>449.0</ele><time>2026-04-26T15:25:35.999Z</time></trkpt><trkpt lat="45.90605444039599" lon="11.313236991795426"><ele>449.0</ele><time>2026-04-26T15:25:36.999Z</time></trkpt><trkpt lat="45.905912500681374" lon="11.313218045415942"><ele>449.0</ele><time>2026-04-26T15:25:37.999Z</time></trkpt><trkpt lat="45.905764696346914" lon="11.31323360721938"><ele>446.0</ele><time>2026-04-26T15:25:38.999Z</time></trkpt><trkpt lat="45.905615726610144" lon="11.313277584692784"><ele>443.0</ele><time>2026-04-26T15:25:39.999Z</time></trkpt><trkpt lat="45.90546549588832" lon="11.313349761029952"><ele>440.0</ele><time>2026-04-26T15:25:40.999Z</time></trkpt><trkpt lat="45.905312544444115" lon="11.313465299759228"><ele>440.0</ele><time>2026-04-26T15:25:41.999Z</time></trkpt><trkpt lat="45.905175200444205" lon="11.313595897207014"><ele>440.0</ele><time>2026-04-26T15:25:42.999Z</time></trkpt><trkpt lat="45.905036900313064" lon="11.313737152378538"><ele>440.0</ele><time>2026-04-26T15:25:43.999Z</time></trkpt><trkpt lat="45.90490388121519" lon="11.313870187381081"><ele>438.66666666666663</ele><time>2026-04-26T15:25:44.999Z</time></trkpt><trkpt lat="45.904772807086424" lon="11.313994584301952"><ele>437.33333333333337</ele><time>2026-04-26T15:25:45.999Z</time></trkpt><trkpt lat="45.904632717791024" lon="11.314137875819785"><ele>436.0</ele><time>2026-04-26T15:25:46.999Z</time></trkpt><trkpt lat="45.904484266597805" lon="11.314301617687482"><ele>436.0</ele><time>2026-04-26T15:25:47.999Z</time></trkpt><trkpt lat="45.90430827011218" lon="11.314483771250687"><ele>436.0</ele><time>2026-04-26T15:25:48.999Z</time></trkpt><trkpt lat="45.90410867252189" lon="11.314664099424391"><ele>437.33333333333337</ele><time>2026-04-26T15:25:49.999Z</time></trkpt><trkpt lat="45.9039101283101" lon="11.314841117778254"><ele>438.66666666666663</ele><time>2026-04-26T15:25:50.999Z</time></trkpt><trkpt lat="45.903733509615556" lon="11.315018831101135"><ele>440.0</ele><time>2026-04-26T15:25:51.999Z</time></trkpt><trkpt lat="45.90358259058752" lon="11.315221261825235"><ele>440.0</ele><time>2026-04-26T15:25:52.999Z</time></trkpt><trkpt lat="45.903450834431844" lon="11.315431327830426"><ele>440.0</ele><time>2026-04-26T15:25:53.999Z</time></trkpt><trkpt lat="45.903343892295396" lon="11.315662763677405"><ele>440.0</ele><time>2026-04-26T15:25:54.999Z</time></trkpt><trkpt lat="45.903255966112546" lon="11.315895420189984"><ele>439.3333333333333</ele><time>2026-04-26T15:25:55.999Z</time></trkpt><trkpt lat="45.903188207812406" lon="11.316145352257756"><ele>438.66666666666663</ele><time>2026-04-26T15:25:56.999Z</time></trkpt><trkpt lat="45.90315122957055" lon="11.316408081860056"><ele>438.0</ele><time>2026-04-26T15:25:57.999Z</time></trkpt><trkpt lat="45.90313953332663" lon="11.31668203396549"><ele>438.0</ele><time>2026-04-26T15:25:58.999Z</time></trkpt><trkpt lat="45.90314160332415" lon="11.316969232330543"><ele>438.0</ele><time>2026-04-26T15:25:59.999Z</time></trkpt><trkpt lat="45.90314076972976" lon="11.317251377111583"><ele>438.0</ele><time>2026-04-26T15:26:00.999Z</time></trkpt><trkpt lat="45.90316030538866" lon="11.31752116065659"><ele>438.0</ele><time>2026-04-26T15:26:01.999Z</time></trkpt><trkpt lat="45.903199532702075" lon="11.3177793460191"><ele>438.0</ele><time>2026-04-26T15:26:02.999Z</time></trkpt><trkpt lat="45.903254468888555" lon="11.318015887902748"><ele>438.0</ele><time>2026-04-26T15:26:03.999Z</time></trkpt><trkpt lat="45.90324725215418" lon="11.318273778940716"><ele>437.5</ele><time>2026-04-26T15:26:04.999Z</time></trkpt><trkpt lat="45.903305648812896" lon="11.318481024732744"><ele>437.0</ele><time>2026-04-26T15:26:05.999Z</time></trkpt><trkpt lat="45.90334858075859" lon="11.318668708058764"><ele>436.5</ele><time>2026-04-26T15:26:06.999Z</time></trkpt><trkpt lat="45.903429473444845" lon="11.318829618326674"><ele>436.0</ele><time>2026-04-26T15:26:07.999Z</time></trkpt><trkpt lat="45.90339877911376" lon="11.319013551509276"><ele>435.6666666666667</ele><time>2026-04-26T15:26:08.998Z</time></trkpt><trkpt lat="45.90335529860802" lon="11.319197889197243"><ele>435.33333333333337</ele><time>2026-04-26T15:26:09.998Z</time></trkpt><trkpt lat="45.903311885067104" lon="11.31940714776076"><ele>435.0</ele><time>2026-04-26T15:26:10.998Z</time></trkpt><trkpt lat="45.903244451593935" lon="11.31962279453375"><ele>432.66666666666663</ele><time>2026-04-26T15:26:11.998Z</time></trkpt><trkpt lat="45.903176015186055" lon="11.319855121627722"><ele>430.3333333333333</ele><time>2026-04-26T15:26:12.998Z</time></trkpt><trkpt lat="45.9031018781322" lon="11.320100496480672"><ele>428.0</ele><time>2026-04-26T15:26:13.998Z</time></trkpt><trkpt lat="45.90302344593623" lon="11.320358712274743"><ele>426.66666666666663</ele><time>2026-04-26T15:26:14.998Z</time></trkpt><trkpt lat="45.9029440394167" lon="11.320628175466995"><ele>425.33333333333337</ele><time>2026-04-26T15:26:15.998Z</time></trkpt><trkpt lat="45.90286058248008" lon="11.32088781011484"><ele>424.0</ele><time>2026-04-26T15:26:16.998Z</time></trkpt><trkpt lat="45.90278396344968" lon="11.321066626621114"><ele>424.0</ele><time>2026-04-26T15:26:17.998Z</time></trkpt><trkpt lat="45.90269768334143" lon="11.321189423313342"><ele>424.0</ele><time>2026-04-26T15:26:18.998Z</time></trkpt><trkpt lat="45.90256690751931" lon="11.321791811403088"><ele>428.5</ele><time>2026-04-26T15:26:19.998Z</time></trkpt><trkpt lat="45.90245882822508" lon="11.322113451072003"><ele>433.0</ele><time>2026-04-26T15:26:20.998Z</time></trkpt><trkpt lat="45.90234198993747" lon="11.322437131778857"><ele>433.0</ele><time>2026-04-26T15:26:21.998Z</time></trkpt><trkpt lat="45.90221685194931" lon="11.322761693727973"><ele>433.0</ele><time>2026-04-26T15:26:22.998Z</time></trkpt><trkpt lat="45.9020877479852" lon="11.323089525673005"><ele>428.0</ele><time>2026-04-26T15:26:23.998Z</time></trkpt><trkpt lat="45.90195537907153" lon="11.323422894957416"><ele>423.0</ele><time>2026-04-26T15:26:24.998Z</time></trkpt><trkpt lat="45.901820945577875" lon="11.323759180211079"><ele>430.0</ele><time>2026-04-26T15:26:25.998Z</time></trkpt><trkpt lat="45.90168675604065" lon="11.32409497491365"><ele>437.0</ele><time>2026-04-26T15:26:26.998Z</time></trkpt><trkpt lat="45.90155377365391" lon="11.324428585677081"><ele>430.5</ele><time>2026-04-26T15:26:27.998Z</time></trkpt><trkpt lat="45.90142344238563" lon="11.324757043951188"><ele>424.0</ele><time>2026-04-26T15:26:28.998Z</time></trkpt><trkpt lat="45.901295568838634" lon="11.325079316891236"><ele>424.0</ele><time>2026-04-26T15:26:29.998Z</time></trkpt><trkpt lat="45.90117105861449" lon="11.325393751904473"><ele>424.0</ele><time>2026-04-26T15:26:30.998Z</time></trkpt><trkpt lat="45.90105017862778" lon="11.32569901901866"><ele>420.5</ele><time>2026-04-26T15:26:31.998Z</time></trkpt><trkpt lat="45.90093145076567" lon="11.325998851253031"><ele>417.0</ele><time>2026-04-26T15:26:32.998Z</time></trkpt><trkpt lat="45.900815849915915" lon="11.326292079654493"><ele>422.0</ele><time>2026-04-26T15:26:33.998Z</time></trkpt><trkpt lat="45.900701414055774" lon="11.32657847654519"><ele>427.0</ele><time>2026-04-26T15:26:34.998Z</time></trkpt><trkpt lat="45.90058744999977" lon="11.326849933074921"><ele>427.0</ele><time>2026-04-26T15:26:35.998Z</time></trkpt><trkpt lat="45.90046055196182" lon="11.327105519295529"><ele>427.0</ele><time>2026-04-26T15:26:36.998Z</time></trkpt><trkpt lat="45.90031899405253" lon="11.327348022089573"><ele>427.0</ele><time>2026-04-26T15:26:37.998Z</time></trkpt><trkpt lat="45.90016741415689" lon="11.327600166733847"><ele>423.0</ele><time>2026-04-26T15:26:38.998Z</time></trkpt><trkpt lat="45.90001305951702" lon="11.327855616907677"><ele>419.0</ele><time>2026-04-26T15:26:39.998Z</time></trkpt><trkpt lat="45.89985231136682" lon="11.328124155599923"><ele>419.0</ele><time>2026-04-26T15:26:40.998Z</time></trkpt><trkpt lat="45.899686924228" lon="11.328400443615433"><ele>419.0</ele><time>2026-04-26T15:26:41.998Z</time></trkpt><trkpt lat="45.899512289585886" lon="11.328692180260877"><ele>420.5</ele><time>2026-04-26T15:26:42.998Z</time></trkpt><trkpt lat="45.89933944495504" lon="11.329013777768346"><ele>422.0</ele><time>2026-04-26T15:26:43.998Z</time></trkpt><trkpt lat="45.899162588664986" lon="11.32930790085633"><ele>422.0</ele><time>2026-04-26T15:26:44.998Z</time></trkpt><trkpt lat="45.89898636569775" lon="11.329602620306455"><ele>422.0</ele><time>2026-04-26T15:26:45.998Z</time></trkpt><trkpt lat="45.89881449314231" lon="11.329896529212212"><ele>419.0</ele><time>2026-04-26T15:26:46.998Z</time></trkpt><trkpt lat="45.89864615186072" lon="11.330181297432413"><ele>416.0</ele><time>2026-04-26T15:26:47.998Z</time></trkpt><trkpt lat="45.89848758720204" lon="11.330449220730744"><ele>417.0</ele><time>2026-04-26T15:26:48.998Z</time></trkpt><trkpt lat="45.89833174933185" lon="11.330694365354274"><ele>418.0</ele><time>2026-04-26T15:26:49.998Z</time></trkpt><trkpt lat="45.89819570596959" lon="11.330952807785986"><ele>418.0</ele><time>2026-04-26T15:26:50.997Z</time></trkpt><trkpt lat="45.89807279342218" lon="11.331226193220944"><ele>418.0</ele><time>2026-04-26T15:26:51.997Z</time></trkpt><trkpt lat="45.89792621409205" lon="11.331472261292413"><ele>415.6666666666667</ele><time>2026-04-26T15:26:52.997Z</time></trkpt><trkpt lat="45.89785174696836" lon="11.33178703423047"><ele>413.33333333333337</ele><time>2026-04-26T15:26:53.997Z</time></trkpt><trkpt lat="45.89774420017786" lon="11.332059630062977"><ele>411.0</ele><time>2026-04-26T15:26:54.997Z</time></trkpt><trkpt lat="45.897646345941745" lon="11.332320032714636"><ele>412.0</ele><time>2026-04-26T15:26:55.997Z</time></trkpt><trkpt lat="45.89755101480104" lon="11.332560248780293"><ele>413.0</ele><time>2026-04-26T15:26:56.997Z</time></trkpt><trkpt lat="45.89746256549266" lon="11.332780265852103"><ele>414.0</ele><time>2026-04-26T15:26:57.997Z</time></trkpt><trkpt lat="45.8973722468018" lon="11.332982369221504"><ele>412.0</ele><time>2026-04-26T15:26:58.997Z</time></trkpt><trkpt lat="45.89727441148161" lon="11.333177873914611"><ele>410.0</ele><time>2026-04-26T15:27:00Z</time></trkpt><trkpt lat="45.897158807938325" lon="11.333337876534545"><ele>408.0</ele><time>2026-04-26T15:27:01Z</time></trkpt><trkpt lat="45.89702828394849" lon="11.333464511755434"><ele>408.0</ele><time>2026-04-26T15:27:02Z</time></trkpt><trkpt lat="45.89689596231143" lon="11.333561393288655"><ele>408.0</ele><time>2026-04-26T15:27:03Z</time></trkpt><trkpt lat="45.89674183501794" lon="11.333643724272989"><ele>408.0</ele><time>2026-04-26T15:27:04Z</time></trkpt><trkpt lat="45.8965729376666" lon="11.333719806528675"><ele>407.66666666666663</ele><time>2026-04-26T15:27:05Z</time></trkpt><trkpt lat="45.896402138256214" lon="11.333803772607336"><ele>407.3333333333333</ele><time>2026-04-26T15:27:06Z</time></trkpt><trkpt lat="45.8962223448064" lon="11.333905641153205"><ele>407.0</ele><time>2026-04-26T15:27:07Z</time></trkpt><trkpt lat="45.89604688417136" lon="11.334001841633041"><ele>409.66666666666663</ele><time>2026-04-26T15:27:08Z</time></trkpt><trkpt lat="45.895887500857945" lon="11.334081908165038"><ele>412.33333333333337</ele><time>2026-04-26T15:27:09Z</time></trkpt><trkpt lat="45.89572885134463" lon="11.334163472259384"><ele>415.0</ele><time>2026-04-26T15:27:10Z</time></trkpt><trkpt lat="45.89556695076678" lon="11.334290893520226"><ele>415.0</ele><time>2026-04-26T15:27:11Z</time></trkpt><trkpt lat="45.895430428185044" lon="11.334442020794054"><ele>415.0</ele><time>2026-04-26T15:27:12Z</time></trkpt><trkpt lat="45.8952991699081" lon="11.334664130397378"><ele>415.0</ele><time>2026-04-26T15:27:13Z</time></trkpt><trkpt lat="45.895183968946405" lon="11.33489747665806"><ele>415.0</ele><time>2026-04-26T15:27:14Z</time></trkpt><trkpt lat="45.89508362486491" lon="11.335139130769356"><ele>415.0</ele><time>2026-04-26T15:27:15Z</time></trkpt><trkpt lat="45.895016851327206" lon="11.335386979703598"><ele>415.0</ele><time>2026-04-26T15:27:16Z</time></trkpt><trkpt lat="45.89499262194152" lon="11.335643449525817"><ele>415.0</ele><time>2026-04-26T15:27:17Z</time></trkpt><trkpt lat="45.894992612803875" lon="11.335900454045658"><ele>415.0</ele><time>2026-04-26T15:27:18Z</time></trkpt><trkpt lat="45.895014076073195" lon="11.33616614906845"><ele>415.0</ele><time>2026-04-26T15:27:19Z</time></trkpt><trkpt lat="45.89502264004603" lon="11.336430569890274"><ele>414.6666666666667</ele><time>2026-04-26T15:27:20Z</time></trkpt><trkpt lat="45.894998993653715" lon="11.336697341288694"><ele>414.33333333333337</ele><time>2026-04-26T15:27:21Z</time></trkpt><trkpt lat="45.89494653123923" lon="11.336979099405909"><ele>414.0</ele><time>2026-04-26T15:27:22Z</time></trkpt><trkpt lat="45.89489563300373" lon="11.337258163342854"><ele>414.0</ele><time>2026-04-26T15:27:23Z</time></trkpt><trkpt lat="45.89487951496169" lon="11.337550824080262"><ele>414.0</ele><time>2026-04-26T15:27:24Z</time></trkpt><trkpt lat="45.8948752430087" lon="11.337843337195466"><ele>414.0</ele><time>2026-04-26T15:27:25Z</time></trkpt><trkpt lat="45.89488436357146" lon="11.338146050778821"><ele>413.0</ele><time>2026-04-26T15:27:26Z</time></trkpt><trkpt lat="45.89489264053665" lon="11.338449965517897"><ele>412.0</ele><time>2026-04-26T15:27:27Z</time></trkpt><trkpt lat="45.89490108761751" lon="11.338749286317752"><ele>411.0</ele><time>2026-04-26T15:27:28Z</time></trkpt><trkpt lat="45.894907444971615" lon="11.339042081351995"><ele>410.0</ele><time>2026-04-26T15:27:29Z</time></trkpt><trkpt lat="45.89490994018222" lon="11.339337688642418"><ele>409.0</ele><time>2026-04-26T15:27:30Z</time></trkpt><trkpt lat="45.8949001011712" lon="11.339636133884257"><ele>408.0</ele><time>2026-04-26T15:27:30.999Z</time></trkpt><trkpt lat="45.89487739119102" lon="11.339932914904487"><ele>406.33333333333337</ele><time>2026-04-26T15:27:31.999Z</time></trkpt><trkpt lat="45.8948503437382" lon="11.340219515862414"><ele>404.6666666666667</ele><time>2026-04-26T15:27:32.999Z</time></trkpt><trkpt lat="45.894824623090955" lon="11.340508113971111"><ele>403.0</ele><time>2026-04-26T15:27:33.999Z</time></trkpt><trkpt lat="45.894802152519574" lon="11.34078955744181"><ele>402.0</ele><time>2026-04-26T15:27:34.999Z</time></trkpt><trkpt lat="45.89478068426923" lon="11.34107442735949"><ele>401.0</ele><time>2026-04-26T15:27:35.999Z</time></trkpt><trkpt lat="45.89475997639772" lon="11.341352726170141"><ele>400.0</ele><time>2026-04-26T15:27:36.999Z</time></trkpt><trkpt lat="45.894741203628186" lon="11.341630154162438"><ele>399.6666666666667</ele><time>2026-04-26T15:27:37.999Z</time></trkpt><trkpt lat="45.89471617691183" lon="11.341904030147095"><ele>399.33333333333337</ele><time>2026-04-26T15:27:38.999Z</time></trkpt><trkpt lat="45.894672991659604" lon="11.342172521884127"><ele>399.0</ele><time>2026-04-26T15:27:39.999Z</time></trkpt><trkpt lat="45.89461162649719" lon="11.34243994821995"><ele>399.0</ele><time>2026-04-26T15:27:40.999Z</time></trkpt><trkpt lat="45.89453220165289" lon="11.342706925238634"><ele>399.0</ele><time>2026-04-26T15:27:41.999Z</time></trkpt><trkpt lat="45.8944392715978" lon="11.342971672803696"><ele>399.0</ele><time>2026-04-26T15:27:42.999Z</time></trkpt><trkpt lat="45.89435323268904" lon="11.343227468120974"><ele>398.0</ele><time>2026-04-26T15:27:43.999Z</time></trkpt><trkpt lat="45.89427164882496" lon="11.343480775558461"><ele>397.0</ele><time>2026-04-26T15:27:44.999Z</time></trkpt><trkpt lat="45.89419005157932" lon="11.343733681506183"><ele>396.0</ele><time>2026-04-26T15:27:45.999Z</time></trkpt><trkpt lat="45.89410489976411" lon="11.343998499341884"><ele>394.66666666666663</ele><time>2026-04-26T15:27:46.999Z</time></trkpt><trkpt lat="45.89402035152482" lon="11.344263043343961"><ele>393.3333333333333</ele><time>2026-04-26T15:27:47.999Z</time></trkpt><trkpt lat="45.89392016432354" lon="11.344521374012878"><ele>392.0</ele><time>2026-04-26T15:27:48.999Z</time></trkpt><trkpt lat="45.89380203574803" lon="11.344760645006117"><ele>389.66666666666663</ele><time>2026-04-26T15:27:49.999Z</time></trkpt><trkpt lat="45.89367886925856" lon="11.34498529116901"><ele>387.33333333333337</ele><time>2026-04-26T15:27:50.999Z</time></trkpt><trkpt lat="45.89355848565358" lon="11.345195562961456"><ele>385.0</ele><time>2026-04-26T15:27:51.999Z</time></trkpt><trkpt lat="45.89344170024909" lon="11.345399413198825"><ele>384.6666666666667</ele><time>2026-04-26T15:27:52.999Z</time></trkpt><trkpt lat="45.89331415364628" lon="11.345588232811437"><ele>384.33333333333337</ele><time>2026-04-26T15:27:53.999Z</time></trkpt><trkpt lat="45.89317150532536" lon="11.345736793192708"><ele>384.0</ele><time>2026-04-26T15:27:54.999Z</time></trkpt><trkpt lat="45.89302691787055" lon="11.345858218688658"><ele>384.0</ele><time>2026-04-26T15:27:55.999Z</time></trkpt><trkpt lat="45.89287636131595" lon="11.345949530272355"><ele>384.0</ele><time>2026-04-26T15:27:56.999Z</time></trkpt><trkpt lat="45.89271807769552" lon="11.346001031045002"><ele>384.0</ele><time>2026-04-26T15:27:57.999Z</time></trkpt><trkpt lat="45.892567125105664" lon="11.346063412532969"><ele>386.0</ele><time>2026-04-26T15:27:58.999Z</time></trkpt><trkpt lat="45.89243672255141" lon="11.346179307144213"><ele>388.0</ele><time>2026-04-26T15:27:59.999Z</time></trkpt><trkpt lat="45.892326141891786" lon="11.34634960546656"><ele>390.0</ele><time>2026-04-26T15:28:00.999Z</time></trkpt><trkpt lat="45.89224229845228" lon="11.346553087971369"><ele>386.0</ele><time>2026-04-26T15:28:01.999Z</time></trkpt><trkpt lat="45.89216562817977" lon="11.346773169647204"><ele>382.0</ele><time>2026-04-26T15:28:02.999Z</time></trkpt><trkpt lat="45.89209924447574" lon="11.346998012924987"><ele>378.0</ele><time>2026-04-26T15:28:03.999Z</time></trkpt><trkpt lat="45.89204957626376" lon="11.347239289063122"><ele>375.0</ele><time>2026-04-26T15:28:04.999Z</time></trkpt><trkpt lat="45.89202061867751" lon="11.347491509373048"><ele>372.0</ele><time>2026-04-26T15:28:05.999Z</time></trkpt><trkpt lat="45.891991220674385" lon="11.347759645962446"><ele>369.0</ele><time>2026-04-26T15:28:06.999Z</time></trkpt><trkpt lat="45.891960250641596" lon="11.348031996412653"><ele>367.6666666666667</ele><time>2026-04-26T15:28:07.999Z</time></trkpt><trkpt lat="45.89193060996588" lon="11.348304918198135"><ele>366.33333333333337</ele><time>2026-04-26T15:28:08.999Z</time></trkpt><trkpt lat="45.89189898452721" lon="11.348574537603017"><ele>365.0</ele><time>2026-04-26T15:28:09.999Z</time></trkpt><trkpt lat="45.89186813090044" lon="11.348828608750573"><ele>365.0</ele><time>2026-04-26T15:28:10.999Z</time></trkpt><trkpt lat="45.891838011580504" lon="11.349084497168505"><ele>365.0</ele><time>2026-04-26T15:28:11.999Z</time></trkpt><trkpt lat="45.891798515791045" lon="11.349313019479016"><ele>365.0</ele><time>2026-04-26T15:28:12.999Z</time></trkpt><trkpt lat="45.89175330720599" lon="11.349532903275513"><ele>366.6666666666667</ele><time>2026-04-26T15:28:13.999Z</time></trkpt><trkpt lat="45.891701775649594" lon="11.349750803084973"><ele>368.3333333333333</ele><time>2026-04-26T15:28:14.998Z</time></trkpt><trkpt lat="45.891646883756806" lon="11.349960451737864"><ele>370.0</ele><time>2026-04-26T15:28:15.998Z</time></trkpt><trkpt lat="45.89159077648215" lon="11.350156346049593"><ele>370.0</ele><time>2026-04-26T15:28:16.998Z</time></trkpt><trkpt lat="45.8915100894302" lon="11.35033375890997"><ele>370.0</ele><time>2026-04-26T15:28:17.998Z</time></trkpt><trkpt lat="45.89142950893702" lon="11.35051309893065"><ele>370.0</ele><time>2026-04-26T15:28:18.998Z</time></trkpt><trkpt lat="45.891341520304614" lon="11.350680826111258"><ele>370.0</ele><time>2026-04-26T15:28:19.998Z</time></trkpt><trkpt lat="45.89126676931568" lon="11.35084193955244"><ele>368.0</ele><time>2026-04-26T15:28:20.998Z</time></trkpt><trkpt lat="45.89117095207065" lon="11.350980813997793"><ele>366.0</ele><time>2026-04-26T15:28:21.998Z</time></trkpt><trkpt lat="45.89105256927278" lon="11.351069571338863"><ele>364.0</ele><time>2026-04-26T15:28:22.998Z</time></trkpt><trkpt lat="45.89092502774643" lon="11.351138915016405"><ele>362.0</ele><time>2026-04-26T15:28:23.998Z</time></trkpt><trkpt lat="45.89079420693212" lon="11.351226704599313"><ele>362.0</ele><time>2026-04-26T15:28:24.998Z</time></trkpt><trkpt lat="45.890651050015315" lon="11.351289963225405"><ele>362.0</ele><time>2026-04-26T15:28:25.998Z</time></trkpt><trkpt lat="45.890513410922" lon="11.351356802964032"><ele>362.0</ele><time>2026-04-26T15:28:26.998Z</time></trkpt><trkpt lat="45.89038237695498" lon="11.351417768086007"><ele>362.0</ele><time>2026-04-26T15:28:27.998Z</time></trkpt><trkpt lat="45.890251767429724" lon="11.351485491741515"><ele>362.0</ele><time>2026-04-26T15:28:28.998Z</time></trkpt><trkpt lat="45.890120885054856" lon="11.351564129044542"><ele>362.0</ele><time>2026-04-26T15:28:29.998Z</time></trkpt><trkpt lat="45.8899886458694" lon="11.351650975999823"><ele>362.0</ele><time>2026-04-26T15:28:30.998Z</time></trkpt><trkpt lat="45.88986891160423" lon="11.35174507130937"><ele>362.0</ele><time>2026-04-26T15:28:31.998Z</time></trkpt><trkpt lat="45.88975024970436" lon="11.351844990094001"><ele>361.5</ele><time>2026-04-26T15:28:32.998Z</time></trkpt><trkpt lat="45.88963318201754" lon="11.351950616875895"><ele>361.0</ele><time>2026-04-26T15:28:33.998Z</time></trkpt><trkpt lat="45.88951806306605" lon="11.352061022256501"><ele>360.5</ele><time>2026-04-26T15:28:34.998Z</time></trkpt><trkpt lat="45.88941177181875" lon="11.352165585377824"><ele>360.0</ele><time>2026-04-26T15:28:35.998Z</time></trkpt><trkpt lat="45.88930961862876" lon="11.352253294552272"><ele>360.2</ele><time>2026-04-26T15:28:36.998Z</time></trkpt><trkpt lat="45.88921361619736" lon="11.35234469139328"><ele>360.4</ele><time>2026-04-26T15:28:37.998Z</time></trkpt><trkpt lat="45.8891213718288" lon="11.352425364768841"><ele>360.6</ele><time>2026-04-26T15:28:38.998Z</time></trkpt><trkpt lat="45.889034911898555" lon="11.352504336407922"><ele>360.8</ele><time>2026-04-26T15:28:39.998Z</time></trkpt><trkpt lat="45.88895253485033" lon="11.352578343525385"><ele>361.0</ele><time>2026-04-26T15:28:40.998Z</time></trkpt><trkpt lat="45.88887374212505" lon="11.35265194337091"><ele>361.0</ele><time>2026-04-26T15:28:41.998Z</time></trkpt><trkpt lat="45.88879682383709" lon="11.352724212350903"><ele>361.0</ele><time>2026-04-26T15:28:42.998Z</time></trkpt><trkpt lat="45.888714998851476" lon="11.352804719134289"><ele>361.0</ele><time>2026-04-26T15:28:43.998Z</time></trkpt><trkpt lat="45.888629638898124" lon="11.35288942056656"><ele>361.0</ele><time>2026-04-26T15:28:44.998Z</time></trkpt><trkpt lat="45.8885354668715" lon="11.352962773152784"><ele>361.0</ele><time>2026-04-26T15:28:45.998Z</time></trkpt><trkpt lat="45.88842649991435" lon="11.353021181659182"><ele>360.20000000000005</ele><time>2026-04-26T15:28:46.998Z</time></trkpt><trkpt lat="45.88830609840454" lon="11.353048234746309"><ele>359.40000000000003</ele><time>2026-04-26T15:28:47.998Z</time></trkpt><trkpt lat="45.88819761420823" lon="11.353065827980663"><ele>358.6</ele><time>2026-04-26T15:28:48.998Z</time></trkpt><trkpt lat="45.88810270407188" lon="11.353086263937715"><ele>357.8</ele><time>2026-04-26T15:28:49.998Z</time></trkpt><trkpt lat="45.888012355523614" lon="11.353108398824995"><ele>357.0</ele><time>2026-04-26T15:28:50.998Z</time></trkpt><trkpt lat="45.8879250015312" lon="11.35313392978645"><ele>357.0</ele><time>2026-04-26T15:28:51.998Z</time></trkpt><trkpt lat="45.88783345424477" lon="11.35314841517268"><ele>357.0</ele><time>2026-04-26T15:28:52.998Z</time></trkpt><trkpt lat="45.88773053425488" lon="11.353185044602693"><ele>357.0</ele><time>2026-04-26T15:28:53.998Z</time></trkpt><trkpt lat="45.88761731850734" lon="11.35321340259751"><ele>357.0</ele><time>2026-04-26T15:28:54.998Z</time></trkpt><trkpt lat="45.88750111675565" lon="11.353258908648794"><ele>357.0</ele><time>2026-04-26T15:28:55.998Z</time></trkpt><trkpt lat="45.887377337037" lon="11.353313603464935"><ele>357.5</ele><time>2026-04-26T15:28:56.998Z</time></trkpt><trkpt lat="45.88724723683862" lon="11.35338104925847"><ele>358.0</ele><time>2026-04-26T15:28:57.998Z</time></trkpt><trkpt lat="45.88711291819843" lon="11.353474667056354"><ele>358.5</ele><time>2026-04-26T15:28:58.997Z</time></trkpt><trkpt lat="45.886979014051384" lon="11.353586099705835"><ele>359.0</ele><time>2026-04-26T15:28:59.997Z</time></trkpt><trkpt lat="45.886844660620476" lon="11.353702522289188"><ele>358.0</ele><time>2026-04-26T15:29:00.997Z</time></trkpt><trkpt lat="45.88671214417704" lon="11.353823928449282"><ele>357.0</ele><time>2026-04-26T15:29:01.997Z</time></trkpt><trkpt lat="45.886567863075975" lon="11.353973960553498"><ele>356.0</ele><time>2026-04-26T15:29:02.997Z</time></trkpt><trkpt lat="45.886433802317846" lon="11.35412334772353"><ele>356.0</ele><time>2026-04-26T15:29:03.997Z</time></trkpt><trkpt lat="45.886304506815236" lon="11.354268812861472"><ele>356.0</ele><time>2026-04-26T15:29:04.997Z</time></trkpt><trkpt lat="45.88618620070292" lon="11.354402831120124"><ele>356.0</ele><time>2026-04-26T15:29:06Z</time></trkpt><trkpt lat="45.88607697180734" lon="11.354535698438482"><ele>356.0</ele><time>2026-04-26T15:29:07Z</time></trkpt><trkpt lat="45.8859652146439" lon="11.354673274593843"><ele>356.0</ele><time>2026-04-26T15:29:08Z</time></trkpt><trkpt lat="45.88585101176793" lon="11.354807107802246"><ele>356.0</ele><time>2026-04-26T15:29:09Z</time></trkpt><trkpt lat="45.8857434295595" lon="11.354941100977756"><ele>356.0</ele><time>2026-04-26T15:29:10Z</time></trkpt><trkpt lat="45.88563277453088" lon="11.35507730450954"><ele>357.33333333333337</ele><time>2026-04-26T15:29:11Z</time></trkpt><trkpt lat="45.88549987642526" lon="11.355206072410793"><ele>358.6666666666667</ele><time>2026-04-26T15:29:12Z</time></trkpt><trkpt lat="45.88536047835229" lon="11.35533745590437"><ele>360.0</ele><time>2026-04-26T15:29:13Z</time></trkpt><trkpt lat="45.88521331241196" lon="11.355442826912174"><ele>358.75</ele><time>2026-04-26T15:29:14Z</time></trkpt><trkpt lat="45.88509134570811" lon="11.355554279221483"><ele>357.5</ele><time>2026-04-26T15:29:16Z</time></trkpt><trkpt lat="45.88496980139705" lon="11.355617078398222"><ele>356.25</ele><time>2026-04-26T15:29:17Z</time></trkpt><trkpt lat="45.88483925161143" lon="11.355661440399803"><ele>355.0</ele><time>2026-04-26T15:29:18Z</time></trkpt><trkpt lat="45.88469710075636" lon="11.355684624905164"><ele>355.0</ele><time>2026-04-26T15:29:19Z</time></trkpt><trkpt lat="45.88454096301865" lon="11.355698030858406"><ele>355.0</ele><time>2026-04-26T15:29:20Z</time></trkpt><trkpt lat="45.884365930605476" lon="11.355712314161925"><ele>355.0</ele><time>2026-04-26T15:29:21Z</time></trkpt><trkpt lat="45.88417791224039" lon="11.355725847149442"><ele>354.66666666666663</ele><time>2026-04-26T15:29:22Z</time></trkpt><trkpt lat="45.88398024128349" lon="11.355740074904684"><ele>354.3333333333333</ele><time>2026-04-26T15:29:23Z</time></trkpt><trkpt lat="45.88378479125669" lon="11.355755593882629"><ele>354.0</ele><time>2026-04-26T15:29:24Z</time></trkpt><trkpt lat="45.88359432771996" lon="11.35577493194037"><ele>355.0</ele><time>2026-04-26T15:29:25Z</time></trkpt><trkpt lat="45.88342015630988" lon="11.3558178977901"><ele>356.0</ele><time>2026-04-26T15:29:26Z</time></trkpt><trkpt lat="45.88325325492942" lon="11.355841179166864"><ele>357.0</ele><time>2026-04-26T15:29:27Z</time></trkpt><trkpt lat="45.883095433922854" lon="11.355845407341727"><ele>357.0</ele><time>2026-04-26T15:29:28Z</time></trkpt><trkpt lat="45.88295148589066" lon="11.35589520804145"><ele>357.0</ele><time>2026-04-26T15:29:29Z</time></trkpt><trkpt lat="45.88281327015936" lon="11.355920317805571"><ele>357.0</ele><time>2026-04-26T15:29:30Z</time></trkpt><trkpt lat="45.88268234736036" lon="11.35595950799978"><ele>357.0</ele><time>2026-04-26T15:29:31Z</time></trkpt><trkpt lat="45.88255075341238" lon="11.356016159899376"><ele>357.3333333333333</ele><time>2026-04-26T15:29:32Z</time></trkpt><trkpt lat="45.882397898074956" lon="11.356086336093192"><ele>357.66666666666663</ele><time>2026-04-26T15:29:33Z</time></trkpt><trkpt lat="45.88222799731378" lon="11.356165847697973"><ele>358.0</ele><time>2026-04-26T15:29:34Z</time></trkpt><trkpt lat="45.88204256500671" lon="11.35623233883998"><ele>358.0</ele><time>2026-04-26T15:29:35Z</time></trkpt><trkpt lat="45.88186906864996" lon="11.356342383406808"><ele>358.0</ele><time>2026-04-26T15:29:36Z</time></trkpt><trkpt lat="45.881697507719295" lon="11.356439063473147"><ele>358.0</ele><time>2026-04-26T15:29:37Z</time></trkpt><trkpt lat="45.8815366869245" lon="11.356568338902237"><ele>354.3333333333333</ele><time>2026-04-26T15:29:37.999Z</time></trkpt><trkpt lat="45.88138875921294" lon="11.356687422897147"><ele>350.6666666666667</ele><time>2026-04-26T15:29:38.999Z</time></trkpt><trkpt lat="45.8812518898713" lon="11.356800713127994"><ele>347.0</ele><time>2026-04-26T15:29:39.999Z</time></trkpt><trkpt lat="45.88111637904093" lon="11.35694758430548"><ele>347.0</ele><time>2026-04-26T15:29:40.999Z</time></trkpt><trkpt lat="45.88098526251977" lon="11.357123481945278"><ele>347.0</ele><time>2026-04-26T15:29:41.999Z</time></trkpt><trkpt lat="45.88084163313019" lon="11.35729644188697"><ele>347.0</ele><time>2026-04-26T15:29:42.999Z</time></trkpt><trkpt lat="45.88070098928067" lon="11.357484763754783"><ele>347.0</ele><time>2026-04-26T15:29:43.999Z</time></trkpt><trkpt lat="45.880577365808435" lon="11.35766833951591"><ele>347.0</ele><time>2026-04-26T15:29:44.999Z</time></trkpt><trkpt lat="45.8804459558567" lon="11.35783215233808"><ele>347.0</ele><time>2026-04-26T15:29:45.999Z</time></trkpt><trkpt lat="45.88029369593915" lon="11.357980856509538"><ele>346.6666666666667</ele><time>2026-04-26T15:29:46.999Z</time></trkpt><trkpt lat="45.88015294112176" lon="11.358135762720607"><ele>346.3333333333333</ele><time>2026-04-26T15:29:47.999Z</time></trkpt><trkpt lat="45.8799904768501" lon="11.358272292783933"><ele>346.0</ele><time>2026-04-26T15:29:48.999Z</time></trkpt><trkpt lat="45.87983629727814" lon="11.358371000243835"><ele>346.0</ele><time>2026-04-26T15:29:49.999Z</time></trkpt><trkpt lat="45.87968059225946" lon="11.358467843247555"><ele>346.0</ele><time>2026-04-26T15:29:50.999Z</time></trkpt><trkpt lat="45.87953363639529" lon="11.358576963916956"><ele>346.0</ele><time>2026-04-26T15:29:51.999Z</time></trkpt><trkpt lat="45.879384028335316" lon="11.358660404557467"><ele>345.0</ele><time>2026-04-26T15:29:52.999Z</time></trkpt><trkpt lat="45.87923223698945" lon="11.35873297616332"><ele>344.0</ele><time>2026-04-26T15:29:53.999Z</time></trkpt><trkpt lat="45.87907941156263" lon="11.358801285491417"><ele>343.0</ele><time>2026-04-26T15:29:54.999Z</time></trkpt><trkpt lat="45.87892331659494" lon="11.358867933410696"><ele>343.0</ele><time>2026-04-26T15:29:55.999Z</time></trkpt><trkpt lat="45.87877237277218" lon="11.358927703682875"><ele>343.0</ele><time>2026-04-26T15:29:56.999Z</time></trkpt><trkpt lat="45.87863424995044" lon="11.358984862820849"><ele>343.0</ele><time>2026-04-26T15:29:57.999Z</time></trkpt><trkpt lat="45.8785007591362" lon="11.359037463277039"><ele>343.0</ele><time>2026-04-26T15:29:58.999Z</time></trkpt><trkpt lat="45.87836650874464" lon="11.35909253036259"><ele>344.5</ele><time>2026-04-26T15:29:59.999Z</time></trkpt><trkpt lat="45.87823217467069" lon="11.359151620583022"><ele>346.0</ele><time>2026-04-26T15:30:00.999Z</time></trkpt><trkpt lat="45.87810950638523" lon="11.359201907724724"><ele>347.5</ele><time>2026-04-26T15:30:01.999Z</time></trkpt><trkpt lat="45.877982648568725" lon="11.359255193095892"><ele>349.0</ele><time>2026-04-26T15:30:02.999Z</time></trkpt><trkpt lat="45.877858612730705" lon="11.359297325030214"><ele>349.0</ele><time>2026-04-26T15:30:03.999Z</time></trkpt><trkpt lat="45.877734395452805" lon="11.359352230049703"><ele>349.0</ele><time>2026-04-26T15:30:04.999Z</time></trkpt><trkpt lat="45.87760813958661" lon="11.359395677156337"><ele>349.0</ele><time>2026-04-26T15:30:05.999Z</time></trkpt><trkpt lat="45.87747936329168" lon="11.359428835495798"><ele>349.0</ele><time>2026-04-26T15:30:06.999Z</time></trkpt><trkpt lat="45.87734210399646" lon="11.359456651514204"><ele>349.66666666666663</ele><time>2026-04-26T15:30:07.999Z</time></trkpt><trkpt lat="45.87719340721624" lon="11.359475061268201"><ele>350.3333333333333</ele><time>2026-04-26T15:30:08.999Z</time></trkpt><trkpt lat="45.877039828241735" lon="11.359490656727015"><ele>351.0</ele><time>2026-04-26T15:30:09.999Z</time></trkpt><trkpt lat="45.876886034861734" lon="11.359501544917807"><ele>352.6666666666667</ele><time>2026-04-26T15:30:10.999Z</time></trkpt><trkpt lat="45.876729280437075" lon="11.359514366943436"><ele>354.33333333333337</ele><time>2026-04-26T15:30:11.999Z</time></trkpt><trkpt lat="45.876572963024735" lon="11.359510859575773"><ele>356.0</ele><time>2026-04-26T15:30:12.999Z</time></trkpt><trkpt lat="45.876415985013715" lon="11.359545617185143"><ele>356.0</ele><time>2026-04-26T15:30:13.999Z</time></trkpt><trkpt lat="45.87625534710312" lon="11.3595596542426"><ele>356.0</ele><time>2026-04-26T15:30:14.999Z</time></trkpt><trkpt lat="45.87609883290981" lon="11.359572554262348"><ele>356.0</ele><time>2026-04-26T15:30:15.999Z</time></trkpt><trkpt lat="45.8759410584294" lon="11.35959074942188"><ele>357.0</ele><time>2026-04-26T15:30:16.999Z</time></trkpt><trkpt lat="45.87579151822053" lon="11.359603877778932"><ele>358.0</ele><time>2026-04-26T15:30:17.999Z</time></trkpt><trkpt lat="45.87565597519946" lon="11.35961959599"><ele>359.0</ele><time>2026-04-26T15:30:18.999Z</time></trkpt><trkpt lat="45.87552187791582" lon="11.359615936479303"><ele>360.0</ele><time>2026-04-26T15:30:19.999Z</time></trkpt><trkpt lat="45.87539369012624" lon="11.359631429083635"><ele>360.0</ele><time>2026-04-26T15:30:20.999Z</time></trkpt><trkpt lat="45.87526565379053" lon="11.359647046971148"><ele>360.0</ele><time>2026-04-26T15:30:21.999Z</time></trkpt><trkpt lat="45.87514221995723" lon="11.359684079091295"><ele>360.0</ele><time>2026-04-26T15:30:22.998Z</time></trkpt><trkpt lat="45.8750140845558" lon="11.359687833575936"><ele>360.0</ele><time>2026-04-26T15:30:23.998Z</time></trkpt><trkpt lat="45.8748852821094" lon="11.359714825660442"><ele>355.5</ele><time>2026-04-26T15:30:24.998Z</time></trkpt><trkpt lat="45.874756469430174" lon="11.35976382366751"><ele>351.0</ele><time>2026-04-26T15:30:25.998Z</time></trkpt><trkpt lat="45.8746287153203" lon="11.359835950632744"><ele>346.5</ele><time>2026-04-26T15:30:26.998Z</time></trkpt><trkpt lat="45.874500735956175" lon="11.35992668927943"><ele>342.0</ele><time>2026-04-26T15:30:27.998Z</time></trkpt><trkpt lat="45.87436401660091" lon="11.360025217515103"><ele>348.6666666666667</ele><time>2026-04-26T15:30:28.998Z</time></trkpt><trkpt lat="45.874236591080184" lon="11.360164691166958"><ele>355.33333333333337</ele><time>2026-04-26T15:30:29.998Z</time></trkpt><trkpt lat="45.87410847742925" lon="11.360324366981848"><ele>362.0</ele><time>2026-04-26T15:30:30.998Z</time></trkpt><trkpt lat="45.87397148172022" lon="11.360497559022816"><ele>354.33333333333337</ele><time>2026-04-26T15:30:31.998Z</time></trkpt><trkpt lat="45.873835319168585" lon="11.360669695858638"><ele>346.6666666666667</ele><time>2026-04-26T15:30:32.998Z</time></trkpt><trkpt lat="45.873706706024514" lon="11.360830778881859"><ele>339.0</ele><time>2026-04-26T15:30:33.998Z</time></trkpt><trkpt lat="45.87358499877826" lon="11.360982713477405"><ele>339.0</ele><time>2026-04-26T15:30:34.998Z</time></trkpt><trkpt lat="45.873464484624584" lon="11.361133158482675"><ele>339.0</ele><time>2026-04-26T15:30:35.998Z</time></trkpt><trkpt lat="45.87334573810096" lon="11.36128139686193"><ele>339.0</ele><time>2026-04-26T15:30:36.998Z</time></trkpt><trkpt lat="45.87323764013189" lon="11.361416344136076"><ele>338.25</ele><time>2026-04-26T15:30:37.998Z</time></trkpt><trkpt lat="45.87313316359096" lon="11.361547445330066"><ele>337.5</ele><time>2026-04-26T15:30:38.998Z</time></trkpt><trkpt lat="45.873031603802495" lon="11.361669017119713"><ele>336.75</ele><time>2026-04-26T15:30:39.998Z</time></trkpt><trkpt lat="45.87292813894343" lon="11.361770028987399"><ele>336.0</ele><time>2026-04-26T15:30:40.998Z</time></trkpt><trkpt lat="45.87282152794952" lon="11.361864171725918"><ele>336.0</ele><time>2026-04-26T15:30:41.998Z</time></trkpt><trkpt lat="45.87270742674161" lon="11.361945725258352"><ele>336.0</ele><time>2026-04-26T15:30:42.998Z</time></trkpt><trkpt lat="45.87258859235628" lon="11.362010390938101"><ele>336.0</ele><time>2026-04-26T15:30:43.998Z</time></trkpt><trkpt lat="45.8724666607588" lon="11.362055525210923"><ele>336.0</ele><time>2026-04-26T15:30:44.998Z</time></trkpt><trkpt lat="45.87233741478593" lon="11.36208176542766"><ele>337.75</ele><time>2026-04-26T15:30:45.998Z</time></trkpt><trkpt lat="45.872206171878815" lon="11.362096360132522"><ele>339.5</ele><time>2026-04-26T15:30:46.998Z</time></trkpt><trkpt lat="45.87207018466512" lon="11.362100008255045"><ele>341.25</ele><time>2026-04-26T15:30:47.998Z</time></trkpt><trkpt lat="45.871940079747404" lon="11.362100846036485"><ele>343.0</ele><time>2026-04-26T15:30:48.998Z</time></trkpt><trkpt lat="45.87181531952565" lon="11.362101651482131"><ele>342.5</ele><time>2026-04-26T15:30:49.998Z</time></trkpt><trkpt lat="45.871688789633346" lon="11.362121096152423"><ele>342.0</ele><time>2026-04-26T15:30:50.998Z</time></trkpt><trkpt lat="45.87156234856179" lon="11.362118275129342"><ele>341.5</ele><time>2026-04-26T15:30:51.998Z</time></trkpt><trkpt lat="45.87143129881922" lon="11.362109339694483"><ele>341.0</ele><time>2026-04-26T15:30:52.998Z</time></trkpt><trkpt lat="45.87130117285968" lon="11.362097056757257"><ele>341.0</ele><time>2026-04-26T15:30:53.998Z</time></trkpt><trkpt lat="45.87117123921894" lon="11.362081339022458"><ele>341.0</ele><time>2026-04-26T15:30:54.998Z</time></trkpt><trkpt lat="45.87104396349983" lon="11.362067916577523"><ele>341.0</ele><time>2026-04-26T15:30:55.998Z</time></trkpt><trkpt lat="45.87092023610208" lon="11.362050087322224"><ele>341.0</ele><time>2026-04-26T15:30:56.998Z</time></trkpt><trkpt lat="45.87080172143739" lon="11.362031064407086"><ele>340.25</ele><time>2026-04-26T15:30:57.998Z</time></trkpt><trkpt lat="45.87068373321732" lon="11.362009109795435"><ele>339.5</ele><time>2026-04-26T15:30:58.998Z</time></trkpt><trkpt lat="45.870560707818285" lon="11.36198791913058"><ele>338.75</ele><time>2026-04-26T15:30:59.998Z</time></trkpt><trkpt lat="45.87043651460109" lon="11.361961929408482"><ele>338.0</ele><time>2026-04-26T15:31:00.998Z</time></trkpt><trkpt lat="45.87030835795552" lon="11.361931566264774"><ele>338.0</ele><time>2026-04-26T15:31:01.998Z</time></trkpt><trkpt lat="45.87017169605331" lon="11.36189328047363"><ele>338.0</ele><time>2026-04-26T15:31:02.998Z</time></trkpt><trkpt lat="45.87002652384568" lon="11.361843692466044"><ele>338.0</ele><time>2026-04-26T15:31:03.998Z</time></trkpt><trkpt lat="45.86987566951487" lon="11.361785262197879"><ele>338.0</ele><time>2026-04-26T15:31:04.998Z</time></trkpt><trkpt lat="45.869725497730805" lon="11.361722233605246"><ele>338.0</ele><time>2026-04-26T15:31:05.998Z</time></trkpt><trkpt lat="45.869572096559814" lon="11.36167532703172"><ele>338.0</ele><time>2026-04-26T15:31:06.997Z</time></trkpt><trkpt lat="45.869398704672605" lon="11.361616914140061"><ele>338.0</ele><time>2026-04-26T15:31:07.997Z</time></trkpt><trkpt lat="45.86920449621684" lon="11.361582561563615"><ele>336.6666666666667</ele><time>2026-04-26T15:31:08.997Z</time></trkpt><trkpt lat="45.86900610632799" lon="11.361561281160524"><ele>335.3333333333333</ele><time>2026-04-26T15:31:09.997Z</time></trkpt><trkpt lat="45.86880241406331" lon="11.36154224718274"><ele>334.0</ele><time>2026-04-26T15:31:10.997Z</time></trkpt><trkpt lat="45.86860485962843" lon="11.361522482841924"><ele>333.0</ele><time>2026-04-26T15:31:12Z</time></trkpt><trkpt lat="45.86840890105671" lon="11.361501604132535"><ele>332.0</ele><time>2026-04-26T15:31:13Z</time></trkpt><trkpt lat="45.86821262456771" lon="11.361482251748654"><ele>331.0</ele><time>2026-04-26T15:31:14Z</time></trkpt><trkpt lat="45.86800799946928" lon="11.361463140726313"><ele>331.0</ele><time>2026-04-26T15:31:15Z</time></trkpt><trkpt lat="45.86780780606512" lon="11.361441809786747"><ele>331.0</ele><time>2026-04-26T15:31:16Z</time></trkpt><trkpt lat="45.8676106105498" lon="11.361419570574535"><ele>331.0</ele><time>2026-04-26T15:31:17Z</time></trkpt><trkpt lat="45.86740990183892" lon="11.361397004766403"><ele>332.0</ele><time>2026-04-26T15:31:18Z</time></trkpt><trkpt lat="45.86720905043638" lon="11.36137442303372"><ele>333.0</ele><time>2026-04-26T15:31:19Z</time></trkpt><trkpt lat="45.86700543245993" lon="11.361353899296295"><ele>334.0</ele><time>2026-04-26T15:31:20Z</time></trkpt><trkpt lat="45.86681436948673" lon="11.361336792309768"><ele>333.66666666666663</ele><time>2026-04-26T15:31:21Z</time></trkpt><trkpt lat="45.86663953094097" lon="11.361338730972127"><ele>333.3333333333333</ele><time>2026-04-26T15:31:22Z</time></trkpt><trkpt lat="45.86647979875329" lon="11.361322158241808"><ele>333.0</ele><time>2026-04-26T15:31:23Z</time></trkpt><trkpt lat="45.8663299588223" lon="11.361309674183483"><ele>333.0</ele><time>2026-04-26T15:31:24Z</time></trkpt><trkpt lat="45.86618279219852" lon="11.361302910549755"><ele>333.0</ele><time>2026-04-26T15:31:25Z</time></trkpt><trkpt lat="45.8660397113334" lon="11.36129948095151"><ele>333.0</ele><time>2026-04-26T15:31:26Z</time></trkpt><trkpt lat="45.865902920671054" lon="11.361292998833779"><ele>333.0</ele><time>2026-04-26T15:31:27Z</time></trkpt><trkpt lat="45.8657667333787" lon="11.361286230210645"><ele>333.25</ele><time>2026-04-26T15:31:28Z</time></trkpt><trkpt lat="45.86562910877059" lon="11.361279090815707"><ele>333.5</ele><time>2026-04-26T15:31:29Z</time></trkpt><trkpt lat="45.865486904275464" lon="11.36127235723531"><ele>333.75</ele><time>2026-04-26T15:31:30Z</time></trkpt><trkpt lat="45.86533631772892" lon="11.361263024846195"><ele>334.0</ele><time>2026-04-26T15:31:31Z</time></trkpt><trkpt lat="45.865180859140736" lon="11.361251478766773"><ele>333.5</ele><time>2026-04-26T15:31:32Z</time></trkpt><trkpt lat="45.86503287765397" lon="11.361241838973527"><ele>333.0</ele><time>2026-04-26T15:31:33Z</time></trkpt><trkpt lat="45.86488632564407" lon="11.361232969625748"><ele>332.5</ele><time>2026-04-26T15:31:34Z</time></trkpt><trkpt lat="45.864740526741784" lon="11.361224913078551"><ele>332.0</ele><time>2026-04-26T15:31:35Z</time></trkpt><trkpt lat="45.86459408729133" lon="11.361216659596357"><ele>332.0</ele><time>2026-04-26T15:31:36Z</time></trkpt><trkpt lat="45.86444249373856" lon="11.361206508361098"><ele>332.0</ele><time>2026-04-26T15:31:37Z</time></trkpt><trkpt lat="45.864288376024085" lon="11.361199777512685"><ele>332.0</ele><time>2026-04-26T15:31:38Z</time></trkpt><trkpt lat="45.864136639814035" lon="11.361191191824366"><ele>333.33333333333337</ele><time>2026-04-26T15:31:39Z</time></trkpt><trkpt lat="45.863978161272584" lon="11.361182942193928"><ele>334.6666666666667</ele><time>2026-04-26T15:31:40Z</time></trkpt><trkpt lat="45.86381704864246" lon="11.361174047689607"><ele>336.0</ele><time>2026-04-26T15:31:41Z</time></trkpt><trkpt lat="45.86365058064629" lon="11.36117703572605"><ele>336.0</ele><time>2026-04-26T15:31:41.999Z</time></trkpt><trkpt lat="45.86346303836448" lon="11.361162328414313"><ele>336.0</ele><time>2026-04-26T15:31:42.999Z</time></trkpt><trkpt lat="45.863256687225174" lon="11.361180208084205"><ele>336.0</ele><time>2026-04-26T15:31:43.999Z</time></trkpt><trkpt lat="45.86304541602243" lon="11.361213754708894"><ele>336.0</ele><time>2026-04-26T15:31:44.999Z</time></trkpt><trkpt lat="45.86281811678285" lon="11.361251998859034"><ele>336.0</ele><time>2026-04-26T15:31:45.999Z</time></trkpt><trkpt lat="45.86258590828636" lon="11.361284481084219"><ele>337.3333333333333</ele><time>2026-04-26T15:31:46.999Z</time></trkpt><trkpt lat="45.862368734935934" lon="11.361329339653835"><ele>338.66666666666663</ele><time>2026-04-26T15:31:47.999Z</time></trkpt><trkpt lat="45.86215773201157" lon="11.361350647961677"><ele>340.0</ele><time>2026-04-26T15:31:48.999Z</time></trkpt><trkpt lat="45.861946538925444" lon="11.36137674565912"><ele>334.0</ele><time>2026-04-26T15:31:49.999Z</time></trkpt><trkpt lat="45.86173344157477" lon="11.361400035425524"><ele>328.0</ele><time>2026-04-26T15:31:50.999Z</time></trkpt><trkpt lat="45.861518114541326" lon="11.361420088082395"><ele>322.0</ele><time>2026-04-26T15:31:51.999Z</time></trkpt><trkpt lat="45.861303568743935" lon="11.361447651352321"><ele>322.0</ele><time>2026-04-26T15:31:52.999Z</time></trkpt><trkpt lat="45.861089611839596" lon="11.361462588195035"><ele>322.0</ele><time>2026-04-26T15:31:53.999Z</time></trkpt><trkpt lat="45.860885573715905" lon="11.361482133716637"><ele>322.0</ele><time>2026-04-26T15:31:54.999Z</time></trkpt><trkpt lat="45.860672819923295" lon="11.361498910981679"><ele>321.3333333333333</ele><time>2026-04-26T15:31:55.999Z</time></trkpt><trkpt lat="45.86045742348383" lon="11.36149161016177"><ele>320.6666666666667</ele><time>2026-04-26T15:31:56.999Z</time></trkpt><trkpt lat="45.86024956033793" lon="11.361506332864813"><ele>320.0</ele><time>2026-04-26T15:31:57.999Z</time></trkpt><trkpt lat="45.8600542833145" lon="11.361539549666459"><ele>319.33333333333337</ele><time>2026-04-26T15:31:58.999Z</time></trkpt><trkpt lat="45.85987427780663" lon="11.361537329782527"><ele>318.6666666666667</ele><time>2026-04-26T15:31:59.999Z</time></trkpt><trkpt lat="45.85970637106468" lon="11.361540919652844"><ele>318.0</ele><time>2026-04-26T15:32:00.999Z</time></trkpt><trkpt lat="45.859549318535414" lon="11.36154932617097"><ele>318.0</ele><time>2026-04-26T15:32:01.999Z</time></trkpt><trkpt lat="45.859400933061735" lon="11.361558597584095"><ele>318.0</ele><time>2026-04-26T15:32:02.999Z</time></trkpt><trkpt lat="45.85925609400445" lon="11.361569489316885"><ele>318.0</ele><time>2026-04-26T15:32:03.999Z</time></trkpt><trkpt lat="45.85911698916478" lon="11.361580698017761"><ele>318.0</ele><time>2026-04-26T15:32:04.999Z</time></trkpt><trkpt lat="45.85897206862472" lon="11.361590951934003"><ele>317.6666666666667</ele><time>2026-04-26T15:32:05.999Z</time></trkpt><trkpt lat="45.858815745059154" lon="11.361605076373975"><ele>317.33333333333337</ele><time>2026-04-26T15:32:06.999Z</time></trkpt><trkpt lat="45.85865311254386" lon="11.361619143500906"><ele>317.0</ele><time>2026-04-26T15:32:07.999Z</time></trkpt><trkpt lat="45.85847720622454" lon="11.361644478416862"><ele>317.33333333333337</ele><time>2026-04-26T15:32:08.999Z</time></trkpt><trkpt lat="45.85828587666147" lon="11.361645657150905"><ele>317.6666666666667</ele><time>2026-04-26T15:32:09.999Z</time></trkpt><trkpt lat="45.85808473585044" lon="11.361658928974304"><ele>318.0</ele><time>2026-04-26T15:32:10.999Z</time></trkpt><trkpt lat="45.85788555149219" lon="11.361685766885149"><ele>318.0</ele><time>2026-04-26T15:32:11.999Z</time></trkpt><trkpt lat="45.857692028887335" lon="11.361690531691865"><ele>318.0</ele><time>2026-04-26T15:32:12.999Z</time></trkpt><trkpt lat="45.85751304712761" lon="11.36169709499369"><ele>318.0</ele><time>2026-04-26T15:32:13.999Z</time></trkpt><trkpt lat="45.85734811448708" lon="11.36170477574485"><ele>317.75</ele><time>2026-04-26T15:32:14.999Z</time></trkpt><trkpt lat="45.857191589728465" lon="11.361716349257915"><ele>317.5</ele><time>2026-04-26T15:32:15.999Z</time></trkpt><trkpt lat="45.85704801430939" lon="11.361718383035372"><ele>317.25</ele><time>2026-04-26T15:32:16.999Z</time></trkpt><trkpt lat="45.85691034671125" lon="11.361722904403283"><ele>317.0</ele><time>2026-04-26T15:32:17.999Z</time></trkpt><trkpt lat="45.856778094083154" lon="11.361743929184351"><ele>317.0</ele><time>2026-04-26T15:32:18.999Z</time></trkpt><trkpt lat="45.85664509221595" lon="11.361822521891625"><ele>317.0</ele><time>2026-04-26T15:32:19.999Z</time></trkpt><trkpt lat="45.856517687711566" lon="11.361928143055774"><ele>317.0</ele><time>2026-04-26T15:32:20.999Z</time></trkpt><trkpt lat="45.85638862748557" lon="11.362028114912382"><ele>317.0</ele><time>2026-04-26T15:32:21.999Z</time></trkpt><trkpt lat="45.856265043432096" lon="11.362087003750942"><ele>317.0</ele><time>2026-04-26T15:32:22.999Z</time></trkpt><trkpt lat="45.856131263990015" lon="11.362155462631133"><ele>317.0</ele><time>2026-04-26T15:32:23.999Z</time></trkpt><trkpt lat="45.85599209484522" lon="11.36222484666223"><ele>317.0</ele><time>2026-04-26T15:32:24.999Z</time></trkpt><trkpt lat="45.8558611998623" lon="11.362287477399935"><ele>317.0</ele><time>2026-04-26T15:32:25.999Z</time></trkpt><trkpt lat="45.85573662583811" lon="11.362342539631692"><ele>316.5</ele><time>2026-04-26T15:32:26.999Z</time></trkpt><trkpt lat="45.85560338412851" lon="11.362398140338948"><ele>316.0</ele><time>2026-04-26T15:32:27.998Z</time></trkpt><trkpt lat="45.85546779642717" lon="11.362453405998222"><ele>315.5</ele><time>2026-04-26T15:32:28.998Z</time></trkpt><trkpt lat="45.85533131090124" lon="11.362508795744008"><ele>315.0</ele><time>2026-04-26T15:32:29.998Z</time></trkpt><trkpt lat="45.855184659212746" lon="11.362568994958522"><ele>315.0</ele><time>2026-04-26T15:32:30.998Z</time></trkpt><trkpt lat="45.855029486554685" lon="11.362633630959756"><ele>315.0</ele><time>2026-04-26T15:32:31.998Z</time></trkpt><trkpt lat="45.85486367417767" lon="11.362697718383686"><ele>315.0</ele><time>2026-04-26T15:32:32.998Z</time></trkpt><trkpt lat="45.85468452880268" lon="11.362766896765214"><ele>315.0</ele><time>2026-04-26T15:32:33.998Z</time></trkpt><trkpt lat="45.85450125285956" lon="11.362836691260362"><ele>315.0</ele><time>2026-04-26T15:32:34.998Z</time></trkpt><trkpt lat="45.8543082635541" lon="11.362914632918354"><ele>315.0</ele><time>2026-04-26T15:32:35.998Z</time></trkpt><trkpt lat="45.85410719036943" lon="11.362994920979"><ele>314.6666666666667</ele><time>2026-04-26T15:32:36.998Z</time></trkpt><trkpt lat="45.85390046790203" lon="11.363079590180863"><ele>314.33333333333337</ele><time>2026-04-26T15:32:37.998Z</time></trkpt><trkpt lat="45.8536917958957" lon="11.363165842022386"><ele>314.0</ele><time>2026-04-26T15:32:38.998Z</time></trkpt><trkpt lat="45.85348102805903" lon="11.363259557081193"><ele>316.0</ele><time>2026-04-26T15:32:39.998Z</time></trkpt><trkpt lat="45.853262947668966" lon="11.363361134672774"><ele>318.0</ele><time>2026-04-26T15:32:40.998Z</time></trkpt><trkpt lat="45.853040346156554" lon="11.363461263608738"><ele>318.0</ele><time>2026-04-26T15:32:41.998Z</time></trkpt><trkpt lat="45.85281482244379" lon="11.363564971929339"><ele>318.0</ele><time>2026-04-26T15:32:42.998Z</time></trkpt><trkpt lat="45.852584286859326" lon="11.363672503359311"><ele>318.5</ele><time>2026-04-26T15:32:43.998Z</time></trkpt><trkpt lat="45.85235878765563" lon="11.36377817818668"><ele>319.0</ele><time>2026-04-26T15:32:44.998Z</time></trkpt><trkpt lat="45.85212964231049" lon="11.363887854423954"><ele>317.5</ele><time>2026-04-26T15:32:45.998Z</time></trkpt><trkpt lat="45.85189831483499" lon="11.364002980244445"><ele>316.0</ele><time>2026-04-26T15:32:46.998Z</time></trkpt><trkpt lat="45.8516739801242" lon="11.364122631145815"><ele>316.0</ele><time>2026-04-26T15:32:47.998Z</time></trkpt><trkpt lat="45.85145031524918" lon="11.364246000474942"><ele>316.0</ele><time>2026-04-26T15:32:48.998Z</time></trkpt><trkpt lat="45.851227009267376" lon="11.364375606459882"><ele>316.0</ele><time>2026-04-26T15:32:49.998Z</time></trkpt><trkpt lat="45.85099829691651" lon="11.364498407562182"><ele>316.0</ele><time>2026-04-26T15:32:50.998Z</time></trkpt><trkpt lat="45.85077141597331" lon="11.3646460633115"><ele>312.0</ele><time>2026-04-26T15:32:51.998Z</time></trkpt><trkpt lat="45.85054831103461" lon="11.36479699122554"><ele>308.0</ele><time>2026-04-26T15:32:52.998Z</time></trkpt><trkpt lat="45.85033036490743" lon="11.364973896912183"><ele>311.0</ele><time>2026-04-26T15:32:53.998Z</time></trkpt><trkpt lat="45.85010496602038" lon="11.365126328875075"><ele>314.0</ele><time>2026-04-26T15:32:54.998Z</time></trkpt><trkpt lat="45.849877050465" lon="11.365270978176524"><ele>314.0</ele><time>2026-04-26T15:32:55.998Z</time></trkpt><trkpt lat="45.84963857233961" lon="11.365392833329684"><ele>314.0</ele><time>2026-04-26T15:32:56.998Z</time></trkpt><trkpt lat="45.84940167580185" lon="11.365527951385001"><ele>313.0</ele><time>2026-04-26T15:32:57.998Z</time></trkpt><trkpt lat="45.8491678187246" lon="11.36564784478672"><ele>312.0</ele><time>2026-04-26T15:32:58.998Z</time></trkpt><trkpt lat="45.848928017577826" lon="11.365757592713447"><ele>312.0</ele><time>2026-04-26T15:32:59.998Z</time></trkpt><trkpt lat="45.84868852467429" lon="11.36585832991791"><ele>312.0</ele><time>2026-04-26T15:33:00.998Z</time></trkpt><trkpt lat="45.84844519009553" lon="11.365946483197803"><ele>317.0</ele><time>2026-04-26T15:33:01.998Z</time></trkpt><trkpt lat="45.848196932062734" lon="11.366015939892579"><ele>322.0</ele><time>2026-04-26T15:33:02.998Z</time></trkpt><trkpt lat="45.84794564113085" lon="11.36609277939961"><ele>322.0</ele><time>2026-04-26T15:33:03.998Z</time></trkpt><trkpt lat="45.84768660309439" lon="11.36613442666556"><ele>322.0</ele><time>2026-04-26T15:33:04.998Z</time></trkpt><trkpt lat="45.84743188394644" lon="11.366173585527923"><ele>324.5</ele><time>2026-04-26T15:33:05.998Z</time></trkpt><trkpt lat="45.84718105144312" lon="11.366212639915375"><ele>327.0</ele><time>2026-04-26T15:33:06.998Z</time></trkpt><trkpt lat="45.84693477432469" lon="11.366247035784685"><ele>332.0</ele><time>2026-04-26T15:33:07.998Z</time></trkpt><trkpt lat="45.84669324509533" lon="11.366275637295525"><ele>337.0</ele><time>2026-04-26T15:33:08.998Z</time></trkpt><trkpt lat="45.84646216516939" lon="11.366309561321426"><ele>321.0</ele><time>2026-04-26T15:33:09.998Z</time></trkpt><trkpt lat="45.84623531511378" lon="11.366364471349769"><ele>305.0</ele><time>2026-04-26T15:33:10.998Z</time></trkpt><trkpt lat="45.84601873185019" lon="11.366451997011527"><ele>309.33333333333337</ele><time>2026-04-26T15:33:11.998Z</time></trkpt><trkpt lat="45.84581476016828" lon="11.366542060483432"><ele>313.6666666666667</ele><time>2026-04-26T15:33:12.998Z</time></trkpt><trkpt lat="45.845621071062325" lon="11.366623367973494"><ele>318.0</ele><time>2026-04-26T15:33:13.997Z</time></trkpt><trkpt lat="45.84541107651585" lon="11.366713200088746"><ele>318.0</ele><time>2026-04-26T15:33:14.997Z</time></trkpt><trkpt lat="45.84521096368661" lon="11.366776932310014"><ele>318.0</ele><time>2026-04-26T15:33:15.997Z</time></trkpt><trkpt lat="45.84503956143525" lon="11.366812789465753"><ele>318.0</ele><time>2026-04-26T15:33:16.997Z</time></trkpt><trkpt lat="45.84485415253736" lon="11.366836920857654"><ele>319.3333333333333</ele><time>2026-04-26T15:33:18Z</time></trkpt><trkpt lat="45.84466921900323" lon="11.366861838673058"><ele>320.66666666666663</ele><time>2026-04-26T15:33:19Z</time></trkpt><trkpt lat="45.84449199882975" lon="11.366887945686129"><ele>322.0</ele><time>2026-04-26T15:33:20Z</time></trkpt><trkpt lat="45.844317512246256" lon="11.366923309281557"><ele>325.0</ele><time>2026-04-26T15:33:21Z</time></trkpt><trkpt lat="45.84413508114214" lon="11.366961736930675"><ele>328.0</ele><time>2026-04-26T15:33:22Z</time></trkpt><trkpt lat="45.84392867521007" lon="11.366999294699246"><ele>331.0</ele><time>2026-04-26T15:33:23Z</time></trkpt><trkpt lat="45.843743819869196" lon="11.367024903891059"><ele>331.0</ele><time>2026-04-26T15:33:24Z</time></trkpt><trkpt lat="45.843544443079985" lon="11.36704794915666"><ele>331.0</ele><time>2026-04-26T15:33:25Z</time></trkpt><trkpt lat="45.843343257200104" lon="11.367087008898427"><ele>331.0</ele><time>2026-04-26T15:33:26Z</time></trkpt><trkpt lat="45.843142391063054" lon="11.36714501903793"><ele>327.3333333333333</ele><time>2026-04-26T15:33:27Z</time></trkpt><trkpt lat="45.842946481711515" lon="11.36724063744276"><ele>323.6666666666667</ele><time>2026-04-26T15:33:28Z</time></trkpt><trkpt lat="45.84276425489943" lon="11.367369536895188"><ele>320.0</ele><time>2026-04-26T15:33:29Z</time></trkpt><trkpt lat="45.84259542094408" lon="11.367501327142639"><ele>320.0</ele><time>2026-04-26T15:33:30Z</time></trkpt><trkpt lat="45.84242747935834" lon="11.367614590813222"><ele>320.0</ele><time>2026-04-26T15:33:31Z</time></trkpt><trkpt lat="45.84226894819096" lon="11.367730872340658"><ele>320.0</ele><time>2026-04-26T15:33:32Z</time></trkpt><trkpt lat="45.842120342874416" lon="11.367855049673436"><ele>320.0</ele><time>2026-04-26T15:33:33Z</time></trkpt><trkpt lat="45.841971577607104" lon="11.367986154759976"><ele>320.0</ele><time>2026-04-26T15:33:34Z</time></trkpt><trkpt lat="45.841820357965574" lon="11.368125860650492"><ele>320.0</ele><time>2026-04-26T15:33:35Z</time></trkpt><trkpt lat="45.84167493074123" lon="11.36826158849037"><ele>315.6666666666667</ele><time>2026-04-26T15:33:36Z</time></trkpt><trkpt lat="45.841535907438754" lon="11.368396771817105"><ele>311.3333333333333</ele><time>2026-04-26T15:33:37Z</time></trkpt><trkpt lat="45.84140655877396" lon="11.368521824746663"><ele>307.0</ele><time>2026-04-26T15:33:38Z</time></trkpt><trkpt lat="45.841270616429796" lon="11.368644947461895"><ele>307.0</ele><time>2026-04-26T15:33:39Z</time></trkpt><trkpt lat="45.84113894086891" lon="11.368762841361088"><ele>307.0</ele><time>2026-04-26T15:33:40Z</time></trkpt><trkpt lat="45.84100727920961" lon="11.368880454567268"><ele>307.0</ele><time>2026-04-26T15:33:41Z</time></trkpt><trkpt lat="45.840883719505186" lon="11.369001024006828"><ele>306.0</ele><time>2026-04-26T15:33:42Z</time></trkpt><trkpt lat="45.84077113278965" lon="11.369127452025475"><ele>305.0</ele><time>2026-04-26T15:33:43Z</time></trkpt><trkpt lat="45.84067007248124" lon="11.369248758436134"><ele>304.0</ele><time>2026-04-26T15:33:44Z</time></trkpt><trkpt lat="45.840573160844855" lon="11.369367981386638"><ele>303.0</ele><time>2026-04-26T15:33:45Z</time></trkpt><trkpt lat="45.840478129328865" lon="11.369487919437335"><ele>303.0</ele><time>2026-04-26T15:33:45.999Z</time></trkpt><trkpt lat="45.84037858998016" lon="11.369604675799739"><ele>303.0</ele><time>2026-04-26T15:33:46.999Z</time></trkpt><trkpt lat="45.84027169746558" lon="11.369719751643471"><ele>303.0</ele><time>2026-04-26T15:33:47.999Z</time></trkpt><trkpt lat="45.840156844848984" lon="11.369834051862872"><ele>303.0</ele><time>2026-04-26T15:33:48.999Z</time></trkpt><trkpt lat="45.840033555205885" lon="11.369936913914396"><ele>302.75</ele><time>2026-04-26T15:33:49.999Z</time></trkpt><trkpt lat="45.83991085618466" lon="11.370030723240422"><ele>302.5</ele><time>2026-04-26T15:33:50.999Z</time></trkpt><trkpt lat="45.83978200312017" lon="11.37012257105801"><ele>302.25</ele><time>2026-04-26T15:33:51.999Z</time></trkpt><trkpt lat="45.83965643149135" lon="11.37020983648826"><ele>302.0</ele><time>2026-04-26T15:33:52.999Z</time></trkpt><trkpt lat="45.83951973005927" lon="11.370292630104105"><ele>302.0</ele><time>2026-04-26T15:33:53.999Z</time></trkpt><trkpt lat="45.83938075015243" lon="11.370358103835883"><ele>302.0</ele><time>2026-04-26T15:33:54.999Z</time></trkpt><trkpt lat="45.839233228768464" lon="11.370407280589896"><ele>302.0</ele><time>2026-04-26T15:33:55.999Z</time></trkpt><trkpt lat="45.83907319044161" lon="11.370442239652547"><ele>309.6666666666667</ele><time>2026-04-26T15:33:56.999Z</time></trkpt><trkpt lat="45.838913313003175" lon="11.370457614573988"><ele>317.3333333333333</ele><time>2026-04-26T15:33:57.999Z</time></trkpt><trkpt lat="45.83875923490342" lon="11.370466352675477"><ele>325.0</ele><time>2026-04-26T15:33:58.999Z</time></trkpt><trkpt lat="45.838605146285566" lon="11.370483014872857"><ele>329.3333333333333</ele><time>2026-04-26T15:33:59.999Z</time></trkpt><trkpt lat="45.838455909407024" lon="11.37049661579588"><ele>333.6666666666667</ele><time>2026-04-26T15:34:00.999Z</time></trkpt><trkpt lat="45.8383044224036" lon="11.370505572055116"><ele>338.0</ele><time>2026-04-26T15:34:01.999Z</time></trkpt><trkpt lat="45.838148716856004" lon="11.37049866680028"><ele>338.0</ele><time>2026-04-26T15:34:02.999Z</time></trkpt><trkpt lat="45.83799320688807" lon="11.370467530570151"><ele>338.0</ele><time>2026-04-26T15:34:03.999Z</time></trkpt><trkpt lat="45.83782982695175" lon="11.370419213721087"><ele>338.0</ele><time>2026-04-26T15:34:04.999Z</time></trkpt><trkpt lat="45.83766362541595" lon="11.370358235568014"><ele>334.33333333333337</ele><time>2026-04-26T15:34:05.999Z</time></trkpt><trkpt lat="45.83748769896838" lon="11.370293451676446"><ele>330.6666666666667</ele><time>2026-04-26T15:34:06.999Z</time></trkpt><trkpt lat="45.837319272062196" lon="11.370230221135268"><ele>327.0</ele><time>2026-04-26T15:34:07.999Z</time></trkpt><trkpt lat="45.837157138315824" lon="11.3701723588015"><ele>327.0</ele><time>2026-04-26T15:34:08.999Z</time></trkpt><trkpt lat="45.83700092548155" lon="11.370126935518725"><ele>327.0</ele><time>2026-04-26T15:34:09.999Z</time></trkpt><trkpt lat="45.836849440100266" lon="11.37008780178223"><ele>327.0</ele><time>2026-04-26T15:34:10.999Z</time></trkpt><trkpt lat="45.83668974891364" lon="11.37004488009235"><ele>324.6666666666667</ele><time>2026-04-26T15:34:11.999Z</time></trkpt><trkpt lat="45.83652899327939" lon="11.36999444909351"><ele>322.33333333333337</ele><time>2026-04-26T15:34:12.999Z</time></trkpt><trkpt lat="45.83636660868905" lon="11.36993900512852"><ele>320.0</ele><time>2026-04-26T15:34:13.999Z</time></trkpt><trkpt lat="45.836188515041705" lon="11.36988532595056"><ele>320.0</ele><time>2026-04-26T15:34:14.999Z</time></trkpt><trkpt lat="45.83600301841908" lon="11.369836368768066"><ele>320.0</ele><time>2026-04-26T15:34:15.999Z</time></trkpt><trkpt lat="45.835784658890766" lon="11.369788855683984"><ele>320.0</ele><time>2026-04-26T15:34:16.999Z</time></trkpt><trkpt lat="45.83554899736688" lon="11.369736710692884"><ele>328.0</ele><time>2026-04-26T15:34:17.999Z</time></trkpt><trkpt lat="45.835307277114964" lon="11.369683341113364"><ele>336.0</ele><time>2026-04-26T15:34:18.999Z</time></trkpt><trkpt lat="45.835080296458685" lon="11.369574070658043"><ele>336.0</ele><time>2026-04-26T15:34:19.999Z</time></trkpt><trkpt lat="45.83486583681568" lon="11.369525037903117"><ele>336.0</ele><time>2026-04-26T15:34:20.999Z</time></trkpt><trkpt lat="45.83466406320498" lon="11.369488874033989"><ele>336.0</ele><time>2026-04-26T15:34:21.999Z</time></trkpt><trkpt lat="45.83447978085853" lon="11.369443600448271"><ele>336.0</ele><time>2026-04-26T15:34:22.999Z</time></trkpt><trkpt lat="45.83430809085851" lon="11.369402807795952"><ele>336.0</ele><time>2026-04-26T15:34:23.999Z</time></trkpt><trkpt lat="45.83414933743397" lon="11.369390012044112"><ele>336.0</ele><time>2026-04-26T15:34:24.999Z</time></trkpt><trkpt lat="45.83399673385211" lon="11.369442152518948"><ele>332.25</ele><time>2026-04-26T15:34:25.999Z</time></trkpt><trkpt lat="45.833858985779365" lon="11.369549840768485"><ele>328.5</ele><time>2026-04-26T15:34:26.999Z</time></trkpt><trkpt lat="45.83373044441411" lon="11.36964262302642"><ele>324.75</ele><time>2026-04-26T15:34:27.999Z</time></trkpt><trkpt lat="45.83360715539524" lon="11.369727581762957"><ele>321.0</ele><time>2026-04-26T15:34:28.999Z</time></trkpt><trkpt lat="45.83348465240534" lon="11.369786814584963"><ele>315.75</ele><time>2026-04-26T15:34:29.999Z</time></trkpt><trkpt lat="45.83335500172307" lon="11.369824363960753"><ele>310.5</ele><time>2026-04-26T15:34:30.999Z</time></trkpt><trkpt lat="45.83322024966893" lon="11.369841462796016"><ele>305.25</ele><time>2026-04-26T15:34:31.999Z</time></trkpt><trkpt lat="45.833072323211944" lon="11.369851836688316"><ele>300.0</ele><time>2026-04-26T15:34:32.999Z</time></trkpt><trkpt lat="45.8329210629602" lon="11.369833901267814"><ele>300.0</ele><time>2026-04-26T15:34:33.999Z</time></trkpt><trkpt lat="45.83277749627713" lon="11.369815690844348"><ele>300.0</ele><time>2026-04-26T15:34:34.999Z</time></trkpt><trkpt lat="45.832645019141694" lon="11.369767780014024"><ele>300.0</ele><time>2026-04-26T15:34:35.998Z</time></trkpt><trkpt lat="45.83251414213818" lon="11.369735073375791"><ele>300.0</ele><time>2026-04-26T15:34:36.998Z</time></trkpt><trkpt lat="45.832383013802264" lon="11.369694205367681"><ele>306.75</ele><time>2026-04-26T15:34:37.998Z</time></trkpt><trkpt lat="45.832250217438244" lon="11.369641756929973"><ele>313.5</ele><time>2026-04-26T15:34:38.998Z</time></trkpt><trkpt lat="45.83211640174305" lon="11.369566591265299"><ele>320.25</ele><time>2026-04-26T15:34:39.998Z</time></trkpt><trkpt lat="45.83197273453505" lon="11.369480367382874"><ele>327.0</ele><time>2026-04-26T15:34:40.998Z</time></trkpt><trkpt lat="45.83182175859742" lon="11.369389063539918"><ele>325.6666666666667</ele><time>2026-04-26T15:34:41.998Z</time></trkpt><trkpt lat="45.83166993127651" lon="11.369293916795401"><ele>324.33333333333337</ele><time>2026-04-26T15:34:42.998Z</time></trkpt><trkpt lat="45.83151436675472" lon="11.3691974096488"><ele>323.0</ele><time>2026-04-26T15:34:43.998Z</time></trkpt><trkpt lat="45.83134053086332" lon="11.369122728898711"><ele>323.0</ele><time>2026-04-26T15:34:44.998Z</time></trkpt><trkpt lat="45.8311513111556" lon="11.369072658052914"><ele>323.0</ele><time>2026-04-26T15:34:45.998Z</time></trkpt><trkpt lat="45.830947494675165" lon="11.369020908053145"><ele>323.0</ele><time>2026-04-26T15:34:46.998Z</time></trkpt><trkpt lat="45.83072956412006" lon="11.368986720757285"><ele>319.0</ele><time>2026-04-26T15:34:47.998Z</time></trkpt><trkpt lat="45.830513352573966" lon="11.368917677223981"><ele>315.0</ele><time>2026-04-26T15:34:48.998Z</time></trkpt><trkpt lat="45.8303035960343" lon="11.368833741162602"><ele>311.0</ele><time>2026-04-26T15:34:49.998Z</time></trkpt><trkpt lat="45.8301013117761" lon="11.3687382430675"><ele>329.33333333333337</ele><time>2026-04-26T15:34:50.998Z</time></trkpt><trkpt lat="45.82990646938719" lon="11.368659438180352"><ele>347.6666666666667</ele><time>2026-04-26T15:34:51.998Z</time></trkpt><trkpt lat="45.82972283294668" lon="11.368643266857156"><ele>366.0</ele><time>2026-04-26T15:34:52.998Z</time></trkpt><trkpt lat="45.82953908508957" lon="11.36868008749936"><ele>366.0</ele><time>2026-04-26T15:34:53.998Z</time></trkpt><trkpt lat="45.829356992356274" lon="11.368750859459958"><ele>366.0</ele><time>2026-04-26T15:34:54.998Z</time></trkpt><trkpt lat="45.82917242627171" lon="11.368813575985456"><ele>366.0</ele><time>2026-04-26T15:34:55.998Z</time></trkpt><trkpt lat="45.82898530677116" lon="11.368855401898454"><ele>344.0</ele><time>2026-04-26T15:34:56.998Z</time></trkpt><trkpt lat="45.828785035123964" lon="11.368877577132075"><ele>322.0</ele><time>2026-04-26T15:34:57.998Z</time></trkpt><trkpt lat="45.82857037724841" lon="11.36886095443412"><ele>300.0</ele><time>2026-04-26T15:34:58.998Z</time></trkpt><trkpt lat="45.82836238098976" lon="11.368865030473534"><ele>318.6666666666667</ele><time>2026-04-26T15:34:59.998Z</time></trkpt><trkpt lat="45.82816652534371" lon="11.368850739999289"><ele>337.33333333333337</ele><time>2026-04-26T15:35:00.998Z</time></trkpt><trkpt lat="45.82797102224473" lon="11.36883950559045"><ele>356.0</ele><time>2026-04-26T15:35:01.998Z</time></trkpt><trkpt lat="45.82778049523758" lon="11.368837591699544"><ele>353.33333333333337</ele><time>2026-04-26T15:35:02.998Z</time></trkpt><trkpt lat="45.82759881278355" lon="11.36884283510604"><ele>350.6666666666667</ele><time>2026-04-26T15:35:03.998Z</time></trkpt><trkpt lat="45.82741196721415" lon="11.368846753175797"><ele>348.0</ele><time>2026-04-26T15:35:04.998Z</time></trkpt><trkpt lat="45.8272411895956" lon="11.368814901890191"><ele>348.0</ele><time>2026-04-26T15:35:05.998Z</time></trkpt><trkpt lat="45.827119355170375" lon="11.3688161494699"><ele>348.0</ele><time>2026-04-26T15:35:06.998Z</time></trkpt><trkpt lat="45.82698796894497" lon="11.368785030237913"><ele>348.0</ele><time>2026-04-26T15:35:07.998Z</time></trkpt><trkpt lat="45.82681473577956" lon="11.368728908506448"><ele>348.0</ele><time>2026-04-26T15:35:08.998Z</time></trkpt><trkpt lat="45.826525615501374" lon="11.368618810194993"><ele>342.6666666666667</ele><time>2026-04-26T15:35:09.998Z</time></trkpt><trkpt lat="45.82636140817587" lon="11.36853049305312"><ele>337.33333333333337</ele><time>2026-04-26T15:35:10.998Z</time></trkpt><trkpt lat="45.82620033026604" lon="11.36843809349793"><ele>332.0</ele><time>2026-04-26T15:35:11.998Z</time></trkpt><trkpt lat="45.8260525779726" lon="11.36835333788934"><ele>328.0</ele><time>2026-04-26T15:35:12.998Z</time></trkpt><trkpt lat="45.82592210092759" lon="11.368278491864226"><ele>324.0</ele><time>2026-04-26T15:35:13.998Z</time></trkpt><trkpt lat="45.825802597628424" lon="11.368209940781844"><ele>320.0</ele><time>2026-04-26T15:35:14.998Z</time></trkpt><trkpt lat="45.82569077468265" lon="11.368170365807512"><ele>316.0</ele><time>2026-04-26T15:35:15.998Z</time></trkpt><trkpt lat="45.82559957286102" lon="11.368102664459055"><ele>316.0</ele><time>2026-04-26T15:35:16.998Z</time></trkpt><trkpt lat="45.82549781896731" lon="11.368046843798446"><ele>316.0</ele><time>2026-04-26T15:35:17.998Z</time></trkpt><trkpt lat="45.825387907708205" lon="11.367980970289535"><ele>316.0</ele><time>2026-04-26T15:35:18.998Z</time></trkpt><trkpt lat="45.82527637765717" lon="11.36791626296783"><ele>316.0</ele><time>2026-04-26T15:35:19.998Z</time></trkpt><trkpt lat="45.82515489490321" lon="11.367842645603227"><ele>318.0</ele><time>2026-04-26T15:35:20.998Z</time></trkpt><trkpt lat="45.825023145436376" lon="11.367769462122485"><ele>320.0</ele><time>2026-04-26T15:35:21.998Z</time></trkpt><trkpt lat="45.82488345782028" lon="11.367691772179432"><ele>322.0</ele><time>2026-04-26T15:35:23Z</time></trkpt><trkpt lat="45.82474420369563" lon="11.367610645050863"><ele>324.0</ele><time>2026-04-26T15:35:24Z</time></trkpt><trkpt lat="45.82460589253292" lon="11.367520671226842"><ele>324.0</ele><time>2026-04-26T15:35:25Z</time></trkpt><trkpt lat="45.82446430064443" lon="11.367430328249968"><ele>324.0</ele><time>2026-04-26T15:35:26Z</time></trkpt><trkpt lat="45.82431723813515" lon="11.367326875159668"><ele>324.0</ele><time>2026-04-26T15:35:27Z</time></trkpt><trkpt lat="45.82418112253571" lon="11.367220896232904"><ele>326.0</ele><time>2026-04-26T15:35:28Z</time></trkpt><trkpt lat="45.82403875138153" lon="11.367107613619613"><ele>328.0</ele><time>2026-04-26T15:35:29Z</time></trkpt><trkpt lat="45.82390006380851" lon="11.366992946530077"><ele>330.0</ele><time>2026-04-26T15:35:30Z</time></trkpt><trkpt lat="45.823763525988475" lon="11.366876157789564"><ele>330.0</ele><time>2026-04-26T15:35:31Z</time></trkpt><trkpt lat="45.82362869322939" lon="11.36676295543128"><ele>330.0</ele><time>2026-04-26T15:35:32Z</time></trkpt><trkpt lat="45.82350280631605" lon="11.36665971429136"><ele>330.0</ele><time>2026-04-26T15:35:33Z</time></trkpt><trkpt lat="45.823381900735725" lon="11.366564029029547"><ele>330.0</ele><time>2026-04-26T15:35:34Z</time></trkpt><trkpt lat="45.82326748913362" lon="11.366466211044424"><ele>329.5</ele><time>2026-04-26T15:35:35Z</time></trkpt><trkpt lat="45.82314861698443" lon="11.366376806712868"><ele>329.0</ele><time>2026-04-26T15:35:36Z</time></trkpt><trkpt lat="45.82302717382757" lon="11.366284512291285"><ele>328.5</ele><time>2026-04-26T15:35:37Z</time></trkpt><trkpt lat="45.82290222896974" lon="11.366192711044329"><ele>328.0</ele><time>2026-04-26T15:35:38Z</time></trkpt><trkpt lat="45.82277996150566" lon="11.366098811274396"><ele>328.5</ele><time>2026-04-26T15:35:39Z</time></trkpt><trkpt lat="45.822656453623985" lon="11.366024621774248"><ele>329.0</ele><time>2026-04-26T15:35:40Z</time></trkpt><trkpt lat="45.82253063652971" lon="11.36594830022748"><ele>329.5</ele><time>2026-04-26T15:35:41Z</time></trkpt><trkpt lat="45.8224057238189" lon="11.365875416729383"><ele>330.0</ele><time>2026-04-26T15:35:42Z</time></trkpt><trkpt lat="45.82227790959604" lon="11.36579994781438"><ele>330.0</ele><time>2026-04-26T15:35:43Z</time></trkpt><trkpt lat="45.82214687597474" lon="11.365719992540582"><ele>330.0</ele><time>2026-04-26T15:35:44Z</time></trkpt><trkpt lat="45.82201167438436" lon="11.36563652628114"><ele>330.0</ele><time>2026-04-26T15:35:45Z</time></trkpt><trkpt lat="45.82186962242231" lon="11.36554876713247"><ele>330.0</ele><time>2026-04-26T15:35:46Z</time></trkpt><trkpt lat="45.82172537578346" lon="11.365464604983345"><ele>332.0</ele><time>2026-04-26T15:35:47Z</time></trkpt><trkpt lat="45.82159143717478" lon="11.36539347044301"><ele>334.0</ele><time>2026-04-26T15:35:48Z</time></trkpt><trkpt lat="45.82149874429486" lon="11.365296459517152"><ele>336.0</ele><time>2026-04-26T15:35:49Z</time></trkpt><trkpt lat="45.821369242390375" lon="11.365206669403042"><ele>338.0</ele><time>2026-04-26T15:35:50Z</time></trkpt><trkpt lat="45.82114112510883" lon="11.365107220780887"><ele>334.6666666666667</ele><time>2026-04-26T15:35:51Z</time></trkpt><trkpt lat="45.82095359223434" lon="11.364991169033942"><ele>331.3333333333333</ele><time>2026-04-26T15:35:52Z</time></trkpt><trkpt lat="45.820827648157966" lon="11.36492195748203"><ele>328.0</ele><time>2026-04-26T15:35:53Z</time></trkpt><trkpt lat="45.82067287587332" lon="11.364829949576993"><ele>328.0</ele><time>2026-04-26T15:35:54Z</time></trkpt><trkpt lat="45.82050973657694" lon="11.364734938481078"><ele>328.0</ele><time>2026-04-26T15:35:55Z</time></trkpt><trkpt lat="45.82035021426441" lon="11.364640731874358"><ele>328.0</ele><time>2026-04-26T15:35:55.999Z</time></trkpt><trkpt lat="45.820197123615266" lon="11.364545743524674"><ele>329.3333333333333</ele><time>2026-04-26T15:35:56.999Z</time></trkpt><trkpt lat="45.82004974187614" lon="11.364460068194568"><ele>330.6666666666667</ele><time>2026-04-26T15:35:57.999Z</time></trkpt><trkpt lat="45.819912265312055" lon="11.364378127168726"><ele>332.0</ele><time>2026-04-26T15:35:58.999Z</time></trkpt><trkpt lat="45.819779565994864" lon="11.364300761346705"><ele>332.0</ele><time>2026-04-26T15:35:59.999Z</time></trkpt><trkpt lat="45.81965154658682" lon="11.364231136162838"><ele>332.0</ele><time>2026-04-26T15:36:00.999Z</time></trkpt><trkpt lat="45.81952356284822" lon="11.364163272260454"><ele>332.0</ele><time>2026-04-26T15:36:01.999Z</time></trkpt><trkpt lat="45.81939586322447" lon="11.364099783348006"><ele>332.0</ele><time>2026-04-26T15:36:02.999Z</time></trkpt><trkpt lat="45.819273361845795" lon="11.364041314458627"><ele>330.75</ele><time>2026-04-26T15:36:03.999Z</time></trkpt><trkpt lat="45.81916094408321" lon="11.363989152345175"><ele>329.5</ele><time>2026-04-26T15:36:04.999Z</time></trkpt><trkpt lat="45.81904826935063" lon="11.363928916302488"><ele>328.25</ele><time>2026-04-26T15:36:05.999Z</time></trkpt><trkpt lat="45.81893426754365" lon="11.363858568466775"><ele>327.0</ele><time>2026-04-26T15:36:06.999Z</time></trkpt><trkpt lat="45.81882163527071" lon="11.363781163925262"><ele>331.75</ele><time>2026-04-26T15:36:07.999Z</time></trkpt><trkpt lat="45.81871145167772" lon="11.363684457847077"><ele>336.5</ele><time>2026-04-26T15:36:08.999Z</time></trkpt><trkpt lat="45.81860087936307" lon="11.363588763926197"><ele>341.25</ele><time>2026-04-26T15:36:09.999Z</time></trkpt><trkpt lat="45.81847957466161" lon="11.363503044348894"><ele>346.0</ele><time>2026-04-26T15:36:10.999Z</time></trkpt><trkpt lat="45.81834663049531" lon="11.363428472726406"><ele>346.0</ele><time>2026-04-26T15:36:11.999Z</time></trkpt><trkpt lat="45.818198935501904" lon="11.363379468966922"><ele>346.0</ele><time>2026-04-26T15:36:12.999Z</time></trkpt><trkpt lat="45.81804384449307" lon="11.36335258872601"><ele>346.0</ele><time>2026-04-26T15:36:13.999Z</time></trkpt><trkpt lat="45.817883966113776" lon="11.363347380803518"><ele>346.0</ele><time>2026-04-26T15:36:14.999Z</time></trkpt><trkpt lat="45.81772656389698" lon="11.363350957325634"><ele>346.0</ele><time>2026-04-26T15:36:15.999Z</time></trkpt><trkpt lat="45.81758989202458" lon="11.363320901206867"><ele>346.0</ele><time>2026-04-26T15:36:16.999Z</time></trkpt><trkpt lat="45.8174918085825" lon="11.363296445988077"><ele>346.0</ele><time>2026-04-26T15:36:17.999Z</time></trkpt><trkpt lat="45.81737229332086" lon="11.36328002649149"><ele>342.3333333333333</ele><time>2026-04-26T15:36:18.999Z</time></trkpt><trkpt lat="45.81718078803838" lon="11.363204325567914"><ele>338.6666666666667</ele><time>2026-04-26T15:36:19.999Z</time></trkpt><trkpt lat="45.81696630404343" lon="11.363147473466178"><ele>335.0</ele><time>2026-04-26T15:36:20.999Z</time></trkpt><trkpt lat="45.81681124694003" lon="11.36308556568351"><ele>333.0</ele><time>2026-04-26T15:36:21.999Z</time></trkpt><trkpt lat="45.81666579447416" lon="11.363052915537386"><ele>331.0</ele><time>2026-04-26T15:36:22.999Z</time></trkpt><trkpt lat="45.81652203964878" lon="11.363000558676625"><ele>329.0</ele><time>2026-04-26T15:36:23.999Z</time></trkpt><trkpt lat="45.81637420505379" lon="11.362982431422534"><ele>327.0</ele><time>2026-04-26T15:36:24.999Z</time></trkpt><trkpt lat="45.81622383516814" lon="11.362983242376668"><ele>326.0</ele><time>2026-04-26T15:36:25.999Z</time></trkpt><trkpt lat="45.81607108439462" lon="11.362992537945958"><ele>325.0</ele><time>2026-04-26T15:36:26.999Z</time></trkpt><trkpt lat="45.81591697961946" lon="11.363013654086364"><ele>324.0</ele><time>2026-04-26T15:36:27.999Z</time></trkpt><trkpt lat="45.81575474218989" lon="11.363050846072719"><ele>324.0</ele><time>2026-04-26T15:36:28.999Z</time></trkpt><trkpt lat="45.81559825967448" lon="11.363095977673487"><ele>324.0</ele><time>2026-04-26T15:36:29.999Z</time></trkpt><trkpt lat="45.815433936682076" lon="11.363146218141996"><ele>324.0</ele><time>2026-04-26T15:36:30.999Z</time></trkpt><trkpt lat="45.81527331609244" lon="11.36320212468189"><ele>324.3333333333333</ele><time>2026-04-26T15:36:31.999Z</time></trkpt><trkpt lat="45.81512025033493" lon="11.36325846914002"><ele>324.66666666666663</ele><time>2026-04-26T15:36:32.999Z</time></trkpt><trkpt lat="45.81497724827691" lon="11.36330869575241"><ele>325.0</ele><time>2026-04-26T15:36:33.999Z</time></trkpt><trkpt lat="45.81483536203302" lon="11.36336148184519"><ele>325.0</ele><time>2026-04-26T15:36:34.999Z</time></trkpt><trkpt lat="45.81470228225928" lon="11.363399329400174"><ele>325.0</ele><time>2026-04-26T15:36:35.999Z</time></trkpt><trkpt lat="45.81456969790804" lon="11.363429848236873"><ele>325.0</ele><time>2026-04-26T15:36:36.999Z</time></trkpt><trkpt lat="45.814435701041376" lon="11.363446978374226"><ele>325.0</ele><time>2026-04-26T15:36:37.999Z</time></trkpt><trkpt lat="45.81430004299858" lon="11.363444910923548"><ele>324.25</ele><time>2026-04-26T15:36:38.999Z</time></trkpt><trkpt lat="45.81416172556264" lon="11.363430258223051"><ele>323.5</ele><time>2026-04-26T15:36:39.999Z</time></trkpt><trkpt lat="45.81402461592527" lon="11.363408938120196"><ele>322.75</ele><time>2026-04-26T15:36:40.999Z</time></trkpt><trkpt lat="45.81388619549261" lon="11.363369760321174"><ele>322.0</ele><time>2026-04-26T15:36:41.999Z</time></trkpt><trkpt lat="45.81374769461813" lon="11.363309652309024"><ele>322.0</ele><time>2026-04-26T15:36:42.999Z</time></trkpt><trkpt lat="45.813603873882656" lon="11.363233056972954"><ele>322.0</ele><time>2026-04-26T15:36:43.999Z</time></trkpt><trkpt lat="45.81346042721482" lon="11.363157692772317"><ele>322.0</ele><time>2026-04-26T15:36:44.998Z</time></trkpt><trkpt lat="45.813308736402895" lon="11.363069962324154"><ele>322.66666666666663</ele><time>2026-04-26T15:36:45.998Z</time></trkpt><trkpt lat="45.81315669304855" lon="11.362983142954521"><ele>323.3333333333333</ele><time>2026-04-26T15:36:46.998Z</time></trkpt><trkpt lat="45.81300827596644" lon="11.362897802905119"><ele>324.0</ele><time>2026-04-26T15:36:47.998Z</time></trkpt><trkpt lat="45.8128640914417" lon="11.362814111973163"><ele>324.0</ele><time>2026-04-26T15:36:48.998Z</time></trkpt><trkpt lat="45.81271961192294" lon="11.362733037055774"><ele>324.0</ele><time>2026-04-26T15:36:49.998Z</time></trkpt><trkpt lat="45.81257455009455" lon="11.36265674373523"><ele>324.0</ele><time>2026-04-26T15:36:50.998Z</time></trkpt><trkpt lat="45.81242760270437" lon="11.362573081132547"><ele>320.6666666666667</ele><time>2026-04-26T15:36:51.998Z</time></trkpt><trkpt lat="45.81228139844903" lon="11.362492251339534"><ele>317.33333333333337</ele><time>2026-04-26T15:36:52.998Z</time></trkpt><trkpt lat="45.81213281244586" lon="11.362411256326217"><ele>314.0</ele><time>2026-04-26T15:36:53.998Z</time></trkpt><trkpt lat="45.811986248129124" lon="11.362328927845052"><ele>314.0</ele><time>2026-04-26T15:36:54.998Z</time></trkpt><trkpt lat="45.81185113889573" lon="11.362252259765018"><ele>314.0</ele><time>2026-04-26T15:36:55.998Z</time></trkpt><trkpt lat="45.81170861315799" lon="11.362173001866045"><ele>314.0</ele><time>2026-04-26T15:36:56.998Z</time></trkpt><trkpt lat="45.81156601402782" lon="11.362089762857956"><ele>314.5</ele><time>2026-04-26T15:36:57.998Z</time></trkpt><trkpt lat="45.81142760555963" lon="11.362018642944172"><ele>315.0</ele><time>2026-04-26T15:36:58.998Z</time></trkpt><trkpt lat="45.81128938787062" lon="11.361944589898878"><ele>315.5</ele><time>2026-04-26T15:36:59.998Z</time></trkpt><trkpt lat="45.81115567969431" lon="11.361865309041168"><ele>316.0</ele><time>2026-04-26T15:37:00.998Z</time></trkpt><trkpt lat="45.81101609586589" lon="11.361793863146726"><ele>315.3333333333333</ele><time>2026-04-26T15:37:01.998Z</time></trkpt><trkpt lat="45.81087733612603" lon="11.36171722001996"><ele>314.6666666666667</ele><time>2026-04-26T15:37:02.998Z</time></trkpt><trkpt lat="45.81073876688178" lon="11.361637437851073"><ele>314.0</ele><time>2026-04-26T15:37:03.998Z</time></trkpt><trkpt lat="45.81059617828474" lon="11.361553933935301"><ele>314.0</ele><time>2026-04-26T15:37:04.998Z</time></trkpt><trkpt lat="45.81045246414488" lon="11.361477381018155"><ele>314.0</ele><time>2026-04-26T15:37:05.998Z</time></trkpt><trkpt lat="45.81031286362478" lon="11.361398703891162"><ele>314.0</ele><time>2026-04-26T15:37:06.998Z</time></trkpt><trkpt lat="45.810172365937746" lon="11.361319168479046"><ele>314.0</ele><time>2026-04-26T15:37:07.998Z</time></trkpt><trkpt lat="45.81003816103001" lon="11.36123955221041"><ele>314.0</ele><time>2026-04-26T15:37:08.998Z</time></trkpt><trkpt lat="45.80989921919143" lon="11.361164440596342"><ele>314.0</ele><time>2026-04-26T15:37:09.998Z</time></trkpt><trkpt lat="45.809764274921385" lon="11.361087760008775"><ele>314.0</ele><time>2026-04-26T15:37:10.998Z</time></trkpt><trkpt lat="45.80962414673621" lon="11.361007127724578"><ele>314.0</ele><time>2026-04-26T15:37:11.998Z</time></trkpt><trkpt lat="45.80948747384426" lon="11.360931880538926"><ele>314.0</ele><time>2026-04-26T15:37:12.998Z</time></trkpt><trkpt lat="45.80934223975325" lon="11.360849329142306"><ele>314.0</ele><time>2026-04-26T15:37:13.998Z</time></trkpt><trkpt lat="45.809194217519824" lon="11.360763648452746"><ele>313.6666666666667</ele><time>2026-04-26T15:37:14.998Z</time></trkpt><trkpt lat="45.80904837423967" lon="11.360683644638113"><ele>313.3333333333333</ele><time>2026-04-26T15:37:15.998Z</time></trkpt><trkpt lat="45.808848781877785" lon="11.360584810941607"><ele>313.0</ele><time>2026-04-26T15:37:16.998Z</time></trkpt><trkpt lat="45.808616666488376" lon="11.360437874397501"><ele>312.25</ele><time>2026-04-26T15:37:17.998Z</time></trkpt><trkpt lat="45.80847699956953" lon="11.360374612456246"><ele>311.5</ele><time>2026-04-26T15:37:19.998Z</time></trkpt><trkpt lat="45.80833578097818" lon="11.36030017509976"><ele>310.75</ele><time>2026-04-26T15:37:20.998Z</time></trkpt><trkpt lat="45.80820138580162" lon="11.360224972207051"><ele>310.0</ele><time>2026-04-26T15:37:21.998Z</time></trkpt><trkpt lat="45.80807551994923" lon="11.360149015392173"><ele>310.0</ele><time>2026-04-26T15:37:22.998Z</time></trkpt><trkpt lat="45.80796061947391" lon="11.360077182620955"><ele>310.0</ele><time>2026-04-26T15:37:23.998Z</time></trkpt><trkpt lat="45.8078506101342" lon="11.360013667444052"><ele>310.0</ele><time>2026-04-26T15:37:24.998Z</time></trkpt><trkpt lat="45.80773989717659" lon="11.359944818704436"><ele>310.0</ele><time>2026-04-26T15:37:25.998Z</time></trkpt><trkpt lat="45.80762581832626" lon="11.359870577791678"><ele>309.75</ele><time>2026-04-26T15:37:26.998Z</time></trkpt><trkpt lat="45.80750516855104" lon="11.359804542469291"><ele>309.5</ele><time>2026-04-26T15:37:27.998Z</time></trkpt><trkpt lat="45.807372457705654" lon="11.35974896905227"><ele>309.25</ele><time>2026-04-26T15:37:29Z</time></trkpt><trkpt lat="45.80723876289857" lon="11.359674015485984"><ele>309.0</ele><time>2026-04-26T15:37:30Z</time></trkpt><trkpt lat="45.80710486632989" lon="11.359603936963508"><ele>309.5</ele><time>2026-04-26T15:37:31Z</time></trkpt><trkpt lat="45.80697904413826" lon="11.359537924475985"><ele>310.0</ele><time>2026-04-26T15:37:32Z</time></trkpt><trkpt lat="45.8068633044896" lon="11.359472683220718"><ele>310.5</ele><time>2026-04-26T15:37:33Z</time></trkpt><trkpt lat="45.80675125697743" lon="11.35941564123897"><ele>311.0</ele><time>2026-04-26T15:37:34Z</time></trkpt><trkpt lat="45.80664123678145" lon="11.359359346301845"><ele>311.0</ele><time>2026-04-26T15:37:35Z</time></trkpt><trkpt lat="45.80654446772094" lon="11.359318943830456"><ele>311.0</ele><time>2026-04-26T15:37:36Z</time></trkpt><trkpt lat="45.80644709725301" lon="11.359292132375218"><ele>311.0</ele><time>2026-04-26T15:37:37Z</time></trkpt><trkpt lat="45.806346438593295" lon="11.359271876521186"><ele>311.0</ele><time>2026-04-26T15:37:38Z</time></trkpt><trkpt lat="45.80624065254738" lon="11.359248560035308"><ele>311.0</ele><time>2026-04-26T15:37:39Z</time></trkpt><trkpt lat="45.80613280939394" lon="11.359226663521737"><ele>311.0</ele><time>2026-04-26T15:37:40Z</time></trkpt><trkpt lat="45.80602204958786" lon="11.3592175709673"><ele>311.0</ele><time>2026-04-26T15:37:41Z</time></trkpt><trkpt lat="45.80590604042844" lon="11.359219283269493"><ele>311.0</ele><time>2026-04-26T15:37:42Z</time></trkpt><trkpt lat="45.805789033754024" lon="11.359254680292397"><ele>311.0</ele><time>2026-04-26T15:37:43Z</time></trkpt><trkpt lat="45.805678009627115" lon="11.359294647159926"><ele>310.75</ele><time>2026-04-26T15:37:44Z</time></trkpt><trkpt lat="45.8055675619576" lon="11.359353181734997"><ele>310.5</ele><time>2026-04-26T15:37:45Z</time></trkpt><trkpt lat="45.805464163114905" lon="11.35942933977109"><ele>310.25</ele><time>2026-04-26T15:37:46Z</time></trkpt><trkpt lat="45.80535870553497" lon="11.359509317648168"><ele>310.0</ele><time>2026-04-26T15:37:47Z</time></trkpt><trkpt lat="45.805250715393214" lon="11.35959584047876"><ele>310.0</ele><time>2026-04-26T15:37:48Z</time></trkpt><trkpt lat="45.805142948956046" lon="11.359694952151456"><ele>310.0</ele><time>2026-04-26T15:37:49Z</time></trkpt><trkpt lat="45.805036188538786" lon="11.359821789537548"><ele>310.0</ele><time>2026-04-26T15:37:50Z</time></trkpt><trkpt lat="45.80493427256734" lon="11.359955034882455"><ele>310.0</ele><time>2026-04-26T15:37:51Z</time></trkpt><trkpt lat="45.80483723569906" lon="11.360103360320167"><ele>310.0</ele><time>2026-04-26T15:37:52Z</time></trkpt><trkpt lat="45.80474346711051" lon="11.360268083549347"><ele>310.0</ele><time>2026-04-26T15:37:53Z</time></trkpt><trkpt lat="45.80465725901361" lon="11.360453964719996"><ele>310.0</ele><time>2026-04-26T15:37:54Z</time></trkpt><trkpt lat="45.804579882054256" lon="11.360655125206813"><ele>309.66666666666663</ele><time>2026-04-26T15:37:55Z</time></trkpt><trkpt lat="45.80449480456241" lon="11.360874832845814"><ele>309.3333333333333</ele><time>2026-04-26T15:37:56Z</time></trkpt><trkpt lat="45.80439478800125" lon="11.36108623946732"><ele>309.0</ele><time>2026-04-26T15:37:57Z</time></trkpt><trkpt lat="45.80430283164431" lon="11.361297259993941"><ele>308.6666666666667</ele><time>2026-04-26T15:37:58Z</time></trkpt><trkpt lat="45.80422457556415" lon="11.361516015811857"><ele>308.33333333333337</ele><time>2026-04-26T15:37:59Z</time></trkpt><trkpt lat="45.804141196240174" lon="11.361726827172104"><ele>308.0</ele><time>2026-04-26T15:38:00Z</time></trkpt><trkpt lat="45.80406358499349" lon="11.36192539525201"><ele>308.0</ele><time>2026-04-26T15:38:01Z</time></trkpt><trkpt lat="45.803985215426806" lon="11.362123697704854"><ele>308.0</ele><time>2026-04-26T15:38:02Z</time></trkpt><trkpt lat="45.80390372778683" lon="11.362322341613606"><ele>308.0</ele><time>2026-04-26T15:38:03Z</time></trkpt><trkpt lat="45.80382046507059" lon="11.362519897251035"><ele>305.6666666666667</ele><time>2026-04-26T15:38:04Z</time></trkpt><trkpt lat="45.803737303743866" lon="11.362718464243793"><ele>303.3333333333333</ele><time>2026-04-26T15:38:04.999Z</time></trkpt><trkpt lat="45.80365809037522" lon="11.362918374426535"><ele>301.0</ele><time>2026-04-26T15:38:05.999Z</time></trkpt><trkpt lat="45.80358222031226" lon="11.363115816055338"><ele>301.0</ele><time>2026-04-26T15:38:06.999Z</time></trkpt><trkpt lat="45.803506020683436" lon="11.363314779449128"><ele>301.0</ele><time>2026-04-26T15:38:07.999Z</time></trkpt><trkpt lat="45.8034287335532" lon="11.363514015470065"><ele>301.0</ele><time>2026-04-26T15:38:08.999Z</time></trkpt><trkpt lat="45.80335458888966" lon="11.363718871961554"><ele>297.66666666666663</ele><time>2026-04-26T15:38:09.999Z</time></trkpt><trkpt lat="45.80328769936723" lon="11.363934303461583"><ele>294.3333333333333</ele><time>2026-04-26T15:38:10.999Z</time></trkpt><trkpt lat="45.80323427201301" lon="11.3641619604748"><ele>291.0</ele><time>2026-04-26T15:38:11.999Z</time></trkpt><trkpt lat="45.80319341218029" lon="11.364406090002376"><ele>291.0</ele><time>2026-04-26T15:38:12.999Z</time></trkpt><trkpt lat="45.80317548280395" lon="11.364649221332993"><ele>291.0</ele><time>2026-04-26T15:38:13.999Z</time></trkpt><trkpt lat="45.80316254392924" lon="11.364898007776919"><ele>291.0</ele><time>2026-04-26T15:38:14.999Z</time></trkpt><trkpt lat="45.80317005701745" lon="11.365148119086802"><ele>289.3333333333333</ele><time>2026-04-26T15:38:15.999Z</time></trkpt><trkpt lat="45.8031839406672" lon="11.36540279433097"><ele>287.66666666666663</ele><time>2026-04-26T15:38:16.999Z</time></trkpt><trkpt lat="45.803197223967" lon="11.365656103606032"><ele>286.0</ele><time>2026-04-26T15:38:17.999Z</time></trkpt><trkpt lat="45.80319919853476" lon="11.36590713084376"><ele>284.3333333333333</ele><time>2026-04-26T15:38:18.999Z</time></trkpt><trkpt lat="45.803205228494576" lon="11.366187467102051"><ele>282.6666666666667</ele><time>2026-04-26T15:38:19.999Z</time></trkpt><trkpt lat="45.803223500884" lon="11.366485871496257"><ele>281.0</ele><time>2026-04-26T15:38:20.999Z</time></trkpt><trkpt lat="45.80323509609156" lon="11.366778321221863"><ele>280.6666666666667</ele><time>2026-04-26T15:38:21.999Z</time></trkpt><trkpt lat="45.80325150512302" lon="11.367079491179103"><ele>280.3333333333333</ele><time>2026-04-26T15:38:22.999Z</time></trkpt><trkpt lat="45.80326362725758" lon="11.367375953481364"><ele>280.0</ele><time>2026-04-26T15:38:23.999Z</time></trkpt><trkpt lat="45.803278996379085" lon="11.367685534668736"><ele>278.5</ele><time>2026-04-26T15:38:24.999Z</time></trkpt><trkpt lat="45.8033002880663" lon="11.368012705985954"><ele>277.0</ele><time>2026-04-26T15:38:25.999Z</time></trkpt><trkpt lat="45.80332041801936" lon="11.368340610638302"><ele>273.0</ele><time>2026-04-26T15:38:26.999Z</time></trkpt><trkpt lat="45.803320210921896" lon="11.36868386981028"><ele>269.0</ele><time>2026-04-26T15:38:27.999Z</time></trkpt><trkpt lat="45.8033331777198" lon="11.369031152947619"><ele>266.5</ele><time>2026-04-26T15:38:28.999Z</time></trkpt><trkpt lat="45.803357665708795" lon="11.36937648274836"><ele>264.0</ele><time>2026-04-26T15:38:29.999Z</time></trkpt><trkpt lat="45.803363667720845" lon="11.369708006975241"><ele>263.0</ele><time>2026-04-26T15:38:30.999Z</time></trkpt><trkpt lat="45.803377127713254" lon="11.37003853197876"><ele>262.0</ele><time>2026-04-26T15:38:31.999Z</time></trkpt><trkpt lat="45.803390859986344" lon="11.370363596240255"><ele>261.0</ele><time>2026-04-26T15:38:32.999Z</time></trkpt><trkpt lat="45.80340307028249" lon="11.370675320206741"><ele>260.0</ele><time>2026-04-26T15:38:33.999Z</time></trkpt><trkpt lat="45.803414150513106" lon="11.370986028856919"><ele>259.0</ele><time>2026-04-26T15:38:34.999Z</time></trkpt><trkpt lat="45.80342150523482" lon="11.371299797179896"><ele>259.3333333333333</ele><time>2026-04-26T15:38:35.999Z</time></trkpt><trkpt lat="45.803419695695666" lon="11.37161309335227"><ele>259.6666666666667</ele><time>2026-04-26T15:38:36.999Z</time></trkpt><trkpt lat="45.803415227947916" lon="11.37192753576487"><ele>260.0</ele><time>2026-04-26T15:38:37.999Z</time></trkpt><trkpt lat="45.803399451585896" lon="11.372234267815516"><ele>260.0</ele><time>2026-04-26T15:38:38.999Z</time></trkpt><trkpt lat="45.80337079453969" lon="11.372546179259691"><ele>260.0</ele><time>2026-04-26T15:38:39.999Z</time></trkpt><trkpt lat="45.80333008929497" lon="11.372857682412564"><ele>260.0</ele><time>2026-04-26T15:38:40.999Z</time></trkpt><trkpt lat="45.80327984543616" lon="11.373174632700637"><ele>259.6666666666667</ele><time>2026-04-26T15:38:41.999Z</time></trkpt><trkpt lat="45.80321550565891" lon="11.373478580121608"><ele>259.3333333333333</ele><time>2026-04-26T15:38:42.999Z</time></trkpt><trkpt lat="45.80314584507559" lon="11.373775362399499"><ele>259.0</ele><time>2026-04-26T15:38:43.999Z</time></trkpt><trkpt lat="45.803063941157525" lon="11.374066084812835"><ele>259.66666666666663</ele><time>2026-04-26T15:38:44.999Z</time></trkpt><trkpt lat="45.80296916979323" lon="11.374342452546337"><ele>260.3333333333333</ele><time>2026-04-26T15:38:45.999Z</time></trkpt><trkpt lat="45.8028702144875" lon="11.374607811162285"><ele>261.0</ele><time>2026-04-26T15:38:46.999Z</time></trkpt><trkpt lat="45.8027711817481" lon="11.374855650072803"><ele>261.0</ele><time>2026-04-26T15:38:47.999Z</time></trkpt><trkpt lat="45.802666342932916" lon="11.375094576619743"><ele>261.0</ele><time>2026-04-26T15:38:48.999Z</time></trkpt><trkpt lat="45.80255304431164" lon="11.375327849050274"><ele>261.0</ele><time>2026-04-26T15:38:49.999Z</time></trkpt><trkpt lat="45.80243959177224" lon="11.375552487532383"><ele>259.3333333333333</ele><time>2026-04-26T15:38:50.999Z</time></trkpt><trkpt lat="45.80232832139627" lon="11.375777482552467"><ele>257.66666666666663</ele><time>2026-04-26T15:38:51.999Z</time></trkpt><trkpt lat="45.80221800942822" lon="11.375997297225473"><ele>256.0</ele><time>2026-04-26T15:38:52.999Z</time></trkpt><trkpt lat="45.80211427730635" lon="11.376201869928147"><ele>256.0</ele><time>2026-04-26T15:38:53.998Z</time></trkpt><trkpt lat="45.802017259610665" lon="11.376399585938822"><ele>256.0</ele><time>2026-04-26T15:38:54.998Z</time></trkpt><trkpt lat="45.80192034485094" lon="11.376592418067274"><ele>256.0</ele><time>2026-04-26T15:38:55.998Z</time></trkpt><trkpt lat="45.801824950768754" lon="11.376789811733715"><ele>256.3333333333333</ele><time>2026-04-26T15:38:56.998Z</time></trkpt><trkpt lat="45.801728762657916" lon="11.376992372465736"><ele>256.6666666666667</ele><time>2026-04-26T15:38:57.998Z</time></trkpt><trkpt lat="45.80163049364291" lon="11.377192299734393"><ele>257.0</ele><time>2026-04-26T15:38:58.998Z</time></trkpt><trkpt lat="45.80152763630089" lon="11.37739823079305"><ele>257.33333333333337</ele><time>2026-04-26T15:38:59.998Z</time></trkpt><trkpt lat="45.80142061586227" lon="11.377612830291778"><ele>257.6666666666667</ele><time>2026-04-26T15:39:00.998Z</time></trkpt><trkpt lat="45.80131601489704" lon="11.377820845857443"><ele>258.0</ele><time>2026-04-26T15:39:01.998Z</time></trkpt><trkpt lat="45.80121834281202" lon="11.378015603461003"><ele>258.0</ele><time>2026-04-26T15:39:02.998Z</time></trkpt><trkpt lat="45.801120660398155" lon="11.37820894959727"><ele>258.0</ele><time>2026-04-26T15:39:03.998Z</time></trkpt><trkpt lat="45.80101834460641" lon="11.378417324876327"><ele>258.0</ele><time>2026-04-26T15:39:04.998Z</time></trkpt><trkpt lat="45.80091552248491" lon="11.378628197318847"><ele>258.0</ele><time>2026-04-26T15:39:05.998Z</time></trkpt><trkpt lat="45.800811911056336" lon="11.378835319970127"><ele>258.0</ele><time>2026-04-26T15:39:06.998Z</time></trkpt><trkpt lat="45.800703414522786" lon="11.37905018857477"><ele>258.0</ele><time>2026-04-26T15:39:07.998Z</time></trkpt><trkpt lat="45.800593138604796" lon="11.379248775755654"><ele>258.3333333333333</ele><time>2026-04-26T15:39:08.998Z</time></trkpt><trkpt lat="45.8004823563363" lon="11.379454794994668"><ele>258.66666666666663</ele><time>2026-04-26T15:39:09.998Z</time></trkpt><trkpt lat="45.800360506009206" lon="11.379663607407684"><ele>259.0</ele><time>2026-04-26T15:39:10.998Z</time></trkpt><trkpt lat="45.800246483956144" lon="11.37988130635893"><ele>258.66666666666663</ele><time>2026-04-26T15:39:11.998Z</time></trkpt><trkpt lat="45.80013311846295" lon="11.380108851754036"><ele>258.3333333333333</ele><time>2026-04-26T15:39:12.998Z</time></trkpt><trkpt lat="45.80001637274792" lon="11.380345967582802"><ele>258.0</ele><time>2026-04-26T15:39:13.998Z</time></trkpt><trkpt lat="45.79989708212766" lon="11.380590591144458"><ele>258.0</ele><time>2026-04-26T15:39:14.998Z</time></trkpt><trkpt lat="45.79977947715571" lon="11.38083568371379"><ele>258.0</ele><time>2026-04-26T15:39:15.998Z</time></trkpt><trkpt lat="45.79966299937143" lon="11.38108550078891"><ele>258.0</ele><time>2026-04-26T15:39:16.998Z</time></trkpt><trkpt lat="45.79953070543549" lon="11.38135378410635"><ele>259.5</ele><time>2026-04-26T15:39:17.998Z</time></trkpt><trkpt lat="45.799356518748844" lon="11.381677817698257"><ele>261.0</ele><time>2026-04-26T15:39:18.998Z</time></trkpt><trkpt lat="45.799226653305425" lon="11.38196299508924"><ele>259.6666666666667</ele><time>2026-04-26T15:39:19.998Z</time></trkpt><trkpt lat="45.799203494510735" lon="11.382073822785623"><ele>258.33333333333337</ele><time>2026-04-26T15:39:20.998Z</time></trkpt><trkpt lat="45.79908295067235" lon="11.382317430175135"><ele>257.0</ele><time>2026-04-26T15:39:21.998Z</time></trkpt><trkpt lat="45.798964544614876" lon="11.382556261838793"><ele>257.0</ele><time>2026-04-26T15:39:22.998Z</time></trkpt><trkpt lat="45.79884452841156" lon="11.382799309182834"><ele>257.0</ele><time>2026-04-26T15:39:23.998Z</time></trkpt><trkpt lat="45.79872540974086" lon="11.383040874975489"><ele>257.0</ele><time>2026-04-26T15:39:24.998Z</time></trkpt><trkpt lat="45.79860675718163" lon="11.383284590617334"><ele>256.6666666666667</ele><time>2026-04-26T15:39:25.998Z</time></trkpt><trkpt lat="45.79848564598531" lon="11.383525246374482"><ele>256.3333333333333</ele><time>2026-04-26T15:39:26.998Z</time></trkpt><trkpt lat="45.79836366584555" lon="11.383769836033158"><ele>256.0</ele><time>2026-04-26T15:39:27.998Z</time></trkpt><trkpt lat="45.79824744342317" lon="11.384020373741787"><ele>256.0</ele><time>2026-04-26T15:39:28.998Z</time></trkpt><trkpt lat="45.79813852690407" lon="11.384282471820168"><ele>256.0</ele><time>2026-04-26T15:39:29.998Z</time></trkpt><trkpt lat="45.79804212790045" lon="11.384566329642494"><ele>256.0</ele><time>2026-04-26T15:39:30.998Z</time></trkpt><trkpt lat="45.797962725374454" lon="11.384865849985633"><ele>256.5</ele><time>2026-04-26T15:39:31.998Z</time></trkpt><trkpt lat="45.79788767669366" lon="11.385176415469548"><ele>257.0</ele><time>2026-04-26T15:39:32.998Z</time></trkpt><trkpt lat="45.797811243355135" lon="11.385495119283258"><ele>255.0</ele><time>2026-04-26T15:39:33.998Z</time></trkpt><trkpt lat="45.79773535017176" lon="11.38580490967151"><ele>253.0</ele><time>2026-04-26T15:39:35Z</time></trkpt><trkpt lat="45.79766615128845" lon="11.386107667625689"><ele>253.66666666666666</ele><time>2026-04-26T15:39:36Z</time></trkpt><trkpt lat="45.79760224169054" lon="11.386408456422263"><ele>254.33333333333331</ele><time>2026-04-26T15:39:37Z</time></trkpt><trkpt lat="45.7975347977226" lon="11.38670424624467"><ele>255.0</ele><time>2026-04-26T15:39:38Z</time></trkpt><trkpt lat="45.79746582456549" lon="11.38700122160803"><ele>255.33333333333331</ele><time>2026-04-26T15:39:39Z</time></trkpt><trkpt lat="45.797396615650165" lon="11.38729016268714"><ele>255.66666666666666</ele><time>2026-04-26T15:39:40Z</time></trkpt><trkpt lat="45.79733013109717" lon="11.387570320688395"><ele>256.0</ele><time>2026-04-26T15:39:41Z</time></trkpt><trkpt lat="45.79726327003194" lon="11.387843398756628"><ele>257.3333333333333</ele><time>2026-04-26T15:39:42Z</time></trkpt><trkpt lat="45.79719902227562" lon="11.388115704483917"><ele>258.6666666666667</ele><time>2026-04-26T15:39:43Z</time></trkpt><trkpt lat="45.797141036573045" lon="11.388377734181809"><ele>260.0</ele><time>2026-04-26T15:39:44Z</time></trkpt><trkpt lat="45.79707591449094" lon="11.388649351275996"><ele>262.6666666666667</ele><time>2026-04-26T15:39:45Z</time></trkpt><trkpt lat="45.79701325306662" lon="11.388919343568402"><ele>265.3333333333333</ele><time>2026-04-26T15:39:46Z</time></trkpt><trkpt lat="45.79695383756926" lon="11.389182216457103"><ele>268.0</ele><time>2026-04-26T15:39:47Z</time></trkpt><trkpt lat="45.79689290105636" lon="11.389432997324036"><ele>265.3333333333333</ele><time>2026-04-26T15:39:48Z</time></trkpt><trkpt lat="45.796835981957116" lon="11.389669910490264"><ele>262.6666666666667</ele><time>2026-04-26T15:39:49Z</time></trkpt><trkpt lat="45.79678207838172" lon="11.389898604159354"><ele>260.0</ele><time>2026-04-26T15:39:50Z</time></trkpt><trkpt lat="45.79672938973182" lon="11.390111939082363"><ele>260.0</ele><time>2026-04-26T15:39:51Z</time></trkpt><trkpt lat="45.796676264740526" lon="11.39031281485433"><ele>260.0</ele><time>2026-04-26T15:39:52Z</time></trkpt><trkpt lat="45.79660922325071" lon="11.390506267830371"><ele>260.0</ele><time>2026-04-26T15:39:53Z</time></trkpt><trkpt lat="45.796512877337804" lon="11.390701766379713"><ele>262.6666666666667</ele><time>2026-04-26T15:39:54Z</time></trkpt><trkpt lat="45.79639610502174" lon="11.390881738715274"><ele>265.3333333333333</ele><time>2026-04-26T15:39:55Z</time></trkpt><trkpt lat="45.79625803182751" lon="11.391033941920103"><ele>268.0</ele><time>2026-04-26T15:39:56Z</time></trkpt><trkpt lat="45.79610553712307" lon="11.391162928751475"><ele>265.66666666666663</ele><time>2026-04-26T15:39:57Z</time></trkpt><trkpt lat="45.79594179362317" lon="11.391271426572796"><ele>263.3333333333333</ele><time>2026-04-26T15:39:58Z</time></trkpt><trkpt lat="45.79577063333948" lon="11.391351158012844"><ele>261.0</ele><time>2026-04-26T15:39:59Z</time></trkpt><trkpt lat="45.7956048264588" lon="11.391411008666564"><ele>263.3333333333333</ele><time>2026-04-26T15:40:00Z</time></trkpt><trkpt lat="45.79545316373026" lon="11.391445461563984"><ele>265.66666666666663</ele><time>2026-04-26T15:40:01Z</time></trkpt><trkpt lat="45.79523598639376" lon="11.391543239110826"><ele>268.0</ele><time>2026-04-26T15:40:02Z</time></trkpt><trkpt lat="45.79505185079663" lon="11.391608129545725"><ele>268.0</ele><time>2026-04-26T15:40:03Z</time></trkpt><trkpt lat="45.79487108551067" lon="11.391674455166447"><ele>268.0</ele><time>2026-04-26T15:40:04Z</time></trkpt><trkpt lat="45.79467529529388" lon="11.391764681616154"><ele>268.0</ele><time>2026-04-26T15:40:05Z</time></trkpt><trkpt lat="45.79457855420464" lon="11.391810111559884"><ele>268.0</ele><time>2026-04-26T15:40:06Z</time></trkpt><trkpt lat="45.79444043765074" lon="11.391895694886747"><ele>268.0</ele><time>2026-04-26T15:40:07Z</time></trkpt><trkpt lat="45.79430229046138" lon="11.39199097983915"><ele>268.0</ele><time>2026-04-26T15:40:08Z</time></trkpt><trkpt lat="45.7941673353493" lon="11.392092537787208"><ele>270.5</ele><time>2026-04-26T15:40:08.999Z</time></trkpt><trkpt lat="45.79404282646319" lon="11.392196921502226"><ele>273.0</ele><time>2026-04-26T15:40:09.999Z</time></trkpt><trkpt lat="45.79393192870949" lon="11.392298711364637"><ele>275.5</ele><time>2026-04-26T15:40:10.999Z</time></trkpt><trkpt lat="45.79382545782672" lon="11.392414079526755"><ele>278.0</ele><time>2026-04-26T15:40:11.999Z</time></trkpt><trkpt lat="45.79371497212997" lon="11.392539832173902"><ele>278.0</ele><time>2026-04-26T15:40:12.999Z</time></trkpt><trkpt lat="45.793604274277705" lon="11.392679612528758"><ele>278.0</ele><time>2026-04-26T15:40:13.999Z</time></trkpt><trkpt lat="45.7935063578839" lon="11.392834897883175"><ele>278.0</ele><time>2026-04-26T15:40:14.999Z</time></trkpt><trkpt lat="45.79341413672493" lon="11.392996492827391"><ele>278.0</ele><time>2026-04-26T15:40:15.999Z</time></trkpt><trkpt lat="45.793319693163546" lon="11.39316791537226"><ele>279.33333333333337</ele><time>2026-04-26T15:40:16.999Z</time></trkpt><trkpt lat="45.79322778423627" lon="11.393342844757413"><ele>280.6666666666667</ele><time>2026-04-26T15:40:17.999Z</time></trkpt><trkpt lat="45.7931363338018" lon="11.393520340422635"><ele>282.0</ele><time>2026-04-26T15:40:18.999Z</time></trkpt><trkpt lat="45.793052841447754" lon="11.393722242694126"><ele>284.6666666666667</ele><time>2026-04-26T15:40:19.999Z</time></trkpt><trkpt lat="45.79298367715802" lon="11.393933232632598"><ele>287.33333333333337</ele><time>2026-04-26T15:40:20.999Z</time></trkpt><trkpt lat="45.79292655188836" lon="11.394128062508337"><ele>290.0</ele><time>2026-04-26T15:40:21.999Z</time></trkpt><trkpt lat="45.79287276162707" lon="11.394339414411853"><ele>290.0</ele><time>2026-04-26T15:40:22.999Z</time></trkpt><trkpt lat="45.79282566327068" lon="11.39455309672489"><ele>290.0</ele><time>2026-04-26T15:40:23.999Z</time></trkpt><trkpt lat="45.79278577841545" lon="11.394775713096971"><ele>290.0</ele><time>2026-04-26T15:40:24.999Z</time></trkpt><trkpt lat="45.79275594809508" lon="11.395009412280768"><ele>292.0</ele><time>2026-04-26T15:40:25.999Z</time></trkpt><trkpt lat="45.792731545777734" lon="11.395249529110874"><ele>294.0</ele><time>2026-04-26T15:40:26.999Z</time></trkpt><trkpt lat="45.79271211727535" lon="11.395491797793008"><ele>296.0</ele><time>2026-04-26T15:40:27.999Z</time></trkpt><trkpt lat="45.79270502746962" lon="11.395723010770837"><ele>296.6666666666667</ele><time>2026-04-26T15:40:28.999Z</time></trkpt><trkpt lat="45.79269839954423" lon="11.395949297397882"><ele>297.3333333333333</ele><time>2026-04-26T15:40:29.999Z</time></trkpt><trkpt lat="45.79269055123858" lon="11.396173332672157"><ele>298.0</ele><time>2026-04-26T15:40:30.999Z</time></trkpt><trkpt lat="45.79268535473732" lon="11.396397686933192"><ele>298.0</ele><time>2026-04-26T15:40:31.999Z</time></trkpt><trkpt lat="45.792677864862" lon="11.396630677813597"><ele>298.0</ele><time>2026-04-26T15:40:32.999Z</time></trkpt><trkpt lat="45.79267972488259" lon="11.396861202237346"><ele>298.0</ele><time>2026-04-26T15:40:33.999Z</time></trkpt><trkpt lat="45.792676297930434" lon="11.39708940791597"><ele>296.0</ele><time>2026-04-26T15:40:34.999Z</time></trkpt><trkpt lat="45.79266949402313" lon="11.39732734664924"><ele>294.0</ele><time>2026-04-26T15:40:35.999Z</time></trkpt><trkpt lat="45.792663236800266" lon="11.397557055109662"><ele>292.0</ele><time>2026-04-26T15:40:36.999Z</time></trkpt><trkpt lat="45.79265210969755" lon="11.397780183313774"><ele>292.0</ele><time>2026-04-26T15:40:37.999Z</time></trkpt><trkpt lat="45.79263733441057" lon="11.398002544921816"><ele>292.0</ele><time>2026-04-26T15:40:38.999Z</time></trkpt><trkpt lat="45.79261340273191" lon="11.39822761382278"><ele>292.0</ele><time>2026-04-26T15:40:39.999Z</time></trkpt><trkpt lat="45.79258522854391" lon="11.398453008690405"><ele>292.0</ele><time>2026-04-26T15:40:40.999Z</time></trkpt><trkpt lat="45.792550955256964" lon="11.398696908120971"><ele>292.0</ele><time>2026-04-26T15:40:41.999Z</time></trkpt><trkpt lat="45.79250791881889" lon="11.398947894672352"><ele>292.0</ele><time>2026-04-26T15:40:42.999Z</time></trkpt><trkpt lat="45.792456733771154" lon="11.399202821339072"><ele>292.3333333333333</ele><time>2026-04-26T15:40:43.999Z</time></trkpt><trkpt lat="45.79240172041078" lon="11.399470082219517"><ele>292.6666666666667</ele><time>2026-04-26T15:40:44.999Z</time></trkpt><trkpt lat="45.792349218035326" lon="11.39972920205918"><ele>293.0</ele><time>2026-04-26T15:40:45.999Z</time></trkpt><trkpt lat="45.79229603439583" lon="11.399991959301362"><ele>293.0</ele><time>2026-04-26T15:40:46.999Z</time></trkpt><trkpt lat="45.79224240471935" lon="11.400252522040043"><ele>293.0</ele><time>2026-04-26T15:40:47.999Z</time></trkpt><trkpt lat="45.79219008593782" lon="11.400515880246141"><ele>293.0</ele><time>2026-04-26T15:40:48.999Z</time></trkpt><trkpt lat="45.79213889134559" lon="11.40078345855314"><ele>294.33333333333337</ele><time>2026-04-26T15:40:49.999Z</time></trkpt><trkpt lat="45.79208761455035" lon="11.401046015118256"><ele>295.6666666666667</ele><time>2026-04-26T15:40:50.999Z</time></trkpt><trkpt lat="45.7920377369694" lon="11.401305037566365"><ele>297.0</ele><time>2026-04-26T15:40:51.999Z</time></trkpt><trkpt lat="45.79198636269737" lon="11.401571242006803"><ele>297.6666666666667</ele><time>2026-04-26T15:40:52.999Z</time></trkpt><trkpt lat="45.79193353842389" lon="11.401832374743329"><ele>298.33333333333337</ele><time>2026-04-26T15:40:53.999Z</time></trkpt><trkpt lat="45.791882914385326" lon="11.402093574505876"><ele>299.0</ele><time>2026-04-26T15:40:54.999Z</time></trkpt><trkpt lat="45.79183049576586" lon="11.40235139222042"><ele>299.0</ele><time>2026-04-26T15:40:55.999Z</time></trkpt><trkpt lat="45.791782747448316" lon="11.402599373281538"><ele>299.0</ele><time>2026-04-26T15:40:56.999Z</time></trkpt><trkpt lat="45.791732719731854" lon="11.402841626909828"><ele>299.0</ele><time>2026-04-26T15:40:57.999Z</time></trkpt><trkpt lat="45.79168759830343" lon="11.403073703976695"><ele>300.0</ele><time>2026-04-26T15:40:58.999Z</time></trkpt><trkpt lat="45.79164395241821" lon="11.403297612599514"><ele>301.0</ele><time>2026-04-26T15:40:59.998Z</time></trkpt><trkpt lat="45.79160202617098" lon="11.403512116802327"><ele>302.0</ele><time>2026-04-26T15:41:00.998Z</time></trkpt><trkpt lat="45.79155885042928" lon="11.403730470252144"><ele>303.6666666666667</ele><time>2026-04-26T15:41:01.998Z</time></trkpt><trkpt lat="45.791511506945916" lon="11.403951128950457"><ele>305.3333333333333</ele><time>2026-04-26T15:41:02.998Z</time></trkpt><trkpt lat="45.79146317064474" lon="11.404179345990004"><ele>307.0</ele><time>2026-04-26T15:41:03.998Z</time></trkpt><trkpt lat="45.791416699679296" lon="11.404402698507697"><ele>307.0</ele><time>2026-04-26T15:41:04.998Z</time></trkpt><trkpt lat="45.791370736002165" lon="11.404621912457237"><ele>307.0</ele><time>2026-04-26T15:41:05.998Z</time></trkpt><trkpt lat="45.79132245478871" lon="11.40484529793259"><ele>307.0</ele><time>2026-04-26T15:41:06.998Z</time></trkpt><trkpt lat="45.79126950361634" lon="11.405056635764208"><ele>308.0</ele><time>2026-04-26T15:41:07.998Z</time></trkpt><trkpt lat="45.79121571515586" lon="11.405255687616265"><ele>309.0</ele><time>2026-04-26T15:41:08.998Z</time></trkpt><trkpt lat="45.7911631121529" lon="11.405447344245902"><ele>310.0</ele><time>2026-04-26T15:41:09.998Z</time></trkpt><trkpt lat="45.79111332074393" lon="11.405630065121947"><ele>311.0</ele><time>2026-04-26T15:41:10.998Z</time></trkpt><trkpt lat="45.79106699048336" lon="11.405797216005823"><ele>311.0</ele><time>2026-04-26T15:41:11.998Z</time></trkpt><trkpt lat="45.79101860545746" lon="11.40596303430871"><ele>311.0</ele><time>2026-04-26T15:41:12.998Z</time></trkpt><trkpt lat="45.79097116491167" lon="11.406130739669587"><ele>311.0</ele><time>2026-04-26T15:41:13.998Z</time></trkpt><trkpt lat="45.790923886969615" lon="11.406295338293639"><ele>311.0</ele><time>2026-04-26T15:41:14.998Z</time></trkpt><trkpt lat="45.79087800448119" lon="11.406460499577191"><ele>311.25</ele><time>2026-04-26T15:41:15.998Z</time></trkpt><trkpt lat="45.79083684537243" lon="11.406620230973772"><ele>311.5</ele><time>2026-04-26T15:41:16.998Z</time></trkpt><trkpt lat="45.79079269615546" lon="11.406771560027854"><ele>311.75</ele><time>2026-04-26T15:41:17.998Z</time></trkpt><trkpt lat="45.790746729264" lon="11.406936239710067"><ele>312.0</ele><time>2026-04-26T15:41:18.998Z</time></trkpt><trkpt lat="45.79069565555362" lon="11.407106020880176"><ele>311.0</ele><time>2026-04-26T15:41:19.998Z</time></trkpt><trkpt lat="45.79064900366534" lon="11.407278685649773"><ele>310.0</ele><time>2026-04-26T15:41:20.998Z</time></trkpt><trkpt lat="45.79060249565421" lon="11.407446554110592"><ele>309.0</ele><time>2026-04-26T15:41:21.998Z</time></trkpt><trkpt lat="45.79055729401685" lon="11.40762037290935"><ele>308.0</ele><time>2026-04-26T15:41:22.998Z</time></trkpt><trkpt lat="45.79050638663276" lon="11.4078045388162"><ele>307.5</ele><time>2026-04-26T15:41:23.998Z</time></trkpt><trkpt lat="45.79045299155615" lon="11.407994368133004"><ele>307.0</ele><time>2026-04-26T15:41:24.998Z</time></trkpt><trkpt lat="45.79039540174131" lon="11.408184051716033"><ele>306.5</ele><time>2026-04-26T15:41:25.998Z</time></trkpt><trkpt lat="45.79034154232212" lon="11.408370402909735"><ele>306.0</ele><time>2026-04-26T15:41:26.998Z</time></trkpt><trkpt lat="45.790285278683356" lon="11.40856272132631"><ele>306.0</ele><time>2026-04-26T15:41:27.998Z</time></trkpt><trkpt lat="45.79023283229731" lon="11.40874339172407"><ele>306.0</ele><time>2026-04-26T15:41:28.998Z</time></trkpt><trkpt lat="45.79017724062817" lon="11.40892248188165"><ele>306.0</ele><time>2026-04-26T15:41:29.998Z</time></trkpt><trkpt lat="45.79011874592423" lon="11.409110577741457"><ele>306.0</ele><time>2026-04-26T15:41:30.998Z</time></trkpt><trkpt lat="45.790058910671306" lon="11.409287003267922"><ele>305.0</ele><time>2026-04-26T15:41:31.998Z</time></trkpt><trkpt lat="45.78999269321738" lon="11.409449764822572"><ele>304.0</ele><time>2026-04-26T15:41:32.998Z</time></trkpt><trkpt lat="45.7899226362373" lon="11.409608870510086"><ele>303.0</ele><time>2026-04-26T15:41:33.998Z</time></trkpt><trkpt lat="45.78985412915779" lon="11.409761427077177"><ele>302.0</ele><time>2026-04-26T15:41:34.998Z</time></trkpt><trkpt lat="45.78978314269183" lon="11.409906597825891"><ele>301.75</ele><time>2026-04-26T15:41:35.998Z</time></trkpt><trkpt lat="45.789710092208175" lon="11.410044948930873"><ele>301.5</ele><time>2026-04-26T15:41:36.998Z</time></trkpt><trkpt lat="45.789626036751315" lon="11.4101768518719"><ele>301.25</ele><time>2026-04-26T15:41:37.998Z</time></trkpt><trkpt lat="45.7895306397181" lon="11.410304953569874"><ele>301.0</ele><time>2026-04-26T15:41:38.998Z</time></trkpt><trkpt lat="45.78945174881242" lon="11.410444542552288"><ele>301.25</ele><time>2026-04-26T15:41:39.998Z</time></trkpt><trkpt lat="45.78938447984795" lon="11.410615471517874"><ele>301.5</ele><time>2026-04-26T15:41:41Z</time></trkpt><trkpt lat="45.78930289786821" lon="11.410783044219206"><ele>301.75</ele><time>2026-04-26T15:41:42Z</time></trkpt><trkpt lat="45.789210891008445" lon="11.410938382779898"><ele>302.0</ele><time>2026-04-26T15:41:43Z</time></trkpt><trkpt lat="45.789113092418404" lon="11.411109273342781"><ele>302.0</ele><time>2026-04-26T15:41:44Z</time></trkpt><trkpt lat="45.78901355455696" lon="11.411285701145184"><ele>302.0</ele><time>2026-04-26T15:41:45Z</time></trkpt><trkpt lat="45.788916838131094" lon="11.411459102191785"><ele>302.0</ele><time>2026-04-26T15:41:46Z</time></trkpt><trkpt lat="45.788825937876965" lon="11.411625379963198"><ele>302.0</ele><time>2026-04-26T15:41:47Z</time></trkpt><trkpt lat="45.788729458183795" lon="11.411794387927845"><ele>302.0</ele><time>2026-04-26T15:41:48Z</time></trkpt><trkpt lat="45.78864630900986" lon="11.411946902425338"><ele>302.0</ele><time>2026-04-26T15:41:49Z</time></trkpt><trkpt lat="45.788590330928166" lon="11.412044437563866"><ele>302.0</ele><time>2026-04-26T15:41:50Z</time></trkpt><trkpt lat="45.78848559780038" lon="11.412225838019491"><ele>301.0</ele><time>2026-04-26T15:41:51Z</time></trkpt><trkpt lat="45.7883417361151" lon="11.412474679054279"><ele>300.0</ele><time>2026-04-26T15:41:52Z</time></trkpt><trkpt lat="45.78823786857508" lon="11.412657546689706"><ele>299.0</ele><time>2026-04-26T15:41:53Z</time></trkpt><trkpt lat="45.78812838987331" lon="11.412848367251089"><ele>300.0</ele><time>2026-04-26T15:41:54Z</time></trkpt><trkpt lat="45.788020826578865" lon="11.413036857944736"><ele>301.0</ele><time>2026-04-26T15:41:55Z</time></trkpt><trkpt lat="45.78791179837459" lon="11.413237112060576"><ele>302.0</ele><time>2026-04-26T15:41:56Z</time></trkpt><trkpt lat="45.78781518928579" lon="11.413436203774202"><ele>302.0</ele><time>2026-04-26T15:41:57Z</time></trkpt><trkpt lat="45.7877202914368" lon="11.413649551438374"><ele>302.0</ele><time>2026-04-26T15:41:58Z</time></trkpt><trkpt lat="45.78763369740878" lon="11.413864632142253"><ele>302.0</ele><time>2026-04-26T15:41:59Z</time></trkpt><trkpt lat="45.78755601922214" lon="11.414072331024512"><ele>303.0</ele><time>2026-04-26T15:42:00Z</time></trkpt><trkpt lat="45.787486499393694" lon="11.414274995444321"><ele>304.0</ele><time>2026-04-26T15:42:01Z</time></trkpt><trkpt lat="45.78741435081523" lon="11.414474203782722"><ele>305.0</ele><time>2026-04-26T15:42:02Z</time></trkpt><trkpt lat="45.78734532272105" lon="11.414664489951626"><ele>305.33333333333337</ele><time>2026-04-26T15:42:03Z</time></trkpt><trkpt lat="45.78727775851829" lon="11.414858809036357"><ele>305.6666666666667</ele><time>2026-04-26T15:42:04Z</time></trkpt><trkpt lat="45.78720686817848" lon="11.415055096455012"><ele>306.0</ele><time>2026-04-26T15:42:05Z</time></trkpt><trkpt lat="45.7871325530562" lon="11.41525548118117"><ele>306.0</ele><time>2026-04-26T15:42:06Z</time></trkpt><trkpt lat="45.78705753502399" lon="11.415462245468392"><ele>306.0</ele><time>2026-04-26T15:42:07Z</time></trkpt><trkpt lat="45.786990989003804" lon="11.415667653898945"><ele>306.0</ele><time>2026-04-26T15:42:08Z</time></trkpt><trkpt lat="45.78691582644557" lon="11.415871752163618"><ele>305.3333333333333</ele><time>2026-04-26T15:42:09Z</time></trkpt><trkpt lat="45.786838550936054" lon="11.41607767224407"><ele>304.66666666666663</ele><time>2026-04-26T15:42:10Z</time></trkpt><trkpt lat="45.78676138810907" lon="11.416293128926318"><ele>304.0</ele><time>2026-04-26T15:42:11Z</time></trkpt><trkpt lat="45.78668511619318" lon="11.416496195061434"><ele>305.66666666666663</ele><time>2026-04-26T15:42:12Z</time></trkpt><trkpt lat="45.78660816190708" lon="11.416700267965519"><ele>307.3333333333333</ele><time>2026-04-26T15:42:13Z</time></trkpt><trkpt lat="45.786538889088504" lon="11.416903638338198"><ele>309.0</ele><time>2026-04-26T15:42:13.999Z</time></trkpt><trkpt lat="45.786474815508555" lon="11.417084462871985"><ele>308.5</ele><time>2026-04-26T15:42:14.999Z</time></trkpt><trkpt lat="45.78642178310483" lon="11.417283176415667"><ele>308.0</ele><time>2026-04-26T15:42:15.999Z</time></trkpt><trkpt lat="45.78634012398892" lon="11.417471399510038"><ele>307.5</ele><time>2026-04-26T15:42:16.999Z</time></trkpt><trkpt lat="45.78627468271775" lon="11.41765302584426"><ele>307.0</ele><time>2026-04-26T15:42:17.999Z</time></trkpt><trkpt lat="45.786209026991266" lon="11.417834594387259"><ele>307.0</ele><time>2026-04-26T15:42:18.999Z</time></trkpt><trkpt lat="45.78614742047707" lon="11.418004964993296"><ele>307.0</ele><time>2026-04-26T15:42:19.999Z</time></trkpt><trkpt lat="45.786093106774906" lon="11.418154328365713"><ele>307.0</ele><time>2026-04-26T15:42:20.999Z</time></trkpt><trkpt lat="45.78604315891187" lon="11.418291276865022"><ele>307.0</ele><time>2026-04-26T15:42:21.999Z</time></trkpt><trkpt lat="45.78599733765321" lon="11.418415042470365"><ele>306.16666666666663</ele><time>2026-04-26T15:42:22.999Z</time></trkpt><trkpt lat="45.78595552881302" lon="11.418529115768283"><ele>305.3333333333333</ele><time>2026-04-26T15:42:23.999Z</time></trkpt><trkpt lat="45.78591768815553" lon="11.41863236200306"><ele>304.5</ele><time>2026-04-26T15:42:24.999Z</time></trkpt><trkpt lat="45.78587941813387" lon="11.418738614795966"><ele>303.6666666666667</ele><time>2026-04-26T15:42:25.999Z</time></trkpt><trkpt lat="45.785847426194906" lon="11.418828811344785"><ele>302.83333333333337</ele><time>2026-04-26T15:42:26.999Z</time></trkpt><trkpt lat="45.78581568738571" lon="11.418918294560878"><ele>302.0</ele><time>2026-04-26T15:42:27.999Z</time></trkpt><trkpt lat="45.785780266915715" lon="11.419018159961695"><ele>301.8</ele><time>2026-04-26T15:42:28.999Z</time></trkpt><trkpt lat="45.78573564768625" lon="11.41914183959285"><ele>301.6</ele><time>2026-04-26T15:42:29.999Z</time></trkpt><trkpt lat="45.785701448434146" lon="11.419283468975795"><ele>301.40000000000003</ele><time>2026-04-26T15:42:30.999Z</time></trkpt><trkpt lat="45.78565397849176" lon="11.41941859965906"><ele>301.2</ele><time>2026-04-26T15:42:31.999Z</time></trkpt><trkpt lat="45.78559948172473" lon="11.41955393482795"><ele>301.0</ele><time>2026-04-26T15:42:32.999Z</time></trkpt><trkpt lat="45.78554578305809" lon="11.419694576735198"><ele>300.75</ele><time>2026-04-26T15:42:33.999Z</time></trkpt><trkpt lat="45.78549451127135" lon="11.41985091222034"><ele>300.5</ele><time>2026-04-26T15:42:34.999Z</time></trkpt><trkpt lat="45.785436760193015" lon="11.42000103352489"><ele>300.25</ele><time>2026-04-26T15:42:35.999Z</time></trkpt><trkpt lat="45.7853804570004" lon="11.420157281493383"><ele>300.0</ele><time>2026-04-26T15:42:36.999Z</time></trkpt><trkpt lat="45.78532418446359" lon="11.420306677958832"><ele>300.0</ele><time>2026-04-26T15:42:37.999Z</time></trkpt><trkpt lat="45.78526858790886" lon="11.420457269641503"><ele>300.0</ele><time>2026-04-26T15:42:38.999Z</time></trkpt><trkpt lat="45.78521656651985" lon="11.420603050786884"><ele>300.0</ele><time>2026-04-26T15:42:39.999Z</time></trkpt><trkpt lat="45.78516301039232" lon="11.420756695930002"><ele>300.0</ele><time>2026-04-26T15:42:40.999Z</time></trkpt><trkpt lat="45.78510649534208" lon="11.420910167113325"><ele>299.75</ele><time>2026-04-26T15:42:41.999Z</time></trkpt><trkpt lat="45.7850495052569" lon="11.421065589176084"><ele>299.5</ele><time>2026-04-26T15:42:42.999Z</time></trkpt><trkpt lat="45.784993519053295" lon="11.421218170828695"><ele>299.25</ele><time>2026-04-26T15:42:43.999Z</time></trkpt><trkpt lat="45.78492766568329" lon="11.421387901906186"><ele>299.0</ele><time>2026-04-26T15:42:44.999Z</time></trkpt><trkpt lat="45.78484413454063" lon="11.421594998756579"><ele>298.75</ele><time>2026-04-26T15:42:45.999Z</time></trkpt><trkpt lat="45.7847829822532" lon="11.421756332380415"><ele>298.5</ele><time>2026-04-26T15:42:46.999Z</time></trkpt><trkpt lat="45.78474949930018" lon="11.421898098192194"><ele>298.25</ele><time>2026-04-26T15:42:47.999Z</time></trkpt><trkpt lat="45.78469672420578" lon="11.42205307839183"><ele>298.0</ele><time>2026-04-26T15:42:48.999Z</time></trkpt><trkpt lat="45.78464482889842" lon="11.422194917310039"><ele>298.0</ele><time>2026-04-26T15:42:49.999Z</time></trkpt><trkpt lat="45.7845893702257" lon="11.422333134183969"><ele>298.0</ele><time>2026-04-26T15:42:50.999Z</time></trkpt><trkpt lat="45.78453853949695" lon="11.422475982384588"><ele>298.0</ele><time>2026-04-26T15:42:51.999Z</time></trkpt><trkpt lat="45.784483916653784" lon="11.422616467774208"><ele>298.0</ele><time>2026-04-26T15:42:52.999Z</time></trkpt><trkpt lat="45.784428465844535" lon="11.42274751553652"><ele>298.0</ele><time>2026-04-26T15:42:53.999Z</time></trkpt><trkpt lat="45.78437869594997" lon="11.422877485232808"><ele>298.0</ele><time>2026-04-26T15:42:54.999Z</time></trkpt><trkpt lat="45.784335602668996" lon="11.422999264616603"><ele>298.0</ele><time>2026-04-26T15:42:55.999Z</time></trkpt><trkpt lat="45.78428711194849" lon="11.423115533756187"><ele>298.0</ele><time>2026-04-26T15:42:56.999Z</time></trkpt><trkpt lat="45.784246410299744" lon="11.423225645212812"><ele>298.0</ele><time>2026-04-26T15:42:57.999Z</time></trkpt><trkpt lat="45.784211690373546" lon="11.423321345278227"><ele>298.0</ele><time>2026-04-26T15:42:58.999Z</time></trkpt><trkpt lat="45.7841769374531" lon="11.423411710109143"><ele>298.0</ele><time>2026-04-26T15:42:59.999Z</time></trkpt><trkpt lat="45.78411242822635" lon="11.423549943207647"><ele>298.0</ele><time>2026-04-26T15:43:01.999Z</time></trkpt><trkpt lat="45.78403585186507" lon="11.42369492678691"><ele>298.0</ele><time>2026-04-26T15:43:03.999Z</time></trkpt><trkpt lat="45.78398590173029" lon="11.423795421902604"><ele>298.0</ele><time>2026-04-26T15:43:04.999Z</time></trkpt><trkpt lat="45.78395272994803" lon="11.423945257081243"><ele>298.0</ele><time>2026-04-26T15:43:05.999Z</time></trkpt><trkpt lat="45.78392995937986" lon="11.424121783956513"><ele>298.0</ele><time>2026-04-26T15:43:06.998Z</time></trkpt><trkpt lat="45.7838777015379" lon="11.424304598981667"><ele>298.3333333333333</ele><time>2026-04-26T15:43:07.998Z</time></trkpt><trkpt lat="45.78380450934585" lon="11.424489967154488"><ele>298.6666666666667</ele><time>2026-04-26T15:43:08.998Z</time></trkpt><trkpt lat="45.783725251150955" lon="11.424682090754759"><ele>299.0</ele><time>2026-04-26T15:43:09.998Z</time></trkpt><trkpt lat="45.78364472219468" lon="11.424895299163879"><ele>299.0</ele><time>2026-04-26T15:43:10.998Z</time></trkpt><trkpt lat="45.78356302944013" lon="11.425116821737015"><ele>299.0</ele><time>2026-04-26T15:43:11.998Z</time></trkpt><trkpt lat="45.783478047696754" lon="11.425344915254534"><ele>299.0</ele><time>2026-04-26T15:43:12.998Z</time></trkpt><trkpt lat="45.783392693582805" lon="11.425568286791668"><ele>297.6666666666667</ele><time>2026-04-26T15:43:13.998Z</time></trkpt><trkpt lat="45.78330948083583" lon="11.425808264937233"><ele>296.3333333333333</ele><time>2026-04-26T15:43:14.998Z</time></trkpt><trkpt lat="45.78321842358199" lon="11.426056749429081"><ele>295.0</ele><time>2026-04-26T15:43:15.998Z</time></trkpt><trkpt lat="45.78312984577529" lon="11.426296881428"><ele>295.3333333333333</ele><time>2026-04-26T15:43:16.998Z</time></trkpt><trkpt lat="45.78304016891396" lon="11.426529330337562"><ele>295.6666666666667</ele><time>2026-04-26T15:43:17.998Z</time></trkpt><trkpt lat="45.78295725902778" lon="11.4267469062044"><ele>296.0</ele><time>2026-04-26T15:43:18.998Z</time></trkpt><trkpt lat="45.78287864921442" lon="11.426961103916888"><ele>295.33333333333337</ele><time>2026-04-26T15:43:19.998Z</time></trkpt><trkpt lat="45.78280213319312" lon="11.427170898303546"><ele>294.6666666666667</ele><time>2026-04-26T15:43:20.998Z</time></trkpt><trkpt lat="45.78272608046419" lon="11.427380868109873"><ele>294.0</ele><time>2026-04-26T15:43:21.998Z</time></trkpt><trkpt lat="45.782651648698625" lon="11.427580168468943"><ele>293.5</ele><time>2026-04-26T15:43:22.998Z</time></trkpt><trkpt lat="45.78257857252202" lon="11.427767676652698"><ele>293.0</ele><time>2026-04-26T15:43:23.998Z</time></trkpt><trkpt lat="45.78250484549435" lon="11.427943162179254"><ele>292.5</ele><time>2026-04-26T15:43:24.998Z</time></trkpt><trkpt lat="45.78242908030845" lon="11.428114355766057"><ele>292.0</ele><time>2026-04-26T15:43:25.998Z</time></trkpt><trkpt lat="45.78235030828185" lon="11.428273418183476"><ele>291.66666666666663</ele><time>2026-04-26T15:43:26.998Z</time></trkpt><trkpt lat="45.78225851414759" lon="11.428432776438155"><ele>291.3333333333333</ele><time>2026-04-26T15:43:27.998Z</time></trkpt><trkpt lat="45.78215142271408" lon="11.428588621616553"><ele>291.0</ele><time>2026-04-26T15:43:28.998Z</time></trkpt><trkpt lat="45.78203599871599" lon="11.42873512816048"><ele>291.3333333333333</ele><time>2026-04-26T15:43:29.998Z</time></trkpt><trkpt lat="45.781898183553956" lon="11.428886530373642"><ele>291.66666666666663</ele><time>2026-04-26T15:43:30.998Z</time></trkpt><trkpt lat="45.78175978260051" lon="11.42901029783511"><ele>292.0</ele><time>2026-04-26T15:43:31.998Z</time></trkpt><trkpt lat="45.78162286287923" lon="11.429121243069881"><ele>291.0</ele><time>2026-04-26T15:43:32.998Z</time></trkpt><trkpt lat="45.78148655201355" lon="11.429215455635392"><ele>290.0</ele><time>2026-04-26T15:43:33.998Z</time></trkpt><trkpt lat="45.78134952238723" lon="11.429293190699937"><ele>289.0</ele><time>2026-04-26T15:43:34.998Z</time></trkpt><trkpt lat="45.781204061499864" lon="11.429362568144853"><ele>289.0</ele><time>2026-04-26T15:43:35.998Z</time></trkpt><trkpt lat="45.78105817593874" lon="11.429416943484453"><ele>289.0</ele><time>2026-04-26T15:43:36.998Z</time></trkpt><trkpt lat="45.780896811331665" lon="11.429454371349845"><ele>289.0</ele><time>2026-04-26T15:43:37.998Z</time></trkpt><trkpt lat="45.78073177655895" lon="11.429478220291566"><ele>289.66666666666663</ele><time>2026-04-26T15:43:38.998Z</time></trkpt><trkpt lat="45.780569142294546" lon="11.429480165555143"><ele>290.3333333333333</ele><time>2026-04-26T15:43:39.998Z</time></trkpt><trkpt lat="45.78040467428927" lon="11.42946191748708"><ele>291.0</ele><time>2026-04-26T15:43:40.998Z</time></trkpt><trkpt lat="45.780247375965246" lon="11.429428278926956"><ele>291.0</ele><time>2026-04-26T15:43:41.998Z</time></trkpt><trkpt lat="45.78008177412074" lon="11.429388773581975"><ele>291.0</ele><time>2026-04-26T15:43:42.998Z</time></trkpt><trkpt lat="45.779919002312326" lon="11.42935864816076"><ele>291.0</ele><time>2026-04-26T15:43:43.998Z</time></trkpt><trkpt lat="45.77976083107342" lon="11.429331258096205"><ele>291.0</ele><time>2026-04-26T15:43:44.998Z</time></trkpt><trkpt lat="45.77960282825973" lon="11.429301111014022"><ele>291.0</ele><time>2026-04-26T15:43:45.998Z</time></trkpt><trkpt lat="45.77944331461584" lon="11.429272830239725"><ele>291.0</ele><time>2026-04-26T15:43:47Z</time></trkpt><trkpt lat="45.77927930393363" lon="11.429240896860904"><ele>290.3333333333333</ele><time>2026-04-26T15:43:48Z</time></trkpt><trkpt lat="45.779114255981604" lon="11.429208063244804"><ele>289.66666666666663</ele><time>2026-04-26T15:43:49Z</time></trkpt><trkpt lat="45.77894845734085" lon="11.429178656424877"><ele>289.0</ele><time>2026-04-26T15:43:50Z</time></trkpt><trkpt lat="45.778789255881414" lon="11.429145005819079"><ele>289.0</ele><time>2026-04-26T15:43:51Z</time></trkpt><trkpt lat="45.77862167379863" lon="11.42910837846813"><ele>289.0</ele><time>2026-04-26T15:43:52Z</time></trkpt><trkpt lat="45.77845987881206" lon="11.42907793140859"><ele>289.0</ele><time>2026-04-26T15:43:53Z</time></trkpt><trkpt lat="45.778299363365214" lon="11.429046716450285"><ele>288.3333333333333</ele><time>2026-04-26T15:43:54Z</time></trkpt><trkpt lat="45.77813680957852" lon="11.429000199352846"><ele>287.6666666666667</ele><time>2026-04-26T15:43:55Z</time></trkpt><trkpt lat="45.777973195983485" lon="11.428946263756096"><ele>287.0</ele><time>2026-04-26T15:43:56Z</time></trkpt><trkpt lat="45.77779777283357" lon="11.428880126589162"><ele>285.6666666666667</ele><time>2026-04-26T15:43:57Z</time></trkpt><trkpt lat="45.777630077172354" lon="11.428802994931106"><ele>284.3333333333333</ele><time>2026-04-26T15:43:58Z</time></trkpt><trkpt lat="45.77746083735814" lon="11.42872569247109"><ele>283.0</ele><time>2026-04-26T15:43:59Z</time></trkpt><trkpt lat="45.77729658470287" lon="11.428649208204604"><ele>283.0</ele><time>2026-04-26T15:44:00Z</time></trkpt><trkpt lat="45.77713494128477" lon="11.428578324350374"><ele>283.0</ele><time>2026-04-26T15:44:01Z</time></trkpt><trkpt lat="45.77697756034159" lon="11.42850983243182"><ele>283.0</ele><time>2026-04-26T15:44:02Z</time></trkpt><trkpt lat="45.77682065625219" lon="11.428436816559316"><ele>282.3333333333333</ele><time>2026-04-26T15:44:03Z</time></trkpt><trkpt lat="45.77666358901297" lon="11.428362947570506"><ele>281.6666666666667</ele><time>2026-04-26T15:44:04Z</time></trkpt><trkpt lat="45.776506073227246" lon="11.42829239789475"><ele>281.0</ele><time>2026-04-26T15:44:05Z</time></trkpt><trkpt lat="45.77635044351812" lon="11.42821874307474"><ele>281.0</ele><time>2026-04-26T15:44:06Z</time></trkpt><trkpt lat="45.77619866539435" lon="11.428144940745563"><ele>281.0</ele><time>2026-04-26T15:44:07Z</time></trkpt><trkpt lat="45.77605636846704" lon="11.428075343592806"><ele>281.0</ele><time>2026-04-26T15:44:08Z</time></trkpt><trkpt lat="45.77591677470394" lon="11.428010932807771"><ele>281.0</ele><time>2026-04-26T15:44:09Z</time></trkpt><trkpt lat="45.775790945607696" lon="11.427948847139938"><ele>281.0</ele><time>2026-04-26T15:44:10Z</time></trkpt><trkpt lat="45.77566017294312" lon="11.427890932573831"><ele>281.0</ele><time>2026-04-26T15:44:11Z</time></trkpt><trkpt lat="45.77552759638607" lon="11.42783462204322"><ele>281.0</ele><time>2026-04-26T15:44:12Z</time></trkpt><trkpt lat="45.775392270192576" lon="11.427770343978596"><ele>281.0</ele><time>2026-04-26T15:44:13Z</time></trkpt><trkpt lat="45.77524554275662" lon="11.427707758546353"><ele>281.0</ele><time>2026-04-26T15:44:14Z</time></trkpt><trkpt lat="45.77509674025714" lon="11.427644234263324"><ele>281.0</ele><time>2026-04-26T15:44:15Z</time></trkpt><trkpt lat="45.77495606051051" lon="11.427571817831854"><ele>281.6666666666667</ele><time>2026-04-26T15:44:16Z</time></trkpt><trkpt lat="45.77479926628333" lon="11.427494822345686"><ele>282.3333333333333</ele><time>2026-04-26T15:44:17Z</time></trkpt><trkpt lat="45.77463729167475" lon="11.427415912325591"><ele>283.0</ele><time>2026-04-26T15:44:18Z</time></trkpt><trkpt lat="45.77447388002688" lon="11.427335892965047"><ele>282.66666666666663</ele><time>2026-04-26T15:44:19Z</time></trkpt><trkpt lat="45.77431415264691" lon="11.427258075966522"><ele>282.3333333333333</ele><time>2026-04-26T15:44:20Z</time></trkpt><trkpt lat="45.77416211353922" lon="11.427176908930191"><ele>282.0</ele><time>2026-04-26T15:44:20.999Z</time></trkpt><trkpt lat="45.774009245069394" lon="11.427093790058935"><ele>281.3333333333333</ele><time>2026-04-26T15:44:21.999Z</time></trkpt><trkpt lat="45.773856931722825" lon="11.427014682721635"><ele>280.66666666666663</ele><time>2026-04-26T15:44:22.999Z</time></trkpt><trkpt lat="45.773707101651" lon="11.426936069570539"><ele>280.0</ele><time>2026-04-26T15:44:23.999Z</time></trkpt><trkpt lat="45.77355805350057" lon="11.426856607194638"><ele>280.3333333333333</ele><time>2026-04-26T15:44:24.999Z</time></trkpt><trkpt lat="45.77340698293149" lon="11.426778293890075"><ele>280.6666666666667</ele><time>2026-04-26T15:44:25.999Z</time></trkpt><trkpt lat="45.773252977937474" lon="11.42669312233739"><ele>281.0</ele><time>2026-04-26T15:44:26.999Z</time></trkpt><trkpt lat="45.77309824191065" lon="11.42660827274555"><ele>281.0</ele><time>2026-04-26T15:44:27.999Z</time></trkpt><trkpt lat="45.772943398073046" lon="11.426526420915012"><ele>281.0</ele><time>2026-04-26T15:44:28.999Z</time></trkpt><trkpt lat="45.77280807215451" lon="11.426438489122138"><ele>281.0</ele><time>2026-04-26T15:44:29.999Z</time></trkpt><trkpt lat="45.77265579717685" lon="11.426368319189155"><ele>277.75</ele><time>2026-04-26T15:44:30.999Z</time></trkpt><trkpt lat="45.77250263208975" lon="11.426301085154678"><ele>274.5</ele><time>2026-04-26T15:44:31.999Z</time></trkpt><trkpt lat="45.772353275664514" lon="11.426248324504071"><ele>271.25</ele><time>2026-04-26T15:44:32.999Z</time></trkpt><trkpt lat="45.77223636500883" lon="11.426201775317583"><ele>268.0</ele><time>2026-04-26T15:44:33.999Z</time></trkpt><trkpt lat="45.77215554635224" lon="11.426145811152008"><ele>268.0</ele><time>2026-04-26T15:44:34.999Z</time></trkpt><trkpt lat="45.77208414948479" lon="11.42610122367021"><ele>268.0</ele><time>2026-04-26T15:44:35.999Z</time></trkpt><trkpt lat="45.77201578998007" lon="11.426053653334602"><ele>268.0</ele><time>2026-04-26T15:44:36.999Z</time></trkpt><trkpt lat="45.77162414664912" lon="11.425920032387651"><ele>264.0</ele><time>2026-04-26T15:44:37.999Z</time></trkpt><trkpt lat="45.771481318692636" lon="11.425857649270203"><ele>260.0</ele><time>2026-04-26T15:44:38.999Z</time></trkpt><trkpt lat="45.771337804315415" lon="11.425794922829347"><ele>256.0</ele><time>2026-04-26T15:44:39.999Z</time></trkpt><trkpt lat="45.77119975454037" lon="11.425734975083559"><ele>252.0</ele><time>2026-04-26T15:44:40.999Z</time></trkpt><trkpt lat="45.771061219719265" lon="11.425675417584387"><ele>262.0</ele><time>2026-04-26T15:44:41.999Z</time></trkpt><trkpt lat="45.77092123380214" lon="11.425615234626004"><ele>272.0</ele><time>2026-04-26T15:44:42.999Z</time></trkpt><trkpt lat="45.77078359515424" lon="11.42555962533145"><ele>282.0</ele><time>2026-04-26T15:44:43.999Z</time></trkpt><trkpt lat="45.77064934770087" lon="11.425531736690129"><ele>292.0</ele><time>2026-04-26T15:44:44.999Z</time></trkpt><trkpt lat="45.7705201268233" lon="11.425490771223496"><ele>292.0</ele><time>2026-04-26T15:44:45.999Z</time></trkpt><trkpt lat="45.77039063181182" lon="11.425469473808862"><ele>292.0</ele><time>2026-04-26T15:44:46.999Z</time></trkpt><trkpt lat="45.77026534896847" lon="11.425489076373676"><ele>292.0</ele><time>2026-04-26T15:44:47.999Z</time></trkpt><trkpt lat="45.77014505627288" lon="11.425491273358121"><ele>292.0</ele><time>2026-04-26T15:44:48.999Z</time></trkpt><trkpt lat="45.77002940309474" lon="11.42551070082926"><ele>293.6</ele><time>2026-04-26T15:44:49.999Z</time></trkpt><trkpt lat="45.769921649866646" lon="11.425545887377844"><ele>295.2</ele><time>2026-04-26T15:44:50.999Z</time></trkpt><trkpt lat="45.76982126297226" lon="11.425602870622075"><ele>296.8</ele><time>2026-04-26T15:44:51.999Z</time></trkpt><trkpt lat="45.769736447846675" lon="11.425667027550391"><ele>298.4</ele><time>2026-04-26T15:44:52.999Z</time></trkpt><trkpt lat="45.769662720592244" lon="11.425749530387327"><ele>300.0</ele><time>2026-04-26T15:44:53.999Z</time></trkpt><trkpt lat="45.769592728860644" lon="11.425833027818765"><ele>300.0</ele><time>2026-04-26T15:44:54.999Z</time></trkpt><trkpt lat="45.769528490940374" lon="11.42592935550472"><ele>300.0</ele><time>2026-04-26T15:44:55.999Z</time></trkpt><trkpt lat="45.769469922369105" lon="11.426038382396916"><ele>300.0</ele><time>2026-04-26T15:44:56.999Z</time></trkpt><trkpt lat="45.76941465216063" lon="11.426152077259948"><ele>300.0</ele><time>2026-04-26T15:44:57.999Z</time></trkpt><trkpt lat="45.76935290944015" lon="11.42627822641843"><ele>300.0</ele><time>2026-04-26T15:44:58.999Z</time></trkpt><trkpt lat="45.76929106042544" lon="11.426408694751794"><ele>299.2</ele><time>2026-04-26T15:44:59.999Z</time></trkpt><trkpt lat="45.76923182817422" lon="11.426537291666362"><ele>298.4</ele><time>2026-04-26T15:45:00.999Z</time></trkpt><trkpt lat="45.769176656167296" lon="11.426672619390649"><ele>297.6</ele><time>2026-04-26T15:45:01.999Z</time></trkpt><trkpt lat="45.769127900298685" lon="11.426785318944649"><ele>296.8</ele><time>2026-04-26T15:45:02.999Z</time></trkpt><trkpt lat="45.76908068625813" lon="11.426899335507088"><ele>296.0</ele><time>2026-04-26T15:45:03.999Z</time></trkpt><trkpt lat="45.76902961651735" lon="11.427018455991526"><ele>294.40000000000003</ele><time>2026-04-26T15:45:04.999Z</time></trkpt><trkpt lat="45.76897150185365" lon="11.427144574247125"><ele>292.8</ele><time>2026-04-26T15:45:05.999Z</time></trkpt><trkpt lat="45.76890680483754" lon="11.42726862237129"><ele>291.20000000000005</ele><time>2026-04-26T15:45:06.999Z</time></trkpt><trkpt lat="45.76884630643787" lon="11.42738940937539"><ele>289.6</ele><time>2026-04-26T15:45:07.999Z</time></trkpt><trkpt lat="45.76878924012331" lon="11.427504757808906"><ele>288.0</ele><time>2026-04-26T15:45:08.999Z</time></trkpt><trkpt lat="45.768730024893564" lon="11.427618216295635"><ele>288.0</ele><time>2026-04-26T15:45:09.999Z</time></trkpt><trkpt lat="45.768670610363415" lon="11.427738955242194"><ele>288.0</ele><time>2026-04-26T15:45:10.999Z</time></trkpt><trkpt lat="45.76861087554056" lon="11.427856255101384"><ele>288.0</ele><time>2026-04-26T15:45:11.999Z</time></trkpt><trkpt lat="45.76855036362597" lon="11.427967387226111"><ele>288.0</ele><time>2026-04-26T15:45:12.999Z</time></trkpt><trkpt lat="45.76848956258472" lon="11.428084007218919"><ele>288.0</ele><time>2026-04-26T15:45:13.999Z</time></trkpt><trkpt lat="45.76842975253142" lon="11.428194732148327"><ele>289.6</ele><time>2026-04-26T15:45:14.998Z</time></trkpt><trkpt lat="45.76836670824672" lon="11.428320296024484"><ele>291.20000000000005</ele><time>2026-04-26T15:45:15.998Z</time></trkpt><trkpt lat="45.76830705077912" lon="11.428425397798035"><ele>292.8</ele><time>2026-04-26T15:45:16.998Z</time></trkpt><trkpt lat="45.76824735816712" lon="11.428537957022689"><ele>294.40000000000003</ele><time>2026-04-26T15:45:17.998Z</time></trkpt><trkpt lat="45.76818926166183" lon="11.42865555039639"><ele>296.0</ele><time>2026-04-26T15:45:18.998Z</time></trkpt><trkpt lat="45.76812758598405" lon="11.42876353092773"><ele>294.8</ele><time>2026-04-26T15:45:19.998Z</time></trkpt><trkpt lat="45.768068366191166" lon="11.428868124721077"><ele>293.6</ele><time>2026-04-26T15:45:20.998Z</time></trkpt><trkpt lat="45.76801771335364" lon="11.42897317876849"><ele>292.4</ele><time>2026-04-26T15:45:21.998Z</time></trkpt><trkpt lat="45.76795662697718" lon="11.429078281737171"><ele>291.2</ele><time>2026-04-26T15:45:22.998Z</time></trkpt><trkpt lat="45.76789379598338" lon="11.42918645154994"><ele>290.0</ele><time>2026-04-26T15:45:23.998Z</time></trkpt><trkpt lat="45.76784130119275" lon="11.429293561807187"><ele>290.0</ele><time>2026-04-26T15:45:24.998Z</time></trkpt><trkpt lat="45.76777891838292" lon="11.429404491172104"><ele>290.0</ele><time>2026-04-26T15:45:25.998Z</time></trkpt><trkpt lat="45.767717706193935" lon="11.429519569792483"><ele>290.0</ele><time>2026-04-26T15:45:26.998Z</time></trkpt><trkpt lat="45.767656034203384" lon="11.429632405427526"><ele>290.0</ele><time>2026-04-26T15:45:27.998Z</time></trkpt><trkpt lat="45.76759610491753" lon="11.429740545985355"><ele>290.0</ele><time>2026-04-26T15:45:28.998Z</time></trkpt><trkpt lat="45.76753482337193" lon="11.429848131600021"><ele>289.6</ele><time>2026-04-26T15:45:29.998Z</time></trkpt><trkpt lat="45.76747957915722" lon="11.429956956645984"><ele>289.2</ele><time>2026-04-26T15:45:30.998Z</time></trkpt><trkpt lat="45.767420973338744" lon="11.430073228320259"><ele>288.8</ele><time>2026-04-26T15:45:31.998Z</time></trkpt><trkpt lat="45.76735737484954" lon="11.430187817411442"><ele>288.4</ele><time>2026-04-26T15:45:32.998Z</time></trkpt><trkpt lat="45.767298650241685" lon="11.430299047900043"><ele>288.0</ele><time>2026-04-26T15:45:33.998Z</time></trkpt><trkpt lat="45.76723477676389" lon="11.430416512196965"><ele>288.0</ele><time>2026-04-26T15:45:34.998Z</time></trkpt><trkpt lat="45.76716144669535" lon="11.430531333414255"><ele>288.0</ele><time>2026-04-26T15:45:35.998Z</time></trkpt><trkpt lat="45.767090413593316" lon="11.430633850888297"><ele>288.0</ele><time>2026-04-26T15:45:36.998Z</time></trkpt><trkpt lat="45.766998500986894" lon="11.430734046296772"><ele>288.0</ele><time>2026-04-26T15:45:37.998Z</time></trkpt><trkpt lat="45.76690192374732" lon="11.43081515769474"><ele>288.0</ele><time>2026-04-26T15:45:38.998Z</time></trkpt><trkpt lat="45.766796224345015" lon="11.430904366108454"><ele>288.0</ele><time>2026-04-26T15:45:39.998Z</time></trkpt><trkpt lat="45.766694868829816" lon="11.43098572458076"><ele>288.0</ele><time>2026-04-26T15:45:40.998Z</time></trkpt><trkpt lat="45.766589131991395" lon="11.431056800269296"><ele>288.0</ele><time>2026-04-26T15:45:41.998Z</time></trkpt><trkpt lat="45.7664819984055" lon="11.431125711988637"><ele>288.0</ele><time>2026-04-26T15:45:42.998Z</time></trkpt><trkpt lat="45.7663788602043" lon="11.431189876056099"><ele>288.0</ele><time>2026-04-26T15:45:43.998Z</time></trkpt><trkpt lat="45.766276460683606" lon="11.431244446601314"><ele>288.0</ele><time>2026-04-26T15:45:44.998Z</time></trkpt><trkpt lat="45.76617621155964" lon="11.431283733556901"><ele>288.0</ele><time>2026-04-26T15:45:45.998Z</time></trkpt><trkpt lat="45.76607861952636" lon="11.431324140850073"><ele>288.0</ele><time>2026-04-26T15:45:46.998Z</time></trkpt><trkpt lat="45.76598247163312" lon="11.43134392798047"><ele>288.0</ele><time>2026-04-26T15:45:47.998Z</time></trkpt><trkpt lat="45.76588224755261" lon="11.431380386929076"><ele>286.6</ele><time>2026-04-26T15:45:48.998Z</time></trkpt><trkpt lat="45.765783571285226" lon="11.4314138210816"><ele>285.20000000000005</ele><time>2026-04-26T15:45:49.998Z</time></trkpt><trkpt lat="45.76569476314321" lon="11.431448243952712"><ele>283.8</ele><time>2026-04-26T15:45:50.998Z</time></trkpt><trkpt lat="45.76559937487314" lon="11.431485900422741"><ele>282.40000000000003</ele><time>2026-04-26T15:45:51.998Z</time></trkpt><trkpt lat="45.765503919372044" lon="11.431489626783188"><ele>281.0</ele><time>2026-04-26T15:45:53Z</time></trkpt><trkpt lat="45.7654102261015" lon="11.431514571584906"><ele>281.0</ele><time>2026-04-26T15:45:54Z</time></trkpt><trkpt lat="45.765313240347766" lon="11.431540392958476"><ele>281.0</ele><time>2026-04-26T15:45:55Z</time></trkpt><trkpt lat="45.76521650887706" lon="11.431566146642101"><ele>281.0</ele><time>2026-04-26T15:45:56Z</time></trkpt><trkpt lat="45.765129697705966" lon="11.43159001004499"><ele>281.0</ele><time>2026-04-26T15:45:57Z</time></trkpt><trkpt lat="45.76505309661411" lon="11.431611473825953"><ele>281.0</ele><time>2026-04-26T15:45:58Z</time></trkpt><trkpt lat="45.76499445906066" lon="11.431651397044323"><ele>281.0</ele><time>2026-04-26T15:45:59Z</time></trkpt><trkpt lat="45.76488294530525" lon="11.431662596248975"><ele>281.0</ele><time>2026-04-26T15:46:01Z</time></trkpt><trkpt lat="45.764765347311425" lon="11.431699319627125"><ele>281.0</ele><time>2026-04-26T15:46:03Z</time></trkpt><trkpt lat="45.76470528228451" lon="11.431732173322924"><ele>281.0</ele><time>2026-04-26T15:46:04Z</time></trkpt><trkpt lat="45.764651451987156" lon="11.431781081041736"><ele>281.0</ele><time>2026-04-26T15:46:05Z</time></trkpt><trkpt lat="45.76455729282662" lon="11.431918884389416"><ele>281.0</ele><time>2026-04-26T15:46:07Z</time></trkpt><trkpt lat="45.76450878726103" lon="11.432023294283521"><ele>280.8</ele><time>2026-04-26T15:46:08Z</time></trkpt><trkpt lat="45.764452543610204" lon="11.432155585241595"><ele>280.6</ele><time>2026-04-26T15:46:09Z</time></trkpt><trkpt lat="45.764380886327906" lon="11.432278976145794"><ele>280.4</ele><time>2026-04-26T15:46:10Z</time></trkpt><trkpt lat="45.76433006387909" lon="11.432419147292233"><ele>280.2</ele><time>2026-04-26T15:46:11Z</time></trkpt><trkpt lat="45.764271994464664" lon="11.43253782356243"><ele>280.0</ele><time>2026-04-26T15:46:12Z</time></trkpt><trkpt lat="45.76423236153609" lon="11.432645949990436"><ele>279.66666666666663</ele><time>2026-04-26T15:46:13Z</time></trkpt><trkpt lat="45.76419090139433" lon="11.432750689465388"><ele>279.3333333333333</ele><time>2026-04-26T15:46:14Z</time></trkpt><trkpt lat="45.76413448780841" lon="11.432840187697805"><ele>279.0</ele><time>2026-04-26T15:46:15Z</time></trkpt><trkpt lat="45.76409872679779" lon="11.432957731879032"><ele>278.6666666666667</ele><time>2026-04-26T15:46:16Z</time></trkpt><trkpt lat="45.7640456774102" lon="11.433070184495334"><ele>278.33333333333337</ele><time>2026-04-26T15:46:17Z</time></trkpt><trkpt lat="45.76399409829975" lon="11.433186039039562"><ele>278.0</ele><time>2026-04-26T15:46:18Z</time></trkpt><trkpt lat="45.7639390634282" lon="11.433313408122896"><ele>277.8</ele><time>2026-04-26T15:46:19Z</time></trkpt><trkpt lat="45.76388635522663" lon="11.433436581075766"><ele>277.6</ele><time>2026-04-26T15:46:20Z</time></trkpt><trkpt lat="45.76383297566252" lon="11.433557927929131"><ele>277.4</ele><time>2026-04-26T15:46:21Z</time></trkpt><trkpt lat="45.76378087755744" lon="11.433681740946444"><ele>277.2</ele><time>2026-04-26T15:46:22Z</time></trkpt><trkpt lat="45.76372602250853" lon="11.43381056613161"><ele>277.0</ele><time>2026-04-26T15:46:23Z</time></trkpt><trkpt lat="45.76366696099563" lon="11.433940232247787"><ele>276.8</ele><time>2026-04-26T15:46:24Z</time></trkpt><trkpt lat="45.763607475111584" lon="11.434071100384633"><ele>276.6</ele><time>2026-04-26T15:46:25Z</time></trkpt><trkpt lat="45.76354956036342" lon="11.434198788224652"><ele>276.40000000000003</ele><time>2026-04-26T15:46:26Z</time></trkpt><trkpt lat="45.763506143552114" lon="11.43429944740089"><ele>276.2</ele><time>2026-04-26T15:46:27Z</time></trkpt><trkpt lat="45.7634620420218" lon="11.434397134929787"><ele>276.0</ele><time>2026-04-26T15:46:29Z</time></trkpt><trkpt lat="45.76342266856789" lon="11.434483884753625"><ele>275.5</ele><time>2026-04-26T15:46:33.999Z</time></trkpt><trkpt lat="45.76338333176926" lon="11.434578309010197"><ele>275.0</ele><time>2026-04-26T15:46:37.999Z</time></trkpt><trkpt lat="45.76334756251563" lon="11.43466503747633"><ele>274.5</ele><time>2026-04-26T15:46:39.999Z</time></trkpt><trkpt lat="45.763305082620505" lon="11.434763369016308"><ele>274.0</ele><time>2026-04-26T15:46:41.999Z</time></trkpt><trkpt lat="45.76327168112743" lon="11.434847802470461"><ele>273.5</ele><time>2026-04-26T15:46:43.999Z</time></trkpt><trkpt lat="45.76322822466091" lon="11.434932161776274"><ele>273.0</ele><time>2026-04-26T15:46:45.999Z</time></trkpt><trkpt lat="45.76317871621013" lon="11.435047650757221"><ele>272.8</ele><time>2026-04-26T15:46:47.999Z</time></trkpt><trkpt lat="45.7631184635889" lon="11.435187736381657"><ele>272.6</ele><time>2026-04-26T15:46:49.999Z</time></trkpt><trkpt lat="45.76305343404758" lon="11.435346764498053"><ele>272.4</ele><time>2026-04-26T15:46:51.999Z</time></trkpt><trkpt lat="45.76301659437081" lon="11.435435352538633"><ele>272.2</ele><time>2026-04-26T15:46:52.999Z</time></trkpt><trkpt lat="45.76297552313402" lon="11.43552525685911"><ele>272.0</ele><time>2026-04-26T15:46:53.999Z</time></trkpt><trkpt lat="45.76292726774122" lon="11.435614073594271"><ele>271.5</ele><time>2026-04-26T15:46:54.999Z</time></trkpt><trkpt lat="45.762885055379165" lon="11.435699187901532"><ele>271.0</ele><time>2026-04-26T15:46:55.999Z</time></trkpt><trkpt lat="45.76284625530946" lon="11.435782495505102"><ele>270.5</ele><time>2026-04-26T15:46:56.999Z</time></trkpt><trkpt lat="45.76279844222375" lon="11.435871329764414"><ele>270.0</ele><time>2026-04-26T15:46:57.999Z</time></trkpt><trkpt lat="45.762741909612174" lon="11.435969567231973"><ele>269.5</ele><time>2026-04-26T15:46:58.999Z</time></trkpt><trkpt lat="45.76267427361663" lon="11.43605916035978"><ele>269.0</ele><time>2026-04-26T15:46:59.999Z</time></trkpt><trkpt lat="45.76260213369886" lon="11.436139317816572"><ele>268.8</ele><time>2026-04-26T15:47:00.999Z</time></trkpt><trkpt lat="45.76251902070683" lon="11.436230785785012"><ele>268.59999999999997</ele><time>2026-04-26T15:47:01.999Z</time></trkpt><trkpt lat="45.76243053997584" lon="11.436307934022864"><ele>268.4</ele><time>2026-04-26T15:47:02.999Z</time></trkpt><trkpt lat="45.76233705475866" lon="11.436378547756759"><ele>268.2</ele><time>2026-04-26T15:47:03.999Z</time></trkpt><trkpt lat="45.7622454575771" lon="11.436451089034948"><ele>268.0</ele><time>2026-04-26T15:47:04.999Z</time></trkpt><trkpt lat="45.76214584327081" lon="11.436515415645811"><ele>268.0</ele><time>2026-04-26T15:47:05.999Z</time></trkpt><trkpt lat="45.76204168860517" lon="11.436565192931786"><ele>268.0</ele><time>2026-04-26T15:47:06.999Z</time></trkpt><trkpt lat="45.761929390967865" lon="11.436599525132486"><ele>268.0</ele><time>2026-04-26T15:47:07.999Z</time></trkpt><trkpt lat="45.76181278639141" lon="11.436633660285331"><ele>268.0</ele><time>2026-04-26T15:47:08.999Z</time></trkpt><trkpt lat="45.76169486187376" lon="11.436650136053695"><ele>267.75</ele><time>2026-04-26T15:47:09.999Z</time></trkpt><trkpt lat="45.76157280272938" lon="11.436701328173044"><ele>267.5</ele><time>2026-04-26T15:47:10.999Z</time></trkpt><trkpt lat="45.761434772032274" lon="11.436643866275734"><ele>267.25</ele><time>2026-04-26T15:47:11.999Z</time></trkpt><trkpt lat="45.76130146247793" lon="11.436587872722757"><ele>267.0</ele><time>2026-04-26T15:47:12.999Z</time></trkpt><trkpt lat="45.76116131727666" lon="11.436567042958336"><ele>266.75</ele><time>2026-04-26T15:47:13.999Z</time></trkpt><trkpt lat="45.76102311782989" lon="11.436511943011629"><ele>266.5</ele><time>2026-04-26T15:47:14.999Z</time></trkpt><trkpt lat="45.760883825122384" lon="11.436451011669035"><ele>266.25</ele><time>2026-04-26T15:47:15.999Z</time></trkpt><trkpt lat="45.76073938617965" lon="11.436391929352448"><ele>266.0</ele><time>2026-04-26T15:47:16.999Z</time></trkpt><trkpt lat="45.760592862696754" lon="11.436333024651697"><ele>266.0</ele><time>2026-04-26T15:47:17.999Z</time></trkpt><trkpt lat="45.76044055612384" lon="11.436276713403348"><ele>266.0</ele><time>2026-04-26T15:47:18.999Z</time></trkpt><trkpt lat="45.760286604471375" lon="11.43622289055066"><ele>266.0</ele><time>2026-04-26T15:47:19.999Z</time></trkpt><trkpt lat="45.76012960104546" lon="11.436167567228026"><ele>264.6666666666667</ele><time>2026-04-26T15:47:20.999Z</time></trkpt><trkpt lat="45.75997450469836" lon="11.436106384675112"><ele>263.3333333333333</ele><time>2026-04-26T15:47:21.999Z</time></trkpt><trkpt lat="45.7598176360814" lon="11.436055992616868"><ele>262.0</ele><time>2026-04-26T15:47:22.999Z</time></trkpt><trkpt lat="45.759662751854975" lon="11.435999499974628"><ele>262.0</ele><time>2026-04-26T15:47:23.999Z</time></trkpt><trkpt lat="45.75951824771832" lon="11.4359471573286"><ele>262.0</ele><time>2026-04-26T15:47:24.998Z</time></trkpt><trkpt lat="45.75937613848871" lon="11.435901837637754"><ele>262.0</ele><time>2026-04-26T15:47:25.998Z</time></trkpt><trkpt lat="45.75924261614089" lon="11.435838544583257"><ele>262.0</ele><time>2026-04-26T15:47:26.998Z</time></trkpt><trkpt lat="45.75911672265071" lon="11.435774401214"><ele>262.0</ele><time>2026-04-26T15:47:27.998Z</time></trkpt><trkpt lat="45.75900180388588" lon="11.435701140258345"><ele>262.0</ele><time>2026-04-26T15:47:28.998Z</time></trkpt><trkpt lat="45.758895034348924" lon="11.435633356569284"><ele>262.0</ele><time>2026-04-26T15:47:29.998Z</time></trkpt><trkpt lat="45.75879306432122" lon="11.43557553754549"><ele>262.0</ele><time>2026-04-26T15:47:30.998Z</time></trkpt><trkpt lat="45.75871641903294" lon="11.435523030344019"><ele>262.0</ele><time>2026-04-26T15:47:31.998Z</time></trkpt><trkpt lat="45.758644549743146" lon="11.435490019148467"><ele>262.0</ele><time>2026-04-26T15:47:32.998Z</time></trkpt><trkpt lat="45.75858902327475" lon="11.43539935488137"><ele>262.0</ele><time>2026-04-26T15:47:33.998Z</time></trkpt><trkpt lat="45.75851762741488" lon="11.435373037756536"><ele>262.0</ele><time>2026-04-26T15:47:34.998Z</time></trkpt><trkpt lat="45.75841265794" lon="11.43534715573444"><ele>262.0</ele><time>2026-04-26T15:47:35.998Z</time></trkpt><trkpt lat="45.75831533389841" lon="11.435245981609443"><ele>262.0</ele><time>2026-04-26T15:47:36.998Z</time></trkpt><trkpt lat="45.75820857831829" lon="11.435148098927089"><ele>261.25</ele><time>2026-04-26T15:47:37.998Z</time></trkpt><trkpt lat="45.758108145577864" lon="11.435050636881066"><ele>260.5</ele><time>2026-04-26T15:47:38.998Z</time></trkpt><trkpt lat="45.75801437882148" lon="11.434907486771513"><ele>259.75</ele><time>2026-04-26T15:47:39.998Z</time></trkpt><trkpt lat="45.7578856864557" lon="11.43480289005832"><ele>259.0</ele><time>2026-04-26T15:47:40.998Z</time></trkpt><trkpt lat="45.75777621030222" lon="11.434673679841152"><ele>258.5</ele><time>2026-04-26T15:47:41.998Z</time></trkpt><trkpt lat="45.757675085094704" lon="11.434536413563833"><ele>258.0</ele><time>2026-04-26T15:47:42.998Z</time></trkpt><trkpt lat="45.75756931125532" lon="11.434405201128198"><ele>257.5</ele><time>2026-04-26T15:47:43.998Z</time></trkpt><trkpt lat="45.75746348308913" lon="11.434260501760352"><ele>257.0</ele><time>2026-04-26T15:47:44.998Z</time></trkpt><trkpt lat="45.75736360103985" lon="11.43411371812329"><ele>257.0</ele><time>2026-04-26T15:47:45.998Z</time></trkpt><trkpt lat="45.757271973606024" lon="11.433979586823048"><ele>257.0</ele><time>2026-04-26T15:47:46.998Z</time></trkpt><trkpt lat="45.75718096844492" lon="11.433855026241092"><ele>257.0</ele><time>2026-04-26T15:47:47.998Z</time></trkpt><trkpt lat="45.757090070625125" lon="11.433720042231727"><ele>257.0</ele><time>2026-04-26T15:47:48.998Z</time></trkpt><trkpt lat="45.75699721732636" lon="11.433586346224107"><ele>257.25</ele><time>2026-04-26T15:47:49.998Z</time></trkpt><trkpt lat="45.75690459713482" lon="11.433455864843147"><ele>257.5</ele><time>2026-04-26T15:47:50.998Z</time></trkpt><trkpt lat="45.75681379007184" lon="11.433324136350787"><ele>257.75</ele><time>2026-04-26T15:47:51.998Z</time></trkpt><trkpt lat="45.75672233742494" lon="11.433190555217982"><ele>258.0</ele><time>2026-04-26T15:47:52.998Z</time></trkpt><trkpt lat="45.75662847863263" lon="11.433055994254255"><ele>258.0</ele><time>2026-04-26T15:47:53.998Z</time></trkpt><trkpt lat="45.7565352243382" lon="11.432913311319554"><ele>258.0</ele><time>2026-04-26T15:47:54.998Z</time></trkpt><trkpt lat="45.75643977597657" lon="11.43277430522214"><ele>258.0</ele><time>2026-04-26T15:47:55.998Z</time></trkpt><trkpt lat="45.75634041633308" lon="11.432634842178112"><ele>258.0</ele><time>2026-04-26T15:47:56.998Z</time></trkpt><trkpt lat="45.75623802562431" lon="11.432486564272667"><ele>258.0</ele><time>2026-04-26T15:47:57.998Z</time></trkpt><trkpt lat="45.75613945303556" lon="11.432336578791803"><ele>258.0</ele><time>2026-04-26T15:47:59Z</time></trkpt><trkpt lat="45.75604118446336" lon="11.43219200367937"><ele>258.0</ele><time>2026-04-26T15:48:00Z</time></trkpt><trkpt lat="45.755943294670914" lon="11.432047599967884"><ele>258.0</ele><time>2026-04-26T15:48:01Z</time></trkpt><trkpt lat="45.75584891979769" lon="11.431905362380894"><ele>257.5</ele><time>2026-04-26T15:48:02Z</time></trkpt><trkpt lat="45.75575018911289" lon="11.431769736887102"><ele>257.0</ele><time>2026-04-26T15:48:03Z</time></trkpt><trkpt lat="45.75565109898157" lon="11.431630126147748"><ele>256.5</ele><time>2026-04-26T15:48:04Z</time></trkpt><trkpt lat="45.755559356717505" lon="11.431494083331591"><ele>256.0</ele><time>2026-04-26T15:48:05Z</time></trkpt><trkpt lat="45.75546065997719" lon="11.431350895445327"><ele>256.25</ele><time>2026-04-26T15:48:06Z</time></trkpt><trkpt lat="45.75536176454286" lon="11.43120322475024"><ele>256.5</ele><time>2026-04-26T15:48:07Z</time></trkpt><trkpt lat="45.755254679633495" lon="11.431046812918687"><ele>256.75</ele><time>2026-04-26T15:48:08Z</time></trkpt><trkpt lat="45.75514949297391" lon="11.430902946304236"><ele>257.0</ele><time>2026-04-26T15:48:09Z</time></trkpt><trkpt lat="45.7550488663457" lon="11.43075802503364"><ele>257.5</ele><time>2026-04-26T15:48:10Z</time></trkpt><trkpt lat="45.75495345148206" lon="11.430601446991512"><ele>258.0</ele><time>2026-04-26T15:48:11Z</time></trkpt><trkpt lat="45.75484815912907" lon="11.430461067071981"><ele>258.5</ele><time>2026-04-26T15:48:12Z</time></trkpt><trkpt lat="45.75474662030907" lon="11.430316350490068"><ele>259.0</ele><time>2026-04-26T15:48:13Z</time></trkpt><trkpt lat="45.75464321990269" lon="11.430181179964357"><ele>259.0</ele><time>2026-04-26T15:48:14Z</time></trkpt><trkpt lat="45.754534341434336" lon="11.430054013903083"><ele>259.0</ele><time>2026-04-26T15:48:15Z</time></trkpt><trkpt lat="45.75441940846439" lon="11.429941910673438"><ele>259.0</ele><time>2026-04-26T15:48:16Z</time></trkpt><trkpt lat="45.75429896416662" lon="11.429842675971829"><ele>259.0</ele><time>2026-04-26T15:48:17Z</time></trkpt><trkpt lat="45.754176277234784" lon="11.429768778325785"><ele>259.25</ele><time>2026-04-26T15:48:18Z</time></trkpt><trkpt lat="45.75405347298398" lon="11.429701159980008"><ele>259.5</ele><time>2026-04-26T15:48:19Z</time></trkpt><trkpt lat="45.753927057091225" lon="11.42963907532273"><ele>259.75</ele><time>2026-04-26T15:48:20Z</time></trkpt><trkpt lat="45.75380081256947" lon="11.429588008648105"><ele>260.0</ele><time>2026-04-26T15:48:21Z</time></trkpt><trkpt lat="45.753676538619544" lon="11.429542643612113"><ele>260.0</ele><time>2026-04-26T15:48:22Z</time></trkpt><trkpt lat="45.75355587846485" lon="11.429501986204887"><ele>260.0</ele><time>2026-04-26T15:48:23Z</time></trkpt><trkpt lat="45.75344107462626" lon="11.42945778384126"><ele>260.0</ele><time>2026-04-26T15:48:24Z</time></trkpt><trkpt lat="45.75332611834377" lon="11.429414708364252"><ele>260.0</ele><time>2026-04-26T15:48:25Z</time></trkpt><trkpt lat="45.75321666965397" lon="11.42937083881602"><ele>258.33333333333337</ele><time>2026-04-26T15:48:26Z</time></trkpt><trkpt lat="45.753114990696034" lon="11.429333949138638"><ele>256.6666666666667</ele><time>2026-04-26T15:48:27Z</time></trkpt><trkpt lat="45.753026046706516" lon="11.429297206893004"><ele>255.0</ele><time>2026-04-26T15:48:28Z</time></trkpt><trkpt lat="45.75295139144014" lon="11.429271532407043"><ele>253.33333333333331</ele><time>2026-04-26T15:48:29Z</time></trkpt><trkpt lat="45.75288629137673" lon="11.429249155273036"><ele>251.66666666666666</ele><time>2026-04-26T15:48:30Z</time></trkpt><trkpt lat="45.75282400265748" lon="11.429228774311277"><ele>250.0</ele><time>2026-04-26T15:48:31Z</time></trkpt><trkpt lat="45.75271749138791" lon="11.429203078543031"><ele>249.66666666666666</ele><time>2026-04-26T15:48:33Z</time></trkpt><trkpt lat="45.75264078492356" lon="11.42919285497579"><ele>249.33333333333331</ele><time>2026-04-26T15:48:35Z</time></trkpt><trkpt lat="45.75257625837968" lon="11.429194420046304"><ele>249.0</ele><time>2026-04-26T15:48:39Z</time></trkpt><trkpt lat="45.752474696818986" lon="11.429152532315491"><ele>248.66666666666669</ele><time>2026-04-26T15:48:40.999Z</time></trkpt><trkpt lat="45.7523923528926" lon="11.429106142882027"><ele>248.33333333333334</ele><time>2026-04-26T15:48:41.999Z</time></trkpt><trkpt lat="45.752287977085885" lon="11.429068717345135"><ele>248.0</ele><time>2026-04-26T15:48:42.999Z</time></trkpt><trkpt lat="45.752177149501506" lon="11.429033096497962"><ele>248.0</ele><time>2026-04-26T15:48:43.999Z</time></trkpt><trkpt lat="45.75205165151204" lon="11.428993673579946"><ele>248.0</ele><time>2026-04-26T15:48:44.999Z</time></trkpt><trkpt lat="45.75191989383614" lon="11.428947133885567"><ele>248.0</ele><time>2026-04-26T15:48:45.999Z</time></trkpt><trkpt lat="45.751784548577675" lon="11.428893361501483"><ele>248.0</ele><time>2026-04-26T15:48:46.999Z</time></trkpt><trkpt lat="45.75165834979533" lon="11.428843133683014"><ele>247.0</ele><time>2026-04-26T15:48:47.999Z</time></trkpt><trkpt lat="45.751537625186685" lon="11.428794569332416"><ele>246.0</ele><time>2026-04-26T15:48:48.999Z</time></trkpt><trkpt lat="45.7514147837182" lon="11.428748322458322"><ele>245.0</ele><time>2026-04-26T15:48:49.999Z</time></trkpt><trkpt lat="45.75129091672348" lon="11.428702091206812"><ele>244.0</ele><time>2026-04-26T15:48:50.999Z</time></trkpt><trkpt lat="45.751171828928584" lon="11.428640844071078"><ele>244.0</ele><time>2026-04-26T15:48:51.999Z</time></trkpt><trkpt lat="45.75105056640282" lon="11.428565025680872"><ele>244.0</ele><time>2026-04-26T15:48:52.999Z</time></trkpt><trkpt lat="45.75092890065808" lon="11.428456186299005"><ele>244.0</ele><time>2026-04-26T15:48:53.999Z</time></trkpt><trkpt lat="45.750811641926944" lon="11.428335586618324"><ele>244.0</ele><time>2026-04-26T15:48:54.999Z</time></trkpt><trkpt lat="45.750692637128125" lon="11.428203109123661"><ele>242.66666666666666</ele><time>2026-04-26T15:48:55.999Z</time></trkpt><trkpt lat="45.750570105903925" lon="11.428067794132645"><ele>241.33333333333331</ele><time>2026-04-26T15:48:56.999Z</time></trkpt><trkpt lat="45.750445374484016" lon="11.427926529303921"><ele>240.0</ele><time>2026-04-26T15:48:57.999Z</time></trkpt><trkpt lat="45.75032593581812" lon="11.427788197626876"><ele>239.0</ele><time>2026-04-26T15:48:58.999Z</time></trkpt><trkpt lat="45.75020587511872" lon="11.427655724881213"><ele>238.0</ele><time>2026-04-26T15:48:59.999Z</time></trkpt><trkpt lat="45.75008815033203" lon="11.427527171478063"><ele>237.0</ele><time>2026-04-26T15:49:00.999Z</time></trkpt><trkpt lat="45.7499716635883" lon="11.427400320116881"><ele>236.0</ele><time>2026-04-26T15:49:01.999Z</time></trkpt><trkpt lat="45.74985584396063" lon="11.427270173995515"><ele>235.75</ele><time>2026-04-26T15:49:02.999Z</time></trkpt><trkpt lat="45.74974145968393" lon="11.427136619218077"><ele>235.5</ele><time>2026-04-26T15:49:03.999Z</time></trkpt><trkpt lat="45.74962850111445" lon="11.427005901439967"><ele>235.25</ele><time>2026-04-26T15:49:04.999Z</time></trkpt><trkpt lat="45.74951471726592" lon="11.426878103578433"><ele>235.0</ele><time>2026-04-26T15:49:05.999Z</time></trkpt><trkpt lat="45.749400705455535" lon="11.426755733937435"><ele>234.75</ele><time>2026-04-26T15:49:06.999Z</time></trkpt><trkpt lat="45.74928621242163" lon="11.426636084073083"><ele>234.5</ele><time>2026-04-26T15:49:07.999Z</time></trkpt><trkpt lat="45.749169606535744" lon="11.426513694527918"><ele>234.25</ele><time>2026-04-26T15:49:08.999Z</time></trkpt><trkpt lat="45.74905334036125" lon="11.426390129779477"><ele>234.0</ele><time>2026-04-26T15:49:09.999Z</time></trkpt><trkpt lat="45.74894067696666" lon="11.42626214602582"><ele>233.5</ele><time>2026-04-26T15:49:10.999Z</time></trkpt><trkpt lat="45.74882941604503" lon="11.426132822671278"><ele>233.0</ele><time>2026-04-26T15:49:11.999Z</time></trkpt><trkpt lat="45.748714966774024" lon="11.426006834158189"><ele>232.5</ele><time>2026-04-26T15:49:12.999Z</time></trkpt><trkpt lat="45.748598480496355" lon="11.425879043224736"><ele>232.0</ele><time>2026-04-26T15:49:13.999Z</time></trkpt><trkpt lat="45.74848446439537" lon="11.425745936854545"><ele>231.25</ele><time>2026-04-26T15:49:14.999Z</time></trkpt><trkpt lat="45.748371651838845" lon="11.425617515005419"><ele>230.5</ele><time>2026-04-26T15:49:15.999Z</time></trkpt><trkpt lat="45.748255140362794" lon="11.425492770004286"><ele>229.75</ele><time>2026-04-26T15:49:16.999Z</time></trkpt><trkpt lat="45.748139977720925" lon="11.4253644498511"><ele>229.0</ele><time>2026-04-26T15:49:17.999Z</time></trkpt><trkpt lat="45.74802475948654" lon="11.425236009980663"><ele>228.5</ele><time>2026-04-26T15:49:18.999Z</time></trkpt><trkpt lat="45.747908489628934" lon="11.42510621610492"><ele>228.0</ele><time>2026-04-26T15:49:19.999Z</time></trkpt><trkpt lat="45.74778971204063" lon="11.424978320291862"><ele>227.5</ele><time>2026-04-26T15:49:20.999Z</time></trkpt><trkpt lat="45.74767157090037" lon="11.424850280293173"><ele>227.0</ele><time>2026-04-26T15:49:21.999Z</time></trkpt><trkpt lat="45.74755543145" lon="11.424719074269362"><ele>227.0</ele><time>2026-04-26T15:49:22.999Z</time></trkpt><trkpt lat="45.74743742095416" lon="11.42458735268358"><ele>227.0</ele><time>2026-04-26T15:49:23.999Z</time></trkpt><trkpt lat="45.74731777883393" lon="11.424449025496369"><ele>227.0</ele><time>2026-04-26T15:49:24.999Z</time></trkpt><trkpt lat="45.74719559575277" lon="11.42430960127586"><ele>227.0</ele><time>2026-04-26T15:49:25.999Z</time></trkpt><trkpt lat="45.747066961425695" lon="11.424164049454886"><ele>227.0</ele><time>2026-04-26T15:49:26.999Z</time></trkpt><trkpt lat="45.74692915523446" lon="11.424008484522242"><ele>227.0</ele><time>2026-04-26T15:49:27.999Z</time></trkpt><trkpt lat="45.74679144260024" lon="11.423853689038385"><ele>227.0</ele><time>2026-04-26T15:49:28.999Z</time></trkpt><trkpt lat="45.746657762767164" lon="11.42370357908277"><ele>227.0</ele><time>2026-04-26T15:49:29.999Z</time></trkpt><trkpt lat="45.746523121108126" lon="11.423557504182138"><ele>227.0</ele><time>2026-04-26T15:49:30.999Z</time></trkpt><trkpt lat="45.746398189199" lon="11.423417589718833"><ele>227.0</ele><time>2026-04-26T15:49:31.999Z</time></trkpt><trkpt lat="45.746276342964926" lon="11.423285985964332"><ele>227.0</ele><time>2026-04-26T15:49:32.998Z</time></trkpt><trkpt lat="45.746158709655425" lon="11.423158964194963"><ele>227.0</ele><time>2026-04-26T15:49:33.998Z</time></trkpt><trkpt lat="45.746046974877416" lon="11.423030777989707"><ele>227.0</ele><time>2026-04-26T15:49:34.998Z</time></trkpt><trkpt lat="45.74593811515572" lon="11.422906779161533"><ele>226.0</ele><time>2026-04-26T15:49:35.998Z</time></trkpt><trkpt lat="45.74582779666857" lon="11.422785876940168"><ele>225.0</ele><time>2026-04-26T15:49:36.998Z</time></trkpt><trkpt lat="45.74571279532846" lon="11.422659874696306"><ele>224.0</ele><time>2026-04-26T15:49:37.998Z</time></trkpt><trkpt lat="45.74558861567524" lon="11.422522906866208"><ele>223.0</ele><time>2026-04-26T15:49:38.998Z</time></trkpt><trkpt lat="45.74546093221281" lon="11.422380416062644"><ele>223.0</ele><time>2026-04-26T15:49:39.998Z</time></trkpt><trkpt lat="45.74532995979194" lon="11.422236889003191"><ele>223.0</ele><time>2026-04-26T15:49:40.998Z</time></trkpt><trkpt lat="45.74519946211376" lon="11.422095540518963"><ele>223.0</ele><time>2026-04-26T15:49:41.998Z</time></trkpt><trkpt lat="45.74506712039132" lon="11.421946982679682"><ele>221.66666666666666</ele><time>2026-04-26T15:49:42.998Z</time></trkpt><trkpt lat="45.74494332274845" lon="11.421800344642413"><ele>220.33333333333331</ele><time>2026-04-26T15:49:43.998Z</time></trkpt><trkpt lat="45.744823059478094" lon="11.42163258519187"><ele>219.0</ele><time>2026-04-26T15:49:44.998Z</time></trkpt><trkpt lat="45.744696530655844" lon="11.421445832081577"><ele>219.0</ele><time>2026-04-26T15:49:45.998Z</time></trkpt><trkpt lat="45.7445935170432" lon="11.421252690996175"><ele>219.0</ele><time>2026-04-26T15:49:46.998Z</time></trkpt><trkpt lat="45.74448914904433" lon="11.421046913475758"><ele>219.0</ele><time>2026-04-26T15:49:47.998Z</time></trkpt><trkpt lat="45.7443924791226" lon="11.42085725656765"><ele>218.66666666666669</ele><time>2026-04-26T15:49:48.998Z</time></trkpt><trkpt lat="45.74429246199659" lon="11.420665355443965"><ele>218.33333333333334</ele><time>2026-04-26T15:49:49.998Z</time></trkpt><trkpt lat="45.744192118728996" lon="11.420473290749669"><ele>218.0</ele><time>2026-04-26T15:49:50.998Z</time></trkpt><trkpt lat="45.74408732368968" lon="11.420283784522255"><ele>218.0</ele><time>2026-04-26T15:49:51.998Z</time></trkpt><trkpt lat="45.743984170308856" lon="11.420089936996467"><ele>218.0</ele><time>2026-04-26T15:49:52.998Z</time></trkpt><trkpt lat="45.743882166853055" lon="11.4198917445657"><ele>218.0</ele><time>2026-04-26T15:49:53.998Z</time></trkpt><trkpt lat="45.743780251913705" lon="11.419709893663795"><ele>217.66666666666669</ele><time>2026-04-26T15:49:54.998Z</time></trkpt><trkpt lat="45.74367976028916" lon="11.419520348077086"><ele>217.33333333333331</ele><time>2026-04-26T15:49:55.998Z</time></trkpt><trkpt lat="45.743584619160686" lon="11.419339465726226"><ele>217.0</ele><time>2026-04-26T15:49:56.998Z</time></trkpt><trkpt lat="45.743494453289806" lon="11.419165072407006"><ele>216.75</ele><time>2026-04-26T15:49:57.998Z</time></trkpt><trkpt lat="45.743409600248384" lon="11.418987540788843"><ele>216.5</ele><time>2026-04-26T15:49:58.998Z</time></trkpt><trkpt lat="45.743323856655" lon="11.418810584756029"><ele>216.25</ele><time>2026-04-26T15:49:59.998Z</time></trkpt><trkpt lat="45.743235029288435" lon="11.418641231406493"><ele>216.0</ele><time>2026-04-26T15:50:00.998Z</time></trkpt><trkpt lat="45.74314171356669" lon="11.41846601115162"><ele>215.66666666666669</ele><time>2026-04-26T15:50:01.998Z</time></trkpt><trkpt lat="45.74304843847686" lon="11.41829457997586"><ele>215.33333333333334</ele><time>2026-04-26T15:50:02.998Z</time></trkpt><trkpt lat="45.74295735851961" lon="11.418118026453492"><ele>215.0</ele><time>2026-04-26T15:50:03.998Z</time></trkpt><trkpt lat="45.7428724074454" lon="11.417944302482491"><ele>214.5</ele><time>2026-04-26T15:50:05Z</time></trkpt><trkpt lat="45.74279052371787" lon="11.417785610240484"><ele>214.0</ele><time>2026-04-26T15:50:06Z</time></trkpt><trkpt lat="45.742713623955126" lon="11.417624877997929"><ele>213.5</ele><time>2026-04-26T15:50:07Z</time></trkpt><trkpt lat="45.74264151829244" lon="11.417477632426415"><ele>213.0</ele><time>2026-04-26T15:50:08Z</time></trkpt><trkpt lat="45.742576213093145" lon="11.41733677748496"><ele>212.33333333333334</ele><time>2026-04-26T15:50:09Z</time></trkpt><trkpt lat="45.74251073091579" lon="11.417213819881336"><ele>211.66666666666669</ele><time>2026-04-26T15:50:10Z</time></trkpt><trkpt lat="45.74245288916885" lon="11.417100227555059"><ele>211.0</ele><time>2026-04-26T15:50:11Z</time></trkpt><trkpt lat="45.74240816789704" lon="11.416991114323888"><ele>210.33333333333334</ele><time>2026-04-26T15:50:12Z</time></trkpt><trkpt lat="45.742363733259054" lon="11.416907610763072"><ele>209.66666666666669</ele><time>2026-04-26T15:50:13Z</time></trkpt><trkpt lat="45.74236048650274" lon="11.41679834446084"><ele>209.0</ele><time>2026-04-26T15:50:14Z</time></trkpt><trkpt lat="45.74233403765957" lon="11.416658248621557"><ele>209.0</ele><time>2026-04-26T15:50:16Z</time></trkpt><trkpt lat="45.74229552970792" lon="11.41655945069711"><ele>209.0</ele><time>2026-04-26T15:50:20Z</time></trkpt><trkpt lat="45.742238714245254" lon="11.416505901250524"><ele>209.0</ele><time>2026-04-26T15:51:20.999Z</time></trkpt><trkpt lat="45.7422778377341" lon="11.416576774858251"><ele>209.0</ele><time>2026-04-26T15:52:18Z</time></trkpt><trkpt lat="45.74221066199376" lon="11.416560009344503"><ele>209.0</ele><time>2026-04-26T15:52:37Z</time></trkpt><trkpt lat="45.742208922449784" lon="11.416463617847857"><ele>209.0</ele><time>2026-04-26T15:52:43Z</time></trkpt><trkpt lat="45.74225394100039" lon="11.416570392932105"><ele>209.0</ele><time>2026-04-26T15:55:37.999Z</time></trkpt><trkpt lat="45.7421886692064" lon="11.416606965080977"><ele>209.00000000000003</ele><time>2026-04-26T15:57:16.999Z</time></trkpt><trkpt lat="45.742141391153865" lon="11.416546165173486"><ele>209.0</ele><time>2026-04-26T15:57:25.999Z</time></trkpt><trkpt lat="45.742097290008815" lon="11.416452066805201"><ele>209.0</ele><time>2026-04-26T15:57:27.999Z</time></trkpt><trkpt lat="45.74208195473558" lon="11.416346596499693"><ele>209.0</ele><time>2026-04-26T15:57:29.999Z</time></trkpt><trkpt lat="45.74203627661308" lon="11.416270210551067"><ele>209.00000000000003</ele><time>2026-04-26T15:57:31.999Z</time></trkpt><trkpt lat="45.74197784457354" lon="11.416236242810086"><ele>209.0</ele><time>2026-04-26T15:57:34.999Z</time></trkpt><trkpt lat="45.74188966295985" lon="11.41613955482877"><ele>208.79999999999998</ele><time>2026-04-26T15:57:44.999Z</time></trkpt><trkpt lat="45.74184364137755" lon="11.416046438888113"><ele>208.6</ele><time>2026-04-26T15:57:45.999Z</time></trkpt><trkpt lat="45.74178998589482" lon="11.415938427702443"><ele>208.4</ele><time>2026-04-26T15:57:46.999Z</time></trkpt><trkpt lat="45.74172818948735" lon="11.415811198667665"><ele>208.2</ele><time>2026-04-26T15:57:47.999Z</time></trkpt><trkpt lat="45.74165770206507" lon="11.415669098735574"><ele>208.0</ele><time>2026-04-26T15:57:48.999Z</time></trkpt><trkpt lat="45.741579361799815" lon="11.415515310344789"><ele>207.33333333333331</ele><time>2026-04-26T15:57:49.999Z</time></trkpt><trkpt lat="45.741494901554866" lon="11.415350035827322"><ele>206.66666666666669</ele><time>2026-04-26T15:57:50.999Z</time></trkpt><trkpt lat="45.74140301608616" lon="11.415174123647898"><ele>206.0</ele><time>2026-04-26T15:57:51.999Z</time></trkpt><trkpt lat="45.7412994007865" lon="11.414977486493223"><ele>206.0</ele><time>2026-04-26T15:57:52.999Z</time></trkpt><trkpt lat="45.741223503192714" lon="11.414805859776736"><ele>206.0</ele><time>2026-04-26T15:57:53.999Z</time></trkpt><trkpt lat="45.74111785470769" lon="11.414599468197551"><ele>206.0</ele><time>2026-04-26T15:57:54.999Z</time></trkpt><trkpt lat="45.74100933366555" lon="11.414390758145025"><ele>206.0</ele><time>2026-04-26T15:57:55.999Z</time></trkpt><trkpt lat="45.74090045712479" lon="11.414182731645923"><ele>206.0</ele><time>2026-04-26T15:57:56.998Z</time></trkpt><trkpt lat="45.74079571590569" lon="11.413972578069773"><ele>206.0</ele><time>2026-04-26T15:57:57.998Z</time></trkpt><trkpt lat="45.74068807389295" lon="11.413768541279813"><ele>205.33333333333334</ele><time>2026-04-26T15:57:58.998Z</time></trkpt><trkpt lat="45.74058431088126" lon="11.413566639364076"><ele>204.66666666666669</ele><time>2026-04-26T15:57:59.998Z</time></trkpt><trkpt lat="45.74047987742631" lon="11.41337079609779"><ele>204.0</ele><time>2026-04-26T15:58:00.998Z</time></trkpt><trkpt lat="45.74037583961463" lon="11.41317672462386"><ele>204.0</ele><time>2026-04-26T15:58:01.998Z</time></trkpt><trkpt lat="45.74027025483412" lon="11.412986516881523"><ele>204.0</ele><time>2026-04-26T15:58:02.998Z</time></trkpt><trkpt lat="45.74017047973965" lon="11.412801006403894"><ele>204.0</ele><time>2026-04-26T15:58:03.998Z</time></trkpt><trkpt lat="45.740077418133524" lon="11.412624653388614"><ele>204.0</ele><time>2026-04-26T15:58:04.998Z</time></trkpt><trkpt lat="45.73998933323597" lon="11.412453758401858"><ele>204.0</ele><time>2026-04-26T15:58:05.998Z</time></trkpt><trkpt lat="45.7399025584932" lon="11.41229161304441"><ele>204.0</ele><time>2026-04-26T15:58:06.998Z</time></trkpt><trkpt lat="45.73981597618953" lon="11.412128753898552"><ele>204.0</ele><time>2026-04-26T15:58:07.998Z</time></trkpt><trkpt lat="45.73973597737328" lon="11.41197028473612"><ele>204.0</ele><time>2026-04-26T15:58:08.998Z</time></trkpt><trkpt lat="45.73965301043921" lon="11.411815996197534"><ele>204.0</ele><time>2026-04-26T15:58:09.998Z</time></trkpt><trkpt lat="45.73957567287289" lon="11.411665849100714"><ele>204.0</ele><time>2026-04-26T15:58:10.998Z</time></trkpt><trkpt lat="45.739494352804606" lon="11.411515325066704"><ele>204.0</ele><time>2026-04-26T15:58:11.998Z</time></trkpt><trkpt lat="45.73941666611221" lon="11.41135895663762"><ele>203.5</ele><time>2026-04-26T15:58:12.998Z</time></trkpt><trkpt lat="45.73933566829937" lon="11.411204053961116"><ele>203.0</ele><time>2026-04-26T15:58:13.998Z</time></trkpt><trkpt lat="45.73925372057449" lon="11.411044088246252"><ele>202.5</ele><time>2026-04-26T15:58:14.998Z</time></trkpt><trkpt lat="45.7391717348618" lon="11.410883461207671"><ele>202.0</ele><time>2026-04-26T15:58:15.998Z</time></trkpt><trkpt lat="45.73908910136477" lon="11.410724081885492"><ele>202.0</ele><time>2026-04-26T15:58:16.998Z</time></trkpt><trkpt lat="45.73900575106073" lon="11.410558039540682"><ele>202.0</ele><time>2026-04-26T15:58:17.998Z</time></trkpt><trkpt lat="45.73892007031174" lon="11.410394435479457"><ele>202.0</ele><time>2026-04-26T15:58:18.998Z</time></trkpt><trkpt lat="45.738833928745755" lon="11.41023527383236"><ele>202.0</ele><time>2026-04-26T15:58:19.998Z</time></trkpt><trkpt lat="45.738751385703104" lon="11.410079748171766"><ele>202.0</ele><time>2026-04-26T15:58:20.998Z</time></trkpt><trkpt lat="45.73866871807505" lon="11.409924815575204"><ele>202.0</ele><time>2026-04-26T15:58:21.998Z</time></trkpt><trkpt lat="45.73858740312732" lon="11.409768441588735"><ele>202.0</ele><time>2026-04-26T15:58:22.998Z</time></trkpt><trkpt lat="45.738506630128875" lon="11.409607161000618"><ele>202.0</ele><time>2026-04-26T15:58:23.998Z</time></trkpt><trkpt lat="45.73842518808106" lon="11.409447898853074"><ele>201.75</ele><time>2026-04-26T15:58:24.998Z</time></trkpt><trkpt lat="45.73834444410142" lon="11.409289865484224"><ele>201.5</ele><time>2026-04-26T15:58:25.998Z</time></trkpt><trkpt lat="45.7382650300907" lon="11.409128583641552"><ele>201.25</ele><time>2026-04-26T15:58:26.998Z</time></trkpt><trkpt lat="45.73818835521136" lon="11.408965478104616"><ele>201.0</ele><time>2026-04-26T15:58:27.998Z</time></trkpt><trkpt lat="45.73812345733443" lon="11.408802916280738"><ele>201.5</ele><time>2026-04-26T15:58:29Z</time></trkpt><trkpt lat="45.738071244043" lon="11.408642781259857"><ele>202.0</ele><time>2026-04-26T15:58:30Z</time></trkpt><trkpt lat="45.73802499261757" lon="11.40848441133505"><ele>202.5</ele><time>2026-04-26T15:58:31Z</time></trkpt><trkpt lat="45.73798081633503" lon="11.40832893107491"><ele>203.0</ele><time>2026-04-26T15:58:32Z</time></trkpt><trkpt lat="45.73794225772267" lon="11.408180220439684"><ele>203.0</ele><time>2026-04-26T15:58:33Z</time></trkpt><trkpt lat="45.73790616472892" lon="11.408039867179077"><ele>203.0</ele><time>2026-04-26T15:58:34Z</time></trkpt><trkpt lat="45.737868867168686" lon="11.407905661694453"><ele>203.0</ele><time>2026-04-26T15:58:35Z</time></trkpt><trkpt lat="45.73783300969926" lon="11.407779794124215"><ele>203.0</ele><time>2026-04-26T15:58:36Z</time></trkpt><trkpt lat="45.73779990105623" lon="11.407659005503305"><ele>203.0</ele><time>2026-04-26T15:58:37Z</time></trkpt><trkpt lat="45.73776697927366" lon="11.407530961794771"><ele>203.0</ele><time>2026-04-26T15:58:38Z</time></trkpt><trkpt lat="45.737734541221045" lon="11.40739978831721"><ele>203.0</ele><time>2026-04-26T15:58:39Z</time></trkpt><trkpt lat="45.73770430796599" lon="11.40727560851632"><ele>203.0</ele><time>2026-04-26T15:58:40Z</time></trkpt><trkpt lat="45.73767400905064" lon="11.407160450782015"><ele>203.0</ele><time>2026-04-26T15:58:41Z</time></trkpt><trkpt lat="45.73764085868973" lon="11.40703972811726"><ele>203.0</ele><time>2026-04-26T15:58:42Z</time></trkpt><trkpt lat="45.73760158703929" lon="11.4069078766915"><ele>202.4</ele><time>2026-04-26T15:58:43Z</time></trkpt><trkpt lat="45.737559498813795" lon="11.406764789177364"><ele>201.8</ele><time>2026-04-26T15:58:44Z</time></trkpt><trkpt lat="45.73751883503826" lon="11.406618989700098"><ele>201.2</ele><time>2026-04-26T15:58:45Z</time></trkpt><trkpt lat="45.7374806447793" lon="11.406473720770059"><ele>200.6</ele><time>2026-04-26T15:58:46Z</time></trkpt><trkpt lat="45.73744049231488" lon="11.406328516885878"><ele>200.0</ele><time>2026-04-26T15:58:47Z</time></trkpt><trkpt lat="45.73740063150731" lon="11.406182889878439"><ele>200.0</ele><time>2026-04-26T15:58:48Z</time></trkpt><trkpt lat="45.73735953943095" lon="11.406037659171803"><ele>200.0</ele><time>2026-04-26T15:58:49Z</time></trkpt><trkpt lat="45.73731853192616" lon="11.405892864573126"><ele>200.0</ele><time>2026-04-26T15:58:50Z</time></trkpt><trkpt lat="45.737279250680686" lon="11.405742440993816"><ele>200.0</ele><time>2026-04-26T15:58:51Z</time></trkpt><trkpt lat="45.73724005336518" lon="11.405596404544697"><ele>200.0</ele><time>2026-04-26T15:58:52Z</time></trkpt><trkpt lat="45.73720406622033" lon="11.405460469066304"><ele>200.2</ele><time>2026-04-26T15:58:53Z</time></trkpt><trkpt lat="45.737169052376224" lon="11.405325798090578"><ele>200.4</ele><time>2026-04-26T15:58:54Z</time></trkpt><trkpt lat="45.737132849032875" lon="11.405191438250666"><ele>200.60000000000002</ele><time>2026-04-26T15:58:55Z</time></trkpt><trkpt lat="45.737098554755136" lon="11.40505801913132"><ele>200.8</ele><time>2026-04-26T15:58:56Z</time></trkpt><trkpt lat="45.73706249189125" lon="11.404928103105409"><ele>201.0</ele><time>2026-04-26T15:58:57Z</time></trkpt><trkpt lat="45.737016382148006" lon="11.40481726481498"><ele>201.0</ele><time>2026-04-26T15:58:58Z</time></trkpt><trkpt lat="45.73696373673647" lon="11.404723796056127"><ele>201.0</ele><time>2026-04-26T15:58:59Z</time></trkpt><trkpt lat="45.7369089301461" lon="11.404639944748746"><ele>201.0</ele><time>2026-04-26T15:59:00Z</time></trkpt><trkpt lat="45.736857268172855" lon="11.404569410598526"><ele>201.0</ele><time>2026-04-26T15:59:01Z</time></trkpt><trkpt lat="45.736804325811946" lon="11.404488732466824"><ele>201.0</ele><time>2026-04-26T15:59:02Z</time></trkpt><trkpt lat="45.73675651437089" lon="11.40439334707223"><ele>201.0</ele><time>2026-04-26T15:59:03Z</time></trkpt><trkpt lat="45.73671095838588" lon="11.404286246626905"><ele>199.20000000000002</ele><time>2026-04-26T15:59:04Z</time></trkpt><trkpt lat="45.73665323425243" lon="11.404184758030146"><ele>197.4</ele><time>2026-04-26T15:59:05Z</time></trkpt><trkpt lat="45.73658954298865" lon="11.404105935758892"><ele>195.6</ele><time>2026-04-26T15:59:06Z</time></trkpt><trkpt lat="45.73650562442125" lon="11.404050335626112"><ele>193.8</ele><time>2026-04-26T15:59:07Z</time></trkpt><trkpt lat="45.73641487463939" lon="11.40405268291275"><ele>192.0</ele><time>2026-04-26T15:59:08Z</time></trkpt><trkpt lat="45.73634456905671" lon="11.403961237197064"><ele>192.0</ele><time>2026-04-26T15:59:08.999Z</time></trkpt><trkpt lat="45.736301945010226" lon="11.403858042649867"><ele>192.0</ele><time>2026-04-26T15:59:09.999Z</time></trkpt><trkpt lat="45.736251384825884" lon="11.40377783374348"><ele>192.0</ele><time>2026-04-26T15:59:10.999Z</time></trkpt><trkpt lat="45.73635540986191" lon="11.403600445906644"><ele>192.0</ele><time>2026-04-26T15:59:11.999Z</time></trkpt><trkpt lat="45.73638224048524" lon="11.403455851129838"><ele>192.0</ele><time>2026-04-26T15:59:12.999Z</time></trkpt><trkpt lat="45.73642819380539" lon="11.403319014996901"><ele>191.75</ele><time>2026-04-26T15:59:13.999Z</time></trkpt><trkpt lat="45.73646895202835" lon="11.403176121298118"><ele>191.5</ele><time>2026-04-26T15:59:14.999Z</time></trkpt><trkpt lat="45.73649026267062" lon="11.403025007349429"><ele>191.25</ele><time>2026-04-26T15:59:15.999Z</time></trkpt><trkpt lat="45.73648712944328" lon="11.4028645659541"><ele>191.0</ele><time>2026-04-26T15:59:16.999Z</time></trkpt><trkpt lat="45.73645754717386" lon="11.402688531800774"><ele>191.0</ele><time>2026-04-26T15:59:17.999Z</time></trkpt><trkpt lat="45.73640966202201" lon="11.40249758342846"><ele>191.0</ele><time>2026-04-26T15:59:18.999Z</time></trkpt><trkpt lat="45.73635194106704" lon="11.402302305482333"><ele>191.0</ele><time>2026-04-26T15:59:19.999Z</time></trkpt><trkpt lat="45.73628756893546" lon="11.402093229218169"><ele>191.0</ele><time>2026-04-26T15:59:20.999Z</time></trkpt><trkpt lat="45.73622757264784" lon="11.401867956155218"><ele>190.66666666666666</ele><time>2026-04-26T15:59:21.999Z</time></trkpt><trkpt lat="45.73616330046683" lon="11.401628657116053"><ele>190.33333333333334</ele><time>2026-04-26T15:59:22.999Z</time></trkpt><trkpt lat="45.736096000370424" lon="11.401379864519285"><ele>190.0</ele><time>2026-04-26T15:59:23.999Z</time></trkpt><trkpt lat="45.7360231722608" lon="11.401119252240651"><ele>190.0</ele><time>2026-04-26T15:59:24.999Z</time></trkpt><trkpt lat="45.73595308594139" lon="11.400861463125995"><ele>190.0</ele><time>2026-04-26T15:59:25.999Z</time></trkpt><trkpt lat="45.735884271325915" lon="11.400595067801456"><ele>190.0</ele><time>2026-04-26T15:59:26.999Z</time></trkpt><trkpt lat="45.735814953369896" lon="11.40032168517068"><ele>191.33333333333334</ele><time>2026-04-26T15:59:27.999Z</time></trkpt><trkpt lat="45.73574200804147" lon="11.40004205069306"><ele>192.66666666666669</ele><time>2026-04-26T15:59:28.999Z</time></trkpt><trkpt lat="45.73566986436589" lon="11.39977137963103"><ele>194.0</ele><time>2026-04-26T15:59:29.999Z</time></trkpt><trkpt lat="45.735601685453425" lon="11.399510033698721"><ele>194.66666666666669</ele><time>2026-04-26T15:59:30.999Z</time></trkpt><trkpt lat="45.73553804404578" lon="11.399253104559492"><ele>195.33333333333331</ele><time>2026-04-26T15:59:31.999Z</time></trkpt><trkpt lat="45.73547566820217" lon="11.399002716595012"><ele>196.0</ele><time>2026-04-26T15:59:32.999Z</time></trkpt><trkpt lat="45.73541167387752" lon="11.398753815514045"><ele>196.66666666666666</ele><time>2026-04-26T15:59:33.999Z</time></trkpt><trkpt lat="45.73534790647879" lon="11.398511857337319"><ele>197.33333333333331</ele><time>2026-04-26T15:59:34.999Z</time></trkpt><trkpt lat="45.735287299035996" lon="11.39827377251732"><ele>198.0</ele><time>2026-04-26T15:59:35.999Z</time></trkpt><trkpt lat="45.73522493644215" lon="11.398024956956617"><ele>196.0</ele><time>2026-04-26T15:59:36.999Z</time></trkpt><trkpt lat="45.735160426658176" lon="11.397773683285628"><ele>194.0</ele><time>2026-04-26T15:59:37.999Z</time></trkpt><trkpt lat="45.735095141318276" lon="11.397525185317114"><ele>192.0</ele><time>2026-04-26T15:59:38.999Z</time></trkpt><trkpt lat="45.73503094672494" lon="11.397284535097857"><ele>192.33333333333331</ele><time>2026-04-26T15:59:39.999Z</time></trkpt><trkpt lat="45.73497089932668" lon="11.397045993816795"><ele>192.66666666666666</ele><time>2026-04-26T15:59:40.999Z</time></trkpt><trkpt lat="45.734912266063546" lon="11.396815849279093"><ele>193.0</ele><time>2026-04-26T15:59:41.999Z</time></trkpt><trkpt lat="45.73485244322982" lon="11.396584514245994"><ele>193.0</ele><time>2026-04-26T15:59:42.999Z</time></trkpt><trkpt lat="45.73479566582836" lon="11.39636130990382"><ele>193.0</ele><time>2026-04-26T15:59:43.999Z</time></trkpt><trkpt lat="45.734740548283256" lon="11.396141681268002"><ele>193.0</ele><time>2026-04-26T15:59:44.999Z</time></trkpt><trkpt lat="45.734686456331836" lon="11.395919649816296"><ele>193.0</ele><time>2026-04-26T15:59:45.999Z</time></trkpt><trkpt lat="45.734631198202734" lon="11.395700558094319"><ele>193.0</ele><time>2026-04-26T15:59:46.999Z</time></trkpt><trkpt lat="45.734573536146264" lon="11.395482261041082"><ele>193.0</ele><time>2026-04-26T15:59:47.999Z</time></trkpt><trkpt lat="45.73451646325724" lon="11.395259308701705"><ele>193.0</ele><time>2026-04-26T15:59:48.999Z</time></trkpt><trkpt lat="45.73445726323079" lon="11.395036360918958"><ele>193.0</ele><time>2026-04-26T15:59:49.999Z</time></trkpt><trkpt lat="45.734398871813646" lon="11.394817054193425"><ele>193.0</ele><time>2026-04-26T15:59:50.999Z</time></trkpt><trkpt lat="45.73434201736147" lon="11.394598356041005"><ele>194.66666666666666</ele><time>2026-04-26T15:59:51.999Z</time></trkpt><trkpt lat="45.734283489501045" lon="11.39438401469988"><ele>196.33333333333331</ele><time>2026-04-26T15:59:52.999Z</time></trkpt><trkpt lat="45.73422704384195" lon="11.39416662618691"><ele>198.0</ele><time>2026-04-26T15:59:53.999Z</time></trkpt><trkpt lat="45.73417374222095" lon="11.393949653630026"><ele>198.75</ele><time>2026-04-26T15:59:54.999Z</time></trkpt><trkpt lat="45.73412243443614" lon="11.3937408163421"><ele>199.5</ele><time>2026-04-26T15:59:55.999Z</time></trkpt><trkpt lat="45.73407269988812" lon="11.393547414573417"><ele>200.25</ele><time>2026-04-26T15:59:56.999Z</time></trkpt><trkpt lat="45.73402314912306" lon="11.393356832446663"><ele>201.0</ele><time>2026-04-26T15:59:57.998Z</time></trkpt><trkpt lat="45.73397054560529" lon="11.393161897062168"><ele>203.33333333333331</ele><time>2026-04-26T15:59:58.998Z</time></trkpt><trkpt lat="45.733918557448256" lon="11.392962003384488"><ele>205.66666666666666</ele><time>2026-04-26T15:59:59.998Z</time></trkpt><trkpt lat="45.733867103128965" lon="11.392751539824028"><ele>208.0</ele><time>2026-04-26T16:00:00.998Z</time></trkpt><trkpt lat="45.733812500018956" lon="11.392533041937954"><ele>208.0</ele><time>2026-04-26T16:00:01.998Z</time></trkpt><trkpt lat="45.73375180078863" lon="11.3923047549702"><ele>208.0</ele><time>2026-04-26T16:00:02.998Z</time></trkpt><trkpt lat="45.73369313876043" lon="11.392076179968265"><ele>208.0</ele><time>2026-04-26T16:00:03.998Z</time></trkpt><trkpt lat="45.73362830394019" lon="11.391833328380784"><ele>208.33333333333331</ele><time>2026-04-26T16:00:04.998Z</time></trkpt><trkpt lat="45.73356892034052" lon="11.391594998269127"><ele>208.66666666666669</ele><time>2026-04-26T16:00:05.998Z</time></trkpt><trkpt lat="45.73349367316172" lon="11.39132916301431"><ele>209.0</ele><time>2026-04-26T16:00:06.998Z</time></trkpt><trkpt lat="45.733424327614145" lon="11.390998795939694"><ele>208.25</ele><time>2026-04-26T16:00:07.998Z</time></trkpt><trkpt lat="45.73338505330323" lon="11.390859223401879"><ele>207.5</ele><time>2026-04-26T16:00:08.998Z</time></trkpt><trkpt lat="45.73335123361624" lon="11.390687139818718"><ele>206.75</ele><time>2026-04-26T16:00:09.998Z</time></trkpt><trkpt lat="45.733281700959296" lon="11.390428272547357"><ele>206.0</ele><time>2026-04-26T16:00:10.998Z</time></trkpt><trkpt lat="45.73320423910425" lon="11.390148012262475"><ele>206.0</ele><time>2026-04-26T16:00:11.998Z</time></trkpt><trkpt lat="45.733145376522884" lon="11.389921025074143"><ele>206.0</ele><time>2026-04-26T16:00:12.998Z</time></trkpt><trkpt lat="45.73308879183048" lon="11.389708939186285"><ele>206.0</ele><time>2026-04-26T16:00:13.998Z</time></trkpt><trkpt lat="45.73303455997131" lon="11.389501915955764"><ele>205.5</ele><time>2026-04-26T16:00:14.998Z</time></trkpt><trkpt lat="45.73298358163838" lon="11.389299477744474"><ele>205.0</ele><time>2026-04-26T16:00:15.998Z</time></trkpt><trkpt lat="45.732933955173976" lon="11.389102808506632"><ele>204.5</ele><time>2026-04-26T16:00:16.998Z</time></trkpt><trkpt lat="45.732884916328025" lon="11.388908407150598"><ele>204.0</ele><time>2026-04-26T16:00:17.998Z</time></trkpt><trkpt lat="45.7328378698367" lon="11.388723696021133"><ele>204.0</ele><time>2026-04-26T16:00:18.998Z</time></trkpt><trkpt lat="45.73279020232159" lon="11.388545361654831"><ele>204.0</ele><time>2026-04-26T16:00:19.998Z</time></trkpt><trkpt lat="45.73274627507639" lon="11.388375826509245"><ele>204.0</ele><time>2026-04-26T16:00:20.998Z</time></trkpt><trkpt lat="45.732704665467665" lon="11.388220522099573"><ele>204.0</ele><time>2026-04-26T16:00:21.998Z</time></trkpt><trkpt lat="45.73266678545403" lon="11.388082437484256"><ele>203.83333333333334</ele><time>2026-04-26T16:00:22.998Z</time></trkpt><trkpt lat="45.73263628199805" lon="11.387962612204511"><ele>203.66666666666669</ele><time>2026-04-26T16:00:23.998Z</time></trkpt><trkpt lat="45.732610531654686" lon="11.387855632324523"><ele>203.5</ele><time>2026-04-26T16:00:24.998Z</time></trkpt><trkpt lat="45.732591925343655" lon="11.387766466775572"><ele>203.33333333333334</ele><time>2026-04-26T16:00:25.998Z</time></trkpt><trkpt lat="45.732553070547276" lon="11.387619328154717"><ele>203.16666666666669</ele><time>2026-04-26T16:00:27.998Z</time></trkpt><trkpt lat="45.732540294234866" lon="11.387506988161794"><ele>203.0</ele><time>2026-04-26T16:00:29.998Z</time></trkpt><trkpt lat="45.73250505862193" lon="11.387426593564646"><ele>203.00000000000003</ele><time>2026-04-26T16:00:33.998Z</time></trkpt><trkpt lat="45.73249493989267" lon="11.387324405852576"><ele>203.0</ele><time>2026-04-26T16:01:00Z</time></trkpt><trkpt lat="45.732468823498095" lon="11.38722213324881"><ele>203.0</ele><time>2026-04-26T16:01:02Z</time></trkpt><trkpt lat="45.73244482934332" lon="11.387128128117594"><ele>203.0</ele><time>2026-04-26T16:01:04Z</time></trkpt><trkpt lat="45.732401168256594" lon="11.3869579060392"><ele>203.00000000000003</ele><time>2026-04-26T16:01:14.999Z</time></trkpt><trkpt lat="45.73237236691383" lon="11.386846605925024"><ele>203.0</ele><time>2026-04-26T16:01:15.999Z</time></trkpt><trkpt lat="45.732346440164235" lon="11.386746409895965"><ele>203.75</ele><time>2026-04-26T16:01:16.999Z</time></trkpt><trkpt lat="45.732306363049965" lon="11.386662393152239"><ele>204.5</ele><time>2026-04-26T16:01:18.999Z</time></trkpt><trkpt lat="45.73210092752777" lon="11.38684569583295"><ele>205.25</ele><time>2026-04-26T16:01:19.999Z</time></trkpt><trkpt lat="45.732002554054596" lon="11.386871632880897"><ele>206.0</ele><time>2026-04-26T16:01:20.999Z</time></trkpt><trkpt lat="45.73190141445324" lon="11.386941968649529"><ele>205.0</ele><time>2026-04-26T16:01:21.999Z</time></trkpt><trkpt lat="45.73178647420934" lon="11.387010768137262"><ele>204.0</ele><time>2026-04-26T16:01:22.999Z</time></trkpt><trkpt lat="45.73164497804662" lon="11.387077353028296"><ele>203.0</ele><time>2026-04-26T16:01:23.999Z</time></trkpt><trkpt lat="45.731500938824944" lon="11.387148836497637"><ele>202.0</ele><time>2026-04-26T16:01:24.999Z</time></trkpt><trkpt lat="45.731335833977134" lon="11.387230824398216"><ele>201.33333333333331</ele><time>2026-04-26T16:01:25.999Z</time></trkpt><trkpt lat="45.73114896567163" lon="11.387314875340156"><ele>200.66666666666669</ele><time>2026-04-26T16:01:26.999Z</time></trkpt><trkpt lat="45.73093541715735" lon="11.387401307294498"><ele>200.0</ele><time>2026-04-26T16:01:27.999Z</time></trkpt><trkpt lat="45.73067886764299" lon="11.387464936300942"><ele>199.5</ele><time>2026-04-26T16:01:28.999Z</time></trkpt><trkpt lat="45.73040036108" lon="11.3875283929153"><ele>199.0</ele><time>2026-04-26T16:01:29.999Z</time></trkpt><trkpt lat="45.73023186898797" lon="11.387557229315684"><ele>198.66666666666666</ele><time>2026-04-26T16:01:31.999Z</time></trkpt><trkpt lat="45.730032163953055" lon="11.387579087540061"><ele>198.33333333333331</ele><time>2026-04-26T16:01:32.999Z</time></trkpt><trkpt lat="45.729828581025295" lon="11.387593815819994"><ele>198.0</ele><time>2026-04-26T16:01:33.999Z</time></trkpt><trkpt lat="45.729619925861556" lon="11.387605232332929"><ele>198.0</ele><time>2026-04-26T16:01:34.999Z</time></trkpt><trkpt lat="45.72940783342449" lon="11.387635906258593"><ele>198.0</ele><time>2026-04-26T16:01:35.999Z</time></trkpt><trkpt lat="45.72919138645288" lon="11.387640620634828"><ele>198.0</ele><time>2026-04-26T16:01:36.999Z</time></trkpt><trkpt lat="45.72897097622844" lon="11.387648418882883"><ele>197.33333333333331</ele><time>2026-04-26T16:01:37.999Z</time></trkpt><trkpt lat="45.72874950398797" lon="11.387661685148592"><ele>196.66666666666666</ele><time>2026-04-26T16:01:38.999Z</time></trkpt><trkpt lat="45.7285259054889" lon="11.387673475289485"><ele>196.0</ele><time>2026-04-26T16:01:39.999Z</time></trkpt><trkpt lat="45.728300576104104" lon="11.387684722489626"><ele>195.66666666666666</ele><time>2026-04-26T16:01:40.999Z</time></trkpt><trkpt lat="45.728077096472035" lon="11.387692635706962"><ele>195.33333333333331</ele><time>2026-04-26T16:01:41.999Z</time></trkpt><trkpt lat="45.72785347934099" lon="11.38770185241103"><ele>195.0</ele><time>2026-04-26T16:01:42.999Z</time></trkpt><trkpt lat="45.72762374040823" lon="11.387711685616472"><ele>194.0</ele><time>2026-04-26T16:01:43.999Z</time></trkpt><trkpt lat="45.72739157316941" lon="11.387715043347582"><ele>193.0</ele><time>2026-04-26T16:01:44.999Z</time></trkpt><trkpt lat="45.7271580602175" lon="11.38772239916118"><ele>193.0</ele><time>2026-04-26T16:01:45.999Z</time></trkpt><trkpt lat="45.72692180909048" lon="11.387730085894168"><ele>193.0</ele><time>2026-04-26T16:01:46.999Z</time></trkpt><trkpt lat="45.7266840146638" lon="11.387741169713875"><ele>193.0</ele><time>2026-04-26T16:01:47.999Z</time></trkpt><trkpt lat="45.72644135985512" lon="11.387755542167644"><ele>193.0</ele><time>2026-04-26T16:01:48.999Z</time></trkpt><trkpt lat="45.72619716895733" lon="11.387769871931452"><ele>190.5</ele><time>2026-04-26T16:01:49.999Z</time></trkpt><trkpt lat="45.72595038775626" lon="11.38778173057701"><ele>188.0</ele><time>2026-04-26T16:01:50.999Z</time></trkpt><trkpt lat="45.72570238099026" lon="11.387788827259076"><ele>188.0</ele><time>2026-04-26T16:01:51.999Z</time></trkpt><trkpt lat="45.72545553231119" lon="11.387797711955274"><ele>188.0</ele><time>2026-04-26T16:01:52.999Z</time></trkpt><trkpt lat="45.72520918183809" lon="11.387813203376284"><ele>188.0</ele><time>2026-04-26T16:01:53.999Z</time></trkpt><trkpt lat="45.72497107317639" lon="11.387824442087384"><ele>188.0</ele><time>2026-04-26T16:01:54.999Z</time></trkpt><trkpt lat="45.7247305485381" lon="11.387841607411252"><ele>188.0</ele><time>2026-04-26T16:01:55.999Z</time></trkpt><trkpt lat="45.724494732614076" lon="11.387858584470893"><ele>188.0</ele><time>2026-04-26T16:01:56.999Z</time></trkpt><trkpt lat="45.72426884746917" lon="11.387870295127987"><ele>186.0</ele><time>2026-04-26T16:01:57.999Z</time></trkpt><trkpt lat="45.72403855023964" lon="11.387873289282588"><ele>184.0</ele><time>2026-04-26T16:01:58.999Z</time></trkpt><trkpt lat="45.7238060648871" lon="11.387879959955798"><ele>184.0</ele><time>2026-04-26T16:01:59.999Z</time></trkpt><trkpt lat="45.72357989389411" lon="11.387892935942949"><ele>184.0</ele><time>2026-04-26T16:02:00.999Z</time></trkpt><trkpt lat="45.72335382234799" lon="11.387905829725652"><ele>184.0</ele><time>2026-04-26T16:02:01.998Z</time></trkpt><trkpt lat="45.72312776285326" lon="11.387911295241304"><ele>184.0</ele><time>2026-04-26T16:02:02.998Z</time></trkpt><trkpt lat="45.72289990102035" lon="11.387933635393669"><ele>185.0</ele><time>2026-04-26T16:02:03.998Z</time></trkpt><trkpt lat="45.72266836664089" lon="11.38789879915568"><ele>186.0</ele><time>2026-04-26T16:02:04.998Z</time></trkpt><trkpt lat="45.72243737325896" lon="11.387879102539085"><ele>186.0</ele><time>2026-04-26T16:02:05.998Z</time></trkpt><trkpt lat="45.72220802195424" lon="11.387856035629866"><ele>186.0</ele><time>2026-04-26T16:02:06.998Z</time></trkpt><trkpt lat="45.72198486226885" lon="11.387843250420094"><ele>183.5</ele><time>2026-04-26T16:02:07.998Z</time></trkpt><trkpt lat="45.72175696897194" lon="11.387829474786455"><ele>181.0</ele><time>2026-04-26T16:02:08.998Z</time></trkpt><trkpt lat="45.72152738233655" lon="11.387816809118103"><ele>181.0</ele><time>2026-04-26T16:02:09.998Z</time></trkpt><trkpt lat="45.72129952085105" lon="11.38779915203413"><ele>181.0</ele><time>2026-04-26T16:02:10.998Z</time></trkpt><trkpt lat="45.7210721365896" lon="11.387782671126969"><ele>180.5</ele><time>2026-04-26T16:02:11.998Z</time></trkpt><trkpt lat="45.72084759367474" lon="11.387766839822422"><ele>180.0</ele><time>2026-04-26T16:02:12.998Z</time></trkpt><trkpt lat="45.72062106081625" lon="11.38774931687419"><ele>180.0</ele><time>2026-04-26T16:02:13.998Z</time></trkpt><trkpt lat="45.72040289457928" lon="11.38773215570974"><ele>180.0</ele><time>2026-04-26T16:02:14.998Z</time></trkpt><trkpt lat="45.7201858253148" lon="11.38771582633885"><ele>180.0</ele><time>2026-04-26T16:02:15.998Z</time></trkpt><trkpt lat="45.719971690968976" lon="11.387700479387757"><ele>179.66666666666666</ele><time>2026-04-26T16:02:16.998Z</time></trkpt><trkpt lat="45.71975686975177" lon="11.387681836577075"><ele>179.33333333333331</ele><time>2026-04-26T16:02:17.998Z</time></trkpt><trkpt lat="45.71954676362456" lon="11.38766825494748"><ele>179.0</ele><time>2026-04-26T16:02:18.998Z</time></trkpt><trkpt lat="45.71933284980781" lon="11.387652183550024"><ele>179.0</ele><time>2026-04-26T16:02:19.998Z</time></trkpt><trkpt lat="45.71913943594628" lon="11.387649213143069"><ele>179.0</ele><time>2026-04-26T16:02:20.998Z</time></trkpt><trkpt lat="45.7189470316746" lon="11.387655287261826"><ele>179.0</ele><time>2026-04-26T16:02:21.998Z</time></trkpt><trkpt lat="45.71872457736783" lon="11.387613553935024"><ele>178.66666666666666</ele><time>2026-04-26T16:02:22.998Z</time></trkpt><trkpt lat="45.71852806532137" lon="11.387599207999308"><ele>178.33333333333334</ele><time>2026-04-26T16:02:23.998Z</time></trkpt><trkpt lat="45.71833507826378" lon="11.387587060572562"><ele>178.0</ele><time>2026-04-26T16:02:24.998Z</time></trkpt><trkpt lat="45.718147885114234" lon="11.3875716953063"><ele>178.0</ele><time>2026-04-26T16:02:25.998Z</time></trkpt><trkpt lat="45.717966128365575" lon="11.387557290734552"><ele>178.0</ele><time>2026-04-26T16:02:26.998Z</time></trkpt><trkpt lat="45.717797237802635" lon="11.387548351637054"><ele>178.0</ele><time>2026-04-26T16:02:27.998Z</time></trkpt><trkpt lat="45.71763881199784" lon="11.387534427447608"><ele>177.75</ele><time>2026-04-26T16:02:28.998Z</time></trkpt><trkpt lat="45.71749468211799" lon="11.387527419356058"><ele>177.5</ele><time>2026-04-26T16:02:29.998Z</time></trkpt><trkpt lat="45.71736362511591" lon="11.38752130254286"><ele>177.25</ele><time>2026-04-26T16:02:30.998Z</time></trkpt><trkpt lat="45.717244421341405" lon="11.387509799925981"><ele>177.0</ele><time>2026-04-26T16:02:31.998Z</time></trkpt><trkpt lat="45.71714620335164" lon="11.387496776420686"><ele>177.0</ele><time>2026-04-26T16:02:32.998Z</time></trkpt><trkpt lat="45.71705162743299" lon="11.387462849654694"><ele>177.0</ele><time>2026-04-26T16:02:33.998Z</time></trkpt><trkpt lat="45.716956613129256" lon="11.387395839336842"><ele>177.0</ele><time>2026-04-26T16:02:34.998Z</time></trkpt><trkpt lat="45.71685700398239" lon="11.387310892243953"><ele>177.0</ele><time>2026-04-26T16:02:35.998Z</time></trkpt><trkpt lat="45.71676254980674" lon="11.387196763248276"><ele>177.0</ele><time>2026-04-26T16:02:36.998Z</time></trkpt><trkpt lat="45.71667720890516" lon="11.387051676147147"><ele>177.0</ele><time>2026-04-26T16:02:37.998Z</time></trkpt><trkpt lat="45.71660452666192" lon="11.386873280748324"><ele>177.0</ele><time>2026-04-26T16:02:38.998Z</time></trkpt><trkpt lat="45.71654696251613" lon="11.386671594891403"><ele>177.0</ele><time>2026-04-26T16:02:39.998Z</time></trkpt><trkpt lat="45.716507083624585" lon="11.386451482877154"><ele>177.25</ele><time>2026-04-26T16:02:41Z</time></trkpt><trkpt lat="45.71646828640318" lon="11.386234338645096"><ele>177.5</ele><time>2026-04-26T16:02:42Z</time></trkpt><trkpt lat="45.716446014067216" lon="11.386025420298353"><ele>177.75</ele><time>2026-04-26T16:02:43Z</time></trkpt><trkpt lat="45.716449441489154" lon="11.385825941683954"><ele>178.0</ele><time>2026-04-26T16:02:44Z</time></trkpt><trkpt lat="45.716482207366575" lon="11.385634434424482"><ele>178.25</ele><time>2026-04-26T16:02:45Z</time></trkpt><trkpt lat="45.71653372241805" lon="11.385453892695693"><ele>178.5</ele><time>2026-04-26T16:02:46Z</time></trkpt><trkpt lat="45.716568778679964" lon="11.385275379010439"><ele>178.75</ele><time>2026-04-26T16:02:47Z</time></trkpt><trkpt lat="45.71654508163545" lon="11.385099429726992"><ele>179.0</ele><time>2026-04-26T16:02:48Z</time></trkpt><trkpt lat="45.7164671487954" lon="11.384948960264913"><ele>179.0</ele><time>2026-04-26T16:02:49Z</time></trkpt><trkpt lat="45.71635955169825" lon="11.38483293754898"><ele>179.0</ele><time>2026-04-26T16:02:50Z</time></trkpt><trkpt lat="45.716259186863766" lon="11.384686612002072"><ele>179.0</ele><time>2026-04-26T16:02:51Z</time></trkpt><trkpt lat="45.716198580919304" lon="11.384483901939966"><ele>179.0</ele><time>2026-04-26T16:02:52Z</time></trkpt><trkpt lat="45.7161703498992" lon="11.384262393265388"><ele>180.0</ele><time>2026-04-26T16:02:53Z</time></trkpt><trkpt lat="45.71616143619028" lon="11.38401276508631"><ele>181.0</ele><time>2026-04-26T16:02:54Z</time></trkpt><trkpt lat="45.716146126341535" lon="11.383763973540468"><ele>182.0</ele><time>2026-04-26T16:02:55Z</time></trkpt><trkpt lat="45.716124071997406" lon="11.383499065619537"><ele>182.0</ele><time>2026-04-26T16:02:56Z</time></trkpt><trkpt lat="45.71610520736172" lon="11.383219793188738"><ele>182.0</ele><time>2026-04-26T16:02:57Z</time></trkpt><trkpt lat="45.7160839570105" lon="11.382922375620605"><ele>182.0</ele><time>2026-04-26T16:02:58Z</time></trkpt><trkpt lat="45.716059654102295" lon="11.38262175840311"><ele>180.66666666666666</ele><time>2026-04-26T16:02:59Z</time></trkpt><trkpt lat="45.71603439698074" lon="11.382316172786178"><ele>179.33333333333334</ele><time>2026-04-26T16:03:00Z</time></trkpt><trkpt lat="45.71601052579272" lon="11.382009264572048"><ele>178.0</ele><time>2026-04-26T16:03:01Z</time></trkpt><trkpt lat="45.71598503535708" lon="11.381697225665775"><ele>178.0</ele><time>2026-04-26T16:03:02Z</time></trkpt><trkpt lat="45.71596034405765" lon="11.381390652494392"><ele>178.0</ele><time>2026-04-26T16:03:03Z</time></trkpt><trkpt lat="45.71593519604795" lon="11.381094853719485"><ele>178.0</ele><time>2026-04-26T16:03:04Z</time></trkpt><trkpt lat="45.715908718505986" lon="11.380806794487107"><ele>178.33333333333334</ele><time>2026-04-26T16:03:05Z</time></trkpt><trkpt lat="45.715881013774926" lon="11.38052435258664"><ele>178.66666666666666</ele><time>2026-04-26T16:03:06Z</time></trkpt><trkpt lat="45.71584993632663" lon="11.380245256153524"><ele>179.0</ele><time>2026-04-26T16:03:07Z</time></trkpt><trkpt lat="45.71580710380363" lon="11.379977259184772"><ele>179.0</ele><time>2026-04-26T16:03:08Z</time></trkpt><trkpt lat="45.71575796826518" lon="11.379720308011716"><ele>179.0</ele><time>2026-04-26T16:03:09Z</time></trkpt><trkpt lat="45.715705405404655" lon="11.379489428252294"><ele>179.0</ele><time>2026-04-26T16:03:10Z</time></trkpt><trkpt lat="45.71564858477805" lon="11.379264648509908"><ele>179.25</ele><time>2026-04-26T16:03:11Z</time></trkpt><trkpt lat="45.7155942923755" lon="11.37906474457787"><ele>179.5</ele><time>2026-04-26T16:03:12Z</time></trkpt><trkpt lat="45.71554389205491" lon="11.378891932582887"><ele>179.75</ele><time>2026-04-26T16:03:13Z</time></trkpt><trkpt lat="45.71550259819466" lon="11.378738592285979"><ele>180.0</ele><time>2026-04-26T16:03:14Z</time></trkpt><trkpt lat="45.71546942192887" lon="11.37861024072817"><ele>180.0</ele><time>2026-04-26T16:03:15Z</time></trkpt><trkpt lat="45.71543817371028" lon="11.378496962599892"><ele>180.0</ele><time>2026-04-26T16:03:15.999Z</time></trkpt><trkpt lat="45.715415386458986" lon="11.378393596990607"><ele>180.0</ele><time>2026-04-26T16:03:16.999Z</time></trkpt><trkpt lat="45.71540201977248" lon="11.378218745955603"><ele>180.0</ele><time>2026-04-26T16:03:18.999Z</time></trkpt><trkpt lat="45.71544307783661" lon="11.378128690535732"><ele>180.0</ele><time>2026-04-26T16:03:19.999Z</time></trkpt><trkpt lat="45.715443077836824" lon="11.378028786429702"><ele>180.0</ele><time>2026-04-26T16:03:20.999Z</time></trkpt><trkpt lat="45.71541391899218" lon="11.377900203261419"><ele>180.0</ele><time>2026-04-26T16:03:21.999Z</time></trkpt><trkpt lat="45.71532709281835" lon="11.377799164782058"><ele>180.0</ele><time>2026-04-26T16:03:22.999Z</time></trkpt><trkpt lat="45.71522987772999" lon="11.377724632866833"><ele>180.0</ele><time>2026-04-26T16:03:23.999Z</time></trkpt><trkpt lat="45.715114880356225" lon="11.377751919976992"><ele>180.0</ele><time>2026-04-26T16:03:24.999Z</time></trkpt><trkpt lat="45.715012356170355" lon="11.37761341659038"><ele>180.0</ele><time>2026-04-26T16:03:25.999Z</time></trkpt><trkpt lat="45.71495471636217" lon="11.377462478875216"><ele>180.0</ele><time>2026-04-26T16:03:26.999Z</time></trkpt><trkpt lat="45.71487804327905" lon="11.377314745445513"><ele>180.0</ele><time>2026-04-26T16:03:27.999Z</time></trkpt><trkpt lat="45.71480916964331" lon="11.377150950155242"><ele>180.0</ele><time>2026-04-26T16:03:28.999Z</time></trkpt><trkpt lat="45.71472656964121" lon="11.376996385322132"><ele>180.75</ele><time>2026-04-26T16:03:29.999Z</time></trkpt><trkpt lat="45.71464024864258" lon="11.37684825011537"><ele>181.5</ele><time>2026-04-26T16:03:30.999Z</time></trkpt><trkpt lat="45.71455020515953" lon="11.376708722957758"><ele>182.25</ele><time>2026-04-26T16:03:31.999Z</time></trkpt><trkpt lat="45.71445690142791" lon="11.376582761266953"><ele>183.0</ele><time>2026-04-26T16:03:32.999Z</time></trkpt><trkpt lat="45.714365522820806" lon="11.376467116102837"><ele>183.0</ele><time>2026-04-26T16:03:33.999Z</time></trkpt><trkpt lat="45.71428246046901" lon="11.376361516719351"><ele>183.0</ele><time>2026-04-26T16:03:34.999Z</time></trkpt><trkpt lat="45.714204539547" lon="11.376267861902406"><ele>183.0</ele><time>2026-04-26T16:03:35.999Z</time></trkpt><trkpt lat="45.71413142623316" lon="11.376176605962863"><ele>183.0</ele><time>2026-04-26T16:03:36.999Z</time></trkpt><trkpt lat="45.71406201304528" lon="11.37609609335586"><ele>183.0</ele><time>2026-04-26T16:03:37.999Z</time></trkpt><trkpt lat="45.71399203818487" lon="11.376019296610421"><ele>183.4</ele><time>2026-04-26T16:03:38.999Z</time></trkpt><trkpt lat="45.71391288727518" lon="11.375930608272975"><ele>183.8</ele><time>2026-04-26T16:03:39.999Z</time></trkpt><trkpt lat="45.71383253465527" lon="11.37583883784266"><ele>184.2</ele><time>2026-04-26T16:03:40.999Z</time></trkpt><trkpt lat="45.71374951349875" lon="11.375744057785381"><ele>184.6</ele><time>2026-04-26T16:03:41.999Z</time></trkpt><trkpt lat="45.71366316881764" lon="11.375647229011614"><ele>185.0</ele><time>2026-04-26T16:03:42.999Z</time></trkpt><trkpt lat="45.71357305877614" lon="11.37554243976089"><ele>184.5</ele><time>2026-04-26T16:03:43.999Z</time></trkpt><trkpt lat="45.713481753913534" lon="11.37543446828313"><ele>184.0</ele><time>2026-04-26T16:03:44.999Z</time></trkpt><trkpt lat="45.71338785890929" lon="11.375325523838828"><ele>183.5</ele><time>2026-04-26T16:03:45.999Z</time></trkpt><trkpt lat="45.713288528416555" lon="11.375210451148774"><ele>183.0</ele><time>2026-04-26T16:03:46.999Z</time></trkpt><trkpt lat="45.71318390246398" lon="11.375093085603416"><ele>183.0</ele><time>2026-04-26T16:03:47.999Z</time></trkpt><trkpt lat="45.7130809682738" lon="11.374971884888097"><ele>183.0</ele><time>2026-04-26T16:03:48.999Z</time></trkpt><trkpt lat="45.712979130829375" lon="11.374854368491912"><ele>183.0</ele><time>2026-04-26T16:03:49.999Z</time></trkpt><trkpt lat="45.71287991585211" lon="11.374742829426372"><ele>183.0</ele><time>2026-04-26T16:03:50.999Z</time></trkpt><trkpt lat="45.71278400408469" lon="11.374633217156855"><ele>183.0</ele><time>2026-04-26T16:03:51.999Z</time></trkpt><trkpt lat="45.71269273178108" lon="11.374530458937853"><ele>183.0</ele><time>2026-04-26T16:03:52.999Z</time></trkpt><trkpt lat="45.71259743181558" lon="11.374426740058247"><ele>183.0</ele><time>2026-04-26T16:03:53.999Z</time></trkpt><trkpt lat="45.71250463873263" lon="11.374319747326824"><ele>183.0</ele><time>2026-04-26T16:03:54.999Z</time></trkpt><trkpt lat="45.71241195313547" lon="11.374211903487094"><ele>183.0</ele><time>2026-04-26T16:03:55.999Z</time></trkpt><trkpt lat="45.71231903192336" lon="11.374104552008113"><ele>183.0</ele><time>2026-04-26T16:03:56.999Z</time></trkpt><trkpt lat="45.712226342008805" lon="11.373996291075796"><ele>183.0</ele><time>2026-04-26T16:03:57.999Z</time></trkpt><trkpt lat="45.71213284973836" lon="11.373886123929456"><ele>183.0</ele><time>2026-04-26T16:03:58.999Z</time></trkpt><trkpt lat="45.712039512704614" lon="11.373775335715825"><ele>183.0</ele><time>2026-04-26T16:03:59.999Z</time></trkpt><trkpt lat="45.71194362060908" lon="11.373668342772028"><ele>183.0</ele><time>2026-04-26T16:04:00.999Z</time></trkpt><trkpt lat="45.71184639165171" lon="11.373558337561398"><ele>183.0</ele><time>2026-04-26T16:04:01.999Z</time></trkpt><trkpt lat="45.711750553392" lon="11.373448088185361"><ele>183.0</ele><time>2026-04-26T16:04:02.999Z</time></trkpt><trkpt lat="45.711653550473635" lon="11.373338575722212"><ele>183.2</ele><time>2026-04-26T16:04:03.999Z</time></trkpt><trkpt lat="45.71156360952386" lon="11.373233532532081"><ele>183.4</ele><time>2026-04-26T16:04:04.999Z</time></trkpt><trkpt lat="45.71147556829415" lon="11.373132863527307"><ele>183.6</ele><time>2026-04-26T16:04:05.999Z</time></trkpt><trkpt lat="45.7113989086151" lon="11.37304626773772"><ele>183.79999999999998</ele><time>2026-04-26T16:04:06.999Z</time></trkpt><trkpt lat="45.71132047304084" lon="11.372961394370346"><ele>184.0</ele><time>2026-04-26T16:04:07.999Z</time></trkpt><trkpt lat="45.71124959200551" lon="11.37287616517056"><ele>184.16666666666669</ele><time>2026-04-26T16:04:08.998Z</time></trkpt><trkpt lat="45.71117963949622" lon="11.372792831617197"><ele>184.33333333333334</ele><time>2026-04-26T16:04:09.998Z</time></trkpt><trkpt lat="45.71111553071233" lon="11.372716444022599"><ele>184.5</ele><time>2026-04-26T16:04:10.998Z</time></trkpt><trkpt lat="45.71105402025421" lon="11.372641992851568"><ele>184.66666666666666</ele><time>2026-04-26T16:04:11.998Z</time></trkpt><trkpt lat="45.71099560715986" lon="11.372572512974502"><ele>184.83333333333331</ele><time>2026-04-26T16:04:12.998Z</time></trkpt><trkpt lat="45.71094025467522" lon="11.372509321785914"><ele>185.0</ele><time>2026-04-26T16:04:13.998Z</time></trkpt><trkpt lat="45.710849407350246" lon="11.372393235800688"><ele>184.4</ele><time>2026-04-26T16:04:15.998Z</time></trkpt><trkpt lat="45.71077654096908" lon="11.372244366519963"><ele>183.8</ele><time>2026-04-26T16:04:17.998Z</time></trkpt><trkpt lat="45.71074652973001" lon="11.372148793740088"><ele>183.2</ele><time>2026-04-26T16:04:18.998Z</time></trkpt><trkpt lat="45.71071705307391" lon="11.37203874641328"><ele>182.6</ele><time>2026-04-26T16:04:19.998Z</time></trkpt><trkpt lat="45.71068067344956" lon="11.3719167087478"><ele>182.0</ele><time>2026-04-26T16:04:20.998Z</time></trkpt><trkpt lat="45.71063163572412" lon="11.371804307356602"><ele>182.0</ele><time>2026-04-26T16:04:21.998Z</time></trkpt><trkpt lat="45.71058105975299" lon="11.371696015651228"><ele>182.0</ele><time>2026-04-26T16:04:22.998Z</time></trkpt><trkpt lat="45.71052663849112" lon="11.371592185142829"><ele>182.0</ele><time>2026-04-26T16:04:23.998Z</time></trkpt><trkpt lat="45.71045571254607" lon="11.371517103800226"><ele>182.0</ele><time>2026-04-26T16:04:24.998Z</time></trkpt><trkpt lat="45.71036914126827" lon="11.371502483993764"><ele>182.0</ele><time>2026-04-26T16:04:25.998Z</time></trkpt><trkpt lat="45.71028148781742" lon="11.371541522401257"><ele>182.0</ele><time>2026-04-26T16:04:26.998Z</time></trkpt><trkpt lat="45.710220105230675" lon="11.3716400933794"><ele>181.8</ele><time>2026-04-26T16:04:27.998Z</time></trkpt><trkpt lat="45.710099730391995" lon="11.37161021251972"><ele>181.6</ele><time>2026-04-26T16:04:28.998Z</time></trkpt><trkpt lat="45.71002445271427" lon="11.371645858137121"><ele>181.4</ele><time>2026-04-26T16:04:29.998Z</time></trkpt><trkpt lat="45.709952869271554" lon="11.371550086282449"><ele>181.20000000000002</ele><time>2026-04-26T16:04:30.998Z</time></trkpt><trkpt lat="45.70987759067478" lon="11.371511712742455"><ele>181.0</ele><time>2026-04-26T16:04:32.998Z</time></trkpt><trkpt lat="45.70980807752249" lon="11.37147765762243"><ele>181.0</ele><time>2026-04-26T16:04:34.998Z</time></trkpt><trkpt lat="45.70973766103546" lon="11.371435485146034"><ele>181.0</ele><time>2026-04-26T16:04:49Z</time></trkpt><trkpt lat="45.709673358704414" lon="11.371401234246765"><ele>181.0</ele><time>2026-04-26T16:04:50Z</time></trkpt><trkpt lat="45.70957537248753" lon="11.371338076743987"><ele>181.0</ele><time>2026-04-26T16:04:51Z</time></trkpt><trkpt lat="45.70944902255425" lon="11.371271344972255"><ele>181.0</ele><time>2026-04-26T16:04:52Z</time></trkpt><trkpt lat="45.70928895695695" lon="11.371193199329078"><ele>181.66666666666669</ele><time>2026-04-26T16:04:53Z</time></trkpt><trkpt lat="45.70911542115182" lon="11.371118057194773"><ele>182.33333333333334</ele><time>2026-04-26T16:04:54Z</time></trkpt><trkpt lat="45.70894136071413" lon="11.371040722264368"><ele>183.0</ele><time>2026-04-26T16:04:55Z</time></trkpt><trkpt lat="45.70872140541311" lon="11.370939761285268"><ele>183.5</ele><time>2026-04-26T16:04:56Z</time></trkpt><trkpt lat="45.7084922767625" lon="11.370837502744063"><ele>184.0</ele><time>2026-04-26T16:04:57Z</time></trkpt><trkpt lat="45.70827508187896" lon="11.370750025372418"><ele>184.0</ele><time>2026-04-26T16:04:58Z</time></trkpt><trkpt lat="45.70807421620946" lon="11.370663887819173"><ele>184.0</ele><time>2026-04-26T16:04:59Z</time></trkpt><trkpt lat="45.70788816871521" lon="11.370582620357052"><ele>184.0</ele><time>2026-04-26T16:05:00Z</time></trkpt><trkpt lat="45.70771286798834" lon="11.370514125013335"><ele>183.66666666666669</ele><time>2026-04-26T16:05:01Z</time></trkpt><trkpt lat="45.70755075997342" lon="11.370452821693625"><ele>183.33333333333334</ele><time>2026-04-26T16:05:02Z</time></trkpt><trkpt lat="45.70740110389907" lon="11.370381886643687"><ele>183.0</ele><time>2026-04-26T16:05:03Z</time></trkpt><trkpt lat="45.70726273234702" lon="11.370309062366934"><ele>183.0</ele><time>2026-04-26T16:05:04Z</time></trkpt><trkpt lat="45.707129551316115" lon="11.370245208525477"><ele>183.0</ele><time>2026-04-26T16:05:05Z</time></trkpt><trkpt lat="45.70700261749305" lon="11.370191068449087"><ele>183.0</ele><time>2026-04-26T16:05:06Z</time></trkpt><trkpt lat="45.70688475421145" lon="11.370132663444519"><ele>183.0</ele><time>2026-04-26T16:05:07Z</time></trkpt><trkpt lat="45.70677738830853" lon="11.37007985763615"><ele>182.83333333333334</ele><time>2026-04-26T16:05:08Z</time></trkpt><trkpt lat="45.706678664439316" lon="11.37004166336504"><ele>182.66666666666666</ele><time>2026-04-26T16:05:09Z</time></trkpt><trkpt lat="45.70659066156251" lon="11.370003136644424"><ele>182.5</ele><time>2026-04-26T16:05:10Z</time></trkpt><trkpt lat="45.70651595402649" lon="11.369956699138715"><ele>182.33333333333331</ele><time>2026-04-26T16:05:11Z</time></trkpt><trkpt lat="45.70645919661946" lon="11.369914957464639"><ele>182.16666666666666</ele><time>2026-04-26T16:05:12Z</time></trkpt><trkpt lat="45.70638215081775" lon="11.369811002058166"><ele>182.0</ele><time>2026-04-26T16:05:17Z</time></trkpt><trkpt lat="45.706325035205936" lon="11.369748952772648"><ele>182.0</ele><time>2026-04-26T16:05:18Z</time></trkpt><trkpt lat="45.70623810718089" lon="11.369711214121798"><ele>182.0</ele><time>2026-04-26T16:05:19Z</time></trkpt><trkpt lat="45.70612918938355" lon="11.369756089751322"><ele>182.0</ele><time>2026-04-26T16:05:20Z</time></trkpt><trkpt lat="45.7060134704962" lon="11.369734416051651"><ele>182.0</ele><time>2026-04-26T16:05:21Z</time></trkpt><trkpt lat="45.70588903717282" lon="11.369713813476768"><ele>182.0</ele><time>2026-04-26T16:05:22Z</time></trkpt><trkpt lat="45.70575835717407" lon="11.369649967390867"><ele>181.5</ele><time>2026-04-26T16:05:23Z</time></trkpt><trkpt lat="45.70562878170529" lon="11.369578864750247"><ele>181.0</ele><time>2026-04-26T16:05:23.999Z</time></trkpt><trkpt lat="45.70550460389831" lon="11.369510500056617"><ele>180.5</ele><time>2026-04-26T16:05:24.999Z</time></trkpt><trkpt lat="45.705385785216954" lon="11.369440075668996"><ele>180.0</ele><time>2026-04-26T16:05:25.999Z</time></trkpt><trkpt lat="45.705263183151565" lon="11.369358171806311"><ele>179.75</ele><time>2026-04-26T16:05:26.999Z</time></trkpt><trkpt lat="45.70515158573375" lon="11.369257542088897"><ele>179.5</ele><time>2026-04-26T16:05:27.999Z</time></trkpt><trkpt lat="45.705046050677474" lon="11.369147793457588"><ele>179.25</ele><time>2026-04-26T16:05:28.999Z</time></trkpt><trkpt lat="45.70493430602894" lon="11.36903634481137"><ele>179.0</ele><time>2026-04-26T16:05:29.999Z</time></trkpt><trkpt lat="45.704825451388295" lon="11.368926645762665"><ele>179.25</ele><time>2026-04-26T16:05:30.999Z</time></trkpt><trkpt lat="45.70471546358395" lon="11.368811252516563"><ele>179.5</ele><time>2026-04-26T16:05:31.999Z</time></trkpt><trkpt lat="45.704606126721885" lon="11.36871784717681"><ele>179.75</ele><time>2026-04-26T16:05:32.999Z</time></trkpt><trkpt lat="45.70450498972934" lon="11.368639086810019"><ele>180.0</ele><time>2026-04-26T16:05:33.999Z</time></trkpt><trkpt lat="45.704419735812245" lon="11.368572504294685"><ele>180.8</ele><time>2026-04-26T16:05:34.999Z</time></trkpt><trkpt lat="45.70434602387413" lon="11.368516955873579"><ele>181.6</ele><time>2026-04-26T16:05:35.999Z</time></trkpt><trkpt lat="45.7042852211622" lon="11.368472058944525"><ele>182.39999999999998</ele><time>2026-04-26T16:05:36.999Z</time></trkpt><trkpt lat="45.704179105681554" lon="11.368345664027425"><ele>183.2</ele><time>2026-04-26T16:05:38.999Z</time></trkpt><trkpt lat="45.70412486194825" lon="11.368241136270685"><ele>184.0</ele><time>2026-04-26T16:05:39.999Z</time></trkpt><trkpt lat="45.70404196938266" lon="11.368165084690423"><ele>184.0</ele><time>2026-04-26T16:05:40.999Z</time></trkpt><trkpt lat="45.70394351246664" lon="11.368135029063195"><ele>184.0</ele><time>2026-04-26T16:05:41.999Z</time></trkpt><trkpt lat="45.7038387156895" lon="11.368190519479"><ele>184.0</ele><time>2026-04-26T16:05:42.999Z</time></trkpt><trkpt lat="45.70377771835995" lon="11.368321733636629"><ele>184.0</ele><time>2026-04-26T16:05:43.999Z</time></trkpt><trkpt lat="45.703740267616084" lon="11.368451650659706"><ele>184.0</ele><time>2026-04-26T16:05:44.999Z</time></trkpt><trkpt lat="45.70373228010812" lon="11.368597345711695"><ele>184.0</ele><time>2026-04-26T16:05:45.999Z</time></trkpt><trkpt lat="45.703738495259564" lon="11.368745957786235"><ele>184.0</ele><time>2026-04-26T16:05:46.999Z</time></trkpt><trkpt lat="45.70371252165845" lon="11.368879894422289"><ele>184.0</ele><time>2026-04-26T16:05:47.999Z</time></trkpt><trkpt lat="45.70366623922698" lon="11.368974657401345"><ele>184.0</ele><time>2026-04-26T16:05:48.999Z</time></trkpt><trkpt lat="45.70361707857846" lon="11.369060940324093"><ele>184.0</ele><time>2026-04-26T16:05:49.999Z</time></trkpt><trkpt lat="45.7035925823133" lon="11.369178665399113"><ele>184.0</ele><time>2026-04-26T16:05:50.999Z</time></trkpt><trkpt lat="45.703546604872884" lon="11.36930721363486"><ele>184.0</ele><time>2026-04-26T16:05:51.999Z</time></trkpt><trkpt lat="45.70352033217532" lon="11.369472140228938"><ele>184.0</ele><time>2026-04-26T16:05:52.999Z</time></trkpt><trkpt lat="45.70347955615247" lon="11.369648660000895"><ele>184.0</ele><time>2026-04-26T16:05:53.999Z</time></trkpt><trkpt lat="45.70342296309341" lon="11.369838015301646"><ele>184.0</ele><time>2026-04-26T16:05:54.999Z</time></trkpt><trkpt lat="45.70336795092737" lon="11.370034923581867"><ele>184.0</ele><time>2026-04-26T16:05:55.999Z</time></trkpt><trkpt lat="45.70331124912425" lon="11.370245001985412"><ele>184.0</ele><time>2026-04-26T16:05:56.999Z</time></trkpt><trkpt lat="45.703249244665685" lon="11.370468217771178"><ele>184.0</ele><time>2026-04-26T16:05:57.999Z</time></trkpt><trkpt lat="45.70318637541762" lon="11.370714541322327"><ele>183.33333333333334</ele><time>2026-04-26T16:05:58.999Z</time></trkpt><trkpt lat="45.703120433807186" lon="11.3709580302267"><ele>182.66666666666666</ele><time>2026-04-26T16:05:59.999Z</time></trkpt><trkpt lat="45.703054034212514" lon="11.37120118091616"><ele>182.0</ele><time>2026-04-26T16:06:00.999Z</time></trkpt><trkpt lat="45.70298264024682" lon="11.371465387244813"><ele>181.33333333333331</ele><time>2026-04-26T16:06:01.999Z</time></trkpt><trkpt lat="45.702913805392825" lon="11.371727289827346"><ele>180.66666666666666</ele><time>2026-04-26T16:06:02.999Z</time></trkpt><trkpt lat="45.70284594098193" lon="11.371981853354827"><ele>180.0</ele><time>2026-04-26T16:06:03.999Z</time></trkpt><trkpt lat="45.702775658303175" lon="11.372234472613245"><ele>179.0</ele><time>2026-04-26T16:06:04.999Z</time></trkpt><trkpt lat="45.702705028384926" lon="11.372481528162394"><ele>178.0</ele><time>2026-04-26T16:06:05.999Z</time></trkpt><trkpt lat="45.70263654943108" lon="11.372719751046171"><ele>177.0</ele><time>2026-04-26T16:06:06.999Z</time></trkpt><trkpt lat="45.702572784605834" lon="11.372946946059878"><ele>176.66666666666666</ele><time>2026-04-26T16:06:07.999Z</time></trkpt><trkpt lat="45.702513222877066" lon="11.373164953182608"><ele>176.33333333333331</ele><time>2026-04-26T16:06:08.999Z</time></trkpt><trkpt lat="45.702469587990635" lon="11.373367547522742"><ele>176.0</ele><time>2026-04-26T16:06:09.999Z</time></trkpt><trkpt lat="45.70243197664242" lon="11.373560953498052"><ele>176.0</ele><time>2026-04-26T16:06:10.999Z</time></trkpt><trkpt lat="45.70244353017353" lon="11.373760474460456"><ele>176.0</ele><time>2026-04-26T16:06:11.999Z</time></trkpt><trkpt lat="45.702475576676534" lon="11.37394210646977"><ele>176.0</ele><time>2026-04-26T16:06:12.999Z</time></trkpt><trkpt lat="45.70251237614208" lon="11.37410887586271"><ele>176.0</ele><time>2026-04-26T16:06:13.999Z</time></trkpt><trkpt lat="45.70257179358159" lon="11.374254999324013"><ele>176.0</ele><time>2026-04-26T16:06:14.999Z</time></trkpt><trkpt lat="45.702635257852165" lon="11.374365428458846"><ele>176.0</ele><time>2026-04-26T16:06:15.999Z</time></trkpt><trkpt lat="45.702704198865206" lon="11.374419685230777"><ele>176.0</ele><time>2026-04-26T16:06:16.999Z</time></trkpt><trkpt lat="45.70277182410135" lon="11.374528033275736"><ele>176.0</ele><time>2026-04-26T16:06:18.998Z</time></trkpt><trkpt lat="45.7028078011227" lon="11.374697135597339"><ele>176.0</ele><time>2026-04-26T16:06:20.998Z</time></trkpt><trkpt lat="45.702836082663204" lon="11.374806311349195"><ele>176.0</ele><time>2026-04-26T16:06:21.998Z</time></trkpt><trkpt lat="45.70288746890584" lon="11.37491507453424"><ele>176.0</ele><time>2026-04-26T16:06:22.998Z</time></trkpt><trkpt lat="45.70294809449715" lon="11.375013983858889"><ele>176.0</ele><time>2026-04-26T16:06:23.998Z</time></trkpt><trkpt lat="45.702994796779635" lon="11.375124671452186"><ele>176.0</ele><time>2026-04-26T16:06:24.998Z</time></trkpt><trkpt lat="45.7030133018021" lon="11.375265237652487"><ele>176.0</ele><time>2026-04-26T16:06:25.998Z</time></trkpt><trkpt lat="45.702997883265446" lon="11.37542828939904"><ele>175.75</ele><time>2026-04-26T16:06:26.998Z</time></trkpt><trkpt lat="45.702964469382756" lon="11.375603716111574"><ele>175.5</ele><time>2026-04-26T16:06:27.998Z</time></trkpt><trkpt lat="45.70293472841228" lon="11.375788693738123"><ele>175.25</ele><time>2026-04-26T16:06:28.998Z</time></trkpt><trkpt lat="45.70290902884054" lon="11.375978174208788"><ele>175.0</ele><time>2026-04-26T16:06:29.998Z</time></trkpt><trkpt lat="45.70287669257848" lon="11.37617436798731"><ele>175.0</ele><time>2026-04-26T16:06:30.998Z</time></trkpt><trkpt lat="45.70283588266256" lon="11.376368489744767"><ele>175.0</ele><time>2026-04-26T16:06:31.998Z</time></trkpt><trkpt lat="45.702792993115985" lon="11.376560435317192"><ele>175.0</ele><time>2026-04-26T16:06:32.998Z</time></trkpt><trkpt lat="45.70274515805228" lon="11.376747791665041"><ele>175.0</ele><time>2026-04-26T16:06:33.998Z</time></trkpt><trkpt lat="45.70268813565685" lon="11.376938231216586"><ele>175.0</ele><time>2026-04-26T16:06:34.998Z</time></trkpt><trkpt lat="45.7026239137247" lon="11.377120741861852"><ele>175.0</ele><time>2026-04-26T16:06:35.998Z</time></trkpt><trkpt lat="45.7025501277337" lon="11.377303520838245"><ele>175.0</ele><time>2026-04-26T16:06:36.998Z</time></trkpt><trkpt lat="45.702473048278506" lon="11.377489110879717"><ele>175.0</ele><time>2026-04-26T16:06:37.998Z</time></trkpt><trkpt lat="45.70240076932736" lon="11.377680164233777"><ele>174.0</ele><time>2026-04-26T16:06:38.998Z</time></trkpt><trkpt lat="45.70233009543739" lon="11.377871820686602"><ele>173.0</ele><time>2026-04-26T16:06:39.998Z</time></trkpt><trkpt lat="45.70225868173887" lon="11.378075619958846"><ele>172.0</ele><time>2026-04-26T16:06:40.998Z</time></trkpt><trkpt lat="45.70219219545443" lon="11.37826517139019"><ele>171.75</ele><time>2026-04-26T16:06:41.998Z</time></trkpt><trkpt lat="45.70213484303595" lon="11.378455011978403"><ele>171.5</ele><time>2026-04-26T16:06:42.998Z</time></trkpt><trkpt lat="45.702086900802165" lon="11.378636842846552"><ele>171.25</ele><time>2026-04-26T16:06:43.998Z</time></trkpt><trkpt lat="45.70203663611821" lon="11.378825551965981"><ele>171.0</ele><time>2026-04-26T16:06:44.998Z</time></trkpt><trkpt lat="45.70198228102534" lon="11.379011299901222"><ele>171.0</ele><time>2026-04-26T16:06:45.998Z</time></trkpt><trkpt lat="45.70192497885278" lon="11.379200252519206"><ele>171.0</ele><time>2026-04-26T16:06:46.998Z</time></trkpt><trkpt lat="45.70186999938001" lon="11.379390865395855"><ele>171.0</ele><time>2026-04-26T16:06:47.998Z</time></trkpt><trkpt lat="45.70182098389493" lon="11.37957951975298"><ele>171.0</ele><time>2026-04-26T16:06:48.998Z</time></trkpt><trkpt lat="45.701767781963" lon="11.379770224055736"><ele>171.0</ele><time>2026-04-26T16:06:49.998Z</time></trkpt><trkpt lat="45.70170387000785" lon="11.37995764686262"><ele>171.0</ele><time>2026-04-26T16:06:50.998Z</time></trkpt><trkpt lat="45.70162512630848" lon="11.380134050719596"><ele>171.0</ele><time>2026-04-26T16:06:51.998Z</time></trkpt><trkpt lat="45.70152868160455" lon="11.380301490348618"><ele>171.0</ele><time>2026-04-26T16:06:53Z</time></trkpt><trkpt lat="45.70141407868471" lon="11.380448363793276"><ele>171.0</ele><time>2026-04-26T16:06:54Z</time></trkpt><trkpt lat="45.70129107791259" lon="11.380578735732037"><ele>171.0</ele><time>2026-04-26T16:06:55Z</time></trkpt><trkpt lat="45.70115968139061" lon="11.380707485292751"><ele>171.0</ele><time>2026-04-26T16:06:56Z</time></trkpt><trkpt lat="45.701027248033455" lon="11.380843872890482"><ele>171.0</ele><time>2026-04-26T16:06:57Z</time></trkpt><trkpt lat="45.70089648826499" lon="11.380986545095551"><ele>171.0</ele><time>2026-04-26T16:06:58Z</time></trkpt><trkpt lat="45.70076149368586" lon="11.381122807108515"><ele>171.0</ele><time>2026-04-26T16:06:59Z</time></trkpt><trkpt lat="45.70062725934322" lon="11.381254854099966"><ele>170.66666666666666</ele><time>2026-04-26T16:07:00Z</time></trkpt><trkpt lat="45.70048963472322" lon="11.381385339092486"><ele>170.33333333333331</ele><time>2026-04-26T16:07:01Z</time></trkpt><trkpt lat="45.700357895703604" lon="11.381516213337974"><ele>170.0</ele><time>2026-04-26T16:07:02Z</time></trkpt><trkpt lat="45.70022607222968" lon="11.381644781753993"><ele>170.0</ele><time>2026-04-26T16:07:03Z</time></trkpt><trkpt lat="45.70008184323513" lon="11.381784405284238"><ele>170.0</ele><time>2026-04-26T16:07:04Z</time></trkpt><trkpt lat="45.69994680715256" lon="11.38191927271224"><ele>170.0</ele><time>2026-04-26T16:07:05Z</time></trkpt><trkpt lat="45.6998143921802" lon="11.382057328165246"><ele>169.66666666666666</ele><time>2026-04-26T16:07:06Z</time></trkpt><trkpt lat="45.69968478342937" lon="11.382192076796601"><ele>169.33333333333334</ele><time>2026-04-26T16:07:07Z</time></trkpt><trkpt lat="45.69955412150371" lon="11.382326692231972"><ele>169.0</ele><time>2026-04-26T16:07:08Z</time></trkpt><trkpt lat="45.699427401582604" lon="11.382457951118072"><ele>168.66666666666669</ele><time>2026-04-26T16:07:09Z</time></trkpt><trkpt lat="45.69929945757693" lon="11.382587470367815"><ele>168.33333333333334</ele><time>2026-04-26T16:07:10Z</time></trkpt><trkpt lat="45.699181584381414" lon="11.382713273561224"><ele>168.0</ele><time>2026-04-26T16:07:11Z</time></trkpt><trkpt lat="45.69906242026486" lon="11.382841069246046"><ele>168.0</ele><time>2026-04-26T16:07:12Z</time></trkpt><trkpt lat="45.6989425855273" lon="11.382966213533091"><ele>168.0</ele><time>2026-04-26T16:07:13Z</time></trkpt><trkpt lat="45.698821374751695" lon="11.3830876647472"><ele>168.0</ele><time>2026-04-26T16:07:14Z</time></trkpt><trkpt lat="45.69870125568172" lon="11.383207294919742"><ele>168.0</ele><time>2026-04-26T16:07:15Z</time></trkpt><trkpt lat="45.69857891868969" lon="11.383332174948388"><ele>167.33333333333334</ele><time>2026-04-26T16:07:16Z</time></trkpt><trkpt lat="45.69845959058254" lon="11.383457019023766"><ele>166.66666666666669</ele><time>2026-04-26T16:07:17Z</time></trkpt><trkpt lat="45.69833713636269" lon="11.383583913752812"><ele>166.0</ele><time>2026-04-26T16:07:18Z</time></trkpt><trkpt lat="45.69821466713223" lon="11.383711820476107"><ele>166.0</ele><time>2026-04-26T16:07:19Z</time></trkpt><trkpt lat="45.69808967784008" lon="11.383837737210555"><ele>166.0</ele><time>2026-04-26T16:07:20Z</time></trkpt><trkpt lat="45.697967596653356" lon="11.383966193723774"><ele>166.0</ele><time>2026-04-26T16:07:21Z</time></trkpt><trkpt lat="45.697841873767096" lon="11.384095297922805"><ele>165.66666666666669</ele><time>2026-04-26T16:07:22Z</time></trkpt><trkpt lat="45.697715813516716" lon="11.384225382346033"><ele>165.33333333333334</ele><time>2026-04-26T16:07:23Z</time></trkpt><trkpt lat="45.697591951561705" lon="11.384353231342324"><ele>165.0</ele><time>2026-04-26T16:07:24Z</time></trkpt><trkpt lat="45.69747386945627" lon="11.384477171850262"><ele>165.0</ele><time>2026-04-26T16:07:25Z</time></trkpt><trkpt lat="45.69734633013048" lon="11.384598680369477"><ele>165.0</ele><time>2026-04-26T16:07:26Z</time></trkpt><trkpt lat="45.69721157311316" lon="11.3846986627199"><ele>165.0</ele><time>2026-04-26T16:07:27Z</time></trkpt><trkpt lat="45.69706949569361" lon="11.384793040627335"><ele>164.66666666666666</ele><time>2026-04-26T16:07:27.999Z</time></trkpt><trkpt lat="45.696924123171954" lon="11.384893796036073"><ele>164.33333333333331</ele><time>2026-04-26T16:07:28.999Z</time></trkpt><trkpt lat="45.696780057251765" lon="11.384991622497564"><ele>164.0</ele><time>2026-04-26T16:07:29.999Z</time></trkpt><trkpt lat="45.69664055551949" lon="11.385089518039145"><ele>163.66666666666666</ele><time>2026-04-26T16:07:30.999Z</time></trkpt><trkpt lat="45.69650426487997" lon="11.385201152183758"><ele>163.33333333333334</ele><time>2026-04-26T16:07:31.999Z</time></trkpt><trkpt lat="45.69636420910601" lon="11.385328522378146"><ele>163.0</ele><time>2026-04-26T16:07:32.999Z</time></trkpt><trkpt lat="45.69623245415904" lon="11.385468128819994"><ele>163.33333333333334</ele><time>2026-04-26T16:07:33.999Z</time></trkpt><trkpt lat="45.6961102252182" lon="11.385613016347527"><ele>163.66666666666666</ele><time>2026-04-26T16:07:34.999Z</time></trkpt><trkpt lat="45.695990139060754" lon="11.385763117732209"><ele>164.0</ele><time>2026-04-26T16:07:35.999Z</time></trkpt><trkpt lat="45.695883151764356" lon="11.3859048473381"><ele>163.5</ele><time>2026-04-26T16:07:36.999Z</time></trkpt><trkpt lat="45.69577469385059" lon="11.386044161958154"><ele>163.0</ele><time>2026-04-26T16:07:37.999Z</time></trkpt><trkpt lat="45.69566529529576" lon="11.386182200721976"><ele>162.5</ele><time>2026-04-26T16:07:38.999Z</time></trkpt><trkpt lat="45.6955548446226" lon="11.386317515540293"><ele>162.0</ele><time>2026-04-26T16:07:39.999Z</time></trkpt><trkpt lat="45.69544697749085" lon="11.386453358059308"><ele>161.5</ele><time>2026-04-26T16:07:40.999Z</time></trkpt><trkpt lat="45.69533795664209" lon="11.386587493391806"><ele>161.0</ele><time>2026-04-26T16:07:41.999Z</time></trkpt><trkpt lat="45.69522452898659" lon="11.386729215286934"><ele>160.5</ele><time>2026-04-26T16:07:42.999Z</time></trkpt><trkpt lat="45.69511560953032" lon="11.386866800127237"><ele>160.0</ele><time>2026-04-26T16:07:43.999Z</time></trkpt><trkpt lat="45.6950033899902" lon="11.387006400986786"><ele>159.33333333333334</ele><time>2026-04-26T16:07:44.999Z</time></trkpt><trkpt lat="45.69488894570381" lon="11.387151639267596"><ele>158.66666666666666</ele><time>2026-04-26T16:07:45.999Z</time></trkpt><trkpt lat="45.694773969544954" lon="11.38729780690667"><ele>158.0</ele><time>2026-04-26T16:07:46.999Z</time></trkpt><trkpt lat="45.694658229351035" lon="11.387444843943708"><ele>158.0</ele><time>2026-04-26T16:07:47.999Z</time></trkpt><trkpt lat="45.694550285232324" lon="11.387584460615184"><ele>158.0</ele><time>2026-04-26T16:07:48.999Z</time></trkpt><trkpt lat="45.69444578542154" lon="11.38771587306107"><ele>158.0</ele><time>2026-04-26T16:07:49.999Z</time></trkpt><trkpt lat="45.69434480044808" lon="11.387837475226622"><ele>158.0</ele><time>2026-04-26T16:07:50.999Z</time></trkpt><trkpt lat="45.69424391261037" lon="11.38795897606406"><ele>158.0</ele><time>2026-04-26T16:07:51.999Z</time></trkpt><trkpt lat="45.69415012998802" lon="11.388080848953795"><ele>158.0</ele><time>2026-04-26T16:07:52.999Z</time></trkpt><trkpt lat="45.69405577804281" lon="11.388202882158465"><ele>158.0</ele><time>2026-04-26T16:07:53.999Z</time></trkpt><trkpt lat="45.69395850062151" lon="11.388328013135233"><ele>158.0</ele><time>2026-04-26T16:07:54.999Z</time></trkpt><trkpt lat="45.69385524673905" lon="11.388461909536256"><ele>158.0</ele><time>2026-04-26T16:07:55.999Z</time></trkpt><trkpt lat="45.69374989255808" lon="11.388592936268815"><ele>158.0</ele><time>2026-04-26T16:07:56.999Z</time></trkpt><trkpt lat="45.69364160959956" lon="11.388731584855462"><ele>158.0</ele><time>2026-04-26T16:07:57.999Z</time></trkpt><trkpt lat="45.69353190417562" lon="11.388874510661378"><ele>158.0</ele><time>2026-04-26T16:07:58.999Z</time></trkpt><trkpt lat="45.69342870461915" lon="11.389006929815187"><ele>157.75</ele><time>2026-04-26T16:07:59.999Z</time></trkpt><trkpt lat="45.69332466722991" lon="11.389136274168772"><ele>157.5</ele><time>2026-04-26T16:08:00.999Z</time></trkpt><trkpt lat="45.693218979608666" lon="11.389267914004419"><ele>157.25</ele><time>2026-04-26T16:08:01.999Z</time></trkpt><trkpt lat="45.693110653869034" lon="11.389403313425415"><ele>157.0</ele><time>2026-04-26T16:08:02.999Z</time></trkpt><trkpt lat="45.693006185117355" lon="11.389534563995548"><ele>157.0</ele><time>2026-04-26T16:08:03.999Z</time></trkpt><trkpt lat="45.69290496677044" lon="11.3896608949629"><ele>157.0</ele><time>2026-04-26T16:08:04.999Z</time></trkpt><trkpt lat="45.69280480825056" lon="11.389787020007535"><ele>157.0</ele><time>2026-04-26T16:08:05.999Z</time></trkpt><trkpt lat="45.692681227979804" lon="11.389938179602385"><ele>157.0</ele><time>2026-04-26T16:08:06.999Z</time></trkpt><trkpt lat="45.692577954428266" lon="11.390072555755369"><ele>156.5</ele><time>2026-04-26T16:08:07.999Z</time></trkpt><trkpt lat="45.69246788077684" lon="11.390211065868112"><ele>156.0</ele><time>2026-04-26T16:08:08.999Z</time></trkpt><trkpt lat="45.69235845704797" lon="11.39035044432537"><ele>155.5</ele><time>2026-04-26T16:08:09.999Z</time></trkpt><trkpt lat="45.69224730946061" lon="11.39049141490124"><ele>155.0</ele><time>2026-04-26T16:08:10.999Z</time></trkpt><trkpt lat="45.692137900740256" lon="11.390635146717958"><ele>155.0</ele><time>2026-04-26T16:08:11.999Z</time></trkpt><trkpt lat="45.692025507768015" lon="11.390772681728038"><ele>155.0</ele><time>2026-04-26T16:08:12.999Z</time></trkpt><trkpt lat="45.691916862955004" lon="11.390904967147712"><ele>155.0</ele><time>2026-04-26T16:08:13.999Z</time></trkpt><trkpt lat="45.6918136306142" lon="11.391028789497351"><ele>155.0</ele><time>2026-04-26T16:08:14.999Z</time></trkpt><trkpt lat="45.691711043426395" lon="11.39115637200792"><ele>155.0</ele><time>2026-04-26T16:08:15.999Z</time></trkpt><trkpt lat="45.69160621232636" lon="11.39128358946508"><ele>155.0</ele><time>2026-04-26T16:08:16.999Z</time></trkpt><trkpt lat="45.691503001188124" lon="11.391413253040952"><ele>155.0</ele><time>2026-04-26T16:08:17.999Z</time></trkpt><trkpt lat="45.691400393554794" lon="11.391549831954935"><ele>155.0</ele><time>2026-04-26T16:08:18.999Z</time></trkpt><trkpt lat="45.69129531073298" lon="11.391680054005704"><ele>154.75</ele><time>2026-04-26T16:08:19.999Z</time></trkpt><trkpt lat="45.69118511667597" lon="11.39181950620736"><ele>154.5</ele><time>2026-04-26T16:08:20.999Z</time></trkpt><trkpt lat="45.6910810361854" lon="11.391970018252987"><ele>154.25</ele><time>2026-04-26T16:08:21.999Z</time></trkpt><trkpt lat="45.690967238345166" lon="11.392108127786715"><ele>154.0</ele><time>2026-04-26T16:08:22.998Z</time></trkpt><trkpt lat="45.690855258501394" lon="11.392241191131601"><ele>153.75</ele><time>2026-04-26T16:08:23.998Z</time></trkpt><trkpt lat="45.690748476999424" lon="11.392372038560117"><ele>153.5</ele><time>2026-04-26T16:08:24.998Z</time></trkpt><trkpt lat="45.69064261783698" lon="11.392506543819872"><ele>153.25</ele><time>2026-04-26T16:08:25.998Z</time></trkpt><trkpt lat="45.690544477825696" lon="11.392641553525378"><ele>153.0</ele><time>2026-04-26T16:08:26.998Z</time></trkpt><trkpt lat="45.69044260351126" lon="11.392770056479613"><ele>153.0</ele><time>2026-04-26T16:08:27.998Z</time></trkpt><trkpt lat="45.69033942993093" lon="11.392902047068455"><ele>153.0</ele><time>2026-04-26T16:08:28.998Z</time></trkpt><trkpt lat="45.690260046150875" lon="11.393009024837482"><ele>153.0</ele><time>2026-04-26T16:08:29.998Z</time></trkpt><trkpt lat="45.69015606692614" lon="11.39314792226678"><ele>153.0</ele><time>2026-04-26T16:08:30.998Z</time></trkpt><trkpt lat="45.69005740941927" lon="11.393290157367378"><ele>152.75</ele><time>2026-04-26T16:08:31.998Z</time></trkpt><trkpt lat="45.6899542949276" lon="11.393406955685554"><ele>152.5</ele><time>2026-04-26T16:08:32.998Z</time></trkpt><trkpt lat="45.68985798852525" lon="11.393526852088883"><ele>152.25</ele><time>2026-04-26T16:08:33.998Z</time></trkpt><trkpt lat="45.68977143365403" lon="11.393639508948972"><ele>152.0</ele><time>2026-04-26T16:08:34.998Z</time></trkpt><trkpt lat="45.689691542870676" lon="11.393746407519796"><ele>152.0</ele><time>2026-04-26T16:08:35.998Z</time></trkpt><trkpt lat="45.689618034735126" lon="11.393841903630632"><ele>152.0</ele><time>2026-04-26T16:08:36.998Z</time></trkpt><trkpt lat="45.68954882245165" lon="11.39393505415616"><ele>152.0</ele><time>2026-04-26T16:08:37.998Z</time></trkpt><trkpt lat="45.689486040880794" lon="11.394023366460036"><ele>152.0</ele><time>2026-04-26T16:08:38.998Z</time></trkpt><trkpt lat="45.689419808647145" lon="11.3940978519243"><ele>152.0</ele><time>2026-04-26T16:08:39.998Z</time></trkpt><trkpt lat="45.689351811580636" lon="11.394148892784676"><ele>152.0</ele><time>2026-04-26T16:08:40.998Z</time></trkpt><trkpt lat="45.68927386528611" lon="11.394189135064364"><ele>151.79999999999998</ele><time>2026-04-26T16:08:41.998Z</time></trkpt><trkpt lat="45.68919190629399" lon="11.39422657903405"><ele>151.6</ele><time>2026-04-26T16:08:42.998Z</time></trkpt><trkpt lat="45.68912118380705" lon="11.394298176240001"><ele>151.39999999999998</ele><time>2026-04-26T16:08:43.998Z</time></trkpt><trkpt lat="45.68907602751422" lon="11.394415248948954"><ele>151.2</ele><time>2026-04-26T16:08:44.998Z</time></trkpt><trkpt lat="45.68907539063505" lon="11.394561339590032"><ele>151.0</ele><time>2026-04-26T16:08:45.998Z</time></trkpt><trkpt lat="45.6889658486618" lon="11.39468298449504"><ele>150.75</ele><time>2026-04-26T16:08:46.998Z</time></trkpt><trkpt lat="45.68887374837326" lon="11.394800753510085"><ele>150.5</ele><time>2026-04-26T16:08:47.998Z</time></trkpt><trkpt lat="45.688764479206185" lon="11.394925292090289"><ele>150.25</ele><time>2026-04-26T16:08:48.998Z</time></trkpt><trkpt lat="45.68865397319314" lon="11.395059240901857"><ele>150.0</ele><time>2026-04-26T16:08:49.998Z</time></trkpt><trkpt lat="45.68854007105655" lon="11.395206849548252"><ele>150.0</ele><time>2026-04-26T16:08:50.998Z</time></trkpt><trkpt lat="45.688415514341365" lon="11.395374377441911"><ele>150.0</ele><time>2026-04-26T16:08:51.998Z</time></trkpt><trkpt lat="45.68829353737586" lon="11.39552584690685"><ele>150.0</ele><time>2026-04-26T16:08:52.998Z</time></trkpt><trkpt lat="45.68817089477669" lon="11.395674051631019"><ele>149.33333333333334</ele><time>2026-04-26T16:08:53.998Z</time></trkpt><trkpt lat="45.68805085701868" lon="11.395821914600353"><ele>148.66666666666669</ele><time>2026-04-26T16:08:54.998Z</time></trkpt><trkpt lat="45.68792638824758" lon="11.39598103566555"><ele>148.0</ele><time>2026-04-26T16:08:55.998Z</time></trkpt><trkpt lat="45.68780091039124" lon="11.396134876036792"><ele>148.33333333333334</ele><time>2026-04-26T16:08:56.998Z</time></trkpt><trkpt lat="45.687676681516685" lon="11.39628526487806"><ele>148.66666666666666</ele><time>2026-04-26T16:08:57.998Z</time></trkpt><trkpt lat="45.6875564270042" lon="11.396439377026839"><ele>149.0</ele><time>2026-04-26T16:08:59Z</time></trkpt><trkpt lat="45.687437359411085" lon="11.396589902517503"><ele>148.25</ele><time>2026-04-26T16:09:00Z</time></trkpt><trkpt lat="45.68732049671188" lon="11.396734814622159"><ele>147.5</ele><time>2026-04-26T16:09:01Z</time></trkpt><trkpt lat="45.687212423376195" lon="11.396873148258361"><ele>146.75</ele><time>2026-04-26T16:09:02Z</time></trkpt><trkpt lat="45.68710166565161" lon="11.397016474189318"><ele>146.0</ele><time>2026-04-26T16:09:03Z</time></trkpt><trkpt lat="45.68699549575814" lon="11.397151326298305"><ele>146.5</ele><time>2026-04-26T16:09:04Z</time></trkpt><trkpt lat="45.68688733203346" lon="11.397289266707045"><ele>147.0</ele><time>2026-04-26T16:09:05Z</time></trkpt><trkpt lat="45.68678035429038" lon="11.397424445694627"><ele>147.5</ele><time>2026-04-26T16:09:06Z</time></trkpt><trkpt lat="45.68666778677793" lon="11.397565389029696"><ele>148.0</ele><time>2026-04-26T16:09:07Z</time></trkpt><trkpt lat="45.68655073224535" lon="11.39770744881584"><ele>148.0</ele><time>2026-04-26T16:09:08Z</time></trkpt><trkpt lat="45.686431943691865" lon="11.397848792655155"><ele>148.0</ele><time>2026-04-26T16:09:09Z</time></trkpt><trkpt lat="45.6863181872766" lon="11.397987097619831"><ele>148.0</ele><time>2026-04-26T16:09:10Z</time></trkpt><trkpt lat="45.68620273589085" lon="11.398127378306503"><ele>147.0</ele><time>2026-04-26T16:09:11Z</time></trkpt><trkpt lat="45.68608021571543" lon="11.39827385661739"><ele>146.0</ele><time>2026-04-26T16:09:12Z</time></trkpt><trkpt lat="45.685950510552026" lon="11.39840742664133"><ele>145.0</ele><time>2026-04-26T16:09:13Z</time></trkpt><trkpt lat="45.68581926405336" lon="11.398534088482338"><ele>145.0</ele><time>2026-04-26T16:09:14Z</time></trkpt><trkpt lat="45.68568161583356" lon="11.398656194466795"><ele>145.0</ele><time>2026-04-26T16:09:15Z</time></trkpt><trkpt lat="45.68553951106332" lon="11.39877479287909"><ele>145.0</ele><time>2026-04-26T16:09:16Z</time></trkpt><trkpt lat="45.68539133645137" lon="11.398881714833067"><ele>144.66666666666669</ele><time>2026-04-26T16:09:17Z</time></trkpt><trkpt lat="45.685243173837215" lon="11.398983290715192"><ele>144.33333333333334</ele><time>2026-04-26T16:09:18Z</time></trkpt><trkpt lat="45.68508991767222" lon="11.39907753461759"><ele>144.0</ele><time>2026-04-26T16:09:19Z</time></trkpt><trkpt lat="45.68493837867538" lon="11.39917038639821"><ele>144.0</ele><time>2026-04-26T16:09:20Z</time></trkpt><trkpt lat="45.68478202294419" lon="11.399249108988487"><ele>144.0</ele><time>2026-04-26T16:09:21Z</time></trkpt><trkpt lat="45.6846295994453" lon="11.39932691061874"><ele>144.0</ele><time>2026-04-26T16:09:22Z</time></trkpt><trkpt lat="45.68447957036162" lon="11.399398891062585"><ele>143.0</ele><time>2026-04-26T16:09:23Z</time></trkpt><trkpt lat="45.684335097985056" lon="11.399466289354066"><ele>142.0</ele><time>2026-04-26T16:09:24Z</time></trkpt><trkpt lat="45.68418560906534" lon="11.399537321043498"><ele>141.0</ele><time>2026-04-26T16:09:25Z</time></trkpt><trkpt lat="45.684030312766545" lon="11.399616161817107"><ele>141.66666666666666</ele><time>2026-04-26T16:09:26Z</time></trkpt><trkpt lat="45.68388851659335" lon="11.399677894275838"><ele>142.33333333333331</ele><time>2026-04-26T16:09:27Z</time></trkpt><trkpt lat="45.68374486187941" lon="11.399745786963704"><ele>143.0</ele><time>2026-04-26T16:09:28Z</time></trkpt><trkpt lat="45.6835982278146" lon="11.399810470975794"><ele>142.33333333333331</ele><time>2026-04-26T16:09:29Z</time></trkpt><trkpt lat="45.683448211613815" lon="11.399886027141472"><ele>141.66666666666666</ele><time>2026-04-26T16:09:30Z</time></trkpt><trkpt lat="45.68329262225205" lon="11.399960999550457"><ele>141.0</ele><time>2026-04-26T16:09:31Z</time></trkpt><trkpt lat="45.68314183547656" lon="11.400033951236788"><ele>141.0</ele><time>2026-04-26T16:09:32Z</time></trkpt><trkpt lat="45.68298998218157" lon="11.400101514270485"><ele>141.0</ele><time>2026-04-26T16:09:33Z</time></trkpt><trkpt lat="45.682838575648915" lon="11.400174136625038"><ele>141.0</ele><time>2026-04-26T16:09:33.999Z</time></trkpt><trkpt lat="45.68268312133393" lon="11.400248006684645"><ele>140.33333333333334</ele><time>2026-04-26T16:09:34.999Z</time></trkpt><trkpt lat="45.68252729065779" lon="11.400319983532734"><ele>139.66666666666669</ele><time>2026-04-26T16:09:35.999Z</time></trkpt><trkpt lat="45.68237073352178" lon="11.400391600305026"><ele>139.0</ele><time>2026-04-26T16:09:36.999Z</time></trkpt><trkpt lat="45.68220889862988" lon="11.40046828998215"><ele>139.0</ele><time>2026-04-26T16:09:37.999Z</time></trkpt><trkpt lat="45.6820520755744" lon="11.400535109553385"><ele>139.0</ele><time>2026-04-26T16:09:38.999Z</time></trkpt><trkpt lat="45.681892275133755" lon="11.400606931272854"><ele>139.0</ele><time>2026-04-26T16:09:39.999Z</time></trkpt><trkpt lat="45.681738066729594" lon="11.400677367532698"><ele>139.0</ele><time>2026-04-26T16:09:40.999Z</time></trkpt><trkpt lat="45.681589538673606" lon="11.400745332428649"><ele>139.0</ele><time>2026-04-26T16:09:41.999Z</time></trkpt><trkpt lat="45.681447847795965" lon="11.400811108196603"><ele>139.0</ele><time>2026-04-26T16:09:42.999Z</time></trkpt><trkpt lat="45.68130737406287" lon="11.400874444374569"><ele>139.0</ele><time>2026-04-26T16:09:43.999Z</time></trkpt><trkpt lat="45.68116449665186" lon="11.400938222450607"><ele>139.0</ele><time>2026-04-26T16:09:44.999Z</time></trkpt><trkpt lat="45.68101909325113" lon="11.401007843733744"><ele>139.0</ele><time>2026-04-26T16:09:45.999Z</time></trkpt><trkpt lat="45.68087111368781" lon="11.40107850326704"><ele>138.75</ele><time>2026-04-26T16:09:46.999Z</time></trkpt><trkpt lat="45.680737027881214" lon="11.401142696068453"><ele>138.5</ele><time>2026-04-26T16:09:47.999Z</time></trkpt><trkpt lat="45.68060763194459" lon="11.40120344399539"><ele>138.25</ele><time>2026-04-26T16:09:48.999Z</time></trkpt><trkpt lat="45.68048045374115" lon="11.401266740336071"><ele>138.0</ele><time>2026-04-26T16:09:49.999Z</time></trkpt><trkpt lat="45.680350580282976" lon="11.401330919035434"><ele>137.75</ele><time>2026-04-26T16:09:50.999Z</time></trkpt><trkpt lat="45.680217452275215" lon="11.401392236003888"><ele>137.5</ele><time>2026-04-26T16:09:51.999Z</time></trkpt><trkpt lat="45.680091404024196" lon="11.40145236823779"><ele>137.25</ele><time>2026-04-26T16:09:52.999Z</time></trkpt><trkpt lat="45.67996399095671" lon="11.40151091569312"><ele>137.0</ele><time>2026-04-26T16:09:53.999Z</time></trkpt><trkpt lat="45.67983394834012" lon="11.4015689531497"><ele>137.0</ele><time>2026-04-26T16:09:54.999Z</time></trkpt><trkpt lat="45.67969906981492" lon="11.40163144021388"><ele>137.0</ele><time>2026-04-26T16:09:55.999Z</time></trkpt><trkpt lat="45.67957001027559" lon="11.401692790850342"><ele>137.0</ele><time>2026-04-26T16:09:56.999Z</time></trkpt><trkpt lat="45.67944721031044" lon="11.40175283612933"><ele>137.0</ele><time>2026-04-26T16:09:57.999Z</time></trkpt><trkpt lat="45.67932619109688" lon="11.40180626094941"><ele>136.5</ele><time>2026-04-26T16:09:58.999Z</time></trkpt><trkpt lat="45.67920844719423" lon="11.401861204456344"><ele>136.0</ele><time>2026-04-26T16:09:59.999Z</time></trkpt><trkpt lat="45.679095629919225" lon="11.401912373425265"><ele>135.5</ele><time>2026-04-26T16:10:00.999Z</time></trkpt><trkpt lat="45.67898679962024" lon="11.40196319772247"><ele>135.0</ele><time>2026-04-26T16:10:01.999Z</time></trkpt><trkpt lat="45.678886814251115" lon="11.402009164445511"><ele>135.0</ele><time>2026-04-26T16:10:02.999Z</time></trkpt><trkpt lat="45.67878360584126" lon="11.402057347834035"><ele>135.0</ele><time>2026-04-26T16:10:03.999Z</time></trkpt><trkpt lat="45.67867367996761" lon="11.40211048820515"><ele>135.0</ele><time>2026-04-26T16:10:04.999Z</time></trkpt><trkpt lat="45.67855704051822" lon="11.402168573095407"><ele>135.0</ele><time>2026-04-26T16:10:05.999Z</time></trkpt><trkpt lat="45.678430510870776" lon="11.402225437727148"><ele>134.25</ele><time>2026-04-26T16:10:06.999Z</time></trkpt><trkpt lat="45.678306608224084" lon="11.402281304366824"><ele>133.5</ele><time>2026-04-26T16:10:07.999Z</time></trkpt><trkpt lat="45.67818332744715" lon="11.402338639091349"><ele>132.75</ele><time>2026-04-26T16:10:08.999Z</time></trkpt><trkpt lat="45.6780747358357" lon="11.402388919073934"><ele>132.0</ele><time>2026-04-26T16:10:09.999Z</time></trkpt><trkpt lat="45.67796659918238" lon="11.402438843007252"><ele>132.0</ele><time>2026-04-26T16:10:10.999Z</time></trkpt><trkpt lat="45.67786854774127" lon="11.402485739369416"><ele>132.0</ele><time>2026-04-26T16:10:11.999Z</time></trkpt><trkpt lat="45.677787183161534" lon="11.402518858842694"><ele>132.0</ele><time>2026-04-26T16:10:12.999Z</time></trkpt><trkpt lat="45.67772315661543" lon="11.40254250301136"><ele>132.0</ele><time>2026-04-26T16:10:13.999Z</time></trkpt><trkpt lat="45.67762345609091" lon="11.40255577700674"><ele>132.0</ele><time>2026-04-26T16:10:15.999Z</time></trkpt><trkpt lat="45.67754681400326" lon="11.402543867354288"><ele>132.0</ele><time>2026-04-26T16:10:17.999Z</time></trkpt><trkpt lat="45.67742037539725" lon="11.402551532406926"><ele>132.2</ele><time>2026-04-26T16:10:19.999Z</time></trkpt><trkpt lat="45.67733828380486" lon="11.402571386862661"><ele>132.39999999999998</ele><time>2026-04-26T16:10:20.999Z</time></trkpt><trkpt lat="45.67724714973437" lon="11.402621954967962"><ele>132.60000000000002</ele><time>2026-04-26T16:10:21.999Z</time></trkpt><trkpt lat="45.677162694934374" lon="11.40271139918699"><ele>132.8</ele><time>2026-04-26T16:10:22.999Z</time></trkpt><trkpt lat="45.677073455017464" lon="11.402822012373901"><ele>133.0</ele><time>2026-04-26T16:10:23.999Z</time></trkpt><trkpt lat="45.676959953430014" lon="11.402914607674834"><ele>133.0</ele><time>2026-04-26T16:10:24.999Z</time></trkpt><trkpt lat="45.67682505925463" lon="11.40298448360636"><ele>133.0</ele><time>2026-04-26T16:10:25.999Z</time></trkpt><trkpt lat="45.67668609131462" lon="11.403041399642143"><ele>133.0</ele><time>2026-04-26T16:10:26.999Z</time></trkpt><trkpt lat="45.67653666558688" lon="11.403108508060518"><ele>133.0</ele><time>2026-04-26T16:10:27.999Z</time></trkpt><trkpt lat="45.676390733414046" lon="11.403175881144977"><ele>133.0</ele><time>2026-04-26T16:10:28.999Z</time></trkpt><trkpt lat="45.67623161901838" lon="11.403250700510412"><ele>133.0</ele><time>2026-04-26T16:10:29.999Z</time></trkpt><trkpt lat="45.67607590337492" lon="11.403327403310591"><ele>133.0</ele><time>2026-04-26T16:10:30.999Z</time></trkpt><trkpt lat="45.67591871713413" lon="11.403400219859895"><ele>133.0</ele><time>2026-04-26T16:10:31.998Z</time></trkpt><trkpt lat="45.67576008876122" lon="11.403475150932818"><ele>133.0</ele><time>2026-04-26T16:10:32.998Z</time></trkpt><trkpt lat="45.67559685143097" lon="11.403549483563882"><ele>133.0</ele><time>2026-04-26T16:10:33.998Z</time></trkpt><trkpt lat="45.67543408168382" lon="11.40362704075897"><ele>133.0</ele><time>2026-04-26T16:10:34.998Z</time></trkpt><trkpt lat="45.67527205547816" lon="11.40370269179858"><ele>133.0</ele><time>2026-04-26T16:10:35.998Z</time></trkpt><trkpt lat="45.67511079036902" lon="11.403778129425412"><ele>133.0</ele><time>2026-04-26T16:10:36.998Z</time></trkpt><trkpt lat="45.674948518025985" lon="11.403855321539403"><ele>131.66666666666669</ele><time>2026-04-26T16:10:37.998Z</time></trkpt><trkpt lat="45.67478531097442" lon="11.403935105438894"><ele>130.33333333333334</ele><time>2026-04-26T16:10:38.998Z</time></trkpt><trkpt lat="45.67461911692537" lon="11.404012144858699"><ele>129.0</ele><time>2026-04-26T16:10:39.998Z</time></trkpt><trkpt lat="45.67445687073603" lon="11.404084194557079"><ele>129.0</ele><time>2026-04-26T16:10:40.998Z</time></trkpt><trkpt lat="45.67429709340567" lon="11.404160996259742"><ele>129.0</ele><time>2026-04-26T16:10:41.998Z</time></trkpt><trkpt lat="45.67413231721548" lon="11.404238251447996"><ele>129.0</ele><time>2026-04-26T16:10:42.998Z</time></trkpt><trkpt lat="45.673967309058845" lon="11.404320685401913"><ele>129.0</ele><time>2026-04-26T16:10:43.998Z</time></trkpt><trkpt lat="45.673808666543785" lon="11.404400931970429"><ele>129.0</ele><time>2026-04-26T16:10:44.998Z</time></trkpt><trkpt lat="45.673623062885014" lon="11.40449107995935"><ele>129.0</ele><time>2026-04-26T16:10:45.998Z</time></trkpt><trkpt lat="45.673455006348064" lon="11.404569298488594"><ele>128.33333333333334</ele><time>2026-04-26T16:10:46.998Z</time></trkpt><trkpt lat="45.67328535608945" lon="11.404641973847244"><ele>127.66666666666667</ele><time>2026-04-26T16:10:47.998Z</time></trkpt><trkpt lat="45.67311633853201" lon="11.40471149906266"><ele>127.0</ele><time>2026-04-26T16:10:48.998Z</time></trkpt><trkpt lat="45.672951721355304" lon="11.40476713417998"><ele>127.0</ele><time>2026-04-26T16:10:49.998Z</time></trkpt><trkpt lat="45.6727864794483" lon="11.404826043900854"><ele>127.0</ele><time>2026-04-26T16:10:50.998Z</time></trkpt><trkpt lat="45.672624361811" lon="11.404877410739678"><ele>127.0</ele><time>2026-04-26T16:10:51.998Z</time></trkpt><trkpt lat="45.67246228229637" lon="11.404924986072567"><ele>127.0</ele><time>2026-04-26T16:10:52.998Z</time></trkpt><trkpt lat="45.67230173354716" lon="11.404971617838816"><ele>127.0</ele><time>2026-04-26T16:10:53.998Z</time></trkpt><trkpt lat="45.67214552329799" lon="11.40501301959691"><ele>127.0</ele><time>2026-04-26T16:10:54.998Z</time></trkpt><trkpt lat="45.67199969769314" lon="11.40504990793543"><ele>126.66666666666667</ele><time>2026-04-26T16:10:55.998Z</time></trkpt><trkpt lat="45.67185042035261" lon="11.405084480078305"><ele>126.33333333333334</ele><time>2026-04-26T16:10:56.998Z</time></trkpt><trkpt lat="45.67170415766656" lon="11.405126815861722"><ele>126.0</ele><time>2026-04-26T16:10:57.998Z</time></trkpt><trkpt lat="45.67155576988726" lon="11.405166026235356"><ele>126.0</ele><time>2026-04-26T16:10:58.998Z</time></trkpt><trkpt lat="45.671405118967776" lon="11.405208122695212"><ele>126.0</ele><time>2026-04-26T16:10:59.998Z</time></trkpt><trkpt lat="45.67125641512615" lon="11.405253937280772"><ele>126.0</ele><time>2026-04-26T16:11:00.998Z</time></trkpt><trkpt lat="45.671107969930546" lon="11.405302071533105"><ele>126.0</ele><time>2026-04-26T16:11:01.998Z</time></trkpt><trkpt lat="45.67096000353928" lon="11.405342663079889"><ele>126.0</ele><time>2026-04-26T16:11:02.998Z</time></trkpt><trkpt lat="45.67082210265792" lon="11.405377342743227"><ele>126.0</ele><time>2026-04-26T16:11:03.998Z</time></trkpt><trkpt lat="45.670679960628526" lon="11.405419845623442"><ele>126.0</ele><time>2026-04-26T16:11:05Z</time></trkpt><trkpt lat="45.670548746634246" lon="11.405453686767487"><ele>126.0</ele><time>2026-04-26T16:11:06Z</time></trkpt><trkpt lat="45.67042128392379" lon="11.40549733861123"><ele>126.0</ele><time>2026-04-26T16:11:07Z</time></trkpt><trkpt lat="45.67028771179154" lon="11.405538750613667"><ele>126.0</ele><time>2026-04-26T16:11:08Z</time></trkpt><trkpt lat="45.670142938576966" lon="11.405573191909136"><ele>126.0</ele><time>2026-04-26T16:11:09Z</time></trkpt><trkpt lat="45.6699948099317" lon="11.405614163669457"><ele>125.33333333333334</ele><time>2026-04-26T16:11:10Z</time></trkpt><trkpt lat="45.66984074867062" lon="11.405656872198835"><ele>124.66666666666667</ele><time>2026-04-26T16:11:11Z</time></trkpt><trkpt lat="45.66967249516251" lon="11.405696407204108"><ele>124.0</ele><time>2026-04-26T16:11:12Z</time></trkpt><trkpt lat="45.66948040828226" lon="11.405708117533628"><ele>124.0</ele><time>2026-04-26T16:11:13Z</time></trkpt><trkpt lat="45.66937592054985" lon="11.405789467069111"><ele>124.0</ele><time>2026-04-26T16:11:14Z</time></trkpt><trkpt lat="45.66921320427835" lon="11.405820856475138"><ele>124.0</ele><time>2026-04-26T16:11:15Z</time></trkpt><trkpt lat="45.66904435157869" lon="11.405840580531486"><ele>124.0</ele><time>2026-04-26T16:11:16Z</time></trkpt><trkpt lat="45.668935364156646" lon="11.405918426031747"><ele>124.0</ele><time>2026-04-26T16:11:17Z</time></trkpt><trkpt lat="45.66878901112217" lon="11.405964245497412"><ele>124.0</ele><time>2026-04-26T16:11:18Z</time></trkpt><trkpt lat="45.668646454828284" lon="11.406003832479295"><ele>124.0</ele><time>2026-04-26T16:11:19Z</time></trkpt><trkpt lat="45.66849510481619" lon="11.406045572445572"><ele>124.0</ele><time>2026-04-26T16:11:20Z</time></trkpt><trkpt lat="45.66834803349059" lon="11.406083241186627"><ele>124.0</ele><time>2026-04-26T16:11:21Z</time></trkpt><trkpt lat="45.66819653710072" lon="11.406123032180936"><ele>124.0</ele><time>2026-04-26T16:11:22Z</time></trkpt><trkpt lat="45.66804743633585" lon="11.406159249752019"><ele>124.0</ele><time>2026-04-26T16:11:23Z</time></trkpt><trkpt lat="45.667900645403556" lon="11.406202609399037"><ele>124.0</ele><time>2026-04-26T16:11:24Z</time></trkpt><trkpt lat="45.667759686262464" lon="11.406247032939845"><ele>124.0</ele><time>2026-04-26T16:11:25Z</time></trkpt><trkpt lat="45.667614808151654" lon="11.406291625321932"><ele>124.0</ele><time>2026-04-26T16:11:26Z</time></trkpt><trkpt lat="45.667475249628666" lon="11.40633171535798"><ele>123.5</ele><time>2026-04-26T16:11:27Z</time></trkpt><trkpt lat="45.66733753622645" lon="11.406374237670244"><ele>123.0</ele><time>2026-04-26T16:11:28Z</time></trkpt><trkpt lat="45.667204512212805" lon="11.406405323084108"><ele>122.5</ele><time>2026-04-26T16:11:29Z</time></trkpt><trkpt lat="45.66707871647467" lon="11.406434860466012"><ele>122.0</ele><time>2026-04-26T16:11:30Z</time></trkpt><trkpt lat="45.666961483263655" lon="11.406469223812932"><ele>122.19999999999999</ele><time>2026-04-26T16:11:31Z</time></trkpt><trkpt lat="45.6668573561743" lon="11.406502224166179"><ele>122.39999999999999</ele><time>2026-04-26T16:11:32Z</time></trkpt><trkpt lat="45.6667520066676" lon="11.406534345195775"><ele>122.60000000000001</ele><time>2026-04-26T16:11:33Z</time></trkpt><trkpt lat="45.66666067745814" lon="11.406564944537191"><ele>122.80000000000001</ele><time>2026-04-26T16:11:34Z</time></trkpt><trkpt lat="45.66657525591321" lon="11.406591461451425"><ele>123.0</ele><time>2026-04-26T16:11:35Z</time></trkpt><trkpt lat="45.6665043322134" lon="11.40662238026899"><ele>123.0</ele><time>2026-04-26T16:11:36Z</time></trkpt><trkpt lat="45.66638279057533" lon="11.40664874650011"><ele>123.0</ele><time>2026-04-26T16:11:38Z</time></trkpt><trkpt lat="45.66625209772936" lon="11.406562302873967"><ele>123.0</ele><time>2026-04-26T16:11:39.999Z</time></trkpt><trkpt lat="45.66617431549403" lon="11.40650358003027"><ele>123.0</ele><time>2026-04-26T16:11:40.999Z</time></trkpt><trkpt lat="45.66608228331839" lon="11.406457125436473"><ele>122.75</ele><time>2026-04-26T16:11:41.999Z</time></trkpt><trkpt lat="45.66597749595559" lon="11.406414314558068"><ele>122.5</ele><time>2026-04-26T16:11:42.999Z</time></trkpt><trkpt lat="45.665859639257945" lon="11.406366310096383"><ele>122.25</ele><time>2026-04-26T16:11:43.999Z</time></trkpt><trkpt lat="45.6657339609209" lon="11.406311075201234"><ele>122.0</ele><time>2026-04-26T16:11:44.999Z</time></trkpt><trkpt lat="45.66560015969485" lon="11.406249229661912"><ele>122.0</ele><time>2026-04-26T16:11:45.999Z</time></trkpt><trkpt lat="45.665461432124914" lon="11.406185441411441"><ele>122.0</ele><time>2026-04-26T16:11:46.999Z</time></trkpt><trkpt lat="45.66532550280114" lon="11.406123148305621"><ele>122.0</ele><time>2026-04-26T16:11:47.999Z</time></trkpt><trkpt lat="45.66518343281609" lon="11.406061479664382"><ele>122.0</ele><time>2026-04-26T16:11:48.999Z</time></trkpt><trkpt lat="45.665037649840926" lon="11.405999464976821"><ele>121.75</ele><time>2026-04-26T16:11:49.999Z</time></trkpt><trkpt lat="45.66489727446268" lon="11.405935429485435"><ele>121.5</ele><time>2026-04-26T16:11:50.999Z</time></trkpt><trkpt lat="45.66475723236003" lon="11.405870076909293"><ele>121.25</ele><time>2026-04-26T16:11:51.999Z</time></trkpt><trkpt lat="45.664616031372915" lon="11.40580600499014"><ele>121.0</ele><time>2026-04-26T16:11:52.999Z</time></trkpt><trkpt lat="45.66447530385829" lon="11.40574622915623"><ele>121.0</ele><time>2026-04-26T16:11:53.999Z</time></trkpt><trkpt lat="45.66434194857995" lon="11.405686227956966"><ele>121.0</ele><time>2026-04-26T16:11:54.999Z</time></trkpt><trkpt lat="45.66421058627221" lon="11.405627406138354"><ele>121.0</ele><time>2026-04-26T16:11:55.999Z</time></trkpt><trkpt lat="45.6640878295974" lon="11.405558582835319"><ele>121.0</ele><time>2026-04-26T16:11:56.999Z</time></trkpt><trkpt lat="45.663978190710715" lon="11.405447820418283"><ele>121.0</ele><time>2026-04-26T16:11:57.999Z</time></trkpt><trkpt lat="45.66385968075363" lon="11.405371791722205"><ele>121.0</ele><time>2026-04-26T16:11:58.999Z</time></trkpt><trkpt lat="45.66375802552255" lon="11.405274780886598"><ele>121.0</ele><time>2026-04-26T16:11:59.999Z</time></trkpt><trkpt lat="45.663658444626364" lon="11.405186665502178"><ele>121.0</ele><time>2026-04-26T16:12:00.999Z</time></trkpt><trkpt lat="45.663558531301824" lon="11.405102205095059"><ele>120.6</ele><time>2026-04-26T16:12:01.999Z</time></trkpt><trkpt lat="45.66345720166803" lon="11.40501537686976"><ele>120.19999999999999</ele><time>2026-04-26T16:12:02.999Z</time></trkpt><trkpt lat="45.66335990283868" lon="11.404933256987128"><ele>119.80000000000001</ele><time>2026-04-26T16:12:03.999Z</time></trkpt><trkpt lat="45.66327619763591" lon="11.404859745984584"><ele>119.4</ele><time>2026-04-26T16:12:04.999Z</time></trkpt><trkpt lat="45.66319336581025" lon="11.404789849250676"><ele>119.0</ele><time>2026-04-26T16:12:05.999Z</time></trkpt><trkpt lat="45.66310507718575" lon="11.404722716368362"><ele>118.99999999999999</ele><time>2026-04-26T16:12:06.999Z</time></trkpt><trkpt lat="45.6630270104362" lon="11.404654044248574"><ele>119.0</ele><time>2026-04-26T16:12:07.999Z</time></trkpt><trkpt lat="45.66296025126309" lon="11.404599796197118"><ele>119.0</ele><time>2026-04-26T16:12:08.999Z</time></trkpt><trkpt lat="45.66289679243224" lon="11.40454633134453"><ele>119.0</ele><time>2026-04-26T16:12:09.999Z</time></trkpt><trkpt lat="45.66283987200949" lon="11.404493426053527"><ele>118.99999999999999</ele><time>2026-04-26T16:12:10.999Z</time></trkpt><trkpt lat="45.66274946514665" lon="11.404410469406196"><ele>119.0</ele><time>2026-04-26T16:12:12.999Z</time></trkpt><trkpt lat="45.66268631614995" lon="11.40435588591032"><ele>118.99999999999999</ele><time>2026-04-26T16:12:14.999Z</time></trkpt><trkpt lat="45.66262560951923" lon="11.404290327317934"><ele>119.0</ele><time>2026-04-26T16:12:17.999Z</time></trkpt><trkpt lat="45.66255694207884" lon="11.404211134317405"><ele>119.0</ele><time>2026-04-26T16:12:31.999Z</time></trkpt><trkpt lat="45.66248610991523" lon="11.404155171650045"><ele>119.0</ele><time>2026-04-26T16:12:34.999Z</time></trkpt><trkpt lat="45.66242313264153" lon="11.404086900862675"><ele>118.99999999999999</ele><time>2026-04-26T16:12:36.999Z</time></trkpt><trkpt lat="45.66237803330134" lon="11.404021415537077"><ele>119.0</ele><time>2026-04-26T16:12:37.999Z</time></trkpt><trkpt lat="45.66232887275713" lon="11.40394032278017"><ele>118.99999999999999</ele><time>2026-04-26T16:12:38.999Z</time></trkpt><trkpt lat="45.662270040022584" lon="11.403851840255301"><ele>119.0</ele><time>2026-04-26T16:12:39.998Z</time></trkpt><trkpt lat="45.66220437373036" lon="11.403767141457159"><ele>119.0</ele><time>2026-04-26T16:12:40.998Z</time></trkpt><trkpt lat="45.6621400018272" lon="11.403677955330393"><ele>119.0</ele><time>2026-04-26T16:12:41.998Z</time></trkpt><trkpt lat="45.66207914140078" lon="11.40360439593884"><ele>118.99999999999999</ele><time>2026-04-26T16:12:42.998Z</time></trkpt><trkpt lat="45.662011150864316" lon="11.403524707239187"><ele>119.0</ele><time>2026-04-26T16:12:43.998Z</time></trkpt><trkpt lat="45.66194193338002" lon="11.403442266416299"><ele>119.33333333333333</ele><time>2026-04-26T16:12:44.998Z</time></trkpt><trkpt lat="45.661874262075855" lon="11.403358866780101"><ele>119.66666666666666</ele><time>2026-04-26T16:12:45.998Z</time></trkpt><trkpt lat="45.661802002019286" lon="11.403277912821364"><ele>120.0</ele><time>2026-04-26T16:12:46.998Z</time></trkpt><trkpt lat="45.66173284171451" lon="11.403210338475295"><ele>120.33333333333334</ele><time>2026-04-26T16:12:47.998Z</time></trkpt><trkpt lat="45.661669768407656" lon="11.403144915244521"><ele>120.66666666666667</ele><time>2026-04-26T16:12:48.998Z</time></trkpt><trkpt lat="45.661611103014806" lon="11.403078867290642"><ele>121.0</ele><time>2026-04-26T16:12:49.998Z</time></trkpt><trkpt lat="45.66155936668271" lon="11.403017075700138"><ele>121.16666666666667</ele><time>2026-04-26T16:12:50.998Z</time></trkpt><trkpt lat="45.661472402950025" lon="11.402908151158611"><ele>121.33333333333334</ele><time>2026-04-26T16:12:52.998Z</time></trkpt><trkpt lat="45.66138622637202" lon="11.40280590551673"><ele>121.5</ele><time>2026-04-26T16:12:54.998Z</time></trkpt><trkpt lat="45.66134760304169" lon="11.402716884294437"><ele>121.66666666666666</ele><time>2026-04-26T16:12:55.998Z</time></trkpt><trkpt lat="45.661296937848256" lon="11.402647930437082"><ele>121.83333333333333</ele><time>2026-04-26T16:12:56.998Z</time></trkpt><trkpt lat="45.66127938578443" lon="11.402554441747071"><ele>122.0</ele><time>2026-04-26T16:12:57.998Z</time></trkpt><trkpt lat="45.66128104896419" lon="11.40246221017324"><ele>121.99999999999999</ele><time>2026-04-26T16:12:58.998Z</time></trkpt><trkpt lat="45.661249698480106" lon="11.402290588957662"><ele>122.0</ele><time>2026-04-26T16:13:00.998Z</time></trkpt><trkpt lat="45.661198683170994" lon="11.402229081576738"><ele>122.0</ele><time>2026-04-26T16:13:01.998Z</time></trkpt><trkpt lat="45.66112737600638" lon="11.402191344978087"><ele>122.0</ele><time>2026-04-26T16:13:02.998Z</time></trkpt><trkpt lat="45.661045026979046" lon="11.4021764076228"><ele>121.99999999999999</ele><time>2026-04-26T16:13:03.998Z</time></trkpt><trkpt lat="45.66095852886196" lon="11.402161919840642"><ele>122.0</ele><time>2026-04-26T16:13:04.998Z</time></trkpt><trkpt lat="45.66086767543659" lon="11.402123057115501"><ele>122.0</ele><time>2026-04-26T16:13:05.998Z</time></trkpt><trkpt lat="45.66077253045131" lon="11.40204931417772"><ele>122.0</ele><time>2026-04-26T16:13:06.998Z</time></trkpt><trkpt lat="45.66067977564158" lon="11.401947440236448"><ele>122.0</ele><time>2026-04-26T16:13:07.998Z</time></trkpt><trkpt lat="45.6605843076806" lon="11.401828037529485"><ele>122.0</ele><time>2026-04-26T16:13:08.998Z</time></trkpt><trkpt lat="45.66048893487229" lon="11.401705955528806"><ele>122.0</ele><time>2026-04-26T16:13:09.998Z</time></trkpt><trkpt lat="45.660393744458524" lon="11.401587856890222"><ele>122.0</ele><time>2026-04-26T16:13:11Z</time></trkpt><trkpt lat="45.66029903754325" lon="11.401476042263768"><ele>122.0</ele><time>2026-04-26T16:13:12Z</time></trkpt><trkpt lat="45.66020269842408" lon="11.401364513417542"><ele>122.0</ele><time>2026-04-26T16:13:13Z</time></trkpt><trkpt lat="45.66010961622695" lon="11.401252765546582"><ele>122.0</ele><time>2026-04-26T16:13:14Z</time></trkpt><trkpt lat="45.66001865536278" lon="11.401143930919023"><ele>122.0</ele><time>2026-04-26T16:13:15Z</time></trkpt><trkpt lat="45.6599270644301" lon="11.40103690874791"><ele>122.0</ele><time>2026-04-26T16:13:16Z</time></trkpt><trkpt lat="45.65983661536573" lon="11.400929302611678"><ele>122.0</ele><time>2026-04-26T16:13:17Z</time></trkpt><trkpt lat="45.659744494029056" lon="11.400818416970727"><ele>122.0</ele><time>2026-04-26T16:13:18Z</time></trkpt><trkpt lat="45.65965223835949" lon="11.40070841626946"><ele>122.0</ele><time>2026-04-26T16:13:19Z</time></trkpt><trkpt lat="45.65955914131022" lon="11.400599236980092"><ele>122.0</ele><time>2026-04-26T16:13:20Z</time></trkpt><trkpt lat="45.65946646994044" lon="11.400484677569485"><ele>122.0</ele><time>2026-04-26T16:13:21Z</time></trkpt><trkpt lat="45.65937071743795" lon="11.400368910044211"><ele>121.5</ele><time>2026-04-26T16:13:22Z</time></trkpt><trkpt lat="45.65927456638812" lon="11.400253357873574"><ele>121.0</ele><time>2026-04-26T16:13:23Z</time></trkpt><trkpt lat="45.65917924437424" lon="11.400135858500702"><ele>120.5</ele><time>2026-04-26T16:13:24Z</time></trkpt><trkpt lat="45.659088501870386" lon="11.4000283100634"><ele>120.0</ele><time>2026-04-26T16:13:25Z</time></trkpt><trkpt lat="45.659001849550194" lon="11.399926777652974"><ele>120.0</ele><time>2026-04-26T16:13:26Z</time></trkpt><trkpt lat="45.65891822112822" lon="11.399826271567694"><ele>120.0</ele><time>2026-04-26T16:13:27Z</time></trkpt><trkpt lat="45.65883620768437" lon="11.399725569920077"><ele>120.0</ele><time>2026-04-26T16:13:28Z</time></trkpt><trkpt lat="45.658755674315366" lon="11.39962455540157"><ele>120.0</ele><time>2026-04-26T16:13:29Z</time></trkpt><trkpt lat="45.658672330926514" lon="11.399530000505642"><ele>120.0</ele><time>2026-04-26T16:13:30Z</time></trkpt><trkpt lat="45.6585911132992" lon="11.399441141545713"><ele>119.83333333333333</ele><time>2026-04-26T16:13:31Z</time></trkpt><trkpt lat="45.65851640849781" lon="11.399358896298411"><ele>119.66666666666666</ele><time>2026-04-26T16:13:32Z</time></trkpt><trkpt lat="45.658447618384635" lon="11.399277905021256"><ele>119.5</ele><time>2026-04-26T16:13:33Z</time></trkpt><trkpt lat="45.658392676317106" lon="11.399192066948187"><ele>119.33333333333333</ele><time>2026-04-26T16:13:34Z</time></trkpt><trkpt lat="45.65835546911161" lon="11.399094248987813"><ele>119.16666666666666</ele><time>2026-04-26T16:13:35Z</time></trkpt><trkpt lat="45.65834554380706" lon="11.398983849770245"><ele>119.0</ele><time>2026-04-26T16:13:36Z</time></trkpt><trkpt lat="45.65832938298216" lon="11.398873357348661"><ele>119.33333333333333</ele><time>2026-04-26T16:13:37Z</time></trkpt><trkpt lat="45.65831946884653" lon="11.398772792620193"><ele>119.66666666666666</ele><time>2026-04-26T16:13:38Z</time></trkpt><trkpt lat="45.65826921551247" lon="11.398680717712839"><ele>120.0</ele><time>2026-04-26T16:13:39Z</time></trkpt><trkpt lat="45.65818781688546" lon="11.398615312411485"><ele>120.33333333333334</ele><time>2026-04-26T16:13:40Z</time></trkpt><trkpt lat="45.658105247658895" lon="11.398605933214977"><ele>120.66666666666667</ele><time>2026-04-26T16:13:41Z</time></trkpt><trkpt lat="45.658019884135804" lon="11.398618878424445"><ele>121.0</ele><time>2026-04-26T16:13:42Z</time></trkpt><trkpt lat="45.65794447943474" lon="11.39869021979942"><ele>121.0</ele><time>2026-04-26T16:13:43Z</time></trkpt><trkpt lat="45.657881881146544" lon="11.398767504949918"><ele>121.0</ele><time>2026-04-26T16:13:44Z</time></trkpt><trkpt lat="45.657756974650816" lon="11.398693154984818"><ele>121.0</ele><time>2026-04-26T16:13:45Z</time></trkpt><trkpt lat="45.65766461291253" lon="11.398671655567115"><ele>121.0</ele><time>2026-04-26T16:13:46Z</time></trkpt><trkpt lat="45.6575664362722" lon="11.398634273800136"><ele>121.0</ele><time>2026-04-26T16:13:47Z</time></trkpt><trkpt lat="45.65746090880677" lon="11.398598669603754"><ele>119.75</ele><time>2026-04-26T16:13:48Z</time></trkpt><trkpt lat="45.657341376472004" lon="11.398575746489302"><ele>118.5</ele><time>2026-04-26T16:13:49Z</time></trkpt><trkpt lat="45.65720897514545" lon="11.398549772222026"><ele>117.25</ele><time>2026-04-26T16:13:50Z</time></trkpt><trkpt lat="45.657068065325696" lon="11.398521391703518"><ele>116.0</ele><time>2026-04-26T16:13:50.999Z</time></trkpt><trkpt lat="45.656920911749346" lon="11.398496581062137"><ele>115.66666666666666</ele><time>2026-04-26T16:13:51.999Z</time></trkpt><trkpt lat="45.65676679524812" lon="11.398464253309477"><ele>115.33333333333334</ele><time>2026-04-26T16:13:52.999Z</time></trkpt><trkpt lat="45.65661316965202" lon="11.398433432298539"><ele>115.0</ele><time>2026-04-26T16:13:53.999Z</time></trkpt><trkpt lat="45.65644595637183" lon="11.398406368134685"><ele>115.0</ele><time>2026-04-26T16:13:54.999Z</time></trkpt><trkpt lat="45.656285715269235" lon="11.398376811754925"><ele>115.0</ele><time>2026-04-26T16:13:55.999Z</time></trkpt><trkpt lat="45.656130993112235" lon="11.39833806955435"><ele>115.0</ele><time>2026-04-26T16:13:56.999Z</time></trkpt><trkpt lat="45.65599806151076" lon="11.39829512180231"><ele>115.0</ele><time>2026-04-26T16:13:57.999Z</time></trkpt><trkpt lat="45.65588385271164" lon="11.398236429827584"><ele>115.0</ele><time>2026-04-26T16:13:58.999Z</time></trkpt><trkpt lat="45.655778106189615" lon="11.398171368472747"><ele>115.0</ele><time>2026-04-26T16:13:59.999Z</time></trkpt><trkpt lat="45.65559207894269" lon="11.39795262647201"><ele>115.0</ele><time>2026-04-26T16:14:00.999Z</time></trkpt><trkpt lat="45.655481207524836" lon="11.397807647779793"><ele>115.0</ele><time>2026-04-26T16:14:01.999Z</time></trkpt><trkpt lat="45.655394589851014" lon="11.397643217608225"><ele>115.0</ele><time>2026-04-26T16:14:02.999Z</time></trkpt><trkpt lat="45.65532546079117" lon="11.397476313380636"><ele>115.0</ele><time>2026-04-26T16:14:03.999Z</time></trkpt><trkpt lat="45.65526079568903" lon="11.397305133532743"><ele>114.75</ele><time>2026-04-26T16:14:04.999Z</time></trkpt><trkpt lat="45.6551973846082" lon="11.397145823865024"><ele>114.5</ele><time>2026-04-26T16:14:05.999Z</time></trkpt><trkpt lat="45.65513404058305" lon="11.396986840849225"><ele>114.25</ele><time>2026-04-26T16:14:06.999Z</time></trkpt><trkpt lat="45.65506545894379" lon="11.396835039779548"><ele>114.0</ele><time>2026-04-26T16:14:07.999Z</time></trkpt><trkpt lat="45.655009707246094" lon="11.396682512328164"><ele>114.0</ele><time>2026-04-26T16:14:08.999Z</time></trkpt><trkpt lat="45.65494986401667" lon="11.396530314900504"><ele>114.0</ele><time>2026-04-26T16:14:09.999Z</time></trkpt><trkpt lat="45.65489273261439" lon="11.396379597017441"><ele>114.0</ele><time>2026-04-26T16:14:10.999Z</time></trkpt><trkpt lat="45.65483923896981" lon="11.396236313095143"><ele>114.0</ele><time>2026-04-26T16:14:11.999Z</time></trkpt><trkpt lat="45.654783021010964" lon="11.396094851057002"><ele>114.25</ele><time>2026-04-26T16:14:12.999Z</time></trkpt><trkpt lat="45.6547228085685" lon="11.395950176468888"><ele>114.5</ele><time>2026-04-26T16:14:13.999Z</time></trkpt><trkpt lat="45.65466603923156" lon="11.395808847462728"><ele>114.75</ele><time>2026-04-26T16:14:14.999Z</time></trkpt><trkpt lat="45.654607521958766" lon="11.395669283947866"><ele>115.0</ele><time>2026-04-26T16:14:15.999Z</time></trkpt><trkpt lat="45.6545483430582" lon="11.395533964647676"><ele>115.5</ele><time>2026-04-26T16:14:16.999Z</time></trkpt><trkpt lat="45.65448463613485" lon="11.395392042502975"><ele>116.0</ele><time>2026-04-26T16:14:17.999Z</time></trkpt><trkpt lat="45.65442692821272" lon="11.39524626812418"><ele>116.5</ele><time>2026-04-26T16:14:18.999Z</time></trkpt><trkpt lat="45.65437220900066" lon="11.395095463042125"><ele>117.0</ele><time>2026-04-26T16:14:19.999Z</time></trkpt><trkpt lat="45.65432270749922" lon="11.394957540313507"><ele>117.0</ele><time>2026-04-26T16:14:20.999Z</time></trkpt><trkpt lat="45.65427281241397" lon="11.39482400329497"><ele>116.99999999999999</ele><time>2026-04-26T16:14:21.999Z</time></trkpt><trkpt lat="45.654226193147416" lon="11.394701419018682"><ele>116.99999999999999</ele><time>2026-04-26T16:14:22.999Z</time></trkpt><trkpt lat="45.65418075264331" lon="11.394586546420015"><ele>117.0</ele><time>2026-04-26T16:14:23.999Z</time></trkpt><trkpt lat="45.654141165398876" lon="11.394482611481436"><ele>117.0</ele><time>2026-04-26T16:14:24.999Z</time></trkpt><trkpt lat="45.65410704787061" lon="11.394388274897816"><ele>117.16666666666667</ele><time>2026-04-26T16:14:25.999Z</time></trkpt><trkpt lat="45.65407588135698" lon="11.394307243661162"><ele>117.33333333333334</ele><time>2026-04-26T16:14:26.999Z</time></trkpt><trkpt lat="45.65403765223762" lon="11.394213097359406"><ele>117.5</ele><time>2026-04-26T16:14:28.999Z</time></trkpt><trkpt lat="45.6540027337619" lon="11.39412800860844"><ele>117.66666666666667</ele><time>2026-04-26T16:14:30.999Z</time></trkpt><trkpt lat="45.65395584924267" lon="11.394010104299847"><ele>117.83333333333334</ele><time>2026-04-26T16:14:32.999Z</time></trkpt><trkpt lat="45.65390433329169" lon="11.393855558768117"><ele>118.0</ele><time>2026-04-26T16:14:34.999Z</time></trkpt><trkpt lat="45.65388795106848" lon="11.393760260795103"><ele>118.00000000000001</ele><time>2026-04-26T16:14:35.999Z</time></trkpt><trkpt lat="45.65387128712911" lon="11.393658024688566"><ele>118.0</ele><time>2026-04-26T16:14:36.999Z</time></trkpt><trkpt lat="45.65383826171906" lon="11.393567411737374"><ele>118.0</ele><time>2026-04-26T16:14:37.999Z</time></trkpt><trkpt lat="45.65379581996876" lon="11.393482692800806"><ele>118.0</ele><time>2026-04-26T16:14:38.999Z</time></trkpt><trkpt lat="45.65373580339001" lon="11.393404506030928"><ele>118.00000000000001</ele><time>2026-04-26T16:14:39.999Z</time></trkpt><trkpt lat="45.65368172354452" lon="11.393308233455157"><ele>118.0</ele><time>2026-04-26T16:14:40.999Z</time></trkpt><trkpt lat="45.65363111982153" lon="11.393196718523823"><ele>117.75</ele><time>2026-04-26T16:14:41.999Z</time></trkpt><trkpt lat="45.65358476978698" lon="11.393068393510344"><ele>117.5</ele><time>2026-04-26T16:14:42.999Z</time></trkpt><trkpt lat="45.65353450248741" lon="11.392929880873767"><ele>117.25</ele><time>2026-04-26T16:14:43.999Z</time></trkpt><trkpt lat="45.65347689156533" lon="11.392780259852717"><ele>117.0</ele><time>2026-04-26T16:14:44.999Z</time></trkpt><trkpt lat="45.65341587103903" lon="11.392624640294288"><ele>117.5</ele><time>2026-04-26T16:14:45.999Z</time></trkpt><trkpt lat="45.65334824667224" lon="11.392457562746026"><ele>118.0</ele><time>2026-04-26T16:14:46.999Z</time></trkpt><trkpt lat="45.65327810150861" lon="11.392285594831423"><ele>118.5</ele><time>2026-04-26T16:14:47.999Z</time></trkpt><trkpt lat="45.65320865143274" lon="11.392112929028855"><ele>119.0</ele><time>2026-04-26T16:14:48.999Z</time></trkpt><trkpt lat="45.65313778165416" lon="11.39193361597402"><ele>119.25</ele><time>2026-04-26T16:14:49.999Z</time></trkpt><trkpt lat="45.65306761708367" lon="11.391751566919368"><ele>119.5</ele><time>2026-04-26T16:14:50.999Z</time></trkpt><trkpt lat="45.65299628965565" lon="11.391574068573695"><ele>119.75</ele><time>2026-04-26T16:14:51.998Z</time></trkpt><trkpt lat="45.65292795617115" lon="11.391404168858724"><ele>120.0</ele><time>2026-04-26T16:14:52.998Z</time></trkpt><trkpt lat="45.65286178322751" lon="11.391237109360006"><ele>120.0</ele><time>2026-04-26T16:14:53.998Z</time></trkpt><trkpt lat="45.65279915526142" lon="11.391071275139655"><ele>120.0</ele><time>2026-04-26T16:14:54.998Z</time></trkpt><trkpt lat="45.65273480320482" lon="11.390909152218372"><ele>120.0</ele><time>2026-04-26T16:14:55.998Z</time></trkpt><trkpt lat="45.65267046434522" lon="11.390748604881173"><ele>120.0</ele><time>2026-04-26T16:14:56.998Z</time></trkpt><trkpt lat="45.65260326089342" lon="11.390583216633683"><ele>120.25</ele><time>2026-04-26T16:14:57.998Z</time></trkpt><trkpt lat="45.65253780212607" lon="11.390414049177952"><ele>120.5</ele><time>2026-04-26T16:14:58.998Z</time></trkpt><trkpt lat="45.65247139566253" lon="11.390243190260993"><ele>120.75</ele><time>2026-04-26T16:14:59.998Z</time></trkpt><trkpt lat="45.65240035282203" lon="11.390066581509906"><ele>121.0</ele><time>2026-04-26T16:15:00.998Z</time></trkpt><trkpt lat="45.652332869833565" lon="11.389896329950856"><ele>121.0</ele><time>2026-04-26T16:15:01.998Z</time></trkpt><trkpt lat="45.652267952013496" lon="11.38972740184979"><ele>121.0</ele><time>2026-04-26T16:15:02.998Z</time></trkpt><trkpt lat="45.65220291744779" lon="11.389559250671203"><ele>121.0</ele><time>2026-04-26T16:15:03.998Z</time></trkpt><trkpt lat="45.65213919608302" lon="11.38939525450325"><ele>121.0</ele><time>2026-04-26T16:15:04.998Z</time></trkpt><trkpt lat="45.652073083060465" lon="11.389229128387527"><ele>121.25</ele><time>2026-04-26T16:15:05.998Z</time></trkpt><trkpt lat="45.65200700572431" lon="11.389062901203962"><ele>121.5</ele><time>2026-04-26T16:15:06.998Z</time></trkpt><trkpt lat="45.651941049907386" lon="11.388899080095443"><ele>121.75</ele><time>2026-04-26T16:15:07.998Z</time></trkpt><trkpt lat="45.65187168333222" lon="11.388733643748667"><ele>122.0</ele><time>2026-04-26T16:15:08.998Z</time></trkpt><trkpt lat="45.651810441009445" lon="11.388575751400948"><ele>122.0</ele><time>2026-04-26T16:15:09.998Z</time></trkpt><trkpt lat="45.65174903207879" lon="11.38841979033083"><ele>122.0</ele><time>2026-04-26T16:15:10.998Z</time></trkpt><trkpt lat="45.651690617421245" lon="11.388263601255819"><ele>122.0</ele><time>2026-04-26T16:15:11.998Z</time></trkpt><trkpt lat="45.6516317856105" lon="11.388103251071577"><ele>122.0</ele><time>2026-04-26T16:15:12.998Z</time></trkpt><trkpt lat="45.651571034095895" lon="11.387946473373649"><ele>122.0</ele><time>2026-04-26T16:15:13.998Z</time></trkpt><trkpt lat="45.65150630550087" lon="11.38778261099766"><ele>122.0</ele><time>2026-04-26T16:15:14.998Z</time></trkpt><trkpt lat="45.65144299459411" lon="11.387626282831699"><ele>122.0</ele><time>2026-04-26T16:15:15.998Z</time></trkpt><trkpt lat="45.65137179855004" lon="11.387461639085245"><ele>122.0</ele><time>2026-04-26T16:15:17Z</time></trkpt><trkpt lat="45.6512999157684" lon="11.387301613937137"><ele>122.0</ele><time>2026-04-26T16:15:18Z</time></trkpt><trkpt lat="45.651223218043945" lon="11.38715543720568"><ele>122.0</ele><time>2026-04-26T16:15:19Z</time></trkpt><trkpt lat="45.65113470464172" lon="11.387028984381022"><ele>122.0</ele><time>2026-04-26T16:15:20Z</time></trkpt><trkpt lat="45.651040028366076" lon="11.386909154150748"><ele>122.0</ele><time>2026-04-26T16:15:21Z</time></trkpt><trkpt lat="45.65094209866375" lon="11.3867997415866"><ele>122.5</ele><time>2026-04-26T16:15:22Z</time></trkpt><trkpt lat="45.65083857071427" lon="11.38670058085671"><ele>123.0</ele><time>2026-04-26T16:15:23Z</time></trkpt><trkpt lat="45.65073047459906" lon="11.386615164200347"><ele>123.5</ele><time>2026-04-26T16:15:24Z</time></trkpt><trkpt lat="45.650616984606884" lon="11.386546195158996"><ele>124.0</ele><time>2026-04-26T16:15:25Z</time></trkpt><trkpt lat="45.65049726995133" lon="11.386483654748185"><ele>124.0</ele><time>2026-04-26T16:15:26Z</time></trkpt><trkpt lat="45.65037339728051" lon="11.386437111834441"><ele>124.0</ele><time>2026-04-26T16:15:27Z</time></trkpt><trkpt lat="45.65025063349427" lon="11.386392376253802"><ele>124.0</ele><time>2026-04-26T16:15:28Z</time></trkpt><trkpt lat="45.650130667727716" lon="11.386348503038878"><ele>124.0</ele><time>2026-04-26T16:15:29Z</time></trkpt><trkpt lat="45.65001034664519" lon="11.386309141757017"><ele>124.5</ele><time>2026-04-26T16:15:30Z</time></trkpt><trkpt lat="45.649894702499395" lon="11.386271837316588"><ele>125.0</ele><time>2026-04-26T16:15:31Z</time></trkpt><trkpt lat="45.649782082027954" lon="11.386235887415754"><ele>125.5</ele><time>2026-04-26T16:15:32Z</time></trkpt><trkpt lat="45.649668942786015" lon="11.386202230250866"><ele>126.0</ele><time>2026-04-26T16:15:33Z</time></trkpt><trkpt lat="45.649570285906016" lon="11.386162979283956"><ele>126.0</ele><time>2026-04-26T16:15:34Z</time></trkpt><trkpt lat="45.64946603896246" lon="11.386130795597595"><ele>126.0</ele><time>2026-04-26T16:15:35Z</time></trkpt><trkpt lat="45.64935894504971" lon="11.38609480733841"><ele>126.0</ele><time>2026-04-26T16:15:36Z</time></trkpt><trkpt lat="45.649249664585675" lon="11.386061762101587"><ele>126.0</ele><time>2026-04-26T16:15:37Z</time></trkpt><trkpt lat="45.6491366375434" lon="11.38602624724819"><ele>126.0</ele><time>2026-04-26T16:15:38Z</time></trkpt><trkpt lat="45.6490215474329" lon="11.385990348764908"><ele>126.25</ele><time>2026-04-26T16:15:39Z</time></trkpt><trkpt lat="45.64890137345255" lon="11.385951942134854"><ele>126.5</ele><time>2026-04-26T16:15:40Z</time></trkpt><trkpt lat="45.64878240591308" lon="11.38591105122313"><ele>126.75</ele><time>2026-04-26T16:15:41Z</time></trkpt><trkpt lat="45.64865926578326" lon="11.38586957768078"><ele>127.0</ele><time>2026-04-26T16:15:42Z</time></trkpt><trkpt lat="45.648539673993334" lon="11.385830702455424"><ele>127.0</ele><time>2026-04-26T16:15:43Z</time></trkpt><trkpt lat="45.64842201416363" lon="11.385795828404994"><ele>127.0</ele><time>2026-04-26T16:15:44Z</time></trkpt><trkpt lat="45.648303906827756" lon="11.38575564943408"><ele>127.0</ele><time>2026-04-26T16:15:45Z</time></trkpt><trkpt lat="45.6481840616723" lon="11.385715143661217"><ele>127.0</ele><time>2026-04-26T16:15:46Z</time></trkpt><trkpt lat="45.64805660741416" lon="11.38566914701803"><ele>127.0</ele><time>2026-04-26T16:15:47Z</time></trkpt><trkpt lat="45.647926349634254" lon="11.385628978542304"><ele>127.0</ele><time>2026-04-26T16:15:48Z</time></trkpt><trkpt lat="45.6477892879884" lon="11.385584481903107"><ele>127.0</ele><time>2026-04-26T16:15:49Z</time></trkpt><trkpt lat="45.647662607972606" lon="11.385540072251654"><ele>127.0</ele><time>2026-04-26T16:15:50Z</time></trkpt><trkpt lat="45.64753514008855" lon="11.38549559529627"><ele>128.0</ele><time>2026-04-26T16:15:51Z</time></trkpt><trkpt lat="45.647403351996516" lon="11.385453518938835"><ele>129.0</ele><time>2026-04-26T16:15:52Z</time></trkpt><trkpt lat="45.647272511257576" lon="11.385409280916098"><ele>130.0</ele><time>2026-04-26T16:15:53Z</time></trkpt><trkpt lat="45.647139642617674" lon="11.38536186766595"><ele>131.0</ele><time>2026-04-26T16:15:54Z</time></trkpt><trkpt lat="45.64700398555372" lon="11.38531674540726"><ele>131.5</ele><time>2026-04-26T16:15:55Z</time></trkpt><trkpt lat="45.64687162692948" lon="11.385275592556129"><ele>132.0</ele><time>2026-04-26T16:15:56Z</time></trkpt><trkpt lat="45.64674126178602" lon="11.38523061495743"><ele>132.5</ele><time>2026-04-26T16:15:57Z</time></trkpt><trkpt lat="45.64661155828394" lon="11.385187751760272"><ele>133.0</ele><time>2026-04-26T16:15:58Z</time></trkpt><trkpt lat="45.64647745673087" lon="11.385141177981557"><ele>133.0</ele><time>2026-04-26T16:15:58.999Z</time></trkpt><trkpt lat="45.64634743502027" lon="11.385095692820984"><ele>133.0</ele><time>2026-04-26T16:15:59.999Z</time></trkpt><trkpt lat="45.64620009558793" lon="11.385049294323967"><ele>133.0</ele><time>2026-04-26T16:16:00.999Z</time></trkpt><trkpt lat="45.646044080020665" lon="11.385006162146734"><ele>133.0</ele><time>2026-04-26T16:16:01.999Z</time></trkpt><trkpt lat="45.64587586556384" lon="11.38494234293882"><ele>133.0</ele><time>2026-04-26T16:16:02.999Z</time></trkpt><trkpt lat="45.645699642618126" lon="11.384880839824353"><ele>133.0</ele><time>2026-04-26T16:16:03.999Z</time></trkpt><trkpt lat="45.645513515209956" lon="11.384820596502053"><ele>133.0</ele><time>2026-04-26T16:16:04.999Z</time></trkpt><trkpt lat="45.64533551224271" lon="11.38474604776634"><ele>132.33333333333334</ele><time>2026-04-26T16:16:05.999Z</time></trkpt><trkpt lat="45.6451733034193" lon="11.384685925809595"><ele>131.66666666666666</ele><time>2026-04-26T16:16:06.999Z</time></trkpt><trkpt lat="45.64502487608751" lon="11.384632608741953"><ele>131.0</ele><time>2026-04-26T16:16:07.999Z</time></trkpt><trkpt lat="45.644885612833086" lon="11.384585449095983"><ele>132.25</ele><time>2026-04-26T16:16:08.999Z</time></trkpt><trkpt lat="45.64475770019191" lon="11.384539245648826"><ele>133.5</ele><time>2026-04-26T16:16:09.999Z</time></trkpt><trkpt lat="45.64462838023611" lon="11.384499608685049"><ele>134.75</ele><time>2026-04-26T16:16:10.999Z</time></trkpt><trkpt lat="45.64450028020097" lon="11.38445958731055"><ele>136.0</ele><time>2026-04-26T16:16:11.999Z</time></trkpt><trkpt lat="45.6443724548445" lon="11.384415330798237"><ele>136.0</ele><time>2026-04-26T16:16:12.999Z</time></trkpt><trkpt lat="45.64424655549291" lon="11.384371426196996"><ele>136.0</ele><time>2026-04-26T16:16:13.999Z</time></trkpt><trkpt lat="45.6441254614087" lon="11.384328965093763"><ele>136.0</ele><time>2026-04-26T16:16:14.999Z</time></trkpt><trkpt lat="45.64400336057563" lon="11.384290187523275"><ele>136.0</ele><time>2026-04-26T16:16:15.999Z</time></trkpt><trkpt lat="45.643878566666466" lon="11.384248360802049"><ele>136.0</ele><time>2026-04-26T16:16:16.999Z</time></trkpt><trkpt lat="45.64375061493453" lon="11.384203783283839"><ele>136.0</ele><time>2026-04-26T16:16:17.999Z</time></trkpt><trkpt lat="45.64362285408158" lon="11.384158445428644"><ele>136.0</ele><time>2026-04-26T16:16:18.999Z</time></trkpt><trkpt lat="45.64349521361122" lon="11.384117832900989"><ele>136.0</ele><time>2026-04-26T16:16:19.999Z</time></trkpt><trkpt lat="45.6433674114794" lon="11.384077395151088"><ele>135.75</ele><time>2026-04-26T16:16:20.999Z</time></trkpt><trkpt lat="45.6432419531844" lon="11.38403725389521"><ele>135.5</ele><time>2026-04-26T16:16:21.999Z</time></trkpt><trkpt lat="45.64312258530498" lon="11.383996147189565"><ele>135.25</ele><time>2026-04-26T16:16:22.999Z</time></trkpt><trkpt lat="45.64300631908257" lon="11.383955776109083"><ele>135.0</ele><time>2026-04-26T16:16:23.999Z</time></trkpt><trkpt lat="45.64289110131542" lon="11.383914749704067"><ele>135.5</ele><time>2026-04-26T16:16:24.999Z</time></trkpt><trkpt lat="45.64277935266683" lon="11.38387666862032"><ele>136.0</ele><time>2026-04-26T16:16:25.999Z</time></trkpt><trkpt lat="45.6426703440136" lon="11.38384040978588"><ele>136.5</ele><time>2026-04-26T16:16:26.999Z</time></trkpt><trkpt lat="45.6425593546906" lon="11.383802328887807"><ele>137.0</ele><time>2026-04-26T16:16:27.999Z</time></trkpt><trkpt lat="45.64244017808335" lon="11.383759292577539"><ele>139.25</ele><time>2026-04-26T16:16:28.999Z</time></trkpt><trkpt lat="45.64232261459365" lon="11.383714829137123"><ele>141.5</ele><time>2026-04-26T16:16:29.999Z</time></trkpt><trkpt lat="45.642201048194956" lon="11.383668186147952"><ele>143.75</ele><time>2026-04-26T16:16:30.999Z</time></trkpt><trkpt lat="45.64207334562796" lon="11.383613471299192"><ele>146.0</ele><time>2026-04-26T16:16:31.999Z</time></trkpt><trkpt lat="45.64194616169543" lon="11.383521732950156"><ele>146.0</ele><time>2026-04-26T16:16:32.999Z</time></trkpt><trkpt lat="45.64182578510911" lon="11.383405220561349"><ele>146.0</ele><time>2026-04-26T16:16:33.999Z</time></trkpt><trkpt lat="45.64171366374801" lon="11.383269568351965"><ele>146.0</ele><time>2026-04-26T16:16:34.999Z</time></trkpt><trkpt lat="45.64160632131855" lon="11.383125941372471"><ele>146.0</ele><time>2026-04-26T16:16:35.999Z</time></trkpt><trkpt lat="45.64151446781897" lon="11.382973597120017"><ele>149.25</ele><time>2026-04-26T16:16:36.999Z</time></trkpt><trkpt lat="45.64142848614798" lon="11.382807715728326"><ele>152.5</ele><time>2026-04-26T16:16:37.999Z</time></trkpt><trkpt lat="45.6413602211706" lon="11.382655654762075"><ele>155.75</ele><time>2026-04-26T16:16:38.999Z</time></trkpt><trkpt lat="45.64130171076558" lon="11.382509321350428"><ele>159.0</ele><time>2026-04-26T16:16:39.999Z</time></trkpt><trkpt lat="45.64124883730865" lon="11.382361707232173"><ele>159.0</ele><time>2026-04-26T16:16:40.999Z</time></trkpt><trkpt lat="45.641206922154986" lon="11.382204092518737"><ele>159.0</ele><time>2026-04-26T16:16:41.999Z</time></trkpt><trkpt lat="45.641173090102924" lon="11.382044956592859"><ele>159.0</ele><time>2026-04-26T16:16:42.999Z</time></trkpt><trkpt lat="45.64114184735807" lon="11.381882670814534"><ele>159.0</ele><time>2026-04-26T16:16:43.999Z</time></trkpt><trkpt lat="45.641122131143625" lon="11.381714559317222"><ele>156.5</ele><time>2026-04-26T16:16:44.999Z</time></trkpt><trkpt lat="45.64111015832983" lon="11.381551963643485"><ele>154.0</ele><time>2026-04-26T16:16:45.999Z</time></trkpt><trkpt lat="45.64110952017778" lon="11.381385262232241"><ele>151.5</ele><time>2026-04-26T16:16:46.999Z</time></trkpt><trkpt lat="45.64111193816291" lon="11.381223610152983"><ele>149.0</ele><time>2026-04-26T16:16:47.999Z</time></trkpt><trkpt lat="45.64110897177857" lon="11.381063299513768"><ele>149.0</ele><time>2026-04-26T16:16:48.999Z</time></trkpt><trkpt lat="45.64109257690934" lon="11.380905237850818"><ele>149.0</ele><time>2026-04-26T16:16:49.999Z</time></trkpt><trkpt lat="45.6410605120417" lon="11.380750929420861"><ele>149.0</ele><time>2026-04-26T16:16:50.999Z</time></trkpt><trkpt lat="45.64100737617192" lon="11.380608736454096"><ele>149.0</ele><time>2026-04-26T16:16:51.999Z</time></trkpt><trkpt lat="45.640944844485716" lon="11.380477230061246"><ele>149.0</ele><time>2026-04-26T16:16:52.999Z</time></trkpt><trkpt lat="45.64087695660406" lon="11.380357271320571"><ele>149.6</ele><time>2026-04-26T16:16:53.999Z</time></trkpt><trkpt lat="45.64081520582856" lon="11.380241441450307"><ele>150.2</ele><time>2026-04-26T16:16:54.999Z</time></trkpt><trkpt lat="45.64075534317401" lon="11.380119093701405"><ele>150.79999999999998</ele><time>2026-04-26T16:16:55.999Z</time></trkpt><trkpt lat="45.64069794016026" lon="11.379997968976179"><ele>151.4</ele><time>2026-04-26T16:16:56.999Z</time></trkpt><trkpt lat="45.64064987974646" lon="11.379868504092476"><ele>152.0</ele><time>2026-04-26T16:16:57.999Z</time></trkpt><trkpt lat="45.640622084610705" lon="11.379737176553995"><ele>152.83333333333331</ele><time>2026-04-26T16:16:58.999Z</time></trkpt><trkpt lat="45.64060835584071" lon="11.379603188979017"><ele>153.66666666666666</ele><time>2026-04-26T16:16:59.998Z</time></trkpt><trkpt lat="45.640608856160604" lon="11.379482766340073"><ele>154.5</ele><time>2026-04-26T16:17:00.998Z</time></trkpt><trkpt lat="45.64062001037416" lon="11.379366021260031"><ele>155.33333333333334</ele><time>2026-04-26T16:17:01.998Z</time></trkpt><trkpt lat="45.64064111923025" lon="11.37925825890733"><ele>156.16666666666669</ele><time>2026-04-26T16:17:02.998Z</time></trkpt><trkpt lat="45.6406699229693" lon="11.379156262737583"><ele>157.0</ele><time>2026-04-26T16:17:03.998Z</time></trkpt><trkpt lat="45.640710115338806" lon="11.379069076166486"><ele>156.99999999999997</ele><time>2026-04-26T16:17:04.998Z</time></trkpt><trkpt lat="45.64075095657545" lon="11.378994819698999"><ele>157.0</ele><time>2026-04-26T16:17:05.998Z</time></trkpt><trkpt lat="45.6408049693837" lon="11.378937634019902"><ele>157.0</ele><time>2026-04-26T16:17:06.998Z</time></trkpt><trkpt lat="45.64086697585469" lon="11.378889619497196"><ele>157.0</ele><time>2026-04-26T16:17:07.998Z</time></trkpt><trkpt lat="45.64093892275026" lon="11.378857669016737"><ele>157.0</ele><time>2026-04-26T16:17:08.998Z</time></trkpt><trkpt lat="45.64098469855484" lon="11.378756045109304"><ele>156.99999999999997</ele><time>2026-04-26T16:17:09.998Z</time></trkpt><trkpt lat="45.64102645479713" lon="11.378658100741065"><ele>157.0</ele><time>2026-04-26T16:17:10.998Z</time></trkpt><trkpt lat="45.641048672737284" lon="11.37854893001227"><ele>158.0</ele><time>2026-04-26T16:17:11.998Z</time></trkpt><trkpt lat="45.64103079138902" lon="11.378435440256936"><ele>159.0</ele><time>2026-04-26T16:17:12.998Z</time></trkpt><trkpt lat="45.64101002814514" lon="11.378349063948141"><ele>160.0</ele><time>2026-04-26T16:17:13.998Z</time></trkpt><trkpt lat="45.640952919459295" lon="11.3782495986117"><ele>161.0</ele><time>2026-04-26T16:17:15.998Z</time></trkpt><trkpt lat="45.6408845512483" lon="11.378191778426984"><ele>162.0</ele><time>2026-04-26T16:17:17.998Z</time></trkpt><trkpt lat="45.64084297131888" lon="11.37811995988482"><ele>163.0</ele><time>2026-04-26T16:17:18.998Z</time></trkpt><trkpt lat="45.64078185645405" lon="11.378052179130353"><ele>164.66666666666669</ele><time>2026-04-26T16:17:19.998Z</time></trkpt><trkpt lat="45.64071197245613" lon="11.377977461703745"><ele>166.33333333333334</ele><time>2026-04-26T16:17:20.998Z</time></trkpt><trkpt lat="45.64064118962176" lon="11.377927247545763"><ele>168.0</ele><time>2026-04-26T16:17:21.998Z</time></trkpt><trkpt lat="45.640591296602786" lon="11.377863215784709"><ele>169.66666666666666</ele><time>2026-04-26T16:17:23Z</time></trkpt><trkpt lat="45.640533403191064" lon="11.3777649906176"><ele>171.33333333333331</ele><time>2026-04-26T16:17:25Z</time></trkpt><trkpt lat="45.64050293767394" lon="11.37763881735193"><ele>173.0</ele><time>2026-04-26T16:17:27Z</time></trkpt><trkpt lat="45.6404946410962" lon="11.377471400607662"><ele>173.0</ele><time>2026-04-26T16:17:29Z</time></trkpt><trkpt lat="45.64042456654538" lon="11.377339606663458"><ele>173.0</ele><time>2026-04-26T16:17:31Z</time></trkpt><trkpt lat="45.64035485094932" lon="11.377318102374714"><ele>173.0</ele><time>2026-04-26T16:17:32Z</time></trkpt><trkpt lat="45.64028014870426" lon="11.377337637498924"><ele>173.0</ele><time>2026-04-26T16:17:33Z</time></trkpt><trkpt lat="45.64022137632763" lon="11.377416354303586"><ele>173.0</ele><time>2026-04-26T16:17:34Z</time></trkpt><trkpt lat="45.64016746888024" lon="11.377525829344654"><ele>173.0</ele><time>2026-04-26T16:17:35Z</time></trkpt><trkpt lat="45.640110834218774" lon="11.377627282009973"><ele>173.33333333333331</ele><time>2026-04-26T16:17:36Z</time></trkpt><trkpt lat="45.640055634626734" lon="11.377716936971046"><ele>173.66666666666666</ele><time>2026-04-26T16:17:37Z</time></trkpt><trkpt lat="45.63999689270407" lon="11.37781505860604"><ele>174.0</ele><time>2026-04-26T16:17:38Z</time></trkpt><trkpt lat="45.63994383403522" lon="11.37790424647206"><ele>174.33333333333334</ele><time>2026-04-26T16:17:39Z</time></trkpt><trkpt lat="45.63989196715763" lon="11.377990245349933"><ele>174.66666666666669</ele><time>2026-04-26T16:17:40Z</time></trkpt><trkpt lat="45.63984510052012" lon="11.378064713478686"><ele>175.0</ele><time>2026-04-26T16:17:41Z</time></trkpt><trkpt lat="45.639787038610386" lon="11.37812431137975"><ele>175.4</ele><time>2026-04-26T16:17:42Z</time></trkpt><trkpt lat="45.639712816137596" lon="11.378158356426797"><ele>175.8</ele><time>2026-04-26T16:17:43Z</time></trkpt><trkpt lat="45.63963090855855" lon="11.378152817534321"><ele>176.2</ele><time>2026-04-26T16:17:44Z</time></trkpt><trkpt lat="45.639541775774454" lon="11.378117403665287"><ele>176.6</ele><time>2026-04-26T16:17:45Z</time></trkpt><trkpt lat="45.63945768272733" lon="11.378037351694713"><ele>177.0</ele><time>2026-04-26T16:17:46Z</time></trkpt><trkpt lat="45.63938434200621" lon="11.377921118342213"><ele>177.0</ele><time>2026-04-26T16:17:47Z</time></trkpt><trkpt lat="45.63933008787367" lon="11.37777948988911"><ele>177.0</ele><time>2026-04-26T16:17:48Z</time></trkpt><trkpt lat="45.63929885311397" lon="11.377612919904443"><ele>177.0</ele><time>2026-04-26T16:17:49Z</time></trkpt><trkpt lat="45.63930918114868" lon="11.377450308406255"><ele>177.0</ele><time>2026-04-26T16:17:50Z</time></trkpt><trkpt lat="45.63934196028801" lon="11.377302057908972"><ele>178.2</ele><time>2026-04-26T16:17:51Z</time></trkpt><trkpt lat="45.63938961390796" lon="11.377157744800309"><ele>179.39999999999998</ele><time>2026-04-26T16:17:52Z</time></trkpt><trkpt lat="45.63943762719891" lon="11.377016071799643"><ele>180.60000000000002</ele><time>2026-04-26T16:17:53Z</time></trkpt><trkpt lat="45.63948656905657" lon="11.376879691397379"><ele>181.8</ele><time>2026-04-26T16:17:54Z</time></trkpt><trkpt lat="45.639551152657425" lon="11.376765884480916"><ele>183.0</ele><time>2026-04-26T16:17:55Z</time></trkpt><trkpt lat="45.63961356050158" lon="11.376637182072042"><ele>183.4</ele><time>2026-04-26T16:17:56Z</time></trkpt><trkpt lat="45.63968639284562" lon="11.376515647511273"><ele>183.8</ele><time>2026-04-26T16:17:57Z</time></trkpt><trkpt lat="45.639766388494" lon="11.376393135672663"><ele>184.2</ele><time>2026-04-26T16:17:58Z</time></trkpt><trkpt lat="45.63984111715309" lon="11.376286109854213"><ele>184.6</ele><time>2026-04-26T16:17:59Z</time></trkpt><trkpt lat="45.63990819545565" lon="11.376191646626385"><ele>185.0</ele><time>2026-04-26T16:18:00Z</time></trkpt><trkpt lat="45.639969210635094" lon="11.376107166762694"><ele>186.2</ele><time>2026-04-26T16:18:01Z</time></trkpt><trkpt lat="45.64002374364981" lon="11.376031661908291"><ele>187.4</ele><time>2026-04-26T16:18:02Z</time></trkpt><trkpt lat="45.64006454124634" lon="11.375943255830858"><ele>188.60000000000002</ele><time>2026-04-26T16:18:03Z</time></trkpt><trkpt lat="45.64014903906031" lon="11.375840515900965"><ele>189.8</ele><time>2026-04-26T16:18:05Z</time></trkpt><trkpt lat="45.64019759547598" lon="11.37568734946944"><ele>191.0</ele><time>2026-04-26T16:18:07Z</time></trkpt><trkpt lat="45.640184212120225" lon="11.375579487662257"><ele>192.66666666666666</ele><time>2026-04-26T16:18:08Z</time></trkpt><trkpt lat="45.64014487703504" lon="11.375477927400079"><ele>194.33333333333331</ele><time>2026-04-26T16:18:09Z</time></trkpt><trkpt lat="45.64008530405895" lon="11.375405180329585"><ele>196.0</ele><time>2026-04-26T16:18:10Z</time></trkpt><trkpt lat="45.640004997936124" lon="11.375361140711842"><ele>197.66666666666666</ele><time>2026-04-26T16:18:10.999Z</time></trkpt><trkpt lat="45.63991751553871" lon="11.375356723385767"><ele>199.33333333333334</ele><time>2026-04-26T16:18:11.999Z</time></trkpt><trkpt lat="45.63983459614958" lon="11.375383743405402"><ele>201.0</ele><time>2026-04-26T16:18:12.999Z</time></trkpt><trkpt lat="45.6397609646566" lon="11.375429331993763"><ele>201.0</ele><time>2026-04-26T16:18:13.999Z</time></trkpt><trkpt lat="45.63969238358039" lon="11.375485518457678"><ele>201.0</ele><time>2026-04-26T16:18:14.999Z</time></trkpt><trkpt lat="45.6396244697454" lon="11.375537207801909"><ele>201.0</ele><time>2026-04-26T16:18:15.999Z</time></trkpt><trkpt lat="45.63955666696163" lon="11.375584851640468"><ele>201.0</ele><time>2026-04-26T16:18:16.999Z</time></trkpt><trkpt lat="45.63948960963006" lon="11.375633192874622"><ele>201.0</ele><time>2026-04-26T16:18:17.999Z</time></trkpt><trkpt lat="45.639427596438054" lon="11.375682194752617"><ele>201.0</ele><time>2026-04-26T16:18:18.999Z</time></trkpt><trkpt lat="45.63936160362225" lon="11.37572309008002"><ele>201.0</ele><time>2026-04-26T16:18:19.999Z</time></trkpt><trkpt lat="45.639289889375824" lon="11.375739752589055"><ele>201.16666666666666</ele><time>2026-04-26T16:18:20.999Z</time></trkpt><trkpt lat="45.63921333316678" lon="11.375724914024113"><ele>201.33333333333331</ele><time>2026-04-26T16:18:21.999Z</time></trkpt><trkpt lat="45.63915132417256" lon="11.375673949485513"><ele>201.5</ele><time>2026-04-26T16:18:22.999Z</time></trkpt><trkpt lat="45.63910529662124" lon="11.375586413496679"><ele>201.66666666666666</ele><time>2026-04-26T16:18:23.999Z</time></trkpt><trkpt lat="45.63906925541719" lon="11.375477457425387"><ele>201.83333333333331</ele><time>2026-04-26T16:18:24.999Z</time></trkpt><trkpt lat="45.639027157303445" lon="11.375366200745882"><ele>202.0</ele><time>2026-04-26T16:18:25.999Z</time></trkpt><trkpt lat="45.63897213305419" lon="11.375245994877828"><ele>202.0</ele><time>2026-04-26T16:18:26.999Z</time></trkpt><trkpt lat="45.638911173445365" lon="11.375110846216897"><ele>202.0</ele><time>2026-04-26T16:18:27.999Z</time></trkpt><trkpt lat="45.638840243814904" lon="11.374970325410693"><ele>202.0</ele><time>2026-04-26T16:18:28.999Z</time></trkpt><trkpt lat="45.63876059658547" lon="11.37482871113114"><ele>202.0</ele><time>2026-04-26T16:18:29.999Z</time></trkpt><trkpt lat="45.63867063766177" lon="11.374694830224556"><ele>203.0</ele><time>2026-04-26T16:18:30.999Z</time></trkpt><trkpt lat="45.638574283913556" lon="11.374579856921363"><ele>204.0</ele><time>2026-04-26T16:18:31.999Z</time></trkpt><trkpt lat="45.63846507004591" lon="11.374491114160627"><ele>205.0</ele><time>2026-04-26T16:18:32.999Z</time></trkpt><trkpt lat="45.63835119730481" lon="11.374423317819707"><ele>206.0</ele><time>2026-04-26T16:18:33.999Z</time></trkpt><trkpt lat="45.63824168529919" lon="11.37436357399563"><ele>206.00000000000003</ele><time>2026-04-26T16:18:34.999Z</time></trkpt><trkpt lat="45.638145574791494" lon="11.37431161208124"><ele>206.0</ele><time>2026-04-26T16:18:35.999Z</time></trkpt><trkpt lat="45.638067054354075" lon="11.374271046145353"><ele>206.0</ele><time>2026-04-26T16:18:36.999Z</time></trkpt><trkpt lat="45.637994364605895" lon="11.374232805818696"><ele>206.0</ele><time>2026-04-26T16:18:37.999Z</time></trkpt><trkpt lat="45.63792690600298" lon="11.374193652004342"><ele>206.00000000000003</ele><time>2026-04-26T16:18:38.999Z</time></trkpt><trkpt lat="45.637866586921334" lon="11.374155040791404"><ele>206.0</ele><time>2026-04-26T16:18:39.999Z</time></trkpt><trkpt lat="45.63781043465641" lon="11.3740986795588"><ele>206.20000000000002</ele><time>2026-04-26T16:18:40.999Z</time></trkpt><trkpt lat="45.63776052422925" lon="11.374027214916227"><ele>206.4</ele><time>2026-04-26T16:18:41.999Z</time></trkpt><trkpt lat="45.63769454232273" lon="11.373916767711025"><ele>206.6</ele><time>2026-04-26T16:18:43.999Z</time></trkpt><trkpt lat="45.63765867069632" lon="11.37382942365938"><ele>206.8</ele><time>2026-04-26T16:18:44.999Z</time></trkpt><trkpt lat="45.63761350349814" lon="11.373702547376245"><ele>207.0</ele><time>2026-04-26T16:18:45.999Z</time></trkpt><trkpt lat="45.63755672078914" lon="11.373546143142594"><ele>207.66666666666669</ele><time>2026-04-26T16:18:46.999Z</time></trkpt><trkpt lat="45.63748719550739" lon="11.373367728800105"><ele>208.33333333333334</ele><time>2026-04-26T16:18:47.999Z</time></trkpt><trkpt lat="45.63741071829769" lon="11.373175209420745"><ele>209.0</ele><time>2026-04-26T16:18:48.999Z</time></trkpt><trkpt lat="45.63733354298644" lon="11.372988064179617"><ele>210.25</ele><time>2026-04-26T16:18:49.999Z</time></trkpt><trkpt lat="45.63724990686911" lon="11.37281223169432"><ele>211.5</ele><time>2026-04-26T16:18:50.999Z</time></trkpt><trkpt lat="45.637151031944796" lon="11.372653469262952"><ele>212.75</ele><time>2026-04-26T16:18:51.999Z</time></trkpt><trkpt lat="45.63703816581748" lon="11.372532182337878"><ele>214.0</ele><time>2026-04-26T16:18:52.999Z</time></trkpt><trkpt lat="45.63690756150501" lon="11.372445889781478"><ele>214.0</ele><time>2026-04-26T16:18:53.999Z</time></trkpt><trkpt lat="45.63677055653534" lon="11.37237912191844"><ele>214.0</ele><time>2026-04-26T16:18:54.999Z</time></trkpt><trkpt lat="45.636638731437884" lon="11.372325242470554"><ele>214.0</ele><time>2026-04-26T16:18:55.999Z</time></trkpt><trkpt lat="45.63651503795197" lon="11.372267663300635"><ele>214.0</ele><time>2026-04-26T16:18:56.999Z</time></trkpt><trkpt lat="45.63639677338007" lon="11.372207206907152"><ele>217.0</ele><time>2026-04-26T16:18:57.999Z</time></trkpt><trkpt lat="45.63628485133685" lon="11.372157960711728"><ele>220.0</ele><time>2026-04-26T16:18:58.999Z</time></trkpt><trkpt lat="45.636171377411685" lon="11.37212052490214"><ele>223.0</ele><time>2026-04-26T16:18:59.999Z</time></trkpt><trkpt lat="45.63605553400831" lon="11.37210433156167"><ele>226.0</ele><time>2026-04-26T16:19:00.999Z</time></trkpt><trkpt lat="45.63593712974347" lon="11.372107352187601"><ele>224.4</ele><time>2026-04-26T16:19:01.999Z</time></trkpt><trkpt lat="45.635823997203005" lon="11.372123688911687"><ele>222.8</ele><time>2026-04-26T16:19:02.999Z</time></trkpt><trkpt lat="45.63570859608626" lon="11.372160045275816"><ele>221.20000000000002</ele><time>2026-04-26T16:19:03.999Z</time></trkpt><trkpt lat="45.6356087012542" lon="11.372213360861767"><ele>219.60000000000002</ele><time>2026-04-26T16:19:04.999Z</time></trkpt><trkpt lat="45.63551342455042" lon="11.372279713871064"><ele>218.0</ele><time>2026-04-26T16:19:05.999Z</time></trkpt><trkpt lat="45.63543314155917" lon="11.372336972966437"><ele>218.00000000000003</ele><time>2026-04-26T16:19:06.999Z</time></trkpt><trkpt lat="45.635356572216516" lon="11.372386260865495"><ele>218.0</ele><time>2026-04-26T16:19:07.999Z</time></trkpt><trkpt lat="45.63528941297593" lon="11.37243266977158"><ele>218.0</ele><time>2026-04-26T16:19:08.999Z</time></trkpt><trkpt lat="45.63520610262862" lon="11.372492147321173"><ele>218.0</ele><time>2026-04-26T16:19:09.999Z</time></trkpt><trkpt lat="45.6351361792729" lon="11.37255486405295"><ele>218.00000000000003</ele><time>2026-04-26T16:19:10.998Z</time></trkpt><trkpt lat="45.63508153816812" lon="11.372628069983435"><ele>218.0</ele><time>2026-04-26T16:19:11.998Z</time></trkpt><trkpt lat="45.63504272415752" lon="11.372707892076631"><ele>222.50000000000003</ele><time>2026-04-26T16:19:12.998Z</time></trkpt><trkpt lat="45.635024682179655" lon="11.372804452224074"><ele>227.0</ele><time>2026-04-26T16:19:13.998Z</time></trkpt><trkpt lat="45.635024827582164" lon="11.372912041909569"><ele>231.5</ele><time>2026-04-26T16:19:14.998Z</time></trkpt><trkpt lat="45.63505209390836" lon="11.373017631963075"><ele>236.0</ele><time>2026-04-26T16:19:15.998Z</time></trkpt><trkpt lat="45.63511526850309" lon="11.373107853786118"><ele>240.50000000000003</ele><time>2026-04-26T16:19:16.998Z</time></trkpt><trkpt lat="45.63519753644382" lon="11.37316441881006"><ele>245.0</ele><time>2026-04-26T16:19:17.998Z</time></trkpt><trkpt lat="45.635295135185096" lon="11.373216597008563"><ele>239.25</ele><time>2026-04-26T16:19:18.998Z</time></trkpt><trkpt lat="45.63540658100664" lon="11.373230669811225"><ele>233.5</ele><time>2026-04-26T16:19:19.998Z</time></trkpt><trkpt lat="45.63551901270604" lon="11.373285650779001"><ele>227.75</ele><time>2026-04-26T16:19:20.998Z</time></trkpt><trkpt lat="45.635608263529505" lon="11.373402949371528"><ele>222.0</ele><time>2026-04-26T16:19:21.998Z</time></trkpt><trkpt lat="45.635691963537234" lon="11.373537909059436"><ele>222.0</ele><time>2026-04-26T16:19:22.998Z</time></trkpt><trkpt lat="45.63579401277828" lon="11.373678702429787"><ele>222.0</ele><time>2026-04-26T16:19:23.998Z</time></trkpt><trkpt lat="45.63589988720842" lon="11.373791509513762"><ele>222.0</ele><time>2026-04-26T16:19:24.998Z</time></trkpt><trkpt lat="45.63602128800699" lon="11.373864562721817"><ele>222.0</ele><time>2026-04-26T16:19:25.998Z</time></trkpt><trkpt lat="45.63612454937877" lon="11.373956674237801"><ele>226.0</ele><time>2026-04-26T16:19:26.998Z</time></trkpt><trkpt lat="45.63622010339768" lon="11.374036943872138"><ele>230.0</ele><time>2026-04-26T16:19:27.998Z</time></trkpt><trkpt lat="45.636064160034145" lon="11.373929578910543"><ele>234.0</ele><time>2026-04-26T16:19:29Z</time></trkpt><trkpt lat="45.63614211760066" lon="11.37395309245477"><ele>238.0</ele><time>2026-04-26T16:19:30Z</time></trkpt><trkpt lat="45.63624623435447" lon="11.373997592043139"><ele>238.0</ele><time>2026-04-26T16:19:32Z</time></trkpt><trkpt lat="45.63633197175615" lon="11.374028564259199"><ele>238.0</ele><time>2026-04-26T16:19:35Z</time></trkpt><trkpt lat="45.63638046394272" lon="11.37410849449586"><ele>238.0</ele><time>2026-04-26T16:19:37Z</time></trkpt><trkpt lat="45.63631687640138" lon="11.374207697635091"><ele>238.0</ele><time>2026-04-26T16:19:39Z</time></trkpt><trkpt lat="45.63619585919161" lon="11.374145662847308"><ele>238.0</ele><time>2026-04-26T16:19:41Z</time></trkpt><trkpt lat="45.63611996315584" lon="11.374082079017008"><ele>241.2</ele><time>2026-04-26T16:19:42Z</time></trkpt><trkpt lat="45.63603002910206" lon="11.37402452148921"><ele>244.4</ele><time>2026-04-26T16:19:43Z</time></trkpt><trkpt lat="45.635934099420815" lon="11.373969638652"><ele>247.59999999999997</ele><time>2026-04-26T16:19:44Z</time></trkpt><trkpt lat="45.635829695460124" lon="11.373898778541315"><ele>250.79999999999998</ele><time>2026-04-26T16:19:45Z</time></trkpt><trkpt lat="45.63573134901411" lon="11.373818645889477"><ele>254.0</ele><time>2026-04-26T16:19:46Z</time></trkpt><trkpt lat="45.635637755138696" lon="11.373738219619678"><ele>252.2</ele><time>2026-04-26T16:19:47Z</time></trkpt><trkpt lat="45.63555376392899" lon="11.373671954016803"><ele>250.39999999999998</ele><time>2026-04-26T16:19:48Z</time></trkpt><trkpt lat="45.63547369424065" lon="11.373612296637386"><ele>248.6</ele><time>2026-04-26T16:19:49Z</time></trkpt><trkpt lat="45.6353917914107" lon="11.373554700326245"><ele>246.8</ele><time>2026-04-26T16:19:50Z</time></trkpt><trkpt lat="45.635300016664495" lon="11.373520046915154"><ele>245.0</ele><time>2026-04-26T16:19:51Z</time></trkpt><trkpt lat="45.635203239229675" lon="11.373507392274535"><ele>245.0</ele><time>2026-04-26T16:19:52Z</time></trkpt><trkpt lat="45.635105050848246" lon="11.373520233988641"><ele>245.0</ele><time>2026-04-26T16:19:53Z</time></trkpt><trkpt lat="45.63500051568753" lon="11.373550293234198"><ele>245.0</ele><time>2026-04-26T16:19:54Z</time></trkpt><trkpt lat="45.63489345608862" lon="11.3735876826745"><ele>245.0</ele><time>2026-04-26T16:19:55Z</time></trkpt><trkpt lat="45.634797949425874" lon="11.373617127384664"><ele>245.0</ele><time>2026-04-26T16:19:56Z</time></trkpt><trkpt lat="45.63469727260278" lon="11.373642547926604"><ele>245.0</ele><time>2026-04-26T16:19:57Z</time></trkpt><trkpt lat="45.63460133552432" lon="11.373642494878123"><ele>245.0</ele><time>2026-04-26T16:19:58Z</time></trkpt><trkpt lat="45.63450301155338" lon="11.373625879238984"><ele>245.0</ele><time>2026-04-26T16:19:59Z</time></trkpt><trkpt lat="45.634402957879516" lon="11.373592221596484"><ele>245.0</ele><time>2026-04-26T16:20:00Z</time></trkpt><trkpt lat="45.634302205780806" lon="11.373543492242117"><ele>245.0</ele><time>2026-04-26T16:20:01Z</time></trkpt><trkpt lat="45.634202454246605" lon="11.373490374475255"><ele>248.5</ele><time>2026-04-26T16:20:02Z</time></trkpt><trkpt lat="45.63410053656863" lon="11.373434257980508"><ele>252.0</ele><time>2026-04-26T16:20:03Z</time></trkpt><trkpt lat="45.63399533819032" lon="11.373378514917333"><ele>255.5</ele><time>2026-04-26T16:20:04Z</time></trkpt><trkpt lat="45.63388484991934" lon="11.3733254966336"><ele>259.0</ele><time>2026-04-26T16:20:05Z</time></trkpt><trkpt lat="45.63377503221101" lon="11.373262676232399"><ele>259.0</ele><time>2026-04-26T16:20:06Z</time></trkpt><trkpt lat="45.63365861767845" lon="11.373200838757143"><ele>259.0</ele><time>2026-04-26T16:20:07Z</time></trkpt><trkpt lat="45.633544734443305" lon="11.373135137367333"><ele>259.0</ele><time>2026-04-26T16:20:08Z</time></trkpt><trkpt lat="45.633431473022135" lon="11.373071005488391"><ele>259.0</ele><time>2026-04-26T16:20:09Z</time></trkpt><trkpt lat="45.63332294739973" lon="11.37301088157331"><ele>258.5</ele><time>2026-04-26T16:20:10Z</time></trkpt><trkpt lat="45.63321066920334" lon="11.372947483317672"><ele>258.0</ele><time>2026-04-26T16:20:11Z</time></trkpt><trkpt lat="45.63310004812539" lon="11.372879106960683"><ele>257.5</ele><time>2026-04-26T16:20:12Z</time></trkpt><trkpt lat="45.63298602799059" lon="11.37280684619656"><ele>257.0</ele><time>2026-04-26T16:20:13Z</time></trkpt><trkpt lat="45.63286901397367" lon="11.372736373995872"><ele>255.8</ele><time>2026-04-26T16:20:14Z</time></trkpt><trkpt lat="45.632760718124146" lon="11.372664416069231"><ele>254.6</ele><time>2026-04-26T16:20:15Z</time></trkpt><trkpt lat="45.632657793572726" lon="11.3725965134241"><ele>253.40000000000003</ele><time>2026-04-26T16:20:16Z</time></trkpt><trkpt lat="45.6325582267134" lon="11.372534958238784"><ele>252.20000000000002</ele><time>2026-04-26T16:20:17Z</time></trkpt><trkpt lat="45.632461588255104" lon="11.372481974095715"><ele>251.0</ele><time>2026-04-26T16:20:18Z</time></trkpt><trkpt lat="45.63236581385498" lon="11.372438512960844"><ele>251.0</ele><time>2026-04-26T16:20:18.999Z</time></trkpt><trkpt lat="45.632248002068266" lon="11.372410415881554"><ele>251.0</ele><time>2026-04-26T16:20:19.999Z</time></trkpt><trkpt lat="45.63212650860745" lon="11.372405159333894"><ele>251.0</ele><time>2026-04-26T16:20:20.999Z</time></trkpt><trkpt lat="45.63200393478275" lon="11.372436722600545"><ele>251.0</ele><time>2026-04-26T16:20:21.999Z</time></trkpt><trkpt lat="45.63188493594341" lon="11.372495413617871"><ele>250.75</ele><time>2026-04-26T16:20:22.999Z</time></trkpt><trkpt lat="45.63177689346915" lon="11.372587127314292"><ele>250.5</ele><time>2026-04-26T16:20:23.999Z</time></trkpt><trkpt lat="45.63167750786757" lon="11.372695596744919"><ele>250.25</ele><time>2026-04-26T16:20:24.999Z</time></trkpt><trkpt lat="45.631569757261055" lon="11.372826706410653"><ele>250.0</ele><time>2026-04-26T16:20:25.999Z</time></trkpt><trkpt lat="45.63146269808597" lon="11.372945523158235"><ele>250.75</ele><time>2026-04-26T16:20:26.999Z</time></trkpt><trkpt lat="45.631360123098005" lon="11.373068004907092"><ele>251.5</ele><time>2026-04-26T16:20:27.999Z</time></trkpt><trkpt lat="45.63126416344843" lon="11.373176349208528"><ele>252.25</ele><time>2026-04-26T16:20:28.999Z</time></trkpt><trkpt lat="45.631168815665006" lon="11.373287211270918"><ele>253.0</ele><time>2026-04-26T16:20:29.999Z</time></trkpt><trkpt lat="45.631069202315004" lon="11.373399282125222"><ele>253.0</ele><time>2026-04-26T16:20:30.999Z</time></trkpt><trkpt lat="45.63097179953073" lon="11.373505605471976"><ele>253.0</ele><time>2026-04-26T16:20:31.999Z</time></trkpt><trkpt lat="45.6308705807991" lon="11.373623414125394"><ele>253.0</ele><time>2026-04-26T16:20:32.999Z</time></trkpt><trkpt lat="45.63076425892042" lon="11.373748099182139"><ele>253.0</ele><time>2026-04-26T16:20:33.999Z</time></trkpt><trkpt lat="45.630661160920724" lon="11.373870453528733"><ele>252.5</ele><time>2026-04-26T16:20:34.999Z</time></trkpt><trkpt lat="45.63056181137766" lon="11.373986603085866"><ele>252.0</ele><time>2026-04-26T16:20:35.999Z</time></trkpt><trkpt lat="45.63046296997945" lon="11.374100635810235"><ele>251.5</ele><time>2026-04-26T16:20:36.999Z</time></trkpt><trkpt lat="45.630367596936075" lon="11.3742086746922"><ele>251.0</ele><time>2026-04-26T16:20:37.999Z</time></trkpt><trkpt lat="45.63026792474553" lon="11.37432407114629"><ele>251.0</ele><time>2026-04-26T16:20:38.999Z</time></trkpt><trkpt lat="45.63016162338803" lon="11.374434440794472"><ele>251.0</ele><time>2026-04-26T16:20:39.999Z</time></trkpt><trkpt lat="45.63003892625031" lon="11.37455054311947"><ele>251.0</ele><time>2026-04-26T16:20:40.999Z</time></trkpt><trkpt lat="45.629903956805244" lon="11.374673487229098"><ele>251.0</ele><time>2026-04-26T16:20:41.999Z</time></trkpt><trkpt lat="45.62974858680906" lon="11.374763649224409"><ele>250.0</ele><time>2026-04-26T16:20:42.999Z</time></trkpt><trkpt lat="45.62957925898831" lon="11.374883350140353"><ele>249.0</ele><time>2026-04-26T16:20:43.999Z</time></trkpt><trkpt lat="45.629396780231524" lon="11.37503712882742"><ele>248.0</ele><time>2026-04-26T16:20:44.999Z</time></trkpt><trkpt lat="45.62919046733739" lon="11.375168125880714"><ele>246.5</ele><time>2026-04-26T16:20:45.999Z</time></trkpt><trkpt lat="45.62897468316212" lon="11.375313473910863"><ele>245.0</ele><time>2026-04-26T16:20:46.999Z</time></trkpt><trkpt lat="45.62875601522224" lon="11.375463359989526"><ele>244.5</ele><time>2026-04-26T16:20:47.999Z</time></trkpt><trkpt lat="45.628532276403114" lon="11.375620432942553"><ele>244.0</ele><time>2026-04-26T16:20:48.999Z</time></trkpt><trkpt lat="45.628310417260685" lon="11.37577319877387"><ele>244.0</ele><time>2026-04-26T16:20:49.999Z</time></trkpt><trkpt lat="45.628085266290185" lon="11.375918791245262"><ele>244.0</ele><time>2026-04-26T16:20:50.999Z</time></trkpt><trkpt lat="45.62786083374227" lon="11.376053263996523"><ele>245.5</ele><time>2026-04-26T16:20:51.999Z</time></trkpt><trkpt lat="45.62763417785849" lon="11.376177621118915"><ele>247.0</ele><time>2026-04-26T16:20:52.999Z</time></trkpt><trkpt lat="45.627403981398416" lon="11.376293235715957"><ele>242.5</ele><time>2026-04-26T16:20:53.999Z</time></trkpt><trkpt lat="45.62716687087299" lon="11.376399642697724"><ele>238.0</ele><time>2026-04-26T16:20:54.999Z</time></trkpt><trkpt lat="45.62692284122927" lon="11.37649706837937"><ele>238.0</ele><time>2026-04-26T16:20:55.999Z</time></trkpt><trkpt lat="45.6266772376856" lon="11.376582435949373"><ele>238.0</ele><time>2026-04-26T16:20:56.999Z</time></trkpt><trkpt lat="45.62642564519869" lon="11.376657925284757"><ele>238.0</ele><time>2026-04-26T16:20:57.999Z</time></trkpt><trkpt lat="45.62617575500915" lon="11.376731542719787"><ele>238.0</ele><time>2026-04-26T16:20:58.999Z</time></trkpt><trkpt lat="45.62592711566047" lon="11.376806410232728"><ele>238.5</ele><time>2026-04-26T16:20:59.999Z</time></trkpt><trkpt lat="45.625682281727876" lon="11.376883269901741"><ele>239.0</ele><time>2026-04-26T16:21:00.999Z</time></trkpt><trkpt lat="45.62543794707751" lon="11.376962092580806"><ele>246.5</ele><time>2026-04-26T16:21:01.999Z</time></trkpt><trkpt lat="45.62520259541835" lon="11.377034170786835"><ele>254.0</ele><time>2026-04-26T16:21:02.999Z</time></trkpt><trkpt lat="45.62498065131815" lon="11.37711256969774"><ele>241.5</ele><time>2026-04-26T16:21:03.999Z</time></trkpt><trkpt lat="45.6247566376684" lon="11.377230784411465"><ele>229.0</ele><time>2026-04-26T16:21:04.999Z</time></trkpt><trkpt lat="45.62455188961158" lon="11.377393442063564"><ele>241.0</ele><time>2026-04-26T16:21:05.999Z</time></trkpt><trkpt lat="45.624366329962456" lon="11.377603476011002"><ele>253.0</ele><time>2026-04-26T16:21:06.999Z</time></trkpt><trkpt lat="45.62420169085834" lon="11.377838125830333"><ele>242.0</ele><time>2026-04-26T16:21:07.999Z</time></trkpt><trkpt lat="45.62403616342099" lon="11.378070793415258"><ele>231.0</ele><time>2026-04-26T16:21:08.999Z</time></trkpt><trkpt lat="45.623856094825975" lon="11.378269744726026"><ele>231.0</ele><time>2026-04-26T16:21:09.999Z</time></trkpt><trkpt lat="45.6236594686956" lon="11.378433401532654"><ele>231.0</ele><time>2026-04-26T16:21:10.999Z</time></trkpt><trkpt lat="45.623455353071925" lon="11.378558072430206"><ele>231.0</ele><time>2026-04-26T16:21:11.999Z</time></trkpt><trkpt lat="45.62324865943933" lon="11.378651935690488"><ele>231.0</ele><time>2026-04-26T16:21:12.999Z</time></trkpt><trkpt lat="45.62304800308399" lon="11.37873481831783"><ele>231.0</ele><time>2026-04-26T16:21:13.998Z</time></trkpt><trkpt lat="45.622857003945995" lon="11.37885285184585"><ele>231.0</ele><time>2026-04-26T16:21:14.998Z</time></trkpt><trkpt lat="45.622674180662365" lon="11.379009396161894"><ele>231.0</ele><time>2026-04-26T16:21:15.998Z</time></trkpt><trkpt lat="45.622502797032666" lon="11.379197045779744"><ele>231.0</ele><time>2026-04-26T16:21:16.998Z</time></trkpt><trkpt lat="45.6223503464991" lon="11.379404756928592"><ele>231.0</ele><time>2026-04-26T16:21:17.998Z</time></trkpt><trkpt lat="45.62222120388834" lon="11.379615353743086"><ele>230.0</ele><time>2026-04-26T16:21:18.998Z</time></trkpt><trkpt lat="45.62211171500374" lon="11.379782417727396"><ele>229.0</ele><time>2026-04-26T16:21:19.998Z</time></trkpt><trkpt lat="45.62198636396635" lon="11.37998932933455"><ele>228.0</ele><time>2026-04-26T16:21:20.998Z</time></trkpt><trkpt lat="45.62180637481947" lon="11.380331245521026"><ele>221.0</ele><time>2026-04-26T16:21:21.998Z</time></trkpt><trkpt lat="45.62164781136039" lon="11.380587245213865"><ele>214.0</ele><time>2026-04-26T16:21:22.998Z</time></trkpt><trkpt lat="45.62149587833279" lon="11.380832294200864"><ele>214.0</ele><time>2026-04-26T16:21:23.998Z</time></trkpt><trkpt lat="45.62133760980746" lon="11.381064730438911"><ele>214.0</ele><time>2026-04-26T16:21:24.998Z</time></trkpt><trkpt lat="45.6211681241854" lon="11.381270597803457"><ele>214.0</ele><time>2026-04-26T16:21:25.998Z</time></trkpt><trkpt lat="45.62098368455532" lon="11.38143347724629"><ele>211.33333333333331</ele><time>2026-04-26T16:21:26.998Z</time></trkpt><trkpt lat="45.62079282082819" lon="11.38158253551686"><ele>208.66666666666669</ele><time>2026-04-26T16:21:27.998Z</time></trkpt><trkpt lat="45.62060044627225" lon="11.381709866893353"><ele>206.0</ele><time>2026-04-26T16:21:28.998Z</time></trkpt><trkpt lat="45.62039884124425" lon="11.38180786462322"><ele>207.0</ele><time>2026-04-26T16:21:29.998Z</time></trkpt><trkpt lat="45.62018989739688" lon="11.381866717205675"><ele>208.0</ele><time>2026-04-26T16:21:30.998Z</time></trkpt><trkpt lat="45.61997763189928" lon="11.381898414113852"><ele>209.0</ele><time>2026-04-26T16:21:31.998Z</time></trkpt><trkpt lat="45.6197515632164" lon="11.381901474796637"><ele>209.0</ele><time>2026-04-26T16:21:32.998Z</time></trkpt><trkpt lat="45.61952128441077" lon="11.381884292925566"><ele>209.0</ele><time>2026-04-26T16:21:33.998Z</time></trkpt><trkpt lat="45.619293211556155" lon="11.381862397037992"><ele>205.0</ele><time>2026-04-26T16:21:35Z</time></trkpt><trkpt lat="45.61905329259775" lon="11.381842661536892"><ele>201.0</ele><time>2026-04-26T16:21:36Z</time></trkpt><trkpt lat="45.618816445444224" lon="11.381833858931214"><ele>199.0</ele><time>2026-04-26T16:21:37Z</time></trkpt><trkpt lat="45.61857628460906" lon="11.381830075093795"><ele>197.0</ele><time>2026-04-26T16:21:38Z</time></trkpt><trkpt lat="45.61834114195771" lon="11.381854626531371"><ele>197.0</ele><time>2026-04-26T16:21:39Z</time></trkpt><trkpt lat="45.61809529354913" lon="11.38190303685127"><ele>197.0</ele><time>2026-04-26T16:21:40Z</time></trkpt><trkpt lat="45.61785968426203" lon="11.381954933152272"><ele>193.0</ele><time>2026-04-26T16:21:41Z</time></trkpt><trkpt lat="45.61762478114476" lon="11.381998500700258"><ele>189.0</ele><time>2026-04-26T16:21:42Z</time></trkpt><trkpt lat="45.617390007702674" lon="11.382029067603828"><ele>189.0</ele><time>2026-04-26T16:21:43Z</time></trkpt><trkpt lat="45.61715200308645" lon="11.38203973425192"><ele>189.0</ele><time>2026-04-26T16:21:44Z</time></trkpt><trkpt lat="45.61690890381854" lon="11.382019156491443"><ele>187.5</ele><time>2026-04-26T16:21:45Z</time></trkpt><trkpt lat="45.61667720744611" lon="11.38196930664836"><ele>186.0</ele><time>2026-04-26T16:21:46Z</time></trkpt><trkpt lat="45.61644460910204" lon="11.381892076154573"><ele>186.0</ele><time>2026-04-26T16:21:47Z</time></trkpt><trkpt lat="45.61621855869441" lon="11.381794297911512"><ele>186.0</ele><time>2026-04-26T16:21:48Z</time></trkpt><trkpt lat="45.616005091411196" lon="11.381671571756389"><ele>182.0</ele><time>2026-04-26T16:21:49Z</time></trkpt><trkpt lat="45.61579951719058" lon="11.381521596035613"><ele>178.0</ele><time>2026-04-26T16:21:50Z</time></trkpt><trkpt lat="45.615602250666" lon="11.381359179936767"><ele>177.5</ele><time>2026-04-26T16:21:51Z</time></trkpt><trkpt lat="45.61540770031889" lon="11.381184238372354"><ele>177.0</ele><time>2026-04-26T16:21:52Z</time></trkpt><trkpt lat="45.61520920067475" lon="11.381013278218187"><ele>177.0</ele><time>2026-04-26T16:21:53Z</time></trkpt><trkpt lat="45.61500691150174" lon="11.380863215820753"><ele>177.0</ele><time>2026-04-26T16:21:54Z</time></trkpt><trkpt lat="45.614809190390915" lon="11.380732267765598"><ele>177.0</ele><time>2026-04-26T16:21:55Z</time></trkpt><trkpt lat="45.61460877886017" lon="11.38063243773688"><ele>176.33333333333334</ele><time>2026-04-26T16:21:56Z</time></trkpt><trkpt lat="45.6144048409181" lon="11.380553149554427"><ele>175.66666666666669</ele><time>2026-04-26T16:21:57Z</time></trkpt><trkpt lat="45.61419818037218" lon="11.38048818164718"><ele>175.0</ele><time>2026-04-26T16:21:58Z</time></trkpt><trkpt lat="45.61400532362023" lon="11.380450629407619"><ele>175.0</ele><time>2026-04-26T16:21:59Z</time></trkpt><trkpt lat="45.61380931085653" lon="11.380411185520881"><ele>175.0</ele><time>2026-04-26T16:22:00Z</time></trkpt><trkpt lat="45.613613299280104" lon="11.380372077265577"><ele>175.0</ele><time>2026-04-26T16:22:01Z</time></trkpt><trkpt lat="45.613414800211224" lon="11.38033132133919"><ele>174.66666666666669</ele><time>2026-04-26T16:22:02Z</time></trkpt><trkpt lat="45.61321860537359" lon="11.38029990787559"><ele>174.33333333333334</ele><time>2026-04-26T16:22:03Z</time></trkpt><trkpt lat="45.61302376381333" lon="11.380262166614585"><ele>174.0</ele><time>2026-04-26T16:22:04Z</time></trkpt><trkpt lat="45.6128287384524" lon="11.380226613492153"><ele>174.33333333333334</ele><time>2026-04-26T16:22:05Z</time></trkpt><trkpt lat="45.6126374829697" lon="11.380188909937322"><ele>174.66666666666669</ele><time>2026-04-26T16:22:06Z</time></trkpt><trkpt lat="45.61244281231834" lon="11.3801458401806"><ele>175.0</ele><time>2026-04-26T16:22:07Z</time></trkpt><trkpt lat="45.612246676390484" lon="11.38010340230446"><ele>175.0</ele><time>2026-04-26T16:22:08Z</time></trkpt><trkpt lat="45.6120444319915" lon="11.380058752249102"><ele>175.0</ele><time>2026-04-26T16:22:09Z</time></trkpt><trkpt lat="45.611837147430286" lon="11.380009355168328"><ele>175.0</ele><time>2026-04-26T16:22:10Z</time></trkpt><trkpt lat="45.61162328188815" lon="11.379951067218544"><ele>172.5</ele><time>2026-04-26T16:22:11Z</time></trkpt><trkpt lat="45.61139494047143" lon="11.379874977961185"><ele>170.0</ele><time>2026-04-26T16:22:12Z</time></trkpt><trkpt lat="45.611162299055835" lon="11.37978408456777"><ele>170.5</ele><time>2026-04-26T16:22:13Z</time></trkpt><trkpt lat="45.61092583078706" lon="11.379697998458408"><ele>171.0</ele><time>2026-04-26T16:22:14Z</time></trkpt><trkpt lat="45.61068290698245" lon="11.379600154340729"><ele>171.0</ele><time>2026-04-26T16:22:15Z</time></trkpt><trkpt lat="45.61043571531133" lon="11.379509368420038"><ele>171.0</ele><time>2026-04-26T16:22:16Z</time></trkpt><trkpt lat="45.61018162955821" lon="11.37942127640265"><ele>168.5</ele><time>2026-04-26T16:22:17Z</time></trkpt><trkpt lat="45.609918961554165" lon="11.379352226185453"><ele>166.0</ele><time>2026-04-26T16:22:18Z</time></trkpt><trkpt lat="45.60965860551959" lon="11.379308083521241"><ele>164.5</ele><time>2026-04-26T16:22:19Z</time></trkpt><trkpt lat="45.609395402369" lon="11.379278540406988"><ele>163.0</ele><time>2026-04-26T16:22:20Z</time></trkpt><trkpt lat="45.60913294769526" lon="11.379261587353438"><ele>163.0</ele><time>2026-04-26T16:22:21Z</time></trkpt><trkpt lat="45.60887895703552" lon="11.37923810278609"><ele>163.0</ele><time>2026-04-26T16:22:22Z</time></trkpt><trkpt lat="45.60862908220017" lon="11.379216603221398"><ele>162.0</ele><time>2026-04-26T16:22:23Z</time></trkpt><trkpt lat="45.60838456316944" lon="11.379219174211102"><ele>161.0</ele><time>2026-04-26T16:22:24Z</time></trkpt><trkpt lat="45.60813911363119" lon="11.379246769196987"><ele>161.0</ele><time>2026-04-26T16:22:25Z</time></trkpt><trkpt lat="45.60790172054248" lon="11.37930394739073"><ele>161.0</ele><time>2026-04-26T16:22:26Z</time></trkpt><trkpt lat="45.607673433771026" lon="11.379391308433139"><ele>162.0</ele><time>2026-04-26T16:22:26.999Z</time></trkpt><trkpt lat="45.60744913036411" lon="11.37950164391908"><ele>163.0</ele><time>2026-04-26T16:22:27.999Z</time></trkpt><trkpt lat="45.6072282727966" lon="11.379639795580605"><ele>162.0</ele><time>2026-04-26T16:22:28.999Z</time></trkpt><trkpt lat="45.607029777736116" lon="11.379794250992429"><ele>161.0</ele><time>2026-04-26T16:22:29.999Z</time></trkpt><trkpt lat="45.606905635465466" lon="11.379864442104918"><ele>160.0</ele><time>2026-04-26T16:22:30.999Z</time></trkpt><trkpt lat="45.6065694258215" lon="11.380125477451584"><ele>160.0</ele><time>2026-04-26T16:22:31.999Z</time></trkpt><trkpt lat="45.60634009083786" lon="11.380314904951614"><ele>160.0</ele><time>2026-04-26T16:22:32.999Z</time></trkpt><trkpt lat="45.60610108820598" lon="11.38050998061178"><ele>157.5</ele><time>2026-04-26T16:22:33.999Z</time></trkpt><trkpt lat="45.6058653237957" lon="11.380707922089025"><ele>155.0</ele><time>2026-04-26T16:22:34.999Z</time></trkpt><trkpt lat="45.605623219169466" lon="11.38090628807949"><ele>155.0</ele><time>2026-04-26T16:22:35.999Z</time></trkpt><trkpt lat="45.60537967918663" lon="11.381102882310138"><ele>155.0</ele><time>2026-04-26T16:22:36.999Z</time></trkpt><trkpt lat="45.60513671254217" lon="11.381297538685365"><ele>154.5</ele><time>2026-04-26T16:22:37.999Z</time></trkpt><trkpt lat="45.60488884485698" lon="11.38147810053168"><ele>154.0</ele><time>2026-04-26T16:22:38.999Z</time></trkpt><trkpt lat="45.60463308358631" lon="11.381641808772978"><ele>152.0</ele><time>2026-04-26T16:22:39.999Z</time></trkpt><trkpt lat="45.60437850703301" lon="11.38178156459217"><ele>150.0</ele><time>2026-04-26T16:22:40.999Z</time></trkpt><trkpt lat="45.60411864189834" lon="11.381891564719755"><ele>150.0</ele><time>2026-04-26T16:22:41.999Z</time></trkpt><trkpt lat="45.60385399858699" lon="11.381976755572657"><ele>150.0</ele><time>2026-04-26T16:22:42.999Z</time></trkpt><trkpt lat="45.60358458560621" lon="11.382037684711445"><ele>149.5</ele><time>2026-04-26T16:22:43.999Z</time></trkpt><trkpt lat="45.60331269035074" lon="11.382066669407834"><ele>149.0</ele><time>2026-04-26T16:22:44.999Z</time></trkpt><trkpt lat="45.60303512804679" lon="11.38207678182817"><ele>150.0</ele><time>2026-04-26T16:22:45.999Z</time></trkpt><trkpt lat="45.602753449039525" lon="11.382067810995181"><ele>151.0</ele><time>2026-04-26T16:22:46.999Z</time></trkpt><trkpt lat="45.602474308181286" lon="11.382052562009754"><ele>151.0</ele><time>2026-04-26T16:22:47.999Z</time></trkpt><trkpt lat="45.602197352040626" lon="11.382046429911124"><ele>151.0</ele><time>2026-04-26T16:22:48.999Z</time></trkpt><trkpt lat="45.601930426815024" lon="11.382043198837756"><ele>151.0</ele><time>2026-04-26T16:22:49.999Z</time></trkpt><trkpt lat="45.60166962778225" lon="11.382044662331095"><ele>151.0</ele><time>2026-04-26T16:22:50.999Z</time></trkpt><trkpt lat="45.60141689867439" lon="11.38204139374799"><ele>151.0</ele><time>2026-04-26T16:22:51.999Z</time></trkpt><trkpt lat="45.60116884233362" lon="11.38203429022092"><ele>151.0</ele><time>2026-04-26T16:22:52.999Z</time></trkpt><trkpt lat="45.600926564719025" lon="11.382015722717767"><ele>152.0</ele><time>2026-04-26T16:22:53.999Z</time></trkpt><trkpt lat="45.600697278123825" lon="11.381971262710769"><ele>153.0</ele><time>2026-04-26T16:22:54.999Z</time></trkpt><trkpt lat="45.60045807038754" lon="11.381894792368088"><ele>153.33333333333334</ele><time>2026-04-26T16:22:55.999Z</time></trkpt><trkpt lat="45.60024405578875" lon="11.381820313363084"><ele>153.66666666666669</ele><time>2026-04-26T16:22:56.999Z</time></trkpt><trkpt lat="45.60003920967748" lon="11.381727931158483"><ele>154.0</ele><time>2026-04-26T16:22:57.999Z</time></trkpt><trkpt lat="45.59985605905563" lon="11.381613654330527"><ele>154.0</ele><time>2026-04-26T16:22:58.999Z</time></trkpt><trkpt lat="45.59968270146457" lon="11.381494856459316"><ele>154.0</ele><time>2026-04-26T16:22:59.999Z</time></trkpt><trkpt lat="45.59951012039618" lon="11.381364440170135"><ele>154.0</ele><time>2026-04-26T16:23:00.999Z</time></trkpt><trkpt lat="45.59933833297582" lon="11.38122123769718"><ele>155.0</ele><time>2026-04-26T16:23:01.999Z</time></trkpt><trkpt lat="45.59917298768792" lon="11.381072273705085"><ele>156.0</ele><time>2026-04-26T16:23:02.999Z</time></trkpt><trkpt lat="45.59902140053319" lon="11.380910863627738"><ele>157.0</ele><time>2026-04-26T16:23:03.999Z</time></trkpt><trkpt lat="45.59888595714417" lon="11.38073703182435"><ele>157.0</ele><time>2026-04-26T16:23:04.999Z</time></trkpt><trkpt lat="45.598760543883735" lon="11.380563669155933"><ele>157.0</ele><time>2026-04-26T16:23:05.999Z</time></trkpt><trkpt lat="45.59864246212689" lon="11.380394981482093"><ele>157.0</ele><time>2026-04-26T16:23:06.999Z</time></trkpt><trkpt lat="45.598529922831844" lon="11.380222751418481"><ele>157.0</ele><time>2026-04-26T16:23:07.999Z</time></trkpt><trkpt lat="45.59842576237193" lon="11.380035037468431"><ele>157.0</ele><time>2026-04-26T16:23:08.999Z</time></trkpt><trkpt lat="45.59832560147807" lon="11.379834034658998"><ele>157.0</ele><time>2026-04-26T16:23:09.999Z</time></trkpt><trkpt lat="45.59822601486793" lon="11.379622512593334"><ele>157.0</ele><time>2026-04-26T16:23:10.999Z</time></trkpt><trkpt lat="45.59813570289595" lon="11.37940919825536"><ele>157.0</ele><time>2026-04-26T16:23:11.999Z</time></trkpt><trkpt lat="45.598046128411106" lon="11.379182700635921"><ele>157.0</ele><time>2026-04-26T16:23:12.999Z</time></trkpt><trkpt lat="45.59796376468391" lon="11.378974773706053"><ele>157.0</ele><time>2026-04-26T16:23:13.999Z</time></trkpt><trkpt lat="45.59791247334374" lon="11.378816023769367"><ele>157.0</ele><time>2026-04-26T16:23:14.999Z</time></trkpt><trkpt lat="45.597802844524836" lon="11.378585269654597"><ele>157.0</ele><time>2026-04-26T16:23:15.999Z</time></trkpt><trkpt lat="45.59769374057182" lon="11.378353112425192"><ele>156.66666666666669</ele><time>2026-04-26T16:23:16.999Z</time></trkpt><trkpt lat="45.59760213566653" lon="11.378149515826767"><ele>156.33333333333334</ele><time>2026-04-26T16:23:17.999Z</time></trkpt><trkpt lat="45.59752438956117" lon="11.377966501613686"><ele>156.0</ele><time>2026-04-26T16:23:18.999Z</time></trkpt><trkpt lat="45.597448045885216" lon="11.377803332218148"><ele>156.0</ele><time>2026-04-26T16:23:19.998Z</time></trkpt><trkpt lat="45.597375849822235" lon="11.377656278819298"><ele>156.0</ele><time>2026-04-26T16:23:20.998Z</time></trkpt><trkpt lat="45.59731102285923" lon="11.377513044803356"><ele>156.0</ele><time>2026-04-26T16:23:21.998Z</time></trkpt><trkpt lat="45.597263214898625" lon="11.37735322544058"><ele>156.0</ele><time>2026-04-26T16:23:22.998Z</time></trkpt><trkpt lat="45.5972352324307" lon="11.377177314103974"><ele>156.0</ele><time>2026-04-26T16:23:23.998Z</time></trkpt><trkpt lat="45.59721731376924" lon="11.376997475183869"><ele>156.0</ele><time>2026-04-26T16:23:24.998Z</time></trkpt><trkpt lat="45.59716063935475" lon="11.376842618158761"><ele>156.0</ele><time>2026-04-26T16:23:25.998Z</time></trkpt><trkpt lat="45.597057150319706" lon="11.376748621958269"><ele>156.0</ele><time>2026-04-26T16:23:26.998Z</time></trkpt><trkpt lat="45.596931540952355" lon="11.376714162196903"><ele>156.0</ele><time>2026-04-26T16:23:27.998Z</time></trkpt><trkpt lat="45.59679790434745" lon="11.376706998942222"><ele>156.0</ele><time>2026-04-26T16:23:28.998Z</time></trkpt><trkpt lat="45.596676517944246" lon="11.376634840456582"><ele>156.0</ele><time>2026-04-26T16:23:29.998Z</time></trkpt><trkpt lat="45.59656428216253" lon="11.37648710992624"><ele>156.0</ele><time>2026-04-26T16:23:30.998Z</time></trkpt><trkpt lat="45.59644555014328" lon="11.37632465461173"><ele>156.66666666666666</ele><time>2026-04-26T16:23:31.998Z</time></trkpt><trkpt lat="45.59630995159456" lon="11.376174635205247"><ele>157.33333333333331</ele><time>2026-04-26T16:23:32.998Z</time></trkpt><trkpt lat="45.59616530833205" lon="11.376035240794726"><ele>158.0</ele><time>2026-04-26T16:23:33.998Z</time></trkpt><trkpt lat="45.595997292253394" lon="11.375897703133365"><ele>158.0</ele><time>2026-04-26T16:23:34.998Z</time></trkpt><trkpt lat="45.595825013259606" lon="11.375763958056497"><ele>158.0</ele><time>2026-04-26T16:23:35.998Z</time></trkpt><trkpt lat="45.59564857506153" lon="11.375633508880709"><ele>158.0</ele><time>2026-04-26T16:23:36.998Z</time></trkpt><trkpt lat="45.59545576474683" lon="11.375510828022453"><ele>158.33333333333331</ele><time>2026-04-26T16:23:37.998Z</time></trkpt><trkpt lat="45.59526749524945" lon="11.375416084778779"><ele>158.66666666666666</ele><time>2026-04-26T16:23:38.998Z</time></trkpt><trkpt lat="45.595079266205296" lon="11.37533354762431"><ele>159.0</ele><time>2026-04-26T16:23:39.998Z</time></trkpt><trkpt lat="45.594898577162276" lon="11.375260689686923"><ele>159.0</ele><time>2026-04-26T16:23:41.001Z</time></trkpt><trkpt lat="45.594723591764364" lon="11.375199995539939"><ele>159.0</ele><time>2026-04-26T16:23:42.001Z</time></trkpt><trkpt lat="45.594555913820564" lon="11.375144123117442"><ele>159.0</ele><time>2026-04-26T16:23:43.001Z</time></trkpt><trkpt lat="45.59439758790921" lon="11.375093656343092"><ele>158.75</ele><time>2026-04-26T16:23:44.001Z</time></trkpt><trkpt lat="45.59424778661301" lon="11.375046688718909"><ele>158.5</ele><time>2026-04-26T16:23:45.001Z</time></trkpt><trkpt lat="45.5941040984231" lon="11.374997856717046"><ele>158.25</ele><time>2026-04-26T16:23:46.001Z</time></trkpt><trkpt lat="45.5939740522161" lon="11.374951367373466"><ele>158.0</ele><time>2026-04-26T16:23:47.001Z</time></trkpt><trkpt lat="45.593855200518206" lon="11.374907338798176"><ele>158.0</ele><time>2026-04-26T16:23:48.001Z</time></trkpt><trkpt lat="45.593756299974594" lon="11.374849273999095"><ele>158.0</ele><time>2026-04-26T16:23:49Z</time></trkpt><trkpt lat="45.593681058657594" lon="11.374775050483768"><ele>158.0</ele><time>2026-04-26T16:23:50Z</time></trkpt><trkpt lat="45.59362252692254" lon="11.374689705797024"><ele>158.0</ele><time>2026-04-26T16:23:51Z</time></trkpt><trkpt lat="45.593539531627535" lon="11.374593489596476"><ele>158.0</ele><time>2026-04-26T16:23:53Z</time></trkpt><trkpt lat="45.593476103796135" lon="11.374548072525906"><ele>158.0</ele><time>2026-04-26T16:24:00Z</time></trkpt><trkpt lat="45.59331439878796" lon="11.374653768175515"><ele>158.0</ele><time>2026-04-26T16:24:02Z</time></trkpt><trkpt lat="45.5932204075388" lon="11.374749976080901"><ele>158.0</ele><time>2026-04-26T16:24:03Z</time></trkpt><trkpt lat="45.59312838137204" lon="11.374853178348197"><ele>158.0</ele><time>2026-04-26T16:24:04Z</time></trkpt><trkpt lat="45.59302485091512" lon="11.374977512045248"><ele>158.0</ele><time>2026-04-26T16:24:05Z</time></trkpt><trkpt lat="45.592918720581444" lon="11.375104379355555"><ele>158.0</ele><time>2026-04-26T16:24:06Z</time></trkpt><trkpt lat="45.59280468151128" lon="11.375238688696234"><ele>158.0</ele><time>2026-04-26T16:24:07Z</time></trkpt><trkpt lat="45.59268912629731" lon="11.375366527932364"><ele>158.0</ele><time>2026-04-26T16:24:08Z</time></trkpt><trkpt lat="45.59257929674196" lon="11.375482048113383"><ele>157.25</ele><time>2026-04-26T16:24:09Z</time></trkpt><trkpt lat="45.592478629594574" lon="11.375588631629213"><ele>156.5</ele><time>2026-04-26T16:24:10Z</time></trkpt><trkpt lat="45.59238343090016" lon="11.375684967992632"><ele>155.75</ele><time>2026-04-26T16:24:11Z</time></trkpt><trkpt lat="45.59229280595352" lon="11.375773694365193"><ele>155.0</ele><time>2026-04-26T16:24:12Z</time></trkpt><trkpt lat="45.5922069213859" lon="11.375843055292693"><ele>155.0</ele><time>2026-04-26T16:24:13Z</time></trkpt><trkpt lat="45.592122905683404" lon="11.375902344678472"><ele>155.0</ele><time>2026-04-26T16:24:14Z</time></trkpt><trkpt lat="45.592040969616335" lon="11.375930314725013"><ele>155.0</ele><time>2026-04-26T16:24:15Z</time></trkpt><trkpt lat="45.591961364137994" lon="11.375916894896609"><ele>155.0</ele><time>2026-04-26T16:24:16Z</time></trkpt><trkpt lat="45.591876867828944" lon="11.375864897498495"><ele>155.0</ele><time>2026-04-26T16:24:17Z</time></trkpt><trkpt lat="45.59179156098596" lon="11.37579332649704"><ele>155.0</ele><time>2026-04-26T16:24:18Z</time></trkpt><trkpt lat="45.59169093072972" lon="11.375755184203568"><ele>154.8</ele><time>2026-04-26T16:24:19Z</time></trkpt><trkpt lat="45.59158614484578" lon="11.37576967410336"><ele>154.6</ele><time>2026-04-26T16:24:20Z</time></trkpt><trkpt lat="45.59149249648441" lon="11.375838735381691"><ele>154.4</ele><time>2026-04-26T16:24:21Z</time></trkpt><trkpt lat="45.59141662251027" lon="11.37595284457601"><ele>154.2</ele><time>2026-04-26T16:24:22Z</time></trkpt><trkpt lat="45.59137439614817" lon="11.376113229362636"><ele>154.0</ele><time>2026-04-26T16:24:23Z</time></trkpt><trkpt lat="45.591384233499525" lon="11.376273556742095"><ele>154.2</ele><time>2026-04-26T16:24:24Z</time></trkpt><trkpt lat="45.59141591449135" lon="11.376432640940118"><ele>154.4</ele><time>2026-04-26T16:24:25Z</time></trkpt><trkpt lat="45.59146923106931" lon="11.376564419021744"><ele>154.6</ele><time>2026-04-26T16:24:26Z</time></trkpt><trkpt lat="45.59150501849255" lon="11.37669031683434"><ele>154.8</ele><time>2026-04-26T16:24:27Z</time></trkpt><trkpt lat="45.59149915683517" lon="11.376829380889053"><ele>155.0</ele><time>2026-04-26T16:24:28Z</time></trkpt><trkpt lat="45.591446022969194" lon="11.376963522497444"><ele>155.0</ele><time>2026-04-26T16:24:29Z</time></trkpt><trkpt lat="45.59136155196103" lon="11.377079546138154"><ele>155.0</ele><time>2026-04-26T16:24:30Z</time></trkpt><trkpt lat="45.59125554258164" lon="11.377182752983193"><ele>155.0</ele><time>2026-04-26T16:24:31Z</time></trkpt><trkpt lat="45.59113000263689" lon="11.377255288455423"><ele>155.0</ele><time>2026-04-26T16:24:32Z</time></trkpt><trkpt lat="45.59098865562406" lon="11.377294452464973"><ele>153.66666666666666</ele><time>2026-04-26T16:24:32.999Z</time></trkpt><trkpt lat="45.590836899395" lon="11.377301663644284"><ele>152.33333333333334</ele><time>2026-04-26T16:24:33.999Z</time></trkpt><trkpt lat="45.59068019119891" lon="11.377279116462718"><ele>151.0</ele><time>2026-04-26T16:24:34.999Z</time></trkpt><trkpt lat="45.59051684226176" lon="11.37728030893097"><ele>151.0</ele><time>2026-04-26T16:24:35.999Z</time></trkpt><trkpt lat="45.59035110284933" lon="11.377339927012573"><ele>151.0</ele><time>2026-04-26T16:24:36.999Z</time></trkpt><trkpt lat="45.59019033385999" lon="11.37745386801261"><ele>151.0</ele><time>2026-04-26T16:24:37.999Z</time></trkpt><trkpt lat="45.59003975450624" lon="11.377594801973395"><ele>150.66666666666669</ele><time>2026-04-26T16:24:38.999Z</time></trkpt><trkpt lat="45.58988539627008" lon="11.377746526956594"><ele>150.33333333333334</ele><time>2026-04-26T16:24:39.999Z</time></trkpt><trkpt lat="45.58971739869987" lon="11.377895866515132"><ele>150.0</ele><time>2026-04-26T16:24:40.999Z</time></trkpt><trkpt lat="45.58953268212902" lon="11.378078451173597"><ele>150.0</ele><time>2026-04-26T16:24:41.999Z</time></trkpt><trkpt lat="45.589396656236914" lon="11.378172876563488"><ele>150.0</ele><time>2026-04-26T16:24:42.999Z</time></trkpt><trkpt lat="45.58923073658404" lon="11.378294958942618"><ele>150.0</ele><time>2026-04-26T16:24:43.999Z</time></trkpt><trkpt lat="45.58905174754851" lon="11.378407782567198"><ele>150.0</ele><time>2026-04-26T16:24:44.999Z</time></trkpt><trkpt lat="45.588871933165" lon="11.37851360108935"><ele>150.0</ele><time>2026-04-26T16:24:45.999Z</time></trkpt><trkpt lat="45.58868847648683" lon="11.378617961322036"><ele>150.0</ele><time>2026-04-26T16:24:46.999Z</time></trkpt><trkpt lat="45.5885054327066" lon="11.3787265244744"><ele>150.33333333333334</ele><time>2026-04-26T16:24:47.999Z</time></trkpt><trkpt lat="45.5883224823616" lon="11.378833335949619"><ele>150.66666666666669</ele><time>2026-04-26T16:24:48.999Z</time></trkpt><trkpt lat="45.58813804787323" lon="11.37894008400857"><ele>151.0</ele><time>2026-04-26T16:24:49.999Z</time></trkpt><trkpt lat="45.58795576249372" lon="11.37904868480876"><ele>150.33333333333334</ele><time>2026-04-26T16:24:50.999Z</time></trkpt><trkpt lat="45.58777135076402" lon="11.37915638987877"><ele>149.66666666666666</ele><time>2026-04-26T16:24:51.999Z</time></trkpt><trkpt lat="45.58758183356814" lon="11.379267995091071"><ele>149.0</ele><time>2026-04-26T16:24:52.999Z</time></trkpt><trkpt lat="45.58738419030882" lon="11.379379975884499"><ele>149.0</ele><time>2026-04-26T16:24:53.999Z</time></trkpt><trkpt lat="45.587194154578754" lon="11.3794799015922"><ele>149.0</ele><time>2026-04-26T16:24:54.999Z</time></trkpt><trkpt lat="45.58700540995177" lon="11.37958024904796"><ele>149.0</ele><time>2026-04-26T16:24:55.999Z</time></trkpt><trkpt lat="45.58680616032563" lon="11.379674005808633"><ele>148.33333333333331</ele><time>2026-04-26T16:24:56.999Z</time></trkpt><trkpt lat="45.586612212682596" lon="11.37977346875852"><ele>147.66666666666666</ele><time>2026-04-26T16:24:57.999Z</time></trkpt><trkpt lat="45.58641730102834" lon="11.379871286707392"><ele>147.0</ele><time>2026-04-26T16:24:58.999Z</time></trkpt><trkpt lat="45.58621892026701" lon="11.379968301283162"><ele>146.66666666666666</ele><time>2026-04-26T16:24:59.999Z</time></trkpt><trkpt lat="45.58602448800848" lon="11.380065608730025"><ele>146.33333333333331</ele><time>2026-04-26T16:25:00.999Z</time></trkpt><trkpt lat="45.585828704308824" lon="11.380159487625521"><ele>146.0</ele><time>2026-04-26T16:25:01.999Z</time></trkpt><trkpt lat="45.58562997829294" lon="11.380235904548893"><ele>146.0</ele><time>2026-04-26T16:25:02.999Z</time></trkpt><trkpt lat="45.5854295499071" lon="11.380306187802319"><ele>146.0</ele><time>2026-04-26T16:25:03.999Z</time></trkpt><trkpt lat="45.58522974490524" lon="11.380380136911278"><ele>146.0</ele><time>2026-04-26T16:25:04.999Z</time></trkpt><trkpt lat="45.585024949527735" lon="11.380450561793442"><ele>146.0</ele><time>2026-04-26T16:25:05.999Z</time></trkpt><trkpt lat="45.584827018337684" lon="11.380518901371678"><ele>146.0</ele><time>2026-04-26T16:25:06.999Z</time></trkpt><trkpt lat="45.58462773941509" lon="11.380587424490642"><ele>146.0</ele><time>2026-04-26T16:25:07.999Z</time></trkpt><trkpt lat="45.5844339785221" lon="11.380660810130305"><ele>146.33333333333331</ele><time>2026-04-26T16:25:08.999Z</time></trkpt><trkpt lat="45.584240947419545" lon="11.380726882634956"><ele>146.66666666666666</ele><time>2026-04-26T16:25:09.999Z</time></trkpt><trkpt lat="45.58405223100564" lon="11.38079521981104"><ele>147.0</ele><time>2026-04-26T16:25:10.999Z</time></trkpt><trkpt lat="45.58385648997554" lon="11.38086474462417"><ele>147.0</ele><time>2026-04-26T16:25:11.999Z</time></trkpt><trkpt lat="45.58366747710026" lon="11.380931871860364"><ele>147.0</ele><time>2026-04-26T16:25:12.999Z</time></trkpt><trkpt lat="45.58347562147561" lon="11.381004433426007"><ele>147.0</ele><time>2026-04-26T16:25:13.999Z</time></trkpt><trkpt lat="45.58328768178305" lon="11.381073607497235"><ele>147.0</ele><time>2026-04-26T16:25:14.999Z</time></trkpt><trkpt lat="45.58309845007292" lon="11.381141184702388"><ele>147.0</ele><time>2026-04-26T16:25:15.999Z</time></trkpt><trkpt lat="45.58290980883055" lon="11.381214437020256"><ele>147.0</ele><time>2026-04-26T16:25:16.999Z</time></trkpt><trkpt lat="45.58272910785945" lon="11.38127638448974"><ele>147.0</ele><time>2026-04-26T16:25:17.999Z</time></trkpt><trkpt lat="45.58255406745556" lon="11.38134403291724"><ele>147.0</ele><time>2026-04-26T16:25:18.999Z</time></trkpt><trkpt lat="45.58237722964942" lon="11.381408664900592"><ele>147.0</ele><time>2026-04-26T16:25:19.999Z</time></trkpt><trkpt lat="45.58219425652516" lon="11.381470556057184"><ele>146.0</ele><time>2026-04-26T16:25:20.999Z</time></trkpt><trkpt lat="45.58202791207477" lon="11.381525993165646"><ele>145.0</ele><time>2026-04-26T16:25:21.999Z</time></trkpt><trkpt lat="45.5818620292395" lon="11.381542976811621"><ele>144.0</ele><time>2026-04-26T16:25:22.998Z</time></trkpt><trkpt lat="45.581702593599225" lon="11.381529526088844"><ele>144.0</ele><time>2026-04-26T16:25:23.998Z</time></trkpt><trkpt lat="45.58154667119074" lon="11.381490564974019"><ele>144.0</ele><time>2026-04-26T16:25:24.998Z</time></trkpt><trkpt lat="45.581399912401224" lon="11.381429468215783"><ele>144.0</ele><time>2026-04-26T16:25:25.998Z</time></trkpt><trkpt lat="45.58125233433547" lon="11.381351233705635"><ele>143.66666666666666</ele><time>2026-04-26T16:25:26.998Z</time></trkpt><trkpt lat="45.581102137895" lon="11.381286379082301"><ele>143.33333333333331</ele><time>2026-04-26T16:25:27.998Z</time></trkpt><trkpt lat="45.58094901636864" lon="11.381246978969997"><ele>143.0</ele><time>2026-04-26T16:25:28.998Z</time></trkpt><trkpt lat="45.58080072383635" lon="11.381252598506803"><ele>143.0</ele><time>2026-04-26T16:25:29.998Z</time></trkpt><trkpt lat="45.580657431643935" lon="11.38128185959487"><ele>143.0</ele><time>2026-04-26T16:25:30.998Z</time></trkpt><trkpt lat="45.58052081596131" lon="11.381340970755527"><ele>143.0</ele><time>2026-04-26T16:25:31.998Z</time></trkpt><trkpt lat="45.58037938930102" lon="11.381439250925556"><ele>143.0</ele><time>2026-04-26T16:25:32.998Z</time></trkpt><trkpt lat="45.580234263252656" lon="11.38155501162606"><ele>143.0</ele><time>2026-04-26T16:25:33.998Z</time></trkpt><trkpt lat="45.58011709507722" lon="11.381676882540077"><ele>143.0</ele><time>2026-04-26T16:25:34.998Z</time></trkpt><trkpt lat="45.57995181107617" lon="11.38179957554193"><ele>143.0</ele><time>2026-04-26T16:25:35.998Z</time></trkpt><trkpt lat="45.579784624951095" lon="11.381933571648586"><ele>143.0</ele><time>2026-04-26T16:25:36.998Z</time></trkpt><trkpt lat="45.57961896086277" lon="11.382079194806872"><ele>143.0</ele><time>2026-04-26T16:25:37.998Z</time></trkpt><trkpt lat="45.57944438428535" lon="11.382214587458286"><ele>143.0</ele><time>2026-04-26T16:25:38.998Z</time></trkpt><trkpt lat="45.57925843270512" lon="11.382347448044015"><ele>143.0</ele><time>2026-04-26T16:25:39.998Z</time></trkpt><trkpt lat="45.57906308275673" lon="11.382479748736936"><ele>143.0</ele><time>2026-04-26T16:25:40.998Z</time></trkpt><trkpt lat="45.57886824305477" lon="11.382599684428003"><ele>143.0</ele><time>2026-04-26T16:25:41.998Z</time></trkpt><trkpt lat="45.57866595731191" lon="11.38270759998443"><ele>142.33333333333331</ele><time>2026-04-26T16:25:42.998Z</time></trkpt><trkpt lat="45.57846217364799" lon="11.382807451030036"><ele>141.66666666666666</ele><time>2026-04-26T16:25:43.998Z</time></trkpt><trkpt lat="45.57825931502248" lon="11.382887528002248"><ele>141.0</ele><time>2026-04-26T16:25:44.998Z</time></trkpt><trkpt lat="45.578052120951185" lon="11.382962925033928"><ele>140.33333333333334</ele><time>2026-04-26T16:25:45.998Z</time></trkpt><trkpt lat="45.577841705704465" lon="11.383027072149952"><ele>139.66666666666669</ele><time>2026-04-26T16:25:47Z</time></trkpt><trkpt lat="45.57762692573562" lon="11.383075069695767"><ele>139.0</ele><time>2026-04-26T16:25:48Z</time></trkpt><trkpt lat="45.57741343328444" lon="11.383107509762548"><ele>139.0</ele><time>2026-04-26T16:25:49Z</time></trkpt><trkpt lat="45.577198423423944" lon="11.383127679257345"><ele>139.0</ele><time>2026-04-26T16:25:50Z</time></trkpt><trkpt lat="45.576988495840624" lon="11.383145018098546"><ele>139.0</ele><time>2026-04-26T16:25:51Z</time></trkpt><trkpt lat="45.57678066891865" lon="11.383171231145164"><ele>138.33333333333334</ele><time>2026-04-26T16:25:52Z</time></trkpt><trkpt lat="45.57657879376757" lon="11.383189874994477"><ele>137.66666666666666</ele><time>2026-04-26T16:25:53Z</time></trkpt><trkpt lat="45.576378668299576" lon="11.383208420310693"><ele>137.0</ele><time>2026-04-26T16:25:54Z</time></trkpt><trkpt lat="45.57617994644772" lon="11.383225599281309"><ele>137.0</ele><time>2026-04-26T16:25:55Z</time></trkpt><trkpt lat="45.57597633584539" lon="11.383245358331099"><ele>137.0</ele><time>2026-04-26T16:25:56Z</time></trkpt><trkpt lat="45.575771689199414" lon="11.383265604631926"><ele>137.0</ele><time>2026-04-26T16:25:57Z</time></trkpt><trkpt lat="45.575563918267484" lon="11.383289573279619"><ele>137.0</ele><time>2026-04-26T16:25:58Z</time></trkpt><trkpt lat="45.57536004386323" lon="11.38330868204353"><ele>137.0</ele><time>2026-04-26T16:25:59Z</time></trkpt><trkpt lat="45.57515109751346" lon="11.383336885033538"><ele>137.0</ele><time>2026-04-26T16:26:00Z</time></trkpt><trkpt lat="45.57494198753158" lon="11.38336071994157"><ele>136.66666666666666</ele><time>2026-04-26T16:26:01Z</time></trkpt><trkpt lat="45.57473361835046" lon="11.383380209521745"><ele>136.33333333333334</ele><time>2026-04-26T16:26:02Z</time></trkpt><trkpt lat="45.57452688087364" lon="11.383403412212111"><ele>136.0</ele><time>2026-04-26T16:26:03Z</time></trkpt><trkpt lat="45.574316983608306" lon="11.38342496151497"><ele>136.0</ele><time>2026-04-26T16:26:04Z</time></trkpt><trkpt lat="45.57410834257578" lon="11.383443304182952"><ele>136.0</ele><time>2026-04-26T16:26:05Z</time></trkpt><trkpt lat="45.57390562312299" lon="11.383475113347554"><ele>136.0</ele><time>2026-04-26T16:26:06Z</time></trkpt><trkpt lat="45.573703143885425" lon="11.383507665967647"><ele>136.0</ele><time>2026-04-26T16:26:07Z</time></trkpt><trkpt lat="45.57349709771139" lon="11.38352179228064"><ele>136.0</ele><time>2026-04-26T16:26:08Z</time></trkpt><trkpt lat="45.57328459760003" lon="11.383547982235598"><ele>136.0</ele><time>2026-04-26T16:26:09Z</time></trkpt><trkpt lat="45.57308264566982" lon="11.383567158265922"><ele>136.0</ele><time>2026-04-26T16:26:10Z</time></trkpt><trkpt lat="45.57287671484799" lon="11.383587442218877"><ele>136.0</ele><time>2026-04-26T16:26:11Z</time></trkpt><trkpt lat="45.57267276317929" lon="11.383612278838054"><ele>136.0</ele><time>2026-04-26T16:26:12Z</time></trkpt><trkpt lat="45.57247311818714" lon="11.383632815937803"><ele>135.33333333333334</ele><time>2026-04-26T16:26:13Z</time></trkpt><trkpt lat="45.5722687856815" lon="11.383655794433261"><ele>134.66666666666666</ele><time>2026-04-26T16:26:14Z</time></trkpt><trkpt lat="45.572063754305006" lon="11.383674874657217"><ele>134.0</ele><time>2026-04-26T16:26:15Z</time></trkpt><trkpt lat="45.57186193167399" lon="11.383697033829195"><ele>134.0</ele><time>2026-04-26T16:26:16Z</time></trkpt><trkpt lat="45.57165532236532" lon="11.38371787915448"><ele>134.0</ele><time>2026-04-26T16:26:17Z</time></trkpt><trkpt lat="45.57145266731546" lon="11.383739848920335"><ele>134.0</ele><time>2026-04-26T16:26:18Z</time></trkpt><trkpt lat="45.57124953139719" lon="11.383766527950954"><ele>134.0</ele><time>2026-04-26T16:26:19Z</time></trkpt><trkpt lat="45.57104588743133" lon="11.383787309869552"><ele>134.0</ele><time>2026-04-26T16:26:20Z</time></trkpt><trkpt lat="45.57085167589495" lon="11.383811929252838"><ele>134.0</ele><time>2026-04-26T16:26:21Z</time></trkpt><trkpt lat="45.57066254976971" lon="11.38383620021661"><ele>133.33333333333331</ele><time>2026-04-26T16:26:22Z</time></trkpt><trkpt lat="45.57048435356172" lon="11.383852373762918"><ele>132.66666666666666</ele><time>2026-04-26T16:26:23Z</time></trkpt><trkpt lat="45.570311426609045" lon="11.383868140005626"><ele>132.0</ele><time>2026-04-26T16:26:24Z</time></trkpt><trkpt lat="45.57014045529517" lon="11.383889772575289"><ele>132.0</ele><time>2026-04-26T16:26:25Z</time></trkpt><trkpt lat="45.56998599715856" lon="11.383912127843406"><ele>132.0</ele><time>2026-04-26T16:26:26Z</time></trkpt><trkpt lat="45.56983758963438" lon="11.383931446431886"><ele>132.0</ele><time>2026-04-26T16:26:27Z</time></trkpt><trkpt lat="45.569686506892445" lon="11.38394666071374"><ele>132.0</ele><time>2026-04-26T16:26:28Z</time></trkpt><trkpt lat="45.569531229183035" lon="11.383960580621498"><ele>132.0</ele><time>2026-04-26T16:26:29Z</time></trkpt><trkpt lat="45.569377257648135" lon="11.383983021905106"><ele>132.0</ele><time>2026-04-26T16:26:30Z</time></trkpt><trkpt lat="45.56921847426835" lon="11.383996544346811"><ele>132.0</ele><time>2026-04-26T16:26:30.999Z</time></trkpt><trkpt lat="45.56906735723098" lon="11.384007757571338"><ele>132.0</ele><time>2026-04-26T16:26:31.999Z</time></trkpt><trkpt lat="45.56893224055294" lon="11.38400919500148"><ele>132.0</ele><time>2026-04-26T16:26:32.999Z</time></trkpt><trkpt lat="45.568803584630345" lon="11.384003048891406"><ele>132.0</ele><time>2026-04-26T16:26:33.999Z</time></trkpt><trkpt lat="45.56868899156545" lon="11.383998107016943"><ele>132.0</ele><time>2026-04-26T16:26:34.999Z</time></trkpt><trkpt lat="45.56858563123671" lon="11.383988988615844"><ele>132.0</ele><time>2026-04-26T16:26:35.999Z</time></trkpt><trkpt lat="45.5684952891097" lon="11.383940557093377"><ele>132.0</ele><time>2026-04-26T16:26:36.999Z</time></trkpt><trkpt lat="45.568422026753545" lon="11.383847959813858"><ele>132.0</ele><time>2026-04-26T16:26:37.999Z</time></trkpt><trkpt lat="45.568361289913575" lon="11.383734887526911"><ele>132.0</ele><time>2026-04-26T16:26:38.999Z</time></trkpt><trkpt lat="45.568283891250985" lon="11.383681440693676"><ele>132.0</ele><time>2026-04-26T16:26:39.999Z</time></trkpt><trkpt lat="45.56816814522392" lon="11.383658469319057"><ele>132.0</ele><time>2026-04-26T16:26:40.999Z</time></trkpt><trkpt lat="45.568064851628904" lon="11.383701960344435"><ele>132.0</ele><time>2026-04-26T16:26:41.999Z</time></trkpt><trkpt lat="45.567970115229805" lon="11.383802896423921"><ele>132.0</ele><time>2026-04-26T16:26:42.999Z</time></trkpt><trkpt lat="45.56789815733796" lon="11.383940761337831"><ele>131.0</ele><time>2026-04-26T16:26:43.999Z</time></trkpt><trkpt lat="45.567824147894385" lon="11.384065251426213"><ele>130.0</ele><time>2026-04-26T16:26:44.999Z</time></trkpt><trkpt lat="45.56772129653861" lon="11.384150377093205"><ele>129.0</ele><time>2026-04-26T16:26:45.999Z</time></trkpt><trkpt lat="45.56758468047275" lon="11.384186135341446"><ele>128.0</ele><time>2026-04-26T16:26:46.999Z</time></trkpt><trkpt lat="45.567443227530134" lon="11.38419972512469"><ele>128.0</ele><time>2026-04-26T16:26:47.999Z</time></trkpt><trkpt lat="45.56728874879822" lon="11.384209490581265"><ele>128.0</ele><time>2026-04-26T16:26:48.999Z</time></trkpt><trkpt lat="45.56712268988206" lon="11.384230060831111"><ele>128.0</ele><time>2026-04-26T16:26:49.999Z</time></trkpt><trkpt lat="45.56695023796946" lon="11.384251461310194"><ele>128.33333333333331</ele><time>2026-04-26T16:26:50.999Z</time></trkpt><trkpt lat="45.5667724187627" lon="11.384268035005363"><ele>128.66666666666666</ele><time>2026-04-26T16:26:51.999Z</time></trkpt><trkpt lat="45.566594920599286" lon="11.384284680345104"><ele>129.0</ele><time>2026-04-26T16:26:52.999Z</time></trkpt><trkpt lat="45.56642256365839" lon="11.384310204258604"><ele>129.0</ele><time>2026-04-26T16:26:53.999Z</time></trkpt><trkpt lat="45.56625183406029" lon="11.384334638014293"><ele>129.0</ele><time>2026-04-26T16:26:54.999Z</time></trkpt><trkpt lat="45.5660851302171" lon="11.384355075916822"><ele>129.0</ele><time>2026-04-26T16:26:55.999Z</time></trkpt><trkpt lat="45.5659267189757" lon="11.384371391719299"><ele>129.0</ele><time>2026-04-26T16:26:56.999Z</time></trkpt><trkpt lat="45.56577432693257" lon="11.384387218069032"><ele>129.0</ele><time>2026-04-26T16:26:57.999Z</time></trkpt><trkpt lat="45.565633715247735" lon="11.38440311719667"><ele>129.0</ele><time>2026-04-26T16:26:58.999Z</time></trkpt><trkpt lat="45.565503225823484" lon="11.384412194814523"><ele>129.0</ele><time>2026-04-26T16:26:59.999Z</time></trkpt><trkpt lat="45.56537636284538" lon="11.384424131842065"><ele>128.8</ele><time>2026-04-26T16:27:00.999Z</time></trkpt><trkpt lat="45.565257339977855" lon="11.38443787228741"><ele>128.60000000000002</ele><time>2026-04-26T16:27:01.999Z</time></trkpt><trkpt lat="45.56515149307501" lon="11.384446160053143"><ele>128.4</ele><time>2026-04-26T16:27:02.999Z</time></trkpt><trkpt lat="45.56505580145606" lon="11.384456060277573"><ele>128.20000000000002</ele><time>2026-04-26T16:27:03.999Z</time></trkpt><trkpt lat="45.56495701934077" lon="11.384455677014948"><ele>128.0</ele><time>2026-04-26T16:27:04.999Z</time></trkpt><trkpt lat="45.56486401007954" lon="11.384438596501727"><ele>128.0</ele><time>2026-04-26T16:27:05.999Z</time></trkpt><trkpt lat="45.5647724447001" lon="11.384380336860916"><ele>128.0</ele><time>2026-04-26T16:27:06.999Z</time></trkpt><trkpt lat="45.564677945662815" lon="11.38432352601664"><ele>128.0</ele><time>2026-04-26T16:27:07.999Z</time></trkpt><trkpt lat="45.56458712279432" lon="11.384343597296484"><ele>128.0</ele><time>2026-04-26T16:27:08.999Z</time></trkpt><trkpt lat="45.564489021246814" lon="11.384425765744604"><ele>128.0</ele><time>2026-04-26T16:27:09.999Z</time></trkpt><trkpt lat="45.56437847329584" lon="11.384518151081169"><ele>127.75</ele><time>2026-04-26T16:27:10.999Z</time></trkpt><trkpt lat="45.56424619656711" lon="11.384557434368872"><ele>127.5</ele><time>2026-04-26T16:27:11.999Z</time></trkpt><trkpt lat="45.564092250645764" lon="11.384565277248628"><ele>127.25</ele><time>2026-04-26T16:27:12.999Z</time></trkpt><trkpt lat="45.56393797454754" lon="11.38458199637178"><ele>127.0</ele><time>2026-04-26T16:27:13.999Z</time></trkpt><trkpt lat="45.563779414179216" lon="11.384592975144624"><ele>126.25</ele><time>2026-04-26T16:27:14.999Z</time></trkpt><trkpt lat="45.56362967287398" lon="11.384606555250661"><ele>125.5</ele><time>2026-04-26T16:27:15.999Z</time></trkpt><trkpt lat="45.56348485504822" lon="11.384622582152444"><ele>124.75</ele><time>2026-04-26T16:27:16.999Z</time></trkpt><trkpt lat="45.56336741775022" lon="11.384634041814428"><ele>124.0</ele><time>2026-04-26T16:27:17.999Z</time></trkpt><trkpt lat="45.563264456936864" lon="11.384645801920719"><ele>124.0</ele><time>2026-04-26T16:27:18.999Z</time></trkpt><trkpt lat="45.56316820832052" lon="11.384658445040383"><ele>124.0</ele><time>2026-04-26T16:27:19.998Z</time></trkpt><trkpt lat="45.56307397029455" lon="11.384669781019461"><ele>124.0</ele><time>2026-04-26T16:27:20.998Z</time></trkpt><trkpt lat="45.56298780276597" lon="11.384681329490153"><ele>124.0</ele><time>2026-04-26T16:27:21.998Z</time></trkpt><trkpt lat="45.56289568410309" lon="11.384690918543251"><ele>124.0</ele><time>2026-04-26T16:27:22.998Z</time></trkpt><trkpt lat="45.56280257355895" lon="11.384703383115777"><ele>123.80000000000001</ele><time>2026-04-26T16:27:23.998Z</time></trkpt><trkpt lat="45.56270680711211" lon="11.384714716582398"><ele>123.60000000000001</ele><time>2026-04-26T16:27:24.998Z</time></trkpt><trkpt lat="45.56260391325994" lon="11.384722545102088"><ele>123.4</ele><time>2026-04-26T16:27:25.998Z</time></trkpt><trkpt lat="45.56249523882326" lon="11.384727248035672"><ele>123.2</ele><time>2026-04-26T16:27:26.998Z</time></trkpt><trkpt lat="45.562378527322714" lon="11.384740765374751"><ele>123.0</ele><time>2026-04-26T16:27:27.998Z</time></trkpt><trkpt lat="45.562254071473205" lon="11.384756309502508"><ele>123.0</ele><time>2026-04-26T16:27:28.998Z</time></trkpt><trkpt lat="45.56211436256275" lon="11.384774740634263"><ele>123.0</ele><time>2026-04-26T16:27:29.998Z</time></trkpt><trkpt lat="45.561966667884114" lon="11.384791341894163"><ele>123.0</ele><time>2026-04-26T16:27:30.998Z</time></trkpt><trkpt lat="45.56180633411277" lon="11.384807927516743"><ele>123.0</ele><time>2026-04-26T16:27:31.998Z</time></trkpt><trkpt lat="45.56163469377895" lon="11.384826346784228"><ele>123.33333333333334</ele><time>2026-04-26T16:27:32.998Z</time></trkpt><trkpt lat="45.56145716560529" lon="11.384843727093518"><ele>123.66666666666667</ele><time>2026-04-26T16:27:33.998Z</time></trkpt><trkpt lat="45.561270733981694" lon="11.38486576621117"><ele>124.0</ele><time>2026-04-26T16:27:34.998Z</time></trkpt><trkpt lat="45.561075331994395" lon="11.384878897292957"><ele>123.33333333333334</ele><time>2026-04-26T16:27:35.998Z</time></trkpt><trkpt lat="45.560876473809955" lon="11.384898288111614"><ele>122.66666666666666</ele><time>2026-04-26T16:27:36.998Z</time></trkpt><trkpt lat="45.56067636877136" lon="11.384923921402601"><ele>122.0</ele><time>2026-04-26T16:27:37.998Z</time></trkpt><trkpt lat="45.560476171483714" lon="11.38495494133243"><ele>122.0</ele><time>2026-04-26T16:27:38.998Z</time></trkpt><trkpt lat="45.56028525008284" lon="11.384982914915344"><ele>122.0</ele><time>2026-04-26T16:27:39.998Z</time></trkpt><trkpt lat="45.56009583925061" lon="11.385002530157646"><ele>122.0</ele><time>2026-04-26T16:27:40.998Z</time></trkpt><trkpt lat="45.55990108235273" lon="11.385020224204796"><ele>122.0</ele><time>2026-04-26T16:27:41.998Z</time></trkpt><trkpt lat="45.559708539567126" lon="11.38504606473545"><ele>122.0</ele><time>2026-04-26T16:27:42.998Z</time></trkpt><trkpt lat="45.55951267332724" lon="11.385064356474869"><ele>122.0</ele><time>2026-04-26T16:27:43.998Z</time></trkpt><trkpt lat="45.559319764923146" lon="11.385081641449833"><ele>122.0</ele><time>2026-04-26T16:27:44.998Z</time></trkpt><trkpt lat="45.55912445081716" lon="11.38510975247973"><ele>122.0</ele><time>2026-04-26T16:27:45.998Z</time></trkpt><trkpt lat="45.55892373732963" lon="11.385123038169489"><ele>122.0</ele><time>2026-04-26T16:27:46.998Z</time></trkpt><trkpt lat="45.55872421894585" lon="11.385148948128052"><ele>122.33333333333333</ele><time>2026-04-26T16:27:47.998Z</time></trkpt><trkpt lat="45.558534924266844" lon="11.385171613638711"><ele>122.66666666666666</ele><time>2026-04-26T16:27:48.998Z</time></trkpt><trkpt lat="45.55835171263825" lon="11.385193604971994"><ele>123.0</ele><time>2026-04-26T16:27:49.998Z</time></trkpt><trkpt lat="45.558171379377235" lon="11.385210955246018"><ele>123.0</ele><time>2026-04-26T16:27:50.998Z</time></trkpt><trkpt lat="45.558005686467254" lon="11.385222958587832"><ele>123.0</ele><time>2026-04-26T16:27:51.998Z</time></trkpt><trkpt lat="45.557856501601364" lon="11.385233370131111"><ele>123.0</ele><time>2026-04-26T16:27:53Z</time></trkpt><trkpt lat="45.55771265928717" lon="11.385230772296559"><ele>123.0</ele><time>2026-04-26T16:27:54Z</time></trkpt><trkpt lat="45.557567096068766" lon="11.385212494539017"><ele>123.0</ele><time>2026-04-26T16:27:55Z</time></trkpt><trkpt lat="45.557418414490904" lon="11.385188705997399"><ele>123.0</ele><time>2026-04-26T16:27:56Z</time></trkpt><trkpt lat="45.55727918856983" lon="11.385165734709489"><ele>123.0</ele><time>2026-04-26T16:27:57Z</time></trkpt><trkpt lat="45.55714597872292" lon="11.38514878960578"><ele>123.0</ele><time>2026-04-26T16:27:58Z</time></trkpt><trkpt lat="45.55702135792497" lon="11.385109256639902"><ele>123.0</ele><time>2026-04-26T16:27:59Z</time></trkpt><trkpt lat="45.556899139403974" lon="11.385112018361307"><ele>123.0</ele><time>2026-04-26T16:28:00Z</time></trkpt><trkpt lat="45.556783251817095" lon="11.385087646057551"><ele>123.0</ele><time>2026-04-26T16:28:01Z</time></trkpt><trkpt lat="45.55667238375778" lon="11.3850670179591"><ele>123.0</ele><time>2026-04-26T16:28:02Z</time></trkpt><trkpt lat="45.55657075323836" lon="11.385046139355811"><ele>123.0</ele><time>2026-04-26T16:28:03Z</time></trkpt><trkpt lat="45.55648552215718" lon="11.385020001462065"><ele>123.0</ele><time>2026-04-26T16:28:04Z</time></trkpt><trkpt lat="45.55640749444051" lon="11.384991562157195"><ele>123.0</ele><time>2026-04-26T16:28:05Z</time></trkpt><trkpt lat="45.55633857837983" lon="11.384951371012352"><ele>123.0</ele><time>2026-04-26T16:28:06Z</time></trkpt><trkpt lat="45.556266328863856" lon="11.384900677966748"><ele>123.0</ele><time>2026-04-26T16:28:07Z</time></trkpt><trkpt lat="45.556208635487" lon="11.384837524238643"><ele>122.83333333333333</ele><time>2026-04-26T16:28:08Z</time></trkpt><trkpt lat="45.55615663028814" lon="11.384771789928887"><ele>122.66666666666666</ele><time>2026-04-26T16:28:09Z</time></trkpt><trkpt lat="45.556108082209896" lon="11.384694254970187"><ele>122.5</ele><time>2026-04-26T16:28:10Z</time></trkpt><trkpt lat="45.556019769884585" lon="11.384719113942813"><ele>122.33333333333333</ele><time>2026-04-26T16:28:11Z</time></trkpt><trkpt lat="45.55594573929586" lon="11.384744098751609"><ele>122.16666666666666</ele><time>2026-04-26T16:28:12Z</time></trkpt><trkpt lat="45.55587039001217" lon="11.384809508993431"><ele>122.0</ele><time>2026-04-26T16:28:13Z</time></trkpt><trkpt lat="45.555778090095394" lon="11.384862265168092"><ele>122.0</ele><time>2026-04-26T16:28:14Z</time></trkpt><trkpt lat="45.5556605080737" lon="11.384882957881414"><ele>122.0</ele><time>2026-04-26T16:28:15Z</time></trkpt><trkpt lat="45.555527962051805" lon="11.384880191604935"><ele>122.0</ele><time>2026-04-26T16:28:16Z</time></trkpt><trkpt lat="45.555386198132084" lon="11.384856165623498"><ele>122.0</ele><time>2026-04-26T16:28:17Z</time></trkpt><trkpt lat="45.555268019055724" lon="11.384829667283485"><ele>120.33333333333333</ele><time>2026-04-26T16:28:18Z</time></trkpt><trkpt lat="45.55510237514989" lon="11.38479122027314"><ele>118.66666666666666</ele><time>2026-04-26T16:28:19Z</time></trkpt><trkpt lat="45.55492843041765" lon="11.384759780634933"><ele>117.0</ele><time>2026-04-26T16:28:20Z</time></trkpt><trkpt lat="45.554740910516195" lon="11.38472995719258"><ele>117.0</ele><time>2026-04-26T16:28:21Z</time></trkpt><trkpt lat="45.55454542299416" lon="11.384701397283562"><ele>117.0</ele><time>2026-04-26T16:28:22Z</time></trkpt><trkpt lat="45.55434399580692" lon="11.384667491515149"><ele>117.0</ele><time>2026-04-26T16:28:23Z</time></trkpt><trkpt lat="45.554135436131375" lon="11.384633148779818"><ele>117.0</ele><time>2026-04-26T16:28:24Z</time></trkpt><trkpt lat="45.55392391478062" lon="11.384594796777428"><ele>117.0</ele><time>2026-04-26T16:28:25Z</time></trkpt><trkpt lat="45.55370554813301" lon="11.384554936681148"><ele>117.0</ele><time>2026-04-26T16:28:26Z</time></trkpt><trkpt lat="45.553482287436395" lon="11.384517801999744"><ele>116.66666666666666</ele><time>2026-04-26T16:28:27Z</time></trkpt><trkpt lat="45.55326285768439" lon="11.384478132361217"><ele>116.33333333333333</ele><time>2026-04-26T16:28:28Z</time></trkpt><trkpt lat="45.55303757334023" lon="11.384439329030245"><ele>116.0</ele><time>2026-04-26T16:28:29Z</time></trkpt><trkpt lat="45.55281095659269" lon="11.384400764016291"><ele>117.0</ele><time>2026-04-26T16:28:29.999Z</time></trkpt><trkpt lat="45.55258026863184" lon="11.38436209860257"><ele>118.0</ele><time>2026-04-26T16:28:30.999Z</time></trkpt><trkpt lat="45.55235195770731" lon="11.384320345974666"><ele>118.0</ele><time>2026-04-26T16:28:31.999Z</time></trkpt><trkpt lat="45.55212779494228" lon="11.384289815712167"><ele>118.0</ele><time>2026-04-26T16:28:32.999Z</time></trkpt><trkpt lat="45.55190877889304" lon="11.384251754019092"><ele>118.0</ele><time>2026-04-26T16:28:33.999Z</time></trkpt><trkpt lat="45.55169889128702" lon="11.384211771222056"><ele>117.33333333333334</ele><time>2026-04-26T16:28:34.999Z</time></trkpt><trkpt lat="45.55150139671295" lon="11.38417633618704"><ele>116.66666666666666</ele><time>2026-04-26T16:28:35.999Z</time></trkpt><trkpt lat="45.55131280276716" lon="11.384146184372554"><ele>116.0</ele><time>2026-04-26T16:28:36.999Z</time></trkpt><trkpt lat="45.551131733562144" lon="11.3841203273507"><ele>115.33333333333333</ele><time>2026-04-26T16:28:37.999Z</time></trkpt><trkpt lat="45.550962826146325" lon="11.384090697987858"><ele>114.66666666666666</ele><time>2026-04-26T16:28:38.999Z</time></trkpt><trkpt lat="45.55080108096882" lon="11.384063388840676"><ele>114.0</ele><time>2026-04-26T16:28:39.999Z</time></trkpt><trkpt lat="45.55066157204574" lon="11.384037543940234"><ele>114.0</ele><time>2026-04-26T16:28:40.999Z</time></trkpt><trkpt lat="45.550528303527116" lon="11.384008167520111"><ele>114.0</ele><time>2026-04-26T16:28:41.999Z</time></trkpt><trkpt lat="45.55040545196925" lon="11.383966565788738"><ele>114.0</ele><time>2026-04-26T16:28:42.999Z</time></trkpt><trkpt lat="45.550299421133296" lon="11.383897002038891"><ele>114.0</ele><time>2026-04-26T16:28:43.999Z</time></trkpt><trkpt lat="45.550209949251325" lon="11.383803559783294"><ele>113.6</ele><time>2026-04-26T16:28:44.999Z</time></trkpt><trkpt lat="45.55014080863964" lon="11.383694305007419"><ele>113.2</ele><time>2026-04-26T16:28:45.999Z</time></trkpt><trkpt lat="45.550097678221604" lon="11.383557948459408"><ele>112.79999999999998</ele><time>2026-04-26T16:28:46.999Z</time></trkpt><trkpt lat="45.55008736939458" lon="11.383402391601614"><ele>112.39999999999999</ele><time>2026-04-26T16:28:47.999Z</time></trkpt><trkpt lat="45.55006688055985" lon="11.38324858794167"><ele>112.0</ele><time>2026-04-26T16:28:48.999Z</time></trkpt><trkpt lat="45.54999279104262" lon="11.38312228243793"><ele>112.0</ele><time>2026-04-26T16:28:49.999Z</time></trkpt><trkpt lat="45.549911582723766" lon="11.383020285037105"><ele>112.0</ele><time>2026-04-26T16:28:50.999Z</time></trkpt><trkpt lat="45.54981040692606" lon="11.382952309414579"><ele>112.0</ele><time>2026-04-26T16:28:51.999Z</time></trkpt><trkpt lat="45.549688696943704" lon="11.38292744675507"><ele>112.0</ele><time>2026-04-26T16:28:52.999Z</time></trkpt><trkpt lat="45.54955917888231" lon="11.38293612895051"><ele>112.25</ele><time>2026-04-26T16:28:53.999Z</time></trkpt><trkpt lat="45.54943617573806" lon="11.3829953142842"><ele>112.5</ele><time>2026-04-26T16:28:54.999Z</time></trkpt><trkpt lat="45.54935867787368" lon="11.383126883818935"><ele>112.75</ele><time>2026-04-26T16:28:55.999Z</time></trkpt><trkpt lat="45.54917194817275" lon="11.383053475195233"><ele>113.0</ele><time>2026-04-26T16:28:56.999Z</time></trkpt><trkpt lat="45.54902683027624" lon="11.38299708603798"><ele>113.0</ele><time>2026-04-26T16:28:57.999Z</time></trkpt><trkpt lat="45.54888549479121" lon="11.382883336547147"><ele>113.0</ele><time>2026-04-26T16:28:58.999Z</time></trkpt><trkpt lat="45.54874622232273" lon="11.382754991088525"><ele>113.0</ele><time>2026-04-26T16:28:59.999Z</time></trkpt><trkpt lat="45.5486041098283" lon="11.382618951330256"><ele>112.33333333333333</ele><time>2026-04-26T16:29:00.999Z</time></trkpt><trkpt lat="45.548455759910695" lon="11.382487731191985"><ele>111.66666666666666</ele><time>2026-04-26T16:29:01.999Z</time></trkpt><trkpt lat="45.54830641135405" lon="11.382350341957853"><ele>111.0</ele><time>2026-04-26T16:29:02.999Z</time></trkpt><trkpt lat="45.548162352347546" lon="11.382221659152263"><ele>110.66666666666666</ele><time>2026-04-26T16:29:03.999Z</time></trkpt><trkpt lat="45.54801580238511" lon="11.382095649689477"><ele>110.33333333333333</ele><time>2026-04-26T16:29:04.999Z</time></trkpt><trkpt lat="45.54787466022791" lon="11.381969771371168"><ele>110.0</ele><time>2026-04-26T16:29:05.999Z</time></trkpt><trkpt lat="45.5477414484899" lon="11.381849586143405"><ele>110.5</ele><time>2026-04-26T16:29:06.999Z</time></trkpt><trkpt lat="45.54761432052731" lon="11.38173291354507"><ele>111.0</ele><time>2026-04-26T16:29:07.999Z</time></trkpt><trkpt lat="45.547490821764974" lon="11.381618548250163"><ele>111.5</ele><time>2026-04-26T16:29:08.999Z</time></trkpt><trkpt lat="45.54737014179654" lon="11.38151101457263"><ele>112.0</ele><time>2026-04-26T16:29:09.999Z</time></trkpt><trkpt lat="45.547250602119746" lon="11.381405150688554"><ele>112.0</ele><time>2026-04-26T16:29:10.999Z</time></trkpt><trkpt lat="45.5471275071819" lon="11.381295445813432"><ele>112.0</ele><time>2026-04-26T16:29:11.999Z</time></trkpt><trkpt lat="45.54700237297182" lon="11.381187585555157"><ele>112.0</ele><time>2026-04-26T16:29:12.999Z</time></trkpt><trkpt lat="45.54687611399234" lon="11.381071412540178"><ele>112.0</ele><time>2026-04-26T16:29:13.999Z</time></trkpt><trkpt lat="45.54674275580882" lon="11.38095851279279"><ele>111.66666666666667</ele><time>2026-04-26T16:29:14.999Z</time></trkpt><trkpt lat="45.54661747834837" lon="11.380840010150742"><ele>111.33333333333334</ele><time>2026-04-26T16:29:15.999Z</time></trkpt><trkpt lat="45.546461339953716" lon="11.380744975873336"><ele>111.0</ele><time>2026-04-26T16:29:16.999Z</time></trkpt><trkpt lat="45.54631058988538" lon="11.380656123560932"><ele>110.66666666666666</ele><time>2026-04-26T16:29:17.999Z</time></trkpt><trkpt lat="45.54616232546196" lon="11.38057857779484"><ele>110.33333333333333</ele><time>2026-04-26T16:29:18.999Z</time></trkpt><trkpt lat="45.546015382846015" lon="11.38049911876694"><ele>110.0</ele><time>2026-04-26T16:29:19.998Z</time></trkpt><trkpt lat="45.54586941426839" lon="11.380421334773784"><ele>110.0</ele><time>2026-04-26T16:29:20.998Z</time></trkpt><trkpt lat="45.54572561948454" lon="11.380345288195235"><ele>110.0</ele><time>2026-04-26T16:29:21.998Z</time></trkpt><trkpt lat="45.5455828863348" lon="11.380264272279408"><ele>110.0</ele><time>2026-04-26T16:29:22.998Z</time></trkpt><trkpt lat="45.54544987666929" lon="11.380200813221755"><ele>110.0</ele><time>2026-04-26T16:29:23.998Z</time></trkpt><trkpt lat="45.54535150623427" lon="11.38020923908211"><ele>109.66666666666666</ele><time>2026-04-26T16:29:24.998Z</time></trkpt><trkpt lat="45.54524724140513" lon="11.380197234257505"><ele>109.33333333333334</ele><time>2026-04-26T16:29:25.998Z</time></trkpt><trkpt lat="45.545006514422674" lon="11.379956034684358"><ele>109.0</ele><time>2026-04-26T16:29:26.998Z</time></trkpt><trkpt lat="45.54486527361835" lon="11.379875884851945"><ele>109.0</ele><time>2026-04-26T16:29:27.998Z</time></trkpt><trkpt lat="45.54473270086383" lon="11.379777862366392"><ele>109.0</ele><time>2026-04-26T16:29:28.998Z</time></trkpt><trkpt lat="45.54461257931958" lon="11.379675986896753"><ele>109.0</ele><time>2026-04-26T16:29:29.998Z</time></trkpt><trkpt lat="45.54450413260877" lon="11.37956390308598"><ele>109.0</ele><time>2026-04-26T16:29:30.998Z</time></trkpt><trkpt lat="45.54440255360488" lon="11.3794600741119"><ele>108.4</ele><time>2026-04-26T16:29:31.998Z</time></trkpt><trkpt lat="45.54430914352756" lon="11.379357556550875"><ele>107.80000000000001</ele><time>2026-04-26T16:29:32.998Z</time></trkpt><trkpt lat="45.54422416527287" lon="11.37925568839252"><ele>107.19999999999999</ele><time>2026-04-26T16:29:33.998Z</time></trkpt><trkpt lat="45.54414421795144" lon="11.379156546361072"><ele>106.6</ele><time>2026-04-26T16:29:34.998Z</time></trkpt><trkpt lat="45.544075998099096" lon="11.379059593633826"><ele>106.0</ele><time>2026-04-26T16:29:35.998Z</time></trkpt><trkpt lat="45.54401904567111" lon="11.378970078097995"><ele>106.0</ele><time>2026-04-26T16:29:36.998Z</time></trkpt><trkpt lat="45.54398368863303" lon="11.37886246024574"><ele>106.0</ele><time>2026-04-26T16:29:37.998Z</time></trkpt><trkpt lat="45.54397008424514" lon="11.378729920751898"><ele>106.0</ele><time>2026-04-26T16:29:38.998Z</time></trkpt><trkpt lat="45.54396882897578" lon="11.37858983762342"><ele>106.0</ele><time>2026-04-26T16:29:39.998Z</time></trkpt><trkpt lat="45.543943124383546" lon="11.378455283161584"><ele>106.0</ele><time>2026-04-26T16:29:40.998Z</time></trkpt><trkpt lat="45.54386779627367" lon="11.378356734464191"><ele>105.5</ele><time>2026-04-26T16:29:41.998Z</time></trkpt><trkpt lat="45.54376017432694" lon="11.378312568348798"><ele>105.0</ele><time>2026-04-26T16:29:42.998Z</time></trkpt><trkpt lat="45.54364717418392" lon="11.378271816298298"><ele>104.5</ele><time>2026-04-26T16:29:43.998Z</time></trkpt><trkpt lat="45.54354527857669" lon="11.378177500053365"><ele>104.0</ele><time>2026-04-26T16:29:44.998Z</time></trkpt><trkpt lat="45.54347090962402" lon="11.378022865463802"><ele>104.25</ele><time>2026-04-26T16:29:45.998Z</time></trkpt><trkpt lat="45.543386007153885" lon="11.377872016968162"><ele>104.5</ele><time>2026-04-26T16:29:46.998Z</time></trkpt><trkpt lat="45.543300250808706" lon="11.37771965134124"><ele>104.75</ele><time>2026-04-26T16:29:47.998Z</time></trkpt><trkpt lat="45.54321153384836" lon="11.377562455886798"><ele>105.0</ele><time>2026-04-26T16:29:48.998Z</time></trkpt><trkpt lat="45.543097294211734" lon="11.377413122556193"><ele>105.0</ele><time>2026-04-26T16:29:49.998Z</time></trkpt><trkpt lat="45.542992367993456" lon="11.377228767467836"><ele>105.0</ele><time>2026-04-26T16:29:50.998Z</time></trkpt><trkpt lat="45.54288469082966" lon="11.377043810664764"><ele>105.0</ele><time>2026-04-26T16:29:51.998Z</time></trkpt><trkpt lat="45.542764880282604" lon="11.37686365502919"><ele>104.66666666666666</ele><time>2026-04-26T16:29:52.998Z</time></trkpt><trkpt lat="45.54263113666769" lon="11.37668304600221"><ele>104.33333333333333</ele><time>2026-04-26T16:29:53.998Z</time></trkpt><trkpt lat="45.542476103406756" lon="11.376520703903443"><ele>104.0</ele><time>2026-04-26T16:29:54.998Z</time></trkpt><trkpt lat="45.542314181898156" lon="11.376360303928795"><ele>103.66666666666666</ele><time>2026-04-26T16:29:55.998Z</time></trkpt><trkpt lat="45.54216104747929" lon="11.376178214195921"><ele>103.33333333333334</ele><time>2026-04-26T16:29:56.998Z</time></trkpt><trkpt lat="45.54200380516953" lon="11.37601111542101"><ele>103.0</ele><time>2026-04-26T16:29:57.998Z</time></trkpt><trkpt lat="45.54185178405274" lon="11.375851360368815"><ele>103.0</ele><time>2026-04-26T16:29:59Z</time></trkpt><trkpt lat="45.54170697717399" lon="11.375699149160624"><ele>103.0</ele><time>2026-04-26T16:30:00Z</time></trkpt><trkpt lat="45.541563261054236" lon="11.375546911372508"><ele>103.0</ele><time>2026-04-26T16:30:01Z</time></trkpt><trkpt lat="45.54142046451619" lon="11.375395647675473"><ele>103.0</ele><time>2026-04-26T16:30:02Z</time></trkpt><trkpt lat="45.54127757828312" lon="11.375242620325746"><ele>103.0</ele><time>2026-04-26T16:30:03Z</time></trkpt><trkpt lat="45.5411373146899" lon="11.375087295455263"><ele>103.0</ele><time>2026-04-26T16:30:04Z</time></trkpt><trkpt lat="45.54099678134229" lon="11.37493167186853"><ele>102.66666666666667</ele><time>2026-04-26T16:30:05Z</time></trkpt><trkpt lat="45.5408591145936" lon="11.374776824522637"><ele>102.33333333333334</ele><time>2026-04-26T16:30:06Z</time></trkpt><trkpt lat="45.54072268293025" lon="11.37461852389471"><ele>102.0</ele><time>2026-04-26T16:30:07Z</time></trkpt><trkpt lat="45.54058415603853" lon="11.374449878278163"><ele>102.0</ele><time>2026-04-26T16:30:08Z</time></trkpt><trkpt lat="45.54044186298244" lon="11.374263411209197"><ele>102.0</ele><time>2026-04-26T16:30:09Z</time></trkpt><trkpt lat="45.54030304685652" lon="11.374064740352777"><ele>102.0</ele><time>2026-04-26T16:30:10Z</time></trkpt><trkpt lat="45.54016353171889" lon="11.373847578099005"><ele>101.66666666666666</ele><time>2026-04-26T16:30:11Z</time></trkpt><trkpt lat="45.540014816483726" lon="11.373642750432502"><ele>101.33333333333333</ele><time>2026-04-26T16:30:12Z</time></trkpt><trkpt lat="45.539881514372716" lon="11.373413139550465"><ele>101.0</ele><time>2026-04-26T16:30:13Z</time></trkpt><trkpt lat="45.53974924794581" lon="11.373175374484147"><ele>101.33333333333333</ele><time>2026-04-26T16:30:14Z</time></trkpt><trkpt lat="45.539615442548936" lon="11.372939926363504"><ele>101.66666666666666</ele><time>2026-04-26T16:30:15Z</time></trkpt><trkpt lat="45.53947998543404" lon="11.372696097558116"><ele>102.0</ele><time>2026-04-26T16:30:16Z</time></trkpt><trkpt lat="45.539346516978334" lon="11.3724480328097"><ele>101.0</ele><time>2026-04-26T16:30:17Z</time></trkpt><trkpt lat="45.539225009847975" lon="11.372204462125884"><ele>100.0</ele><time>2026-04-26T16:30:18Z</time></trkpt><trkpt lat="45.539112133166476" lon="11.37195209307092"><ele>99.0</ele><time>2026-04-26T16:30:19Z</time></trkpt><trkpt lat="45.539002098738315" lon="11.371697855529067"><ele>99.0</ele><time>2026-04-26T16:30:20Z</time></trkpt><trkpt lat="45.53889661076258" lon="11.371441721151038"><ele>99.0</ele><time>2026-04-26T16:30:21Z</time></trkpt><trkpt lat="45.538794089407304" lon="11.37118252007695"><ele>99.0</ele><time>2026-04-26T16:30:22Z</time></trkpt><trkpt lat="45.538691554975564" lon="11.370923850000796"><ele>98.66666666666666</ele><time>2026-04-26T16:30:23Z</time></trkpt><trkpt lat="45.53859212519652" lon="11.370663315210548"><ele>98.33333333333333</ele><time>2026-04-26T16:30:24Z</time></trkpt><trkpt lat="45.53849966650805" lon="11.370393091606829"><ele>98.0</ele><time>2026-04-26T16:30:25Z</time></trkpt><trkpt lat="45.538410130295745" lon="11.370121107427037"><ele>98.33333333333333</ele><time>2026-04-26T16:30:26Z</time></trkpt><trkpt lat="45.5383197722218" lon="11.3698462899431"><ele>98.66666666666666</ele><time>2026-04-26T16:30:27Z</time></trkpt><trkpt lat="45.53823067629199" lon="11.36957102209329"><ele>99.0</ele><time>2026-04-26T16:30:28Z</time></trkpt><trkpt lat="45.538145027312915" lon="11.369289316645759"><ele>99.0</ele><time>2026-04-26T16:30:29Z</time></trkpt><trkpt lat="45.538057776355096" lon="11.369006987585175"><ele>99.0</ele><time>2026-04-26T16:30:30Z</time></trkpt><trkpt lat="45.53796903189975" lon="11.368723242354212"><ele>99.0</ele><time>2026-04-26T16:30:31Z</time></trkpt><trkpt lat="45.53787711440232" lon="11.368436990026904"><ele>97.66666666666667</ele><time>2026-04-26T16:30:31.999Z</time></trkpt><trkpt lat="45.53778455511232" lon="11.368147702583284"><ele>96.33333333333334</ele><time>2026-04-26T16:30:32.999Z</time></trkpt><trkpt lat="45.537682602079705" lon="11.367858869887764"><ele>95.0</ele><time>2026-04-26T16:30:33.999Z</time></trkpt><trkpt lat="45.537571336568966" lon="11.367578626714899"><ele>95.0</ele><time>2026-04-26T16:30:34.999Z</time></trkpt><trkpt lat="45.53745467253581" lon="11.367289884594541"><ele>95.0</ele><time>2026-04-26T16:30:35.999Z</time></trkpt><trkpt lat="45.53732252934398" lon="11.367015123927864"><ele>95.0</ele><time>2026-04-26T16:30:36.999Z</time></trkpt><trkpt lat="45.53717677580032" lon="11.366739181066793"><ele>95.0</ele><time>2026-04-26T16:30:37.999Z</time></trkpt><trkpt lat="45.53701891268221" lon="11.36647655768106"><ele>96.0</ele><time>2026-04-26T16:30:38.999Z</time></trkpt><trkpt lat="45.53685503354518" lon="11.366219509544644"><ele>97.0</ele><time>2026-04-26T16:30:39.999Z</time></trkpt><trkpt lat="45.53668248266296" lon="11.365967295957448"><ele>97.0</ele><time>2026-04-26T16:30:40.999Z</time></trkpt><trkpt lat="45.53649760378637" lon="11.365727487701815"><ele>97.0</ele><time>2026-04-26T16:30:41.999Z</time></trkpt><trkpt lat="45.53630337036391" lon="11.365491884591306"><ele>96.0</ele><time>2026-04-26T16:30:42.999Z</time></trkpt><trkpt lat="45.53608405513047" lon="11.365273716593228"><ele>95.0</ele><time>2026-04-26T16:30:43.999Z</time></trkpt><trkpt lat="45.53588110640948" lon="11.365049978543349"><ele>95.0</ele><time>2026-04-26T16:30:44.999Z</time></trkpt><trkpt lat="45.535686251822305" lon="11.364821588941483"><ele>95.0</ele><time>2026-04-26T16:30:45.999Z</time></trkpt><trkpt lat="45.535499289043564" lon="11.364598803706416"><ele>94.0</ele><time>2026-04-26T16:30:46.999Z</time></trkpt><trkpt lat="45.5353166122329" lon="11.364381966675097"><ele>93.0</ele><time>2026-04-26T16:30:47.999Z</time></trkpt><trkpt lat="45.535140682693125" lon="11.364182738531301"><ele>93.0</ele><time>2026-04-26T16:30:48.999Z</time></trkpt><trkpt lat="45.534973415529116" lon="11.36399146506779"><ele>93.0</ele><time>2026-04-26T16:30:49.999Z</time></trkpt><trkpt lat="45.53482061535448" lon="11.363801690298915"><ele>93.0</ele><time>2026-04-26T16:30:50.999Z</time></trkpt><trkpt lat="45.534672754851755" lon="11.36363088188735"><ele>93.66666666666667</ele><time>2026-04-26T16:30:51.999Z</time></trkpt><trkpt lat="45.53452809727414" lon="11.363466418066995"><ele>94.33333333333334</ele><time>2026-04-26T16:30:52.999Z</time></trkpt><trkpt lat="45.53439125360075" lon="11.36330767368148"><ele>95.0</ele><time>2026-04-26T16:30:53.999Z</time></trkpt><trkpt lat="45.53426180724504" lon="11.363154536222785"><ele>94.5</ele><time>2026-04-26T16:30:54.999Z</time></trkpt><trkpt lat="45.534139433133745" lon="11.36301556140896"><ele>94.0</ele><time>2026-04-26T16:30:55.999Z</time></trkpt><trkpt lat="45.53402233934946" lon="11.362882957743492"><ele>93.5</ele><time>2026-04-26T16:30:56.999Z</time></trkpt><trkpt lat="45.53391307501437" lon="11.362752574915287"><ele>93.0</ele><time>2026-04-26T16:30:57.999Z</time></trkpt><trkpt lat="45.53380970512161" lon="11.362634934253805"><ele>93.25</ele><time>2026-04-26T16:30:58.999Z</time></trkpt><trkpt lat="45.53370317034081" lon="11.362515338189613"><ele>93.5</ele><time>2026-04-26T16:30:59.999Z</time></trkpt><trkpt lat="45.5335975031967" lon="11.362397754005315"><ele>93.75</ele><time>2026-04-26T16:31:00.999Z</time></trkpt><trkpt lat="45.53349526575376" lon="11.362282323900573"><ele>94.0</ele><time>2026-04-26T16:31:01.999Z</time></trkpt><trkpt lat="45.53340075114968" lon="11.362168405980599"><ele>94.4</ele><time>2026-04-26T16:31:02.999Z</time></trkpt><trkpt lat="45.53331808283982" lon="11.362076841647673"><ele>94.80000000000001</ele><time>2026-04-26T16:31:03.999Z</time></trkpt><trkpt lat="45.53323756127564" lon="11.361989593448973"><ele>95.19999999999999</ele><time>2026-04-26T16:31:04.999Z</time></trkpt><trkpt lat="45.533163004042564" lon="11.361901820897772"><ele>95.6</ele><time>2026-04-26T16:31:05.999Z</time></trkpt><trkpt lat="45.53309561129445" lon="11.361799305536834"><ele>96.0</ele><time>2026-04-26T16:31:06.999Z</time></trkpt><trkpt lat="45.53304604537228" lon="11.3616779798435"><ele>96.0</ele><time>2026-04-26T16:31:07.999Z</time></trkpt><trkpt lat="45.532976840539376" lon="11.361625374063332"><ele>96.0</ele><time>2026-04-26T16:31:08.999Z</time></trkpt><trkpt lat="45.53299133870516" lon="11.361407858455218"><ele>96.0</ele><time>2026-04-26T16:31:09.999Z</time></trkpt><trkpt lat="45.53291185121089" lon="11.361319837276557"><ele>96.0</ele><time>2026-04-26T16:31:10.999Z</time></trkpt><trkpt lat="45.53279364492058" lon="11.361310747144206"><ele>96.75</ele><time>2026-04-26T16:31:11.999Z</time></trkpt><trkpt lat="45.53267035339347" lon="11.36130942417264"><ele>97.5</ele><time>2026-04-26T16:31:12.999Z</time></trkpt><trkpt lat="45.5325547104615" lon="11.36125518781987"><ele>98.25</ele><time>2026-04-26T16:31:13.999Z</time></trkpt><trkpt lat="45.53245326485734" lon="11.361149443492643"><ele>99.0</ele><time>2026-04-26T16:31:14.999Z</time></trkpt><trkpt lat="45.53236454992577" lon="11.361034961959508"><ele>99.0</ele><time>2026-04-26T16:31:15.999Z</time></trkpt><trkpt lat="45.53227672994123" lon="11.360931428735176"><ele>99.0</ele><time>2026-04-26T16:31:16.999Z</time></trkpt><trkpt lat="45.53218106616191" lon="11.360830931270959"><ele>99.0</ele><time>2026-04-26T16:31:17.999Z</time></trkpt><trkpt lat="45.53207910866099" lon="11.36071905392676"><ele>99.0</ele><time>2026-04-26T16:31:18.999Z</time></trkpt><trkpt lat="45.53197572550813" lon="11.360605685816664"><ele>99.25</ele><time>2026-04-26T16:31:19.999Z</time></trkpt><trkpt lat="45.53186640388874" lon="11.360488364270976"><ele>99.5</ele><time>2026-04-26T16:31:20.999Z</time></trkpt><trkpt lat="45.531746549602325" lon="11.360359748690064"><ele>99.75</ele><time>2026-04-26T16:31:21.999Z</time></trkpt><trkpt lat="45.53162082235901" lon="11.360226202124181"><ele>100.0</ele><time>2026-04-26T16:31:22.999Z</time></trkpt><trkpt lat="45.53148976556455" lon="11.360083187147673"><ele>100.0</ele><time>2026-04-26T16:31:23.999Z</time></trkpt><trkpt lat="45.531361825692684" lon="11.359954518230527"><ele>100.0</ele><time>2026-04-26T16:31:24.998Z</time></trkpt><trkpt lat="45.53122375542522" lon="11.359826516263798"><ele>100.0</ele><time>2026-04-26T16:31:25.998Z</time></trkpt><trkpt lat="45.531080597629135" lon="11.359722497794879"><ele>101.66666666666667</ele><time>2026-04-26T16:31:26.998Z</time></trkpt><trkpt lat="45.530938268857625" lon="11.35962068642713"><ele>103.33333333333334</ele><time>2026-04-26T16:31:27.998Z</time></trkpt><trkpt lat="45.53079398314411" lon="11.359539031135782"><ele>105.0</ele><time>2026-04-26T16:31:28.998Z</time></trkpt><trkpt lat="45.5306452603146" lon="11.359468948254115"><ele>105.0</ele><time>2026-04-26T16:31:29.998Z</time></trkpt><trkpt lat="45.53049068131525" lon="11.359413388080513"><ele>105.0</ele><time>2026-04-26T16:31:30.998Z</time></trkpt><trkpt lat="45.530332627088676" lon="11.359368933089703"><ele>105.0</ele><time>2026-04-26T16:31:31.998Z</time></trkpt><trkpt lat="45.530173984301705" lon="11.359350257747801"><ele>103.33333333333334</ele><time>2026-04-26T16:31:32.998Z</time></trkpt><trkpt lat="45.5300147962551" lon="11.359321612412607"><ele>101.66666666666667</ele><time>2026-04-26T16:31:33.998Z</time></trkpt><trkpt lat="45.529854985466706" lon="11.359306141630979"><ele>100.0</ele><time>2026-04-26T16:31:34.998Z</time></trkpt><trkpt lat="45.52969349191567" lon="11.359317770707"><ele>99.66666666666667</ele><time>2026-04-26T16:31:35.998Z</time></trkpt><trkpt lat="45.52954294872724" lon="11.35935140436317"><ele>99.33333333333334</ele><time>2026-04-26T16:31:36.998Z</time></trkpt><trkpt lat="45.52938554611092" lon="11.359386236103223"><ele>99.0</ele><time>2026-04-26T16:31:37.998Z</time></trkpt><trkpt lat="45.52917668867396" lon="11.359445420146184"><ele>99.0</ele><time>2026-04-26T16:31:38.998Z</time></trkpt><trkpt lat="45.52905436739898" lon="11.359503597422252"><ele>99.0</ele><time>2026-04-26T16:31:39.998Z</time></trkpt><trkpt lat="45.52889655474688" lon="11.359568372421649"><ele>99.0</ele><time>2026-04-26T16:31:40.998Z</time></trkpt><trkpt lat="45.528724821135704" lon="11.359664467206567"><ele>98.0</ele><time>2026-04-26T16:31:41.998Z</time></trkpt><trkpt lat="45.52855521679997" lon="11.35976942575695"><ele>97.0</ele><time>2026-04-26T16:31:42.998Z</time></trkpt><trkpt lat="45.528390043157785" lon="11.359873503426885"><ele>96.0</ele><time>2026-04-26T16:31:43.998Z</time></trkpt><trkpt lat="45.52822536220514" lon="11.35996758232242"><ele>96.0</ele><time>2026-04-26T16:31:44.998Z</time></trkpt><trkpt lat="45.52806806739605" lon="11.360069742149326"><ele>96.0</ele><time>2026-04-26T16:31:45.998Z</time></trkpt><trkpt lat="45.52792174979807" lon="11.360174286471164"><ele>96.0</ele><time>2026-04-26T16:31:46.998Z</time></trkpt><trkpt lat="45.52778596018952" lon="11.360276357464564"><ele>96.0</ele><time>2026-04-26T16:31:47.998Z</time></trkpt><trkpt lat="45.52767149015791" lon="11.360390649286941"><ele>96.0</ele><time>2026-04-26T16:31:48.998Z</time></trkpt><trkpt lat="45.527565313511566" lon="11.360514606955455"><ele>96.0</ele><time>2026-04-26T16:31:49.998Z</time></trkpt><trkpt lat="45.52747565515478" lon="11.360614860448223"><ele>96.0</ele><time>2026-04-26T16:31:50.998Z</time></trkpt><trkpt lat="45.52739673541331" lon="11.360703347666332"><ele>96.0</ele><time>2026-04-26T16:31:51.998Z</time></trkpt><trkpt lat="45.52731448977945" lon="11.36078591769607"><ele>96.0</ele><time>2026-04-26T16:31:52.998Z</time></trkpt><trkpt lat="45.527229194679215" lon="11.360825215767932"><ele>96.0</ele><time>2026-04-26T16:31:53.998Z</time></trkpt><trkpt lat="45.52713365686223" lon="11.360822825440469"><ele>96.0</ele><time>2026-04-26T16:31:54.998Z</time></trkpt><trkpt lat="45.527035822107976" lon="11.360784756168025"><ele>96.0</ele><time>2026-04-26T16:31:55.998Z</time></trkpt><trkpt lat="45.52693416851208" lon="11.360777074422868"><ele>96.5</ele><time>2026-04-26T16:31:56.998Z</time></trkpt><trkpt lat="45.52682148567137" lon="11.360835624326388"><ele>97.0</ele><time>2026-04-26T16:31:57.998Z</time></trkpt><trkpt lat="45.52670244251378" lon="11.360922689152439"><ele>97.5</ele><time>2026-04-26T16:31:58.998Z</time></trkpt><trkpt lat="45.52657296101124" lon="11.361026650424742"><ele>98.0</ele><time>2026-04-26T16:31:59.998Z</time></trkpt><trkpt lat="45.52643048713115" lon="11.361127449625613"><ele>98.0</ele><time>2026-04-26T16:32:00.998Z</time></trkpt><trkpt lat="45.52628099510507" lon="11.361222763215421"><ele>98.0</ele><time>2026-04-26T16:32:01.998Z</time></trkpt><trkpt lat="45.52612435343528" lon="11.36131696083649"><ele>98.0</ele><time>2026-04-26T16:32:02.998Z</time></trkpt><trkpt lat="45.525967929210175" lon="11.361415364515064"><ele>98.0</ele><time>2026-04-26T16:32:03.998Z</time></trkpt><trkpt lat="45.5258167047437" lon="11.361514137449314"><ele>98.0</ele><time>2026-04-26T16:32:05Z</time></trkpt><trkpt lat="45.52566730081241" lon="11.361608987090662"><ele>98.0</ele><time>2026-04-26T16:32:06Z</time></trkpt><trkpt lat="45.525518417859445" lon="11.361707468598809"><ele>99.5</ele><time>2026-04-26T16:32:07Z</time></trkpt><trkpt lat="45.52538542583357" lon="11.361790898079356"><ele>101.0</ele><time>2026-04-26T16:32:08Z</time></trkpt><trkpt lat="45.52526431201006" lon="11.361863773704835"><ele>102.5</ele><time>2026-04-26T16:32:09Z</time></trkpt><trkpt lat="45.525152628981594" lon="11.361935511514087"><ele>104.0</ele><time>2026-04-26T16:32:10Z</time></trkpt><trkpt lat="45.525049350431715" lon="11.362002073276601"><ele>104.0</ele><time>2026-04-26T16:32:11Z</time></trkpt><trkpt lat="45.52495789363522" lon="11.362060541567999"><ele>104.0</ele><time>2026-04-26T16:32:12Z</time></trkpt><trkpt lat="45.52486988732601" lon="11.362115669689198"><ele>104.0</ele><time>2026-04-26T16:32:13Z</time></trkpt><trkpt lat="45.52476827162417" lon="11.362180099412587"><ele>104.0</ele><time>2026-04-26T16:32:14Z</time></trkpt><trkpt lat="45.524654818708285" lon="11.36226061923029"><ele>104.0</ele><time>2026-04-26T16:32:15Z</time></trkpt><trkpt lat="45.52453057687918" lon="11.362326899026458"><ele>102.5</ele><time>2026-04-26T16:32:16Z</time></trkpt><trkpt lat="45.52440019005779" lon="11.362408429370733"><ele>101.0</ele><time>2026-04-26T16:32:17Z</time></trkpt><trkpt lat="45.52426958269737" lon="11.362489457313767"><ele>99.5</ele><time>2026-04-26T16:32:18Z</time></trkpt><trkpt lat="45.52414495102795" lon="11.362571360370591"><ele>98.0</ele><time>2026-04-26T16:32:19Z</time></trkpt><trkpt lat="45.524030343762384" lon="11.362644127735068"><ele>98.0</ele><time>2026-04-26T16:32:20Z</time></trkpt><trkpt lat="45.52392543771017" lon="11.362709153679507"><ele>98.0</ele><time>2026-04-26T16:32:21Z</time></trkpt><trkpt lat="45.5238261625689" lon="11.362766664622796"><ele>98.0</ele><time>2026-04-26T16:32:22Z</time></trkpt><trkpt lat="45.52373449748383" lon="11.362826469542782"><ele>98.0</ele><time>2026-04-26T16:32:23Z</time></trkpt><trkpt lat="45.52363905452261" lon="11.362877759451452"><ele>98.0</ele><time>2026-04-26T16:32:24Z</time></trkpt><trkpt lat="45.52355425657545" lon="11.362938630846909"><ele>97.0</ele><time>2026-04-26T16:32:25Z</time></trkpt><trkpt lat="45.52346704364088" lon="11.362988509994075"><ele>96.0</ele><time>2026-04-26T16:32:26Z</time></trkpt><trkpt lat="45.52339706396875" lon="11.363024231746586"><ele>95.0</ele><time>2026-04-26T16:32:27Z</time></trkpt><trkpt lat="45.52331836771909" lon="11.363070903981727"><ele>94.0</ele><time>2026-04-26T16:32:28Z</time></trkpt><trkpt lat="45.523233594957084" lon="11.363133070919508"><ele>93.0</ele><time>2026-04-26T16:32:29Z</time></trkpt><trkpt lat="45.52313257838798" lon="11.363195383174869"><ele>93.0</ele><time>2026-04-26T16:32:30Z</time></trkpt><trkpt lat="45.52303127343154" lon="11.3632652351021"><ele>93.0</ele><time>2026-04-26T16:32:31Z</time></trkpt><trkpt lat="45.522924338768625" lon="11.363330797137827"><ele>93.0</ele><time>2026-04-26T16:32:32Z</time></trkpt><trkpt lat="45.52282037056973" lon="11.363399950080552"><ele>93.0</ele><time>2026-04-26T16:32:33Z</time></trkpt><trkpt lat="45.52272733247549" lon="11.363473403516542"><ele>93.5</ele><time>2026-04-26T16:32:34Z</time></trkpt><trkpt lat="45.52264123923885" lon="11.363524697860981"><ele>94.0</ele><time>2026-04-26T16:32:35Z</time></trkpt><trkpt lat="45.52256152079657" lon="11.363580652522089"><ele>94.5</ele><time>2026-04-26T16:32:36Z</time></trkpt><trkpt lat="45.52248202471486" lon="11.363632634147363"><ele>95.0</ele><time>2026-04-26T16:32:37Z</time></trkpt><trkpt lat="45.522401836573785" lon="11.363684549889328"><ele>95.5</ele><time>2026-04-26T16:32:37.999Z</time></trkpt><trkpt lat="45.52233402443612" lon="11.36372683384613"><ele>96.0</ele><time>2026-04-26T16:32:38.999Z</time></trkpt><trkpt lat="45.522268536489946" lon="11.363756479862323"><ele>96.0</ele><time>2026-04-26T16:32:39.999Z</time></trkpt><trkpt lat="45.522189519091704" lon="11.363778767122598"><ele>96.0</ele><time>2026-04-26T16:32:41.999Z</time></trkpt><trkpt lat="45.52216930070138" lon="11.363663843945059"><ele>96.0</ele><time>2026-04-26T16:32:43.999Z</time></trkpt><trkpt lat="45.52215241012029" lon="11.363570476392983"><ele>96.0</ele><time>2026-04-26T16:32:44.999Z</time></trkpt><trkpt lat="45.522149042453556" lon="11.363459538683907"><ele>96.0</ele><time>2026-04-26T16:32:45.999Z</time></trkpt><trkpt lat="45.5221239495148" lon="11.363337168897743"><ele>96.0</ele><time>2026-04-26T16:32:46.999Z</time></trkpt><trkpt lat="45.52208685461112" lon="11.363208326215569"><ele>96.19999999999999</ele><time>2026-04-26T16:32:47.999Z</time></trkpt><trkpt lat="45.52204328783051" lon="11.363078917247746"><ele>96.39999999999999</ele><time>2026-04-26T16:32:48.999Z</time></trkpt><trkpt lat="45.522002727760814" lon="11.362946555448085"><ele>96.6</ele><time>2026-04-26T16:32:49.999Z</time></trkpt><trkpt lat="45.52196505343227" lon="11.362817773584565"><ele>96.8</ele><time>2026-04-26T16:32:50.999Z</time></trkpt><trkpt lat="45.52192575922722" lon="11.362673766445496"><ele>97.0</ele><time>2026-04-26T16:32:51.999Z</time></trkpt><trkpt lat="45.52188956127843" lon="11.362550693695189"><ele>97.0</ele><time>2026-04-26T16:32:52.999Z</time></trkpt><trkpt lat="45.52185774271703" lon="11.362432786927021"><ele>97.0</ele><time>2026-04-26T16:32:53.999Z</time></trkpt><trkpt lat="45.521826940271616" lon="11.362305890078314"><ele>97.0</ele><time>2026-04-26T16:32:54.999Z</time></trkpt><trkpt lat="45.52181165681821" lon="11.36217847205218"><ele>97.0</ele><time>2026-04-26T16:32:55.999Z</time></trkpt><trkpt lat="45.52179551368275" lon="11.362051491130323"><ele>97.0</ele><time>2026-04-26T16:32:56.999Z</time></trkpt><trkpt lat="45.52177139248677" lon="11.361930421758268"><ele>98.00000000000001</ele><time>2026-04-26T16:32:57.999Z</time></trkpt><trkpt lat="45.52175567881242" lon="11.361809413238646"><ele>99.0</ele><time>2026-04-26T16:32:58.999Z</time></trkpt><trkpt lat="45.521737202420006" lon="11.361680784744847"><ele>100.0</ele><time>2026-04-26T16:32:59.999Z</time></trkpt><trkpt lat="45.52171943120633" lon="11.361558324750979"><ele>101.0</ele><time>2026-04-26T16:33:00.999Z</time></trkpt><trkpt lat="45.521718320438" lon="11.36143513512273"><ele>102.00000000000001</ele><time>2026-04-26T16:33:01.999Z</time></trkpt><trkpt lat="45.52172826013337" lon="11.361321260233481"><ele>103.0</ele><time>2026-04-26T16:33:02.999Z</time></trkpt><trkpt lat="45.52174183445862" lon="11.361212437136059"><ele>103.57142857142857</ele><time>2026-04-26T16:33:03.999Z</time></trkpt><trkpt lat="45.52174052758396" lon="11.361107437186854"><ele>104.14285714285714</ele><time>2026-04-26T16:33:04.999Z</time></trkpt><trkpt lat="45.521731840739356" lon="11.36101060824974"><ele>104.71428571428572</ele><time>2026-04-26T16:33:05.999Z</time></trkpt><trkpt lat="45.52170220778811" lon="11.360913463465428"><ele>105.28571428571428</ele><time>2026-04-26T16:33:06.999Z</time></trkpt><trkpt lat="45.52166750388625" lon="11.36082480619848"><ele>105.85714285714286</ele><time>2026-04-26T16:33:07.999Z</time></trkpt><trkpt lat="45.52162723333518" lon="11.360718289156429"><ele>106.42857142857143</ele><time>2026-04-26T16:33:08.999Z</time></trkpt><trkpt lat="45.521595577378925" lon="11.360620647707892"><ele>107.0</ele><time>2026-04-26T16:33:09.999Z</time></trkpt><trkpt lat="45.5215719657535" lon="11.360511179127501"><ele>107.83333333333333</ele><time>2026-04-26T16:33:11.999Z</time></trkpt><trkpt lat="45.521565871635154" lon="11.360419352502802"><ele>108.66666666666666</ele><time>2026-04-26T16:33:15.999Z</time></trkpt><trkpt lat="45.521684565520104" lon="11.360416454420545"><ele>109.5</ele><time>2026-04-26T16:33:16.999Z</time></trkpt><trkpt lat="45.521755450066976" lon="11.36039918902491"><ele>110.33333333333334</ele><time>2026-04-26T16:33:17.999Z</time></trkpt><trkpt lat="45.52183492203901" lon="11.360392366103765"><ele>111.16666666666667</ele><time>2026-04-26T16:33:18.999Z</time></trkpt><trkpt lat="45.52192296990062" lon="11.360397280468463"><ele>112.0</ele><time>2026-04-26T16:33:19.999Z</time></trkpt><trkpt lat="45.522004038725036" lon="11.360445552483483"><ele>113.66666666666667</ele><time>2026-04-26T16:33:20.999Z</time></trkpt><trkpt lat="45.522075398587056" lon="11.360513178264679"><ele>115.33333333333334</ele><time>2026-04-26T16:33:21.999Z</time></trkpt><trkpt lat="45.522156792490726" lon="11.360559600298176"><ele>117.0</ele><time>2026-04-26T16:33:22.999Z</time></trkpt><trkpt lat="45.52224119870118" lon="11.36058195848084"><ele>118.66666666666666</ele><time>2026-04-26T16:33:23.999Z</time></trkpt><trkpt lat="45.522329453864565" lon="11.36055266029756"><ele>120.33333333333333</ele><time>2026-04-26T16:33:24.999Z</time></trkpt><trkpt lat="45.52242030121796" lon="11.36049817548166"><ele>122.0</ele><time>2026-04-26T16:33:25.999Z</time></trkpt><trkpt lat="45.52252326935433" lon="11.360495713320502"><ele>122.39999999999999</ele><time>2026-04-26T16:33:26.999Z</time></trkpt><trkpt lat="45.52262703068671" lon="11.360463439889527"><ele>122.79999999999998</ele><time>2026-04-26T16:33:27.999Z</time></trkpt><trkpt lat="45.522722073627506" lon="11.360424269858003"><ele>123.2</ele><time>2026-04-26T16:33:28.999Z</time></trkpt><trkpt lat="45.52279333706868" lon="11.36034790652847"><ele>123.6</ele><time>2026-04-26T16:33:29.999Z</time></trkpt><trkpt lat="45.522830486750976" lon="11.3602163154111"><ele>124.0</ele><time>2026-04-26T16:33:30.999Z</time></trkpt><trkpt lat="45.522855686274646" lon="11.360055940287015"><ele>124.0</ele><time>2026-04-26T16:33:31.999Z</time></trkpt><trkpt lat="45.52288574651819" lon="11.35988395260256"><ele>124.0</ele><time>2026-04-26T16:33:32.998Z</time></trkpt><trkpt lat="45.522935545722355" lon="11.359699826341007"><ele>124.0</ele><time>2026-04-26T16:33:33.998Z</time></trkpt><trkpt lat="45.522982925109616" lon="11.359493678325615"><ele>124.0</ele><time>2026-04-26T16:33:34.998Z</time></trkpt><trkpt lat="45.52304150189986" lon="11.359281191608884"><ele>130.33333333333334</ele><time>2026-04-26T16:33:35.998Z</time></trkpt><trkpt lat="45.52310092774927" lon="11.359057604068806"><ele>136.66666666666666</ele><time>2026-04-26T16:33:36.998Z</time></trkpt><trkpt lat="45.523156177263424" lon="11.35881704767461"><ele>143.0</ele><time>2026-04-26T16:33:37.998Z</time></trkpt><trkpt lat="45.52322188250354" lon="11.358613893003906"><ele>145.0</ele><time>2026-04-26T16:33:38.998Z</time></trkpt><trkpt lat="45.52330256018371" lon="11.358409954148465"><ele>147.0</ele><time>2026-04-26T16:33:39.998Z</time></trkpt><trkpt lat="45.523391325255666" lon="11.358209618186738"><ele>149.0</ele><time>2026-04-26T16:33:40.998Z</time></trkpt><trkpt lat="45.52347303092069" lon="11.358021229455664"><ele>150.25</ele><time>2026-04-26T16:33:41.998Z</time></trkpt><trkpt lat="45.52355051547597" lon="11.35783621066153"><ele>151.5</ele><time>2026-04-26T16:33:42.998Z</time></trkpt><trkpt lat="45.52362280600154" lon="11.357663861651902"><ele>152.75</ele><time>2026-04-26T16:33:43.998Z</time></trkpt><trkpt lat="45.52368703477398" lon="11.35746143807972"><ele>154.0</ele><time>2026-04-26T16:33:44.998Z</time></trkpt><trkpt lat="45.52371718893373" lon="11.357260205578779"><ele>155.0</ele><time>2026-04-26T16:33:45.998Z</time></trkpt><trkpt lat="45.52372929264451" lon="11.357069376403626"><ele>156.0</ele><time>2026-04-26T16:33:46.998Z</time></trkpt><trkpt lat="45.52373164216137" lon="11.356878795689827"><ele>157.0</ele><time>2026-04-26T16:33:47.998Z</time></trkpt><trkpt lat="45.52371543408369" lon="11.356696353211946"><ele>158.0</ele><time>2026-04-26T16:33:48.998Z</time></trkpt><trkpt lat="45.523680806191635" lon="11.356514300115624"><ele>158.5</ele><time>2026-04-26T16:33:49.998Z</time></trkpt><trkpt lat="45.52363892519069" lon="11.356323744789092"><ele>159.0</ele><time>2026-04-26T16:33:50.998Z</time></trkpt><trkpt lat="45.52359891603826" lon="11.356130367771216"><ele>159.5</ele><time>2026-04-26T16:33:51.998Z</time></trkpt><trkpt lat="45.523553575712214" lon="11.355941371623784"><ele>160.0</ele><time>2026-04-26T16:33:52.998Z</time></trkpt><trkpt lat="45.52351007511783" lon="11.355748476938691"><ele>160.0</ele><time>2026-04-26T16:33:53.998Z</time></trkpt><trkpt lat="45.52346643808484" lon="11.355545107755919"><ele>160.0</ele><time>2026-04-26T16:33:54.998Z</time></trkpt><trkpt lat="45.52342576727127" lon="11.355337079510816"><ele>160.0</ele><time>2026-04-26T16:33:55.998Z</time></trkpt><trkpt lat="45.523386525727105" lon="11.355134767524094"><ele>160.0</ele><time>2026-04-26T16:33:56.998Z</time></trkpt><trkpt lat="45.52335809696949" lon="11.354927079394052"><ele>162.0</ele><time>2026-04-26T16:33:57.998Z</time></trkpt><trkpt lat="45.52331583571353" lon="11.354726429865496"><ele>164.0</ele><time>2026-04-26T16:33:58.998Z</time></trkpt><trkpt lat="45.52326813702571" lon="11.354524697390907"><ele>166.0</ele><time>2026-04-26T16:33:59.998Z</time></trkpt><trkpt lat="45.52323467683714" lon="11.354329312345993"><ele>168.0</ele><time>2026-04-26T16:34:00.998Z</time></trkpt><trkpt lat="45.523204819880085" lon="11.35415688193028"><ele>169.33333333333334</ele><time>2026-04-26T16:34:01.998Z</time></trkpt><trkpt lat="45.52318867068458" lon="11.354006211507018"><ele>170.66666666666666</ele><time>2026-04-26T16:34:02.998Z</time></trkpt><trkpt lat="45.523178670999584" lon="11.35387280044243"><ele>172.0</ele><time>2026-04-26T16:34:03.998Z</time></trkpt><trkpt lat="45.523179561112265" lon="11.353770606365586"><ele>173.33333333333331</ele><time>2026-04-26T16:34:04.998Z</time></trkpt><trkpt lat="45.52317649186274" lon="11.353672588018842"><ele>174.66666666666666</ele><time>2026-04-26T16:34:05.998Z</time></trkpt><trkpt lat="45.52317355239579" lon="11.353558703960523"><ele>176.0</ele><time>2026-04-26T16:34:06.998Z</time></trkpt><trkpt lat="45.52316760248348" lon="11.35342590227912"><ele>176.25</ele><time>2026-04-26T16:34:07.998Z</time></trkpt><trkpt lat="45.52316191534696" lon="11.353265806910603"><ele>176.5</ele><time>2026-04-26T16:34:08.998Z</time></trkpt><trkpt lat="45.52313939572368" lon="11.353095380387135"><ele>176.75</ele><time>2026-04-26T16:34:09.998Z</time></trkpt><trkpt lat="45.52309620996444" lon="11.352914919126794"><ele>177.0</ele><time>2026-04-26T16:34:11Z</time></trkpt><trkpt lat="45.523029303184515" lon="11.352736461766474"><ele>176.25</ele><time>2026-04-26T16:34:12Z</time></trkpt><trkpt lat="45.522963424767006" lon="11.352555554606615"><ele>175.5</ele><time>2026-04-26T16:34:13Z</time></trkpt><trkpt lat="45.52290354135006" lon="11.352386094334678"><ele>174.75</ele><time>2026-04-26T16:34:14Z</time></trkpt><trkpt lat="45.52285646451777" lon="11.352212930423196"><ele>174.0</ele><time>2026-04-26T16:34:15Z</time></trkpt><trkpt lat="45.52283107401462" lon="11.352026655924153"><ele>176.0</ele><time>2026-04-26T16:34:16Z</time></trkpt><trkpt lat="45.522840169069234" lon="11.351839381613152"><ele>178.0</ele><time>2026-04-26T16:34:17Z</time></trkpt><trkpt lat="45.52284372430624" lon="11.351628349038142"><ele>180.0</ele><time>2026-04-26T16:34:18Z</time></trkpt><trkpt lat="45.522877301408045" lon="11.35141734732286"><ele>182.0</ele><time>2026-04-26T16:34:19Z</time></trkpt><trkpt lat="45.52290191796984" lon="11.351209343785499"><ele>182.25</ele><time>2026-04-26T16:34:20Z</time></trkpt><trkpt lat="45.52290762717079" lon="11.350996013996491"><ele>182.5</ele><time>2026-04-26T16:34:21Z</time></trkpt><trkpt lat="45.52290009976815" lon="11.350790474708578"><ele>182.75</ele><time>2026-04-26T16:34:22Z</time></trkpt><trkpt lat="45.52288403562688" lon="11.350609314648361"><ele>183.0</ele><time>2026-04-26T16:34:23Z</time></trkpt><trkpt lat="45.52286755951245" lon="11.350442263730086"><ele>183.66666666666666</ele><time>2026-04-26T16:34:24Z</time></trkpt><trkpt lat="45.52285923103127" lon="11.350298921058126"><ele>184.33333333333334</ele><time>2026-04-26T16:34:25Z</time></trkpt><trkpt lat="45.52286085290305" lon="11.350169258422468"><ele>185.0</ele><time>2026-04-26T16:34:26Z</time></trkpt><trkpt lat="45.52286740093773" lon="11.3500512734089"><ele>185.66666666666669</ele><time>2026-04-26T16:34:27Z</time></trkpt><trkpt lat="45.52288745275116" lon="11.349962327446265"><ele>186.33333333333334</ele><time>2026-04-26T16:34:28Z</time></trkpt><trkpt lat="45.522923908602664" lon="11.349833460105907"><ele>187.0</ele><time>2026-04-26T16:34:30Z</time></trkpt><trkpt lat="45.522820508877615" lon="11.349755684475504"><ele>186.16666666666669</ele><time>2026-04-26T16:34:31Z</time></trkpt><trkpt lat="45.522752387205074" lon="11.34969503247907"><ele>185.33333333333334</ele><time>2026-04-26T16:34:32Z</time></trkpt><trkpt lat="45.52269242152315" lon="11.34960635263364"><ele>184.5</ele><time>2026-04-26T16:34:33Z</time></trkpt><trkpt lat="45.52263503427863" lon="11.34951920704878"><ele>183.66666666666666</ele><time>2026-04-26T16:34:34Z</time></trkpt><trkpt lat="45.52257578317014" lon="11.349435314204843"><ele>182.83333333333331</ele><time>2026-04-26T16:34:35Z</time></trkpt><trkpt lat="45.52251518630455" lon="11.349355760498055"><ele>182.0</ele><time>2026-04-26T16:34:36Z</time></trkpt><trkpt lat="45.522461551643445" lon="11.349272747135558"><ele>182.0</ele><time>2026-04-26T16:34:37Z</time></trkpt><trkpt lat="45.52241748560999" lon="11.349192922985797"><ele>182.0</ele><time>2026-04-26T16:34:38Z</time></trkpt><trkpt lat="45.52237700657461" lon="11.349119377164191"><ele>182.0</ele><time>2026-04-26T16:34:39Z</time></trkpt><trkpt lat="45.522305128101685" lon="11.349027486903744"><ele>182.0</ele><time>2026-04-26T16:34:41Z</time></trkpt><trkpt lat="45.52216733618277" lon="11.34910187653261"><ele>182.0</ele><time>2026-04-26T16:34:44Z</time></trkpt><trkpt lat="45.52210592127043" lon="11.349124602085924"><ele>182.0</ele><time>2026-04-26T16:34:45Z</time></trkpt><trkpt lat="45.52201579930093" lon="11.349187469365319"><ele>173.0</ele><time>2026-04-26T16:34:47Z</time></trkpt></trkseg></trk></gpx>